<?xml version="1.0" encoding="UTF-8" standalone="no" ?>
<gpx xmlns="http://www.topografix.com/GPX/1/1" xmlns:xsi="http://www.w3.org/2001/XMLSchema-instance" xsi:schemaLocation="http://www.topografix.com/GPX/1/1 http://www.topografix.com/GPX/1/1/gpx.xsd" version="1.1" creator="VisuGPX - https://www.visugpx.com">
  <metadata>
    <name>Rando VTT au départ de Gunsbach</name>
    <desc><![CDATA[Rando VTT autour des lacs au départ de Gunsbach :
- Lac des truites
- Lac vert
- Lac noir]]></desc>
  </metadata>
  <trk>
    <name><![CDATA[Tracé 3 sept. 2014 10:03:34]]></name>
    <trkseg>
      <trkpt lat="48.04655" lon="7.17573">
        <ele>332</ele>
        <time>2014-09-03T08:03:34Z</time>
      </trkpt>
      <trkpt lat="48.04649" lon="7.17564">
        <ele>330</ele>
        <time>2014-09-03T08:04:50Z</time>
      </trkpt>
      <trkpt lat="48.04643" lon="7.17558">
        <ele>329</ele>
        <time>2014-09-03T08:04:55Z</time>
      </trkpt>
      <trkpt lat="48.04641" lon="7.17536">
        <ele>330</ele>
        <time>2014-09-03T08:04:59Z</time>
      </trkpt>
      <trkpt lat="48.04648" lon="7.1752">
        <ele>331</ele>
        <time>2014-09-03T08:05:03Z</time>
      </trkpt>
      <trkpt lat="48.04651" lon="7.17503">
        <ele>333</ele>
        <time>2014-09-03T08:05:07Z</time>
      </trkpt>
      <trkpt lat="48.04657" lon="7.17486">
        <ele>337</ele>
        <time>2014-09-03T08:05:12Z</time>
      </trkpt>
      <trkpt lat="48.04666" lon="7.17473">
        <ele>338</ele>
        <time>2014-09-03T08:05:17Z</time>
      </trkpt>
      <trkpt lat="48.04677" lon="7.17467">
        <ele>341</ele>
        <time>2014-09-03T08:05:21Z</time>
      </trkpt>
      <trkpt lat="48.04684" lon="7.17477">
        <ele>343</ele>
        <time>2014-09-03T08:05:24Z</time>
      </trkpt>
      <trkpt lat="48.04679" lon="7.17486">
        <ele>341</ele>
        <time>2014-09-03T08:05:28Z</time>
      </trkpt>
      <trkpt lat="48.04672" lon="7.17501">
        <ele>342</ele>
        <time>2014-09-03T08:05:33Z</time>
      </trkpt>
      <trkpt lat="48.0468" lon="7.17529">
        <ele>340</ele>
        <time>2014-09-03T08:05:38Z</time>
      </trkpt>
      <trkpt lat="48.04692" lon="7.17538">
        <ele>343</ele>
        <time>2014-09-03T08:05:42Z</time>
      </trkpt>
      <trkpt lat="48.04701" lon="7.17537">
        <ele>344</ele>
        <time>2014-09-03T08:05:48Z</time>
      </trkpt>
      <trkpt lat="48.0471" lon="7.17539">
        <ele>346</ele>
        <time>2014-09-03T08:05:53Z</time>
      </trkpt>
      <trkpt lat="48.04722" lon="7.17541">
        <ele>346</ele>
        <time>2014-09-03T08:05:57Z</time>
      </trkpt>
      <trkpt lat="48.0474" lon="7.17539">
        <ele>347</ele>
        <time>2014-09-03T08:06:01Z</time>
      </trkpt>
      <trkpt lat="48.04755" lon="7.1753">
        <ele>349</ele>
        <time>2014-09-03T08:06:05Z</time>
      </trkpt>
      <trkpt lat="48.04767" lon="7.17522">
        <ele>349</ele>
        <time>2014-09-03T08:06:08Z</time>
      </trkpt>
      <trkpt lat="48.04782" lon="7.17519">
        <ele>348</ele>
        <time>2014-09-03T08:06:11Z</time>
      </trkpt>
      <trkpt lat="48.04803" lon="7.17522">
        <ele>349</ele>
        <time>2014-09-03T08:06:15Z</time>
      </trkpt>
      <trkpt lat="48.04823" lon="7.17519">
        <ele>352</ele>
        <time>2014-09-03T08:06:20Z</time>
      </trkpt>
      <trkpt lat="48.04835" lon="7.1751">
        <ele>357</ele>
        <time>2014-09-03T08:06:25Z</time>
      </trkpt>
      <trkpt lat="48.04842" lon="7.17505">
        <ele>355</ele>
        <time>2014-09-03T08:06:29Z</time>
      </trkpt>
      <trkpt lat="48.04854" lon="7.17502">
        <ele>356</ele>
        <time>2014-09-03T08:06:33Z</time>
      </trkpt>
      <trkpt lat="48.04859" lon="7.175">
        <ele>354</ele>
        <time>2014-09-03T08:06:36Z</time>
      </trkpt>
      <trkpt lat="48.04869" lon="7.17496">
        <ele>355</ele>
        <time>2014-09-03T08:06:41Z</time>
      </trkpt>
      <trkpt lat="48.0488" lon="7.1749">
        <ele>356</ele>
        <time>2014-09-03T08:06:45Z</time>
      </trkpt>
      <trkpt lat="48.04885" lon="7.17486">
        <ele>356</ele>
        <time>2014-09-03T08:06:47Z</time>
      </trkpt>
      <trkpt lat="48.04897" lon="7.17475">
        <ele>361</ele>
        <time>2014-09-03T08:06:51Z</time>
      </trkpt>
      <trkpt lat="48.04907" lon="7.17471">
        <ele>362</ele>
        <time>2014-09-03T08:06:56Z</time>
      </trkpt>
      <trkpt lat="48.04918" lon="7.1747">
        <ele>363</ele>
        <time>2014-09-03T08:07:00Z</time>
      </trkpt>
      <trkpt lat="48.04925" lon="7.17477">
        <ele>363</ele>
        <time>2014-09-03T08:07:03Z</time>
      </trkpt>
      <trkpt lat="48.04933" lon="7.17498">
        <ele>362</ele>
        <time>2014-09-03T08:07:08Z</time>
      </trkpt>
      <trkpt lat="48.04942" lon="7.17501">
        <ele>365</ele>
        <time>2014-09-03T08:07:11Z</time>
      </trkpt>
      <trkpt lat="48.04952" lon="7.17492">
        <ele>366</ele>
        <time>2014-09-03T08:07:16Z</time>
      </trkpt>
      <trkpt lat="48.04964" lon="7.17483">
        <ele>367</ele>
        <time>2014-09-03T08:07:21Z</time>
      </trkpt>
      <trkpt lat="48.04976" lon="7.17474">
        <ele>369</ele>
        <time>2014-09-03T08:07:26Z</time>
      </trkpt>
      <trkpt lat="48.04981" lon="7.17461">
        <ele>372</ele>
        <time>2014-09-03T08:07:29Z</time>
      </trkpt>
      <trkpt lat="48.04985" lon="7.1745">
        <ele>374</ele>
        <time>2014-09-03T08:07:33Z</time>
      </trkpt>
      <trkpt lat="48.04988" lon="7.17439">
        <ele>375</ele>
        <time>2014-09-03T08:07:36Z</time>
      </trkpt>
      <trkpt lat="48.04993" lon="7.17427">
        <ele>376</ele>
        <time>2014-09-03T08:07:39Z</time>
      </trkpt>
      <trkpt lat="48.05007" lon="7.17412">
        <ele>376</ele>
        <time>2014-09-03T08:07:44Z</time>
      </trkpt>
      <trkpt lat="48.05019" lon="7.17401">
        <ele>376</ele>
        <time>2014-09-03T08:07:48Z</time>
      </trkpt>
      <trkpt lat="48.05032" lon="7.17386">
        <ele>376</ele>
        <time>2014-09-03T08:07:53Z</time>
      </trkpt>
      <trkpt lat="48.05038" lon="7.17375">
        <ele>378</ele>
        <time>2014-09-03T08:07:55Z</time>
      </trkpt>
      <trkpt lat="48.05043" lon="7.17358">
        <ele>380</ele>
        <time>2014-09-03T08:08:00Z</time>
      </trkpt>
      <trkpt lat="48.05049" lon="7.17337">
        <ele>381</ele>
        <time>2014-09-03T08:08:05Z</time>
      </trkpt>
      <trkpt lat="48.05054" lon="7.1732">
        <ele>383</ele>
        <time>2014-09-03T08:08:10Z</time>
      </trkpt>
      <trkpt lat="48.0506" lon="7.17307">
        <ele>384</ele>
        <time>2014-09-03T08:08:14Z</time>
      </trkpt>
      <trkpt lat="48.05067" lon="7.173">
        <ele>385</ele>
        <time>2014-09-03T08:08:17Z</time>
      </trkpt>
      <trkpt lat="48.05079" lon="7.17286">
        <ele>386</ele>
        <time>2014-09-03T08:08:22Z</time>
      </trkpt>
      <trkpt lat="48.05083" lon="7.1728">
        <ele>386</ele>
        <time>2014-09-03T08:08:24Z</time>
      </trkpt>
      <trkpt lat="48.05089" lon="7.1727">
        <ele>387</ele>
        <time>2014-09-03T08:08:27Z</time>
      </trkpt>
      <trkpt lat="48.05097" lon="7.17253">
        <ele>390</ele>
        <time>2014-09-03T08:08:32Z</time>
      </trkpt>
      <trkpt lat="48.05104" lon="7.17234">
        <ele>392</ele>
        <time>2014-09-03T08:08:36Z</time>
      </trkpt>
      <trkpt lat="48.05109" lon="7.17223">
        <ele>394</ele>
        <time>2014-09-03T08:08:40Z</time>
      </trkpt>
      <trkpt lat="48.05117" lon="7.17208">
        <ele>395</ele>
        <time>2014-09-03T08:08:44Z</time>
      </trkpt>
      <trkpt lat="48.05126" lon="7.17195">
        <ele>396</ele>
        <time>2014-09-03T08:08:48Z</time>
      </trkpt>
      <trkpt lat="48.05131" lon="7.17189">
        <ele>397</ele>
        <time>2014-09-03T08:08:50Z</time>
      </trkpt>
      <trkpt lat="48.05137" lon="7.17185">
        <ele>396</ele>
        <time>2014-09-03T08:08:53Z</time>
      </trkpt>
      <trkpt lat="48.05155" lon="7.17177">
        <ele>396</ele>
        <time>2014-09-03T08:08:58Z</time>
      </trkpt>
      <trkpt lat="48.05163" lon="7.17171">
        <ele>396</ele>
        <time>2014-09-03T08:09:01Z</time>
      </trkpt>
      <trkpt lat="48.05178" lon="7.17165">
        <ele>397</ele>
        <time>2014-09-03T08:09:06Z</time>
      </trkpt>
      <trkpt lat="48.0519" lon="7.17162">
        <ele>396</ele>
        <time>2014-09-03T08:09:10Z</time>
      </trkpt>
      <trkpt lat="48.052" lon="7.17158">
        <ele>398</ele>
        <time>2014-09-03T08:09:14Z</time>
      </trkpt>
      <trkpt lat="48.05208" lon="7.17157">
        <ele>398</ele>
        <time>2014-09-03T08:09:18Z</time>
      </trkpt>
      <trkpt lat="48.05218" lon="7.17154">
        <ele>399</ele>
        <time>2014-09-03T08:09:21Z</time>
      </trkpt>
      <trkpt lat="48.05227" lon="7.17153">
        <ele>397</ele>
        <time>2014-09-03T08:09:25Z</time>
      </trkpt>
      <trkpt lat="48.05235" lon="7.17152">
        <ele>400</ele>
        <time>2014-09-03T08:09:29Z</time>
      </trkpt>
      <trkpt lat="48.05246" lon="7.17145">
        <ele>398</ele>
        <time>2014-09-03T08:09:34Z</time>
      </trkpt>
      <trkpt lat="48.05252" lon="7.17143">
        <ele>396</ele>
        <time>2014-09-03T08:09:37Z</time>
      </trkpt>
      <trkpt lat="48.05262" lon="7.1714">
        <ele>396</ele>
        <time>2014-09-03T08:09:41Z</time>
      </trkpt>
      <trkpt lat="48.05272" lon="7.17132">
        <ele>400</ele>
        <time>2014-09-03T08:09:45Z</time>
      </trkpt>
      <trkpt lat="48.0528" lon="7.1712">
        <ele>400</ele>
        <time>2014-09-03T08:09:49Z</time>
      </trkpt>
      <trkpt lat="48.05289" lon="7.17113">
        <ele>403</ele>
        <time>2014-09-03T08:09:54Z</time>
      </trkpt>
      <trkpt lat="48.05301" lon="7.17104">
        <ele>404</ele>
        <time>2014-09-03T08:09:57Z</time>
      </trkpt>
      <trkpt lat="48.05312" lon="7.17099">
        <ele>403</ele>
        <time>2014-09-03T08:10:01Z</time>
      </trkpt>
      <trkpt lat="48.05322" lon="7.17094">
        <ele>401</ele>
        <time>2014-09-03T08:10:06Z</time>
      </trkpt>
      <trkpt lat="48.05335" lon="7.1709">
        <ele>400</ele>
        <time>2014-09-03T08:10:11Z</time>
      </trkpt>
      <trkpt lat="48.05347" lon="7.17092">
        <ele>401</ele>
        <time>2014-09-03T08:10:16Z</time>
      </trkpt>
      <trkpt lat="48.05354" lon="7.17093">
        <ele>400</ele>
        <time>2014-09-03T08:10:20Z</time>
      </trkpt>
      <trkpt lat="48.05362" lon="7.17092">
        <ele>399</ele>
        <time>2014-09-03T08:10:25Z</time>
      </trkpt>
      <trkpt lat="48.05369" lon="7.17092">
        <ele>399</ele>
        <time>2014-09-03T08:10:30Z</time>
      </trkpt>
      <trkpt lat="48.05378" lon="7.17093">
        <ele>398</ele>
        <time>2014-09-03T08:10:36Z</time>
      </trkpt>
      <trkpt lat="48.05386" lon="7.17093">
        <ele>399</ele>
        <time>2014-09-03T08:10:40Z</time>
      </trkpt>
      <trkpt lat="48.05393" lon="7.17091">
        <ele>404</ele>
        <time>2014-09-03T08:10:47Z</time>
      </trkpt>
      <trkpt lat="48.05401" lon="7.1709">
        <ele>408</ele>
        <time>2014-09-03T08:10:52Z</time>
      </trkpt>
      <trkpt lat="48.05408" lon="7.17092">
        <ele>409</ele>
        <time>2014-09-03T08:10:56Z</time>
      </trkpt>
      <trkpt lat="48.05418" lon="7.17093">
        <ele>409</ele>
        <time>2014-09-03T08:11:01Z</time>
      </trkpt>
      <trkpt lat="48.05426" lon="7.17093">
        <ele>405</ele>
        <time>2014-09-03T08:11:06Z</time>
      </trkpt>
      <trkpt lat="48.05434" lon="7.17094">
        <ele>403</ele>
        <time>2014-09-03T08:11:11Z</time>
      </trkpt>
      <trkpt lat="48.05442" lon="7.17099">
        <ele>401</ele>
        <time>2014-09-03T08:11:15Z</time>
      </trkpt>
      <trkpt lat="48.0545" lon="7.17102">
        <ele>404</ele>
        <time>2014-09-03T08:11:21Z</time>
      </trkpt>
      <trkpt lat="48.05457" lon="7.17104">
        <ele>406</ele>
        <time>2014-09-03T08:11:26Z</time>
      </trkpt>
      <trkpt lat="48.05465" lon="7.17103">
        <ele>411</ele>
        <time>2014-09-03T08:11:31Z</time>
      </trkpt>
      <trkpt lat="48.05472" lon="7.17103">
        <ele>413</ele>
        <time>2014-09-03T08:11:36Z</time>
      </trkpt>
      <trkpt lat="48.05481" lon="7.17107">
        <ele>413</ele>
        <time>2014-09-03T08:11:40Z</time>
      </trkpt>
      <trkpt lat="48.05488" lon="7.17113">
        <ele>408</ele>
        <time>2014-09-03T08:11:45Z</time>
      </trkpt>
      <trkpt lat="48.05497" lon="7.17117">
        <ele>412</ele>
        <time>2014-09-03T08:11:50Z</time>
      </trkpt>
      <trkpt lat="48.05503" lon="7.17118">
        <ele>412</ele>
        <time>2014-09-03T08:11:56Z</time>
      </trkpt>
      <trkpt lat="48.0551" lon="7.1712">
        <ele>409</ele>
        <time>2014-09-03T08:12:02Z</time>
      </trkpt>
      <trkpt lat="48.05516" lon="7.17118">
        <ele>410</ele>
        <time>2014-09-03T08:12:05Z</time>
      </trkpt>
      <trkpt lat="48.05524" lon="7.17117">
        <ele>416</ele>
        <time>2014-09-03T08:12:11Z</time>
      </trkpt>
      <trkpt lat="48.05531" lon="7.17116">
        <ele>420</ele>
        <time>2014-09-03T08:12:15Z</time>
      </trkpt>
      <trkpt lat="48.05538" lon="7.17113">
        <ele>424</ele>
        <time>2014-09-03T08:12:20Z</time>
      </trkpt>
      <trkpt lat="48.05546" lon="7.17111">
        <ele>426</ele>
        <time>2014-09-03T08:12:26Z</time>
      </trkpt>
      <trkpt lat="48.05555" lon="7.17108">
        <ele>426</ele>
        <time>2014-09-03T08:12:31Z</time>
      </trkpt>
      <trkpt lat="48.05561" lon="7.17106">
        <ele>425</ele>
        <time>2014-09-03T08:12:34Z</time>
      </trkpt>
      <trkpt lat="48.05571" lon="7.17102">
        <ele>424</ele>
        <time>2014-09-03T08:12:38Z</time>
      </trkpt>
      <trkpt lat="48.05578" lon="7.17096">
        <ele>429</ele>
        <time>2014-09-03T08:12:44Z</time>
      </trkpt>
      <trkpt lat="48.05586" lon="7.17092">
        <ele>431</ele>
        <time>2014-09-03T08:12:48Z</time>
      </trkpt>
      <trkpt lat="48.05593" lon="7.17087">
        <ele>437</ele>
        <time>2014-09-03T08:12:54Z</time>
      </trkpt>
      <trkpt lat="48.05601" lon="7.17082">
        <ele>436</ele>
        <time>2014-09-03T08:12:58Z</time>
      </trkpt>
      <trkpt lat="48.05609" lon="7.17079">
        <ele>437</ele>
        <time>2014-09-03T08:13:02Z</time>
      </trkpt>
      <trkpt lat="48.05618" lon="7.17076">
        <ele>435</ele>
        <time>2014-09-03T08:13:07Z</time>
      </trkpt>
      <trkpt lat="48.05627" lon="7.17078">
        <ele>433</ele>
        <time>2014-09-03T08:13:13Z</time>
      </trkpt>
      <trkpt lat="48.05633" lon="7.17086">
        <ele>430</ele>
        <time>2014-09-03T08:13:17Z</time>
      </trkpt>
      <trkpt lat="48.05638" lon="7.17092">
        <ele>430</ele>
        <time>2014-09-03T08:13:21Z</time>
      </trkpt>
      <trkpt lat="48.05645" lon="7.171">
        <ele>428</ele>
        <time>2014-09-03T08:13:26Z</time>
      </trkpt>
      <trkpt lat="48.05652" lon="7.17106">
        <ele>426</ele>
        <time>2014-09-03T08:13:31Z</time>
      </trkpt>
      <trkpt lat="48.0566" lon="7.17113">
        <ele>430</ele>
        <time>2014-09-03T08:13:39Z</time>
      </trkpt>
      <trkpt lat="48.05668" lon="7.17118">
        <ele>427</ele>
        <time>2014-09-03T08:13:45Z</time>
      </trkpt>
      <trkpt lat="48.05674" lon="7.17125">
        <ele>425</ele>
        <time>2014-09-03T08:13:49Z</time>
      </trkpt>
      <trkpt lat="48.05681" lon="7.17132">
        <ele>427</ele>
        <time>2014-09-03T08:13:54Z</time>
      </trkpt>
      <trkpt lat="48.05686" lon="7.17138">
        <ele>430</ele>
        <time>2014-09-03T08:13:59Z</time>
      </trkpt>
      <trkpt lat="48.05693" lon="7.17147">
        <ele>431</ele>
        <time>2014-09-03T08:14:03Z</time>
      </trkpt>
      <trkpt lat="48.057" lon="7.17151">
        <ele>438</ele>
        <time>2014-09-03T08:14:09Z</time>
      </trkpt>
      <trkpt lat="48.05707" lon="7.17159">
        <ele>440</ele>
        <time>2014-09-03T08:14:16Z</time>
      </trkpt>
      <trkpt lat="48.05713" lon="7.17167">
        <ele>448</ele>
        <time>2014-09-03T08:14:22Z</time>
      </trkpt>
      <trkpt lat="48.05719" lon="7.17177">
        <ele>443</ele>
        <time>2014-09-03T08:14:27Z</time>
      </trkpt>
      <trkpt lat="48.05725" lon="7.17186">
        <ele>443</ele>
        <time>2014-09-03T08:14:32Z</time>
      </trkpt>
      <trkpt lat="48.05732" lon="7.17193">
        <ele>444</ele>
        <time>2014-09-03T08:14:37Z</time>
      </trkpt>
      <trkpt lat="48.05741" lon="7.17191">
        <ele>450</ele>
        <time>2014-09-03T08:14:43Z</time>
      </trkpt>
      <trkpt lat="48.05748" lon="7.17197">
        <ele>443</ele>
        <time>2014-09-03T08:14:50Z</time>
      </trkpt>
      <trkpt lat="48.05754" lon="7.172">
        <ele>445</ele>
        <time>2014-09-03T08:14:53Z</time>
      </trkpt>
      <trkpt lat="48.05762" lon="7.17199">
        <ele>447</ele>
        <time>2014-09-03T08:14:59Z</time>
      </trkpt>
      <trkpt lat="48.05772" lon="7.17206">
        <ele>446</ele>
        <time>2014-09-03T08:15:02Z</time>
      </trkpt>
      <trkpt lat="48.0578" lon="7.1721">
        <ele>448</ele>
        <time>2014-09-03T08:15:07Z</time>
      </trkpt>
      <trkpt lat="48.05788" lon="7.17214">
        <ele>451</ele>
        <time>2014-09-03T08:15:13Z</time>
      </trkpt>
      <trkpt lat="48.05794" lon="7.17222">
        <ele>452</ele>
        <time>2014-09-03T08:15:21Z</time>
      </trkpt>
      <trkpt lat="48.05801" lon="7.17227">
        <ele>450</ele>
        <time>2014-09-03T08:15:26Z</time>
      </trkpt>
      <trkpt lat="48.05807" lon="7.17232">
        <ele>450</ele>
        <time>2014-09-03T08:15:30Z</time>
      </trkpt>
      <trkpt lat="48.05816" lon="7.17238">
        <ele>452</ele>
        <time>2014-09-03T08:15:34Z</time>
      </trkpt>
      <trkpt lat="48.05822" lon="7.17241">
        <ele>454</ele>
        <time>2014-09-03T08:15:38Z</time>
      </trkpt>
      <trkpt lat="48.0583" lon="7.17247">
        <ele>456</ele>
        <time>2014-09-03T08:15:43Z</time>
      </trkpt>
      <trkpt lat="48.05835" lon="7.17253">
        <ele>455</ele>
        <time>2014-09-03T08:15:47Z</time>
      </trkpt>
      <trkpt lat="48.05842" lon="7.17262">
        <ele>454</ele>
        <time>2014-09-03T08:15:52Z</time>
      </trkpt>
      <trkpt lat="48.05847" lon="7.17268">
        <ele>453</ele>
        <time>2014-09-03T08:15:56Z</time>
      </trkpt>
      <trkpt lat="48.05854" lon="7.17272">
        <ele>456</ele>
        <time>2014-09-03T08:16:00Z</time>
      </trkpt>
      <trkpt lat="48.05861" lon="7.17277">
        <ele>456</ele>
        <time>2014-09-03T08:16:05Z</time>
      </trkpt>
      <trkpt lat="48.05869" lon="7.17283">
        <ele>456</ele>
        <time>2014-09-03T08:16:10Z</time>
      </trkpt>
      <trkpt lat="48.05875" lon="7.17291">
        <ele>459</ele>
        <time>2014-09-03T08:16:15Z</time>
      </trkpt>
      <trkpt lat="48.05882" lon="7.17297">
        <ele>457</ele>
        <time>2014-09-03T08:16:19Z</time>
      </trkpt>
      <trkpt lat="48.05886" lon="7.17303">
        <ele>458</ele>
        <time>2014-09-03T08:16:23Z</time>
      </trkpt>
      <trkpt lat="48.05892" lon="7.17316">
        <ele>456</ele>
        <time>2014-09-03T08:16:28Z</time>
      </trkpt>
      <trkpt lat="48.05897" lon="7.17325">
        <ele>457</ele>
        <time>2014-09-03T08:16:33Z</time>
      </trkpt>
      <trkpt lat="48.05901" lon="7.17333">
        <ele>458</ele>
        <time>2014-09-03T08:16:38Z</time>
      </trkpt>
      <trkpt lat="48.05906" lon="7.17344">
        <ele>465</ele>
        <time>2014-09-03T08:16:43Z</time>
      </trkpt>
      <trkpt lat="48.05911" lon="7.17355">
        <ele>467</ele>
        <time>2014-09-03T08:16:49Z</time>
      </trkpt>
      <trkpt lat="48.05916" lon="7.1736">
        <ele>467</ele>
        <time>2014-09-03T08:16:53Z</time>
      </trkpt>
      <trkpt lat="48.05922" lon="7.17369">
        <ele>466</ele>
        <time>2014-09-03T08:16:59Z</time>
      </trkpt>
      <trkpt lat="48.05928" lon="7.17378">
        <ele>464</ele>
        <time>2014-09-03T08:17:04Z</time>
      </trkpt>
      <trkpt lat="48.05932" lon="7.17383">
        <ele>464</ele>
        <time>2014-09-03T08:17:07Z</time>
      </trkpt>
      <trkpt lat="48.05941" lon="7.17387">
        <ele>465</ele>
        <time>2014-09-03T08:17:12Z</time>
      </trkpt>
      <trkpt lat="48.05949" lon="7.17387">
        <ele>475</ele>
        <time>2014-09-03T08:17:17Z</time>
      </trkpt>
      <trkpt lat="48.05957" lon="7.17391">
        <ele>471</ele>
        <time>2014-09-03T08:17:22Z</time>
      </trkpt>
      <trkpt lat="48.05963" lon="7.17395">
        <ele>473</ele>
        <time>2014-09-03T08:17:28Z</time>
      </trkpt>
      <trkpt lat="48.05972" lon="7.17396">
        <ele>476</ele>
        <time>2014-09-03T08:17:33Z</time>
      </trkpt>
      <trkpt lat="48.05979" lon="7.17397">
        <ele>478</ele>
        <time>2014-09-03T08:17:38Z</time>
      </trkpt>
      <trkpt lat="48.05986" lon="7.17399">
        <ele>480</ele>
        <time>2014-09-03T08:17:44Z</time>
      </trkpt>
      <trkpt lat="48.05993" lon="7.17398">
        <ele>481</ele>
        <time>2014-09-03T08:17:47Z</time>
      </trkpt>
      <trkpt lat="48.06" lon="7.17402">
        <ele>480</ele>
        <time>2014-09-03T08:17:52Z</time>
      </trkpt>
      <trkpt lat="48.06006" lon="7.17404">
        <ele>482</ele>
        <time>2014-09-03T08:17:56Z</time>
      </trkpt>
      <trkpt lat="48.06014" lon="7.17403">
        <ele>486</ele>
        <time>2014-09-03T08:18:01Z</time>
      </trkpt>
      <trkpt lat="48.06023" lon="7.17407">
        <ele>489</ele>
        <time>2014-09-03T08:18:07Z</time>
      </trkpt>
      <trkpt lat="48.06031" lon="7.17406">
        <ele>489</ele>
        <time>2014-09-03T08:18:12Z</time>
      </trkpt>
      <trkpt lat="48.06038" lon="7.17407">
        <ele>492</ele>
        <time>2014-09-03T08:18:16Z</time>
      </trkpt>
      <trkpt lat="48.06045" lon="7.17408">
        <ele>491</ele>
        <time>2014-09-03T08:18:21Z</time>
      </trkpt>
      <trkpt lat="48.06054" lon="7.1741">
        <ele>494</ele>
        <time>2014-09-03T08:18:26Z</time>
      </trkpt>
      <trkpt lat="48.06062" lon="7.17412">
        <ele>492</ele>
        <time>2014-09-03T08:18:31Z</time>
      </trkpt>
      <trkpt lat="48.0607" lon="7.17413">
        <ele>493</ele>
        <time>2014-09-03T08:18:38Z</time>
      </trkpt>
      <trkpt lat="48.06078" lon="7.17416">
        <ele>496</ele>
        <time>2014-09-03T08:18:43Z</time>
      </trkpt>
      <trkpt lat="48.06084" lon="7.17416">
        <ele>500</ele>
        <time>2014-09-03T08:18:47Z</time>
      </trkpt>
      <trkpt lat="48.06091" lon="7.1742">
        <ele>497</ele>
        <time>2014-09-03T08:18:53Z</time>
      </trkpt>
      <trkpt lat="48.06099" lon="7.17423">
        <ele>502</ele>
        <time>2014-09-03T08:18:59Z</time>
      </trkpt>
      <trkpt lat="48.06106" lon="7.17427">
        <ele>505</ele>
        <time>2014-09-03T08:19:02Z</time>
      </trkpt>
      <trkpt lat="48.06113" lon="7.17423">
        <ele>511</ele>
        <time>2014-09-03T08:19:08Z</time>
      </trkpt>
      <trkpt lat="48.06121" lon="7.17426">
        <ele>512</ele>
        <time>2014-09-03T08:19:13Z</time>
      </trkpt>
      <trkpt lat="48.06129" lon="7.1743">
        <ele>508</ele>
        <time>2014-09-03T08:19:19Z</time>
      </trkpt>
      <trkpt lat="48.06136" lon="7.17434">
        <ele>510</ele>
        <time>2014-09-03T08:19:23Z</time>
      </trkpt>
      <trkpt lat="48.06145" lon="7.17433">
        <ele>516</ele>
        <time>2014-09-03T08:19:29Z</time>
      </trkpt>
      <trkpt lat="48.06152" lon="7.17434">
        <ele>516</ele>
        <time>2014-09-03T08:19:36Z</time>
      </trkpt>
      <trkpt lat="48.06157" lon="7.17435">
        <ele>516</ele>
        <time>2014-09-03T08:19:41Z</time>
      </trkpt>
      <trkpt lat="48.06166" lon="7.17432">
        <ele>519</ele>
        <time>2014-09-03T08:19:47Z</time>
      </trkpt>
      <trkpt lat="48.06174" lon="7.17428">
        <ele>523</ele>
        <time>2014-09-03T08:19:54Z</time>
      </trkpt>
      <trkpt lat="48.06182" lon="7.17425">
        <ele>523</ele>
        <time>2014-09-03T08:20:00Z</time>
      </trkpt>
      <trkpt lat="48.0619" lon="7.17422">
        <ele>528</ele>
        <time>2014-09-03T08:20:04Z</time>
      </trkpt>
      <trkpt lat="48.062" lon="7.17419">
        <ele>523</ele>
        <time>2014-09-03T08:20:09Z</time>
      </trkpt>
      <trkpt lat="48.0621" lon="7.17416">
        <ele>521</ele>
        <time>2014-09-03T08:20:13Z</time>
      </trkpt>
      <trkpt lat="48.06216" lon="7.17406">
        <ele>526</ele>
        <time>2014-09-03T08:22:19Z</time>
      </trkpt>
      <trkpt lat="48.06214" lon="7.17395">
        <ele>522</ele>
        <time>2014-09-03T08:22:25Z</time>
      </trkpt>
      <trkpt lat="48.06208" lon="7.17386">
        <ele>523</ele>
        <time>2014-09-03T08:22:31Z</time>
      </trkpt>
      <trkpt lat="48.06201" lon="7.1738">
        <ele>519</ele>
        <time>2014-09-03T08:22:36Z</time>
      </trkpt>
      <trkpt lat="48.06194" lon="7.17372">
        <ele>514</ele>
        <time>2014-09-03T08:22:42Z</time>
      </trkpt>
      <trkpt lat="48.06186" lon="7.17374">
        <ele>525</ele>
        <time>2014-09-03T08:22:48Z</time>
      </trkpt>
      <trkpt lat="48.0618" lon="7.1738">
        <ele>529</ele>
        <time>2014-09-03T08:22:53Z</time>
      </trkpt>
      <trkpt lat="48.0617" lon="7.1738">
        <ele>534</ele>
        <time>2014-09-03T08:22:56Z</time>
      </trkpt>
      <trkpt lat="48.06161" lon="7.17376">
        <ele>533</ele>
        <time>2014-09-03T08:23:01Z</time>
      </trkpt>
      <trkpt lat="48.06155" lon="7.1737">
        <ele>531</ele>
        <time>2014-09-03T08:23:05Z</time>
      </trkpt>
      <trkpt lat="48.0615" lon="7.17359">
        <ele>529</ele>
        <time>2014-09-03T08:23:10Z</time>
      </trkpt>
      <trkpt lat="48.06146" lon="7.17349">
        <ele>525</ele>
        <time>2014-09-03T08:23:14Z</time>
      </trkpt>
      <trkpt lat="48.06139" lon="7.17339">
        <ele>527</ele>
        <time>2014-09-03T08:23:18Z</time>
      </trkpt>
      <trkpt lat="48.06134" lon="7.17331">
        <ele>526</ele>
        <time>2014-09-03T08:23:23Z</time>
      </trkpt>
      <trkpt lat="48.06129" lon="7.1732">
        <ele>527</ele>
        <time>2014-09-03T08:23:27Z</time>
      </trkpt>
      <trkpt lat="48.06125" lon="7.1731">
        <ele>526</ele>
        <time>2014-09-03T08:23:32Z</time>
      </trkpt>
      <trkpt lat="48.06121" lon="7.173">
        <ele>526</ele>
        <time>2014-09-03T08:23:36Z</time>
      </trkpt>
      <trkpt lat="48.06115" lon="7.17292">
        <ele>529</ele>
        <time>2014-09-03T08:23:40Z</time>
      </trkpt>
      <trkpt lat="48.06109" lon="7.17283">
        <ele>528</ele>
        <time>2014-09-03T08:23:44Z</time>
      </trkpt>
      <trkpt lat="48.06099" lon="7.17278">
        <ele>530</ele>
        <time>2014-09-03T08:23:49Z</time>
      </trkpt>
      <trkpt lat="48.06094" lon="7.17276">
        <ele>529</ele>
        <time>2014-09-03T08:23:52Z</time>
      </trkpt>
      <trkpt lat="48.06087" lon="7.17272">
        <ele>527</ele>
        <time>2014-09-03T08:23:56Z</time>
      </trkpt>
      <trkpt lat="48.06079" lon="7.17267">
        <ele>528</ele>
        <time>2014-09-03T08:24:02Z</time>
      </trkpt>
      <trkpt lat="48.0607" lon="7.17263">
        <ele>531</ele>
        <time>2014-09-03T08:24:06Z</time>
      </trkpt>
      <trkpt lat="48.06065" lon="7.17259">
        <ele>530</ele>
        <time>2014-09-03T08:24:09Z</time>
      </trkpt>
      <trkpt lat="48.06058" lon="7.17248">
        <ele>532</ele>
        <time>2014-09-03T08:24:14Z</time>
      </trkpt>
      <trkpt lat="48.06052" lon="7.17237">
        <ele>539</ele>
        <time>2014-09-03T08:24:19Z</time>
      </trkpt>
      <trkpt lat="48.06047" lon="7.17225">
        <ele>542</ele>
        <time>2014-09-03T08:24:23Z</time>
      </trkpt>
      <trkpt lat="48.06044" lon="7.17218">
        <ele>542</ele>
        <time>2014-09-03T08:24:28Z</time>
      </trkpt>
      <trkpt lat="48.06042" lon="7.17207">
        <ele>541</ele>
        <time>2014-09-03T08:24:31Z</time>
      </trkpt>
      <trkpt lat="48.06038" lon="7.17196">
        <ele>542</ele>
        <time>2014-09-03T08:24:36Z</time>
      </trkpt>
      <trkpt lat="48.06035" lon="7.17183">
        <ele>543</ele>
        <time>2014-09-03T08:24:40Z</time>
      </trkpt>
      <trkpt lat="48.06033" lon="7.17172">
        <ele>545</ele>
        <time>2014-09-03T08:24:44Z</time>
      </trkpt>
      <trkpt lat="48.0603" lon="7.17159">
        <ele>548</ele>
        <time>2014-09-03T08:24:48Z</time>
      </trkpt>
      <trkpt lat="48.06027" lon="7.17152">
        <ele>548</ele>
        <time>2014-09-03T08:24:52Z</time>
      </trkpt>
      <trkpt lat="48.06024" lon="7.17138">
        <ele>551</ele>
        <time>2014-09-03T08:24:56Z</time>
      </trkpt>
      <trkpt lat="48.06022" lon="7.17127">
        <ele>552</ele>
        <time>2014-09-03T08:25:02Z</time>
      </trkpt>
      <trkpt lat="48.06017" lon="7.17111">
        <ele>551</ele>
        <time>2014-09-03T08:25:07Z</time>
      </trkpt>
      <trkpt lat="48.06013" lon="7.17099">
        <ele>550</ele>
        <time>2014-09-03T08:25:11Z</time>
      </trkpt>
      <trkpt lat="48.06011" lon="7.17087">
        <ele>552</ele>
        <time>2014-09-03T08:25:15Z</time>
      </trkpt>
      <trkpt lat="48.0601" lon="7.17078">
        <ele>552</ele>
        <time>2014-09-03T08:25:18Z</time>
      </trkpt>
      <trkpt lat="48.06007" lon="7.17068">
        <ele>555</ele>
        <time>2014-09-03T08:25:22Z</time>
      </trkpt>
      <trkpt lat="48.06004" lon="7.17055">
        <ele>557</ele>
        <time>2014-09-03T08:25:27Z</time>
      </trkpt>
      <trkpt lat="48.06002" lon="7.17042">
        <ele>558</ele>
        <time>2014-09-03T08:25:32Z</time>
      </trkpt>
      <trkpt lat="48.06001" lon="7.17037">
        <ele>558</ele>
        <time>2014-09-03T08:25:34Z</time>
      </trkpt>
      <trkpt lat="48.06001" lon="7.17025">
        <ele>558</ele>
        <time>2014-09-03T08:25:37Z</time>
      </trkpt>
      <trkpt lat="48.06001" lon="7.17013">
        <ele>559</ele>
        <time>2014-09-03T08:25:42Z</time>
      </trkpt>
      <trkpt lat="48.05999" lon="7.17002">
        <ele>560</ele>
        <time>2014-09-03T08:25:46Z</time>
      </trkpt>
      <trkpt lat="48.05998" lon="7.16987">
        <ele>561</ele>
        <time>2014-09-03T08:25:50Z</time>
      </trkpt>
      <trkpt lat="48.05996" lon="7.16973">
        <ele>562</ele>
        <time>2014-09-03T08:25:55Z</time>
      </trkpt>
      <trkpt lat="48.05995" lon="7.16964">
        <ele>562</ele>
        <time>2014-09-03T08:25:59Z</time>
      </trkpt>
      <trkpt lat="48.05995" lon="7.16949">
        <ele>562</ele>
        <time>2014-09-03T08:26:03Z</time>
      </trkpt>
      <trkpt lat="48.05995" lon="7.16937">
        <ele>564</ele>
        <time>2014-09-03T08:26:08Z</time>
      </trkpt>
      <trkpt lat="48.05994" lon="7.16925">
        <ele>564</ele>
        <time>2014-09-03T08:26:12Z</time>
      </trkpt>
      <trkpt lat="48.05996" lon="7.16916">
        <ele>566</ele>
        <time>2014-09-03T08:26:15Z</time>
      </trkpt>
      <trkpt lat="48.05996" lon="7.16904">
        <ele>566</ele>
        <time>2014-09-03T08:26:19Z</time>
      </trkpt>
      <trkpt lat="48.05994" lon="7.1689">
        <ele>566</ele>
        <time>2014-09-03T08:26:24Z</time>
      </trkpt>
      <trkpt lat="48.05994" lon="7.1688">
        <ele>569</ele>
        <time>2014-09-03T08:26:29Z</time>
      </trkpt>
      <trkpt lat="48.05997" lon="7.16868">
        <ele>570</ele>
        <time>2014-09-03T08:26:33Z</time>
      </trkpt>
      <trkpt lat="48.06001" lon="7.16857">
        <ele>571</ele>
        <time>2014-09-03T08:26:38Z</time>
      </trkpt>
      <trkpt lat="48.06007" lon="7.16848">
        <ele>570</ele>
        <time>2014-09-03T08:26:43Z</time>
      </trkpt>
      <trkpt lat="48.0601" lon="7.16841">
        <ele>571</ele>
        <time>2014-09-03T08:26:47Z</time>
      </trkpt>
      <trkpt lat="48.06017" lon="7.1683">
        <ele>570</ele>
        <time>2014-09-03T08:26:52Z</time>
      </trkpt>
      <trkpt lat="48.06021" lon="7.16822">
        <ele>569</ele>
        <time>2014-09-03T08:26:55Z</time>
      </trkpt>
      <trkpt lat="48.06027" lon="7.16812">
        <ele>571</ele>
        <time>2014-09-03T08:27:01Z</time>
      </trkpt>
      <trkpt lat="48.06031" lon="7.16803">
        <ele>572</ele>
        <time>2014-09-03T08:27:05Z</time>
      </trkpt>
      <trkpt lat="48.06035" lon="7.16792">
        <ele>575</ele>
        <time>2014-09-03T08:27:09Z</time>
      </trkpt>
      <trkpt lat="48.0604" lon="7.16782">
        <ele>578</ele>
        <time>2014-09-03T08:27:15Z</time>
      </trkpt>
      <trkpt lat="48.06046" lon="7.16772">
        <ele>580</ele>
        <time>2014-09-03T08:27:19Z</time>
      </trkpt>
      <trkpt lat="48.06051" lon="7.16762">
        <ele>580</ele>
        <time>2014-09-03T08:27:25Z</time>
      </trkpt>
      <trkpt lat="48.06056" lon="7.16751">
        <ele>581</ele>
        <time>2014-09-03T08:27:29Z</time>
      </trkpt>
      <trkpt lat="48.06059" lon="7.16741">
        <ele>586</ele>
        <time>2014-09-03T08:27:35Z</time>
      </trkpt>
      <trkpt lat="48.06063" lon="7.16732">
        <ele>587</ele>
        <time>2014-09-03T08:27:40Z</time>
      </trkpt>
      <trkpt lat="48.06067" lon="7.16727">
        <ele>585</ele>
        <time>2014-09-03T08:27:43Z</time>
      </trkpt>
      <trkpt lat="48.06072" lon="7.16721">
        <ele>584</ele>
        <time>2014-09-03T08:27:46Z</time>
      </trkpt>
      <trkpt lat="48.06077" lon="7.16715">
        <ele>585</ele>
        <time>2014-09-03T08:27:48Z</time>
      </trkpt>
      <trkpt lat="48.06082" lon="7.16707">
        <ele>585</ele>
        <time>2014-09-03T08:27:53Z</time>
      </trkpt>
      <trkpt lat="48.06089" lon="7.16698">
        <ele>588</ele>
        <time>2014-09-03T08:27:57Z</time>
      </trkpt>
      <trkpt lat="48.06096" lon="7.16692">
        <ele>586</ele>
        <time>2014-09-03T08:28:02Z</time>
      </trkpt>
      <trkpt lat="48.06105" lon="7.16684">
        <ele>585</ele>
        <time>2014-09-03T08:28:07Z</time>
      </trkpt>
      <trkpt lat="48.06112" lon="7.16676">
        <ele>588</ele>
        <time>2014-09-03T08:28:11Z</time>
      </trkpt>
      <trkpt lat="48.06122" lon="7.16671">
        <ele>591</ele>
        <time>2014-09-03T08:28:16Z</time>
      </trkpt>
      <trkpt lat="48.06128" lon="7.16669">
        <ele>591</ele>
        <time>2014-09-03T08:28:19Z</time>
      </trkpt>
      <trkpt lat="48.06137" lon="7.16666">
        <ele>590</ele>
        <time>2014-09-03T08:28:24Z</time>
      </trkpt>
      <trkpt lat="48.06146" lon="7.16666">
        <ele>591</ele>
        <time>2014-09-03T08:28:29Z</time>
      </trkpt>
      <trkpt lat="48.06154" lon="7.16665">
        <ele>591</ele>
        <time>2014-09-03T08:28:34Z</time>
      </trkpt>
      <trkpt lat="48.06163" lon="7.16667">
        <ele>590</ele>
        <time>2014-09-03T08:28:39Z</time>
      </trkpt>
      <trkpt lat="48.06171" lon="7.16671">
        <ele>591</ele>
        <time>2014-09-03T08:28:43Z</time>
      </trkpt>
      <trkpt lat="48.06178" lon="7.16675">
        <ele>590</ele>
        <time>2014-09-03T08:28:50Z</time>
      </trkpt>
      <trkpt lat="48.06186" lon="7.1668">
        <ele>590</ele>
        <time>2014-09-03T08:28:54Z</time>
      </trkpt>
      <trkpt lat="48.06191" lon="7.16686">
        <ele>589</ele>
        <time>2014-09-03T08:28:58Z</time>
      </trkpt>
      <trkpt lat="48.06198" lon="7.16692">
        <ele>591</ele>
        <time>2014-09-03T08:29:02Z</time>
      </trkpt>
      <trkpt lat="48.06206" lon="7.16698">
        <ele>591</ele>
        <time>2014-09-03T08:29:07Z</time>
      </trkpt>
      <trkpt lat="48.06213" lon="7.167">
        <ele>592</ele>
        <time>2014-09-03T08:29:11Z</time>
      </trkpt>
      <trkpt lat="48.0622" lon="7.16705">
        <ele>592</ele>
        <time>2014-09-03T08:29:15Z</time>
      </trkpt>
      <trkpt lat="48.06228" lon="7.16712">
        <ele>591</ele>
        <time>2014-09-03T08:29:20Z</time>
      </trkpt>
      <trkpt lat="48.06236" lon="7.16721">
        <ele>591</ele>
        <time>2014-09-03T08:29:25Z</time>
      </trkpt>
      <trkpt lat="48.06244" lon="7.16724">
        <ele>590</ele>
        <time>2014-09-03T08:29:30Z</time>
      </trkpt>
      <trkpt lat="48.06251" lon="7.16728">
        <ele>592</ele>
        <time>2014-09-03T08:29:34Z</time>
      </trkpt>
      <trkpt lat="48.06259" lon="7.16734">
        <ele>597</ele>
        <time>2014-09-03T08:29:40Z</time>
      </trkpt>
      <trkpt lat="48.06267" lon="7.16738">
        <ele>599</ele>
        <time>2014-09-03T08:29:45Z</time>
      </trkpt>
      <trkpt lat="48.06274" lon="7.16746">
        <ele>597</ele>
        <time>2014-09-03T08:29:49Z</time>
      </trkpt>
      <trkpt lat="48.0628" lon="7.16753">
        <ele>597</ele>
        <time>2014-09-03T08:29:55Z</time>
      </trkpt>
      <trkpt lat="48.06286" lon="7.16761">
        <ele>595</ele>
        <time>2014-09-03T08:29:58Z</time>
      </trkpt>
      <trkpt lat="48.06293" lon="7.16768">
        <ele>598</ele>
        <time>2014-09-03T08:30:02Z</time>
      </trkpt>
      <trkpt lat="48.06302" lon="7.16769">
        <ele>601</ele>
        <time>2014-09-03T08:30:09Z</time>
      </trkpt>
      <trkpt lat="48.06309" lon="7.16774">
        <ele>602</ele>
        <time>2014-09-03T08:30:13Z</time>
      </trkpt>
      <trkpt lat="48.06318" lon="7.16781">
        <ele>601</ele>
        <time>2014-09-03T08:30:18Z</time>
      </trkpt>
      <trkpt lat="48.06325" lon="7.16786">
        <ele>596</ele>
        <time>2014-09-03T08:30:23Z</time>
      </trkpt>
      <trkpt lat="48.06334" lon="7.1679">
        <ele>595</ele>
        <time>2014-09-03T08:30:26Z</time>
      </trkpt>
      <trkpt lat="48.06343" lon="7.168">
        <ele>594</ele>
        <time>2014-09-03T08:30:31Z</time>
      </trkpt>
      <trkpt lat="48.0635" lon="7.16809">
        <ele>598</ele>
        <time>2014-09-03T08:30:36Z</time>
      </trkpt>
      <trkpt lat="48.0636" lon="7.16816">
        <ele>592</ele>
        <time>2014-09-03T08:30:41Z</time>
      </trkpt>
      <trkpt lat="48.06368" lon="7.16818">
        <ele>594</ele>
        <time>2014-09-03T08:30:47Z</time>
      </trkpt>
      <trkpt lat="48.06376" lon="7.16818">
        <ele>594</ele>
        <time>2014-09-03T08:30:51Z</time>
      </trkpt>
      <trkpt lat="48.06386" lon="7.16816">
        <ele>597</ele>
        <time>2014-09-03T08:30:56Z</time>
      </trkpt>
      <trkpt lat="48.06395" lon="7.16812">
        <ele>601</ele>
        <time>2014-09-03T08:31:03Z</time>
      </trkpt>
      <trkpt lat="48.06402" lon="7.16807">
        <ele>608</ele>
        <time>2014-09-03T08:31:11Z</time>
      </trkpt>
      <trkpt lat="48.06408" lon="7.168">
        <ele>613</ele>
        <time>2014-09-03T08:31:15Z</time>
      </trkpt>
      <trkpt lat="48.06413" lon="7.16795">
        <ele>618</ele>
        <time>2014-09-03T08:31:18Z</time>
      </trkpt>
      <trkpt lat="48.06421" lon="7.16787">
        <ele>620</ele>
        <time>2014-09-03T08:31:23Z</time>
      </trkpt>
      <trkpt lat="48.06429" lon="7.16781">
        <ele>623</ele>
        <time>2014-09-03T08:31:27Z</time>
      </trkpt>
      <trkpt lat="48.06436" lon="7.16777">
        <ele>626</ele>
        <time>2014-09-03T08:31:31Z</time>
      </trkpt>
      <trkpt lat="48.06444" lon="7.1677">
        <ele>627</ele>
        <time>2014-09-03T08:31:35Z</time>
      </trkpt>
      <trkpt lat="48.06452" lon="7.16765">
        <ele>631</ele>
        <time>2014-09-03T08:31:40Z</time>
      </trkpt>
      <trkpt lat="48.0646" lon="7.16759">
        <ele>636</ele>
        <time>2014-09-03T08:31:45Z</time>
      </trkpt>
      <trkpt lat="48.06465" lon="7.16757">
        <ele>636</ele>
        <time>2014-09-03T08:31:48Z</time>
      </trkpt>
      <trkpt lat="48.06474" lon="7.1675">
        <ele>638</ele>
        <time>2014-09-03T08:31:53Z</time>
      </trkpt>
      <trkpt lat="48.06481" lon="7.16746">
        <ele>634</ele>
        <time>2014-09-03T08:31:58Z</time>
      </trkpt>
      <trkpt lat="48.06487" lon="7.16742">
        <ele>638</ele>
        <time>2014-09-03T08:32:01Z</time>
      </trkpt>
      <trkpt lat="48.06492" lon="7.16735">
        <ele>639</ele>
        <time>2014-09-03T08:32:05Z</time>
      </trkpt>
      <trkpt lat="48.065" lon="7.16728">
        <ele>640</ele>
        <time>2014-09-03T08:32:11Z</time>
      </trkpt>
      <trkpt lat="48.06506" lon="7.16722">
        <ele>645</ele>
        <time>2014-09-03T08:32:17Z</time>
      </trkpt>
      <trkpt lat="48.06514" lon="7.16715">
        <ele>645</ele>
        <time>2014-09-03T08:32:22Z</time>
      </trkpt>
      <trkpt lat="48.06521" lon="7.16709">
        <ele>645</ele>
        <time>2014-09-03T08:32:26Z</time>
      </trkpt>
      <trkpt lat="48.06529" lon="7.16704">
        <ele>644</ele>
        <time>2014-09-03T08:32:32Z</time>
      </trkpt>
      <trkpt lat="48.06537" lon="7.16701">
        <ele>645</ele>
        <time>2014-09-03T08:32:36Z</time>
      </trkpt>
      <trkpt lat="48.06546" lon="7.16695">
        <ele>645</ele>
        <time>2014-09-03T08:32:40Z</time>
      </trkpt>
      <trkpt lat="48.06554" lon="7.16691">
        <ele>642</ele>
        <time>2014-09-03T08:32:44Z</time>
      </trkpt>
      <trkpt lat="48.06562" lon="7.1669">
        <ele>649</ele>
        <time>2014-09-03T08:32:49Z</time>
      </trkpt>
      <trkpt lat="48.0657" lon="7.16689">
        <ele>653</ele>
        <time>2014-09-03T08:32:55Z</time>
      </trkpt>
      <trkpt lat="48.06579" lon="7.16686">
        <ele>655</ele>
        <time>2014-09-03T08:32:59Z</time>
      </trkpt>
      <trkpt lat="48.06589" lon="7.16684">
        <ele>655</ele>
        <time>2014-09-03T08:33:04Z</time>
      </trkpt>
      <trkpt lat="48.06597" lon="7.16682">
        <ele>654</ele>
        <time>2014-09-03T08:33:09Z</time>
      </trkpt>
      <trkpt lat="48.06605" lon="7.16678">
        <ele>655</ele>
        <time>2014-09-03T08:33:14Z</time>
      </trkpt>
      <trkpt lat="48.06613" lon="7.1667">
        <ele>655</ele>
        <time>2014-09-03T08:33:18Z</time>
      </trkpt>
      <trkpt lat="48.06622" lon="7.16663">
        <ele>659</ele>
        <time>2014-09-03T08:33:23Z</time>
      </trkpt>
      <trkpt lat="48.06629" lon="7.16659">
        <ele>658</ele>
        <time>2014-09-03T08:33:27Z</time>
      </trkpt>
      <trkpt lat="48.06636" lon="7.16659">
        <ele>657</ele>
        <time>2014-09-03T08:33:32Z</time>
      </trkpt>
      <trkpt lat="48.06645" lon="7.16651">
        <ele>661</ele>
        <time>2014-09-03T08:33:37Z</time>
      </trkpt>
      <trkpt lat="48.0665" lon="7.16647">
        <ele>661</ele>
        <time>2014-09-03T08:33:42Z</time>
      </trkpt>
      <trkpt lat="48.06665" lon="7.16634">
        <ele>661</ele>
        <time>2014-09-03T08:33:47Z</time>
      </trkpt>
      <trkpt lat="48.06675" lon="7.16629">
        <ele>659</ele>
        <time>2014-09-03T08:33:52Z</time>
      </trkpt>
      <trkpt lat="48.06683" lon="7.16626">
        <ele>659</ele>
        <time>2014-09-03T08:33:56Z</time>
      </trkpt>
      <trkpt lat="48.06691" lon="7.16629">
        <ele>655</ele>
        <time>2014-09-03T08:34:02Z</time>
      </trkpt>
      <trkpt lat="48.06699" lon="7.16627">
        <ele>653</ele>
        <time>2014-09-03T08:34:08Z</time>
      </trkpt>
      <trkpt lat="48.06707" lon="7.16621">
        <ele>657</ele>
        <time>2014-09-03T08:34:12Z</time>
      </trkpt>
      <trkpt lat="48.06713" lon="7.16614">
        <ele>654</ele>
        <time>2014-09-03T08:34:16Z</time>
      </trkpt>
      <trkpt lat="48.06721" lon="7.16612">
        <ele>656</ele>
        <time>2014-09-03T08:34:22Z</time>
      </trkpt>
      <trkpt lat="48.06727" lon="7.16611">
        <ele>656</ele>
        <time>2014-09-03T08:34:26Z</time>
      </trkpt>
      <trkpt lat="48.06734" lon="7.16608">
        <ele>653</ele>
        <time>2014-09-03T08:34:30Z</time>
      </trkpt>
      <trkpt lat="48.06741" lon="7.16603">
        <ele>650</ele>
        <time>2014-09-03T08:34:34Z</time>
      </trkpt>
      <trkpt lat="48.06746" lon="7.16597">
        <ele>649</ele>
        <time>2014-09-03T08:34:38Z</time>
      </trkpt>
      <trkpt lat="48.06755" lon="7.1659">
        <ele>651</ele>
        <time>2014-09-03T08:34:43Z</time>
      </trkpt>
      <trkpt lat="48.06763" lon="7.16585">
        <ele>655</ele>
        <time>2014-09-03T08:34:48Z</time>
      </trkpt>
      <trkpt lat="48.06772" lon="7.1658">
        <ele>653</ele>
        <time>2014-09-03T08:34:53Z</time>
      </trkpt>
      <trkpt lat="48.06777" lon="7.16578">
        <ele>653</ele>
        <time>2014-09-03T08:34:56Z</time>
      </trkpt>
      <trkpt lat="48.06785" lon="7.16571">
        <ele>660</ele>
        <time>2014-09-03T08:35:01Z</time>
      </trkpt>
      <trkpt lat="48.0679" lon="7.16563">
        <ele>665</ele>
        <time>2014-09-03T08:35:05Z</time>
      </trkpt>
      <trkpt lat="48.06796" lon="7.16553">
        <ele>665</ele>
        <time>2014-09-03T08:35:10Z</time>
      </trkpt>
      <trkpt lat="48.06804" lon="7.16548">
        <ele>667</ele>
        <time>2014-09-03T08:35:14Z</time>
      </trkpt>
      <trkpt lat="48.0681" lon="7.16542">
        <ele>670</ele>
        <time>2014-09-03T08:35:18Z</time>
      </trkpt>
      <trkpt lat="48.06817" lon="7.16535">
        <ele>670</ele>
        <time>2014-09-03T08:35:22Z</time>
      </trkpt>
      <trkpt lat="48.06825" lon="7.16523">
        <ele>672</ele>
        <time>2014-09-03T08:35:27Z</time>
      </trkpt>
      <trkpt lat="48.0683" lon="7.16515">
        <ele>676</ele>
        <time>2014-09-03T08:35:32Z</time>
      </trkpt>
      <trkpt lat="48.0683" lon="7.16501">
        <ele>680</ele>
        <time>2014-09-03T08:35:39Z</time>
      </trkpt>
      <trkpt lat="48.0683" lon="7.16489">
        <ele>680</ele>
        <time>2014-09-03T08:35:44Z</time>
      </trkpt>
      <trkpt lat="48.06826" lon="7.16481">
        <ele>682</ele>
        <time>2014-09-03T08:35:48Z</time>
      </trkpt>
      <trkpt lat="48.06821" lon="7.16471">
        <ele>682</ele>
        <time>2014-09-03T08:35:53Z</time>
      </trkpt>
      <trkpt lat="48.06817" lon="7.16461">
        <ele>679</ele>
        <time>2014-09-03T08:35:57Z</time>
      </trkpt>
      <trkpt lat="48.06814" lon="7.16452">
        <ele>680</ele>
        <time>2014-09-03T08:36:02Z</time>
      </trkpt>
      <trkpt lat="48.06811" lon="7.1644">
        <ele>675</ele>
        <time>2014-09-03T08:36:06Z</time>
      </trkpt>
      <trkpt lat="48.0681" lon="7.16425">
        <ele>672</ele>
        <time>2014-09-03T08:36:11Z</time>
      </trkpt>
      <trkpt lat="48.06807" lon="7.16414">
        <ele>670</ele>
        <time>2014-09-03T08:36:16Z</time>
      </trkpt>
      <trkpt lat="48.06804" lon="7.16402">
        <ele>669</ele>
        <time>2014-09-03T08:36:21Z</time>
      </trkpt>
      <trkpt lat="48.068" lon="7.16395">
        <ele>667</ele>
        <time>2014-09-03T08:36:25Z</time>
      </trkpt>
      <trkpt lat="48.06795" lon="7.16388">
        <ele>670</ele>
        <time>2014-09-03T08:36:28Z</time>
      </trkpt>
      <trkpt lat="48.06789" lon="7.16378">
        <ele>670</ele>
        <time>2014-09-03T08:36:33Z</time>
      </trkpt>
      <trkpt lat="48.06783" lon="7.16373">
        <ele>671</ele>
        <time>2014-09-03T08:36:37Z</time>
      </trkpt>
      <trkpt lat="48.06778" lon="7.16367">
        <ele>668</ele>
        <time>2014-09-03T08:36:41Z</time>
      </trkpt>
      <trkpt lat="48.06772" lon="7.16361">
        <ele>670</ele>
        <time>2014-09-03T08:36:45Z</time>
      </trkpt>
      <trkpt lat="48.06767" lon="7.16357">
        <ele>670</ele>
        <time>2014-09-03T08:36:50Z</time>
      </trkpt>
      <trkpt lat="48.0676" lon="7.1635">
        <ele>671</ele>
        <time>2014-09-03T08:36:53Z</time>
      </trkpt>
      <trkpt lat="48.06755" lon="7.16344">
        <ele>671</ele>
        <time>2014-09-03T08:37:00Z</time>
      </trkpt>
      <trkpt lat="48.06745" lon="7.16338">
        <ele>678</ele>
        <time>2014-09-03T08:37:04Z</time>
      </trkpt>
      <trkpt lat="48.06737" lon="7.16333">
        <ele>682</ele>
        <time>2014-09-03T08:37:09Z</time>
      </trkpt>
      <trkpt lat="48.0673" lon="7.16326">
        <ele>686</ele>
        <time>2014-09-03T08:37:13Z</time>
      </trkpt>
      <trkpt lat="48.06722" lon="7.1632">
        <ele>685</ele>
        <time>2014-09-03T08:37:17Z</time>
      </trkpt>
      <trkpt lat="48.06715" lon="7.16315">
        <ele>684</ele>
        <time>2014-09-03T08:37:21Z</time>
      </trkpt>
      <trkpt lat="48.06705" lon="7.16309">
        <ele>687</ele>
        <time>2014-09-03T08:37:26Z</time>
      </trkpt>
      <trkpt lat="48.06698" lon="7.16304">
        <ele>692</ele>
        <time>2014-09-03T08:37:32Z</time>
      </trkpt>
      <trkpt lat="48.06695" lon="7.16295">
        <ele>692</ele>
        <time>2014-09-03T08:37:38Z</time>
      </trkpt>
      <trkpt lat="48.06686" lon="7.16281">
        <ele>693</ele>
        <time>2014-09-03T08:37:42Z</time>
      </trkpt>
      <trkpt lat="48.0668" lon="7.16275">
        <ele>698</ele>
        <time>2014-09-03T08:37:46Z</time>
      </trkpt>
      <trkpt lat="48.06674" lon="7.1627">
        <ele>701</ele>
        <time>2014-09-03T08:37:50Z</time>
      </trkpt>
      <trkpt lat="48.0667" lon="7.16263">
        <ele>703</ele>
        <time>2014-09-03T08:37:54Z</time>
      </trkpt>
      <trkpt lat="48.06668" lon="7.16253">
        <ele>703</ele>
        <time>2014-09-03T08:37:58Z</time>
      </trkpt>
      <trkpt lat="48.06664" lon="7.16241">
        <ele>701</ele>
        <time>2014-09-03T08:38:02Z</time>
      </trkpt>
      <trkpt lat="48.06665" lon="7.16229">
        <ele>699</ele>
        <time>2014-09-03T08:38:06Z</time>
      </trkpt>
      <trkpt lat="48.06672" lon="7.16211">
        <ele>700</ele>
        <time>2014-09-03T08:38:10Z</time>
      </trkpt>
      <trkpt lat="48.06673" lon="7.16193">
        <ele>702</ele>
        <time>2014-09-03T08:38:15Z</time>
      </trkpt>
      <trkpt lat="48.06674" lon="7.1618">
        <ele>701</ele>
        <time>2014-09-03T08:38:19Z</time>
      </trkpt>
      <trkpt lat="48.06668" lon="7.16171">
        <ele>704</ele>
        <time>2014-09-03T08:38:24Z</time>
      </trkpt>
      <trkpt lat="48.06668" lon="7.16158">
        <ele>704</ele>
        <time>2014-09-03T08:38:29Z</time>
      </trkpt>
      <trkpt lat="48.06671" lon="7.16143">
        <ele>708</ele>
        <time>2014-09-03T08:38:33Z</time>
      </trkpt>
      <trkpt lat="48.06673" lon="7.16131">
        <ele>703</ele>
        <time>2014-09-03T08:38:39Z</time>
      </trkpt>
      <trkpt lat="48.06677" lon="7.16113">
        <ele>701</ele>
        <time>2014-09-03T08:38:44Z</time>
      </trkpt>
      <trkpt lat="48.06679" lon="7.16104">
        <ele>701</ele>
        <time>2014-09-03T08:38:47Z</time>
      </trkpt>
      <trkpt lat="48.06681" lon="7.16094">
        <ele>703</ele>
        <time>2014-09-03T08:38:51Z</time>
      </trkpt>
      <trkpt lat="48.06685" lon="7.16084">
        <ele>711</ele>
        <time>2014-09-03T08:38:57Z</time>
      </trkpt>
      <trkpt lat="48.06693" lon="7.16075">
        <ele>711</ele>
        <time>2014-09-03T08:39:01Z</time>
      </trkpt>
      <trkpt lat="48.06702" lon="7.16063">
        <ele>710</ele>
        <time>2014-09-03T08:39:05Z</time>
      </trkpt>
      <trkpt lat="48.06708" lon="7.16056">
        <ele>710</ele>
        <time>2014-09-03T08:39:09Z</time>
      </trkpt>
      <trkpt lat="48.06712" lon="7.1605">
        <ele>712</ele>
        <time>2014-09-03T08:39:13Z</time>
      </trkpt>
      <trkpt lat="48.06721" lon="7.16039">
        <ele>716</ele>
        <time>2014-09-03T08:39:17Z</time>
      </trkpt>
      <trkpt lat="48.06727" lon="7.16032">
        <ele>716</ele>
        <time>2014-09-03T08:39:21Z</time>
      </trkpt>
      <trkpt lat="48.06735" lon="7.16026">
        <ele>721</ele>
        <time>2014-09-03T08:39:25Z</time>
      </trkpt>
      <trkpt lat="48.0674" lon="7.16023">
        <ele>719</ele>
        <time>2014-09-03T08:39:27Z</time>
      </trkpt>
      <trkpt lat="48.06751" lon="7.16019">
        <ele>723</ele>
        <time>2014-09-03T08:39:31Z</time>
      </trkpt>
      <trkpt lat="48.06758" lon="7.16015">
        <ele>721</ele>
        <time>2014-09-03T08:39:36Z</time>
      </trkpt>
      <trkpt lat="48.06767" lon="7.16009">
        <ele>722</ele>
        <time>2014-09-03T08:39:40Z</time>
      </trkpt>
      <trkpt lat="48.06775" lon="7.15999">
        <ele>725</ele>
        <time>2014-09-03T08:39:45Z</time>
      </trkpt>
      <trkpt lat="48.06785" lon="7.15994">
        <ele>729</ele>
        <time>2014-09-03T08:39:50Z</time>
      </trkpt>
      <trkpt lat="48.06794" lon="7.15991">
        <ele>732</ele>
        <time>2014-09-03T08:39:54Z</time>
      </trkpt>
      <trkpt lat="48.06803" lon="7.15989">
        <ele>734</ele>
        <time>2014-09-03T08:39:58Z</time>
      </trkpt>
      <trkpt lat="48.0681" lon="7.15985">
        <ele>734</ele>
        <time>2014-09-03T08:40:02Z</time>
      </trkpt>
      <trkpt lat="48.06818" lon="7.15984">
        <ele>733</ele>
        <time>2014-09-03T08:40:06Z</time>
      </trkpt>
      <trkpt lat="48.06826" lon="7.15985">
        <ele>731</ele>
        <time>2014-09-03T08:40:13Z</time>
      </trkpt>
      <trkpt lat="48.06839" lon="7.15984">
        <ele>726</ele>
        <time>2014-09-03T08:40:18Z</time>
      </trkpt>
      <trkpt lat="48.06847" lon="7.15984">
        <ele>727</ele>
        <time>2014-09-03T08:40:22Z</time>
      </trkpt>
      <trkpt lat="48.06854" lon="7.15982">
        <ele>729</ele>
        <time>2014-09-03T08:40:26Z</time>
      </trkpt>
      <trkpt lat="48.0686" lon="7.15979">
        <ele>731</ele>
        <time>2014-09-03T08:40:30Z</time>
      </trkpt>
      <trkpt lat="48.06869" lon="7.15975">
        <ele>735</ele>
        <time>2014-09-03T08:40:35Z</time>
      </trkpt>
      <trkpt lat="48.06877" lon="7.15975">
        <ele>737</ele>
        <time>2014-09-03T08:40:40Z</time>
      </trkpt>
      <trkpt lat="48.06884" lon="7.15975">
        <ele>740</ele>
        <time>2014-09-03T08:40:45Z</time>
      </trkpt>
      <trkpt lat="48.06891" lon="7.15972">
        <ele>743</ele>
        <time>2014-09-03T08:40:49Z</time>
      </trkpt>
      <trkpt lat="48.06899" lon="7.15966">
        <ele>743</ele>
        <time>2014-09-03T08:40:53Z</time>
      </trkpt>
      <trkpt lat="48.06908" lon="7.1596">
        <ele>750</ele>
        <time>2014-09-03T08:40:58Z</time>
      </trkpt>
      <trkpt lat="48.06916" lon="7.15952">
        <ele>751</ele>
        <time>2014-09-03T08:41:03Z</time>
      </trkpt>
      <trkpt lat="48.06923" lon="7.15947">
        <ele>752</ele>
        <time>2014-09-03T08:41:07Z</time>
      </trkpt>
      <trkpt lat="48.06928" lon="7.15943">
        <ele>750</ele>
        <time>2014-09-03T08:41:10Z</time>
      </trkpt>
      <trkpt lat="48.06937" lon="7.1594">
        <ele>747</ele>
        <time>2014-09-03T08:41:15Z</time>
      </trkpt>
      <trkpt lat="48.06944" lon="7.15935">
        <ele>750</ele>
        <time>2014-09-03T08:41:19Z</time>
      </trkpt>
      <trkpt lat="48.06951" lon="7.15931">
        <ele>749</ele>
        <time>2014-09-03T08:41:23Z</time>
      </trkpt>
      <trkpt lat="48.06958" lon="7.15929">
        <ele>750</ele>
        <time>2014-09-03T08:41:29Z</time>
      </trkpt>
      <trkpt lat="48.06965" lon="7.15924">
        <ele>753</ele>
        <time>2014-09-03T08:41:33Z</time>
      </trkpt>
      <trkpt lat="48.06973" lon="7.1592">
        <ele>752</ele>
        <time>2014-09-03T08:41:40Z</time>
      </trkpt>
      <trkpt lat="48.06979" lon="7.15911">
        <ele>759</ele>
        <time>2014-09-03T08:41:48Z</time>
      </trkpt>
      <trkpt lat="48.06985" lon="7.15906">
        <ele>760</ele>
        <time>2014-09-03T08:41:52Z</time>
      </trkpt>
      <trkpt lat="48.06989" lon="7.15901">
        <ele>762</ele>
        <time>2014-09-03T08:41:56Z</time>
      </trkpt>
      <trkpt lat="48.06997" lon="7.15893">
        <ele>761</ele>
        <time>2014-09-03T08:42:00Z</time>
      </trkpt>
      <trkpt lat="48.07004" lon="7.15885">
        <ele>762</ele>
        <time>2014-09-03T08:42:05Z</time>
      </trkpt>
      <trkpt lat="48.07014" lon="7.15874">
        <ele>757</ele>
        <time>2014-09-03T08:42:10Z</time>
      </trkpt>
      <trkpt lat="48.07021" lon="7.15868">
        <ele>757</ele>
        <time>2014-09-03T08:42:14Z</time>
      </trkpt>
      <trkpt lat="48.07028" lon="7.15861">
        <ele>756</ele>
        <time>2014-09-03T08:42:18Z</time>
      </trkpt>
      <trkpt lat="48.07035" lon="7.15854">
        <ele>757</ele>
        <time>2014-09-03T08:42:23Z</time>
      </trkpt>
      <trkpt lat="48.07043" lon="7.15848">
        <ele>762</ele>
        <time>2014-09-03T08:42:28Z</time>
      </trkpt>
      <trkpt lat="48.07051" lon="7.15844">
        <ele>758</ele>
        <time>2014-09-03T08:42:32Z</time>
      </trkpt>
      <trkpt lat="48.07063" lon="7.15839">
        <ele>757</ele>
        <time>2014-09-03T08:42:36Z</time>
      </trkpt>
      <trkpt lat="48.07067" lon="7.15838">
        <ele>757</ele>
        <time>2014-09-03T08:42:39Z</time>
      </trkpt>
      <trkpt lat="48.07077" lon="7.15838">
        <ele>757</ele>
        <time>2014-09-03T08:42:44Z</time>
      </trkpt>
      <trkpt lat="48.07088" lon="7.15836">
        <ele>758</ele>
        <time>2014-09-03T08:42:48Z</time>
      </trkpt>
      <trkpt lat="48.07092" lon="7.15836">
        <ele>757</ele>
        <time>2014-09-03T08:42:51Z</time>
      </trkpt>
      <trkpt lat="48.07104" lon="7.15831">
        <ele>765</ele>
        <time>2014-09-03T08:42:57Z</time>
      </trkpt>
      <trkpt lat="48.07113" lon="7.15828">
        <ele>765</ele>
        <time>2014-09-03T08:43:02Z</time>
      </trkpt>
      <trkpt lat="48.0712" lon="7.15827">
        <ele>771</ele>
        <time>2014-09-03T08:43:07Z</time>
      </trkpt>
      <trkpt lat="48.07128" lon="7.15822">
        <ele>768</ele>
        <time>2014-09-03T08:43:12Z</time>
      </trkpt>
      <trkpt lat="48.07135" lon="7.15825">
        <ele>770</ele>
        <time>2014-09-03T08:43:16Z</time>
      </trkpt>
      <trkpt lat="48.07145" lon="7.15831">
        <ele>771</ele>
        <time>2014-09-03T08:43:20Z</time>
      </trkpt>
      <trkpt lat="48.07152" lon="7.15838">
        <ele>768</ele>
        <time>2014-09-03T08:43:24Z</time>
      </trkpt>
      <trkpt lat="48.07155" lon="7.15844">
        <ele>769</ele>
        <time>2014-09-03T08:43:28Z</time>
      </trkpt>
      <trkpt lat="48.07163" lon="7.15852">
        <ele>772</ele>
        <time>2014-09-03T08:43:33Z</time>
      </trkpt>
      <trkpt lat="48.07171" lon="7.15861">
        <ele>772</ele>
        <time>2014-09-03T08:43:37Z</time>
      </trkpt>
      <trkpt lat="48.07177" lon="7.15871">
        <ele>772</ele>
        <time>2014-09-03T08:43:42Z</time>
      </trkpt>
      <trkpt lat="48.07185" lon="7.15876">
        <ele>775</ele>
        <time>2014-09-03T08:43:47Z</time>
      </trkpt>
      <trkpt lat="48.07191" lon="7.15883">
        <ele>777</ele>
        <time>2014-09-03T08:43:51Z</time>
      </trkpt>
      <trkpt lat="48.07196" lon="7.15893">
        <ele>778</ele>
        <time>2014-09-03T08:43:58Z</time>
      </trkpt>
      <trkpt lat="48.07201" lon="7.15902">
        <ele>779</ele>
        <time>2014-09-03T08:44:02Z</time>
      </trkpt>
      <trkpt lat="48.07207" lon="7.15909">
        <ele>779</ele>
        <time>2014-09-03T08:44:05Z</time>
      </trkpt>
      <trkpt lat="48.07213" lon="7.15917">
        <ele>778</ele>
        <time>2014-09-03T08:44:10Z</time>
      </trkpt>
      <trkpt lat="48.07221" lon="7.15926">
        <ele>781</ele>
        <time>2014-09-03T08:44:15Z</time>
      </trkpt>
      <trkpt lat="48.07227" lon="7.15935">
        <ele>777</ele>
        <time>2014-09-03T08:44:19Z</time>
      </trkpt>
      <trkpt lat="48.07232" lon="7.15943">
        <ele>776</ele>
        <time>2014-09-03T08:44:22Z</time>
      </trkpt>
      <trkpt lat="48.07241" lon="7.15952">
        <ele>779</ele>
        <time>2014-09-03T08:44:27Z</time>
      </trkpt>
      <trkpt lat="48.07247" lon="7.15953">
        <ele>781</ele>
        <time>2014-09-03T08:44:31Z</time>
      </trkpt>
      <trkpt lat="48.07252" lon="7.15957">
        <ele>779</ele>
        <time>2014-09-03T08:44:36Z</time>
      </trkpt>
      <trkpt lat="48.07271" lon="7.15963">
        <ele>779</ele>
        <time>2014-09-03T08:44:44Z</time>
      </trkpt>
      <trkpt lat="48.07278" lon="7.15965">
        <ele>782</ele>
        <time>2014-09-03T08:44:49Z</time>
      </trkpt>
      <trkpt lat="48.07286" lon="7.15964">
        <ele>782</ele>
        <time>2014-09-03T08:44:54Z</time>
      </trkpt>
      <trkpt lat="48.07293" lon="7.15967">
        <ele>787</ele>
        <time>2014-09-03T08:45:00Z</time>
      </trkpt>
      <trkpt lat="48.07298" lon="7.15972">
        <ele>784</ele>
        <time>2014-09-03T08:45:03Z</time>
      </trkpt>
      <trkpt lat="48.07307" lon="7.15975">
        <ele>786</ele>
        <time>2014-09-03T08:45:08Z</time>
      </trkpt>
      <trkpt lat="48.07316" lon="7.15975">
        <ele>784</ele>
        <time>2014-09-03T08:45:13Z</time>
      </trkpt>
      <trkpt lat="48.07323" lon="7.15975">
        <ele>782</ele>
        <time>2014-09-03T08:45:17Z</time>
      </trkpt>
      <trkpt lat="48.07332" lon="7.15975">
        <ele>787</ele>
        <time>2014-09-03T08:45:22Z</time>
      </trkpt>
      <trkpt lat="48.07339" lon="7.15977">
        <ele>787</ele>
        <time>2014-09-03T08:45:27Z</time>
      </trkpt>
      <trkpt lat="48.07347" lon="7.15977">
        <ele>790</ele>
        <time>2014-09-03T08:45:31Z</time>
      </trkpt>
      <trkpt lat="48.07355" lon="7.15979">
        <ele>793</ele>
        <time>2014-09-03T08:45:36Z</time>
      </trkpt>
      <trkpt lat="48.07362" lon="7.1598">
        <ele>791</ele>
        <time>2014-09-03T08:45:40Z</time>
      </trkpt>
      <trkpt lat="48.07371" lon="7.1598">
        <ele>797</ele>
        <time>2014-09-03T08:45:45Z</time>
      </trkpt>
      <trkpt lat="48.07381" lon="7.15979">
        <ele>803</ele>
        <time>2014-09-03T08:45:49Z</time>
      </trkpt>
      <trkpt lat="48.0739" lon="7.15981">
        <ele>801</ele>
        <time>2014-09-03T08:45:54Z</time>
      </trkpt>
      <trkpt lat="48.07399" lon="7.15986">
        <ele>798</ele>
        <time>2014-09-03T08:45:59Z</time>
      </trkpt>
      <trkpt lat="48.07406" lon="7.15987">
        <ele>803</ele>
        <time>2014-09-03T08:46:02Z</time>
      </trkpt>
      <trkpt lat="48.07414" lon="7.15984">
        <ele>808</ele>
        <time>2014-09-03T08:46:07Z</time>
      </trkpt>
      <trkpt lat="48.07423" lon="7.15984">
        <ele>808</ele>
        <time>2014-09-03T08:46:13Z</time>
      </trkpt>
      <trkpt lat="48.07429" lon="7.15983">
        <ele>810</ele>
        <time>2014-09-03T08:46:20Z</time>
      </trkpt>
      <trkpt lat="48.0744" lon="7.15976">
        <ele>812</ele>
        <time>2014-09-03T08:46:25Z</time>
      </trkpt>
      <trkpt lat="48.07452" lon="7.15971">
        <ele>809</ele>
        <time>2014-09-03T08:46:29Z</time>
      </trkpt>
      <trkpt lat="48.07459" lon="7.15966">
        <ele>809</ele>
        <time>2014-09-03T08:46:33Z</time>
      </trkpt>
      <trkpt lat="48.07468" lon="7.15962">
        <ele>809</ele>
        <time>2014-09-03T08:46:37Z</time>
      </trkpt>
      <trkpt lat="48.07476" lon="7.15961">
        <ele>813</ele>
        <time>2014-09-03T08:46:41Z</time>
      </trkpt>
      <trkpt lat="48.07485" lon="7.15956">
        <ele>815</ele>
        <time>2014-09-03T08:46:46Z</time>
      </trkpt>
      <trkpt lat="48.07496" lon="7.15953">
        <ele>812</ele>
        <time>2014-09-03T08:46:50Z</time>
      </trkpt>
      <trkpt lat="48.07504" lon="7.15954">
        <ele>810</ele>
        <time>2014-09-03T08:46:55Z</time>
      </trkpt>
      <trkpt lat="48.07512" lon="7.15954">
        <ele>811</ele>
        <time>2014-09-03T08:46:59Z</time>
      </trkpt>
      <trkpt lat="48.07521" lon="7.15952">
        <ele>814</ele>
        <time>2014-09-03T08:47:04Z</time>
      </trkpt>
      <trkpt lat="48.07529" lon="7.15953">
        <ele>812</ele>
        <time>2014-09-03T08:47:08Z</time>
      </trkpt>
      <trkpt lat="48.07539" lon="7.15952">
        <ele>816</ele>
        <time>2014-09-03T08:47:13Z</time>
      </trkpt>
      <trkpt lat="48.07548" lon="7.15955">
        <ele>815</ele>
        <time>2014-09-03T08:47:18Z</time>
      </trkpt>
      <trkpt lat="48.07556" lon="7.15953">
        <ele>819</ele>
        <time>2014-09-03T08:47:23Z</time>
      </trkpt>
      <trkpt lat="48.07564" lon="7.15948">
        <ele>820</ele>
        <time>2014-09-03T08:47:27Z</time>
      </trkpt>
      <trkpt lat="48.0757" lon="7.15957">
        <ele>822</ele>
        <time>2014-09-03T08:47:35Z</time>
      </trkpt>
      <trkpt lat="48.07576" lon="7.15958">
        <ele>822</ele>
        <time>2014-09-03T08:47:43Z</time>
      </trkpt>
      <trkpt lat="48.07582" lon="7.15951">
        <ele>823</ele>
        <time>2014-09-03T08:47:46Z</time>
      </trkpt>
      <trkpt lat="48.07588" lon="7.15947">
        <ele>821</ele>
        <time>2014-09-03T08:47:49Z</time>
      </trkpt>
      <trkpt lat="48.07597" lon="7.15941">
        <ele>825</ele>
        <time>2014-09-03T08:47:52Z</time>
      </trkpt>
      <trkpt lat="48.07601" lon="7.15933">
        <ele>825</ele>
        <time>2014-09-03T08:47:57Z</time>
      </trkpt>
      <trkpt lat="48.07607" lon="7.15926">
        <ele>827</ele>
        <time>2014-09-03T08:48:00Z</time>
      </trkpt>
      <trkpt lat="48.07614" lon="7.15915">
        <ele>831</ele>
        <time>2014-09-03T08:48:04Z</time>
      </trkpt>
      <trkpt lat="48.07614" lon="7.15904">
        <ele>835</ele>
        <time>2014-09-03T08:48:12Z</time>
      </trkpt>
      <trkpt lat="48.07614" lon="7.15891">
        <ele>830</ele>
        <time>2014-09-03T08:48:18Z</time>
      </trkpt>
      <trkpt lat="48.07616" lon="7.15881">
        <ele>830</ele>
        <time>2014-09-03T08:48:22Z</time>
      </trkpt>
      <trkpt lat="48.07619" lon="7.1587">
        <ele>830</ele>
        <time>2014-09-03T08:48:25Z</time>
      </trkpt>
      <trkpt lat="48.07619" lon="7.15859">
        <ele>828</ele>
        <time>2014-09-03T08:48:30Z</time>
      </trkpt>
      <trkpt lat="48.07619" lon="7.15843">
        <ele>827</ele>
        <time>2014-09-03T08:48:34Z</time>
      </trkpt>
      <trkpt lat="48.0762" lon="7.15836">
        <ele>826</ele>
        <time>2014-09-03T08:48:37Z</time>
      </trkpt>
      <trkpt lat="48.07621" lon="7.15823">
        <ele>824</ele>
        <time>2014-09-03T08:48:41Z</time>
      </trkpt>
      <trkpt lat="48.07623" lon="7.1581">
        <ele>825</ele>
        <time>2014-09-03T08:48:46Z</time>
      </trkpt>
      <trkpt lat="48.07623" lon="7.15793">
        <ele>824</ele>
        <time>2014-09-03T08:48:49Z</time>
      </trkpt>
      <trkpt lat="48.07621" lon="7.15783">
        <ele>827</ele>
        <time>2014-09-03T08:48:55Z</time>
      </trkpt>
      <trkpt lat="48.0762" lon="7.15769">
        <ele>826</ele>
        <time>2014-09-03T08:48:59Z</time>
      </trkpt>
      <trkpt lat="48.0762" lon="7.15759">
        <ele>828</ele>
        <time>2014-09-03T08:49:03Z</time>
      </trkpt>
      <trkpt lat="48.07619" lon="7.15747">
        <ele>828</ele>
        <time>2014-09-03T08:49:08Z</time>
      </trkpt>
      <trkpt lat="48.07617" lon="7.15735">
        <ele>827</ele>
        <time>2014-09-03T08:49:11Z</time>
      </trkpt>
      <trkpt lat="48.07614" lon="7.15725">
        <ele>828</ele>
        <time>2014-09-03T08:49:16Z</time>
      </trkpt>
      <trkpt lat="48.07615" lon="7.15714">
        <ele>832</ele>
        <time>2014-09-03T08:49:21Z</time>
      </trkpt>
      <trkpt lat="48.07616" lon="7.15705">
        <ele>834</ele>
        <time>2014-09-03T08:49:26Z</time>
      </trkpt>
      <trkpt lat="48.07616" lon="7.15682">
        <ele>831</ele>
        <time>2014-09-03T08:49:32Z</time>
      </trkpt>
      <trkpt lat="48.07613" lon="7.15671">
        <ele>829</ele>
        <time>2014-09-03T08:49:37Z</time>
      </trkpt>
      <trkpt lat="48.07605" lon="7.1566">
        <ele>837</ele>
        <time>2014-09-03T08:49:41Z</time>
      </trkpt>
      <trkpt lat="48.07603" lon="7.15647">
        <ele>834</ele>
        <time>2014-09-03T08:49:47Z</time>
      </trkpt>
      <trkpt lat="48.07605" lon="7.15634">
        <ele>835</ele>
        <time>2014-09-03T08:49:52Z</time>
      </trkpt>
      <trkpt lat="48.07603" lon="7.15627">
        <ele>836</ele>
        <time>2014-09-03T08:49:55Z</time>
      </trkpt>
      <trkpt lat="48.07593" lon="7.15616">
        <ele>838</ele>
        <time>2014-09-03T08:50:00Z</time>
      </trkpt>
      <trkpt lat="48.07588" lon="7.15607">
        <ele>838</ele>
        <time>2014-09-03T08:50:04Z</time>
      </trkpt>
      <trkpt lat="48.07584" lon="7.15595">
        <ele>839</ele>
        <time>2014-09-03T08:50:08Z</time>
      </trkpt>
      <trkpt lat="48.0758" lon="7.15581">
        <ele>837</ele>
        <time>2014-09-03T08:50:13Z</time>
      </trkpt>
      <trkpt lat="48.07575" lon="7.1557">
        <ele>834</ele>
        <time>2014-09-03T08:50:17Z</time>
      </trkpt>
      <trkpt lat="48.07572" lon="7.15558">
        <ele>835</ele>
        <time>2014-09-03T08:50:21Z</time>
      </trkpt>
      <trkpt lat="48.07567" lon="7.15546">
        <ele>838</ele>
        <time>2014-09-03T08:50:25Z</time>
      </trkpt>
      <trkpt lat="48.07562" lon="7.15535">
        <ele>840</ele>
        <time>2014-09-03T08:50:31Z</time>
      </trkpt>
      <trkpt lat="48.07562" lon="7.15521">
        <ele>841</ele>
        <time>2014-09-03T08:50:36Z</time>
      </trkpt>
      <trkpt lat="48.07558" lon="7.15514">
        <ele>846</ele>
        <time>2014-09-03T08:50:41Z</time>
      </trkpt>
      <trkpt lat="48.07556" lon="7.15501">
        <ele>845</ele>
        <time>2014-09-03T08:50:45Z</time>
      </trkpt>
      <trkpt lat="48.07554" lon="7.15489">
        <ele>845</ele>
        <time>2014-09-03T08:50:49Z</time>
      </trkpt>
      <trkpt lat="48.07554" lon="7.15474">
        <ele>843</ele>
        <time>2014-09-03T08:50:54Z</time>
      </trkpt>
      <trkpt lat="48.07551" lon="7.15461">
        <ele>843</ele>
        <time>2014-09-03T08:50:59Z</time>
      </trkpt>
      <trkpt lat="48.07548" lon="7.15449">
        <ele>845</ele>
        <time>2014-09-03T08:51:04Z</time>
      </trkpt>
      <trkpt lat="48.07548" lon="7.1544">
        <ele>845</ele>
        <time>2014-09-03T08:51:06Z</time>
      </trkpt>
      <trkpt lat="48.0755" lon="7.15429">
        <ele>846</ele>
        <time>2014-09-03T08:51:11Z</time>
      </trkpt>
      <trkpt lat="48.07552" lon="7.15417">
        <ele>847</ele>
        <time>2014-09-03T08:51:16Z</time>
      </trkpt>
      <trkpt lat="48.07554" lon="7.15407">
        <ele>846</ele>
        <time>2014-09-03T08:51:19Z</time>
      </trkpt>
      <trkpt lat="48.07559" lon="7.15396">
        <ele>845</ele>
        <time>2014-09-03T08:51:23Z</time>
      </trkpt>
      <trkpt lat="48.07565" lon="7.15385">
        <ele>846</ele>
        <time>2014-09-03T08:51:28Z</time>
      </trkpt>
      <trkpt lat="48.07569" lon="7.15374">
        <ele>850</ele>
        <time>2014-09-03T08:51:34Z</time>
      </trkpt>
      <trkpt lat="48.07574" lon="7.15365">
        <ele>849</ele>
        <time>2014-09-03T08:51:40Z</time>
      </trkpt>
      <trkpt lat="48.07578" lon="7.15354">
        <ele>851</ele>
        <time>2014-09-03T08:51:44Z</time>
      </trkpt>
      <trkpt lat="48.07581" lon="7.15346">
        <ele>848</ele>
        <time>2014-09-03T08:51:48Z</time>
      </trkpt>
      <trkpt lat="48.07583" lon="7.15334">
        <ele>852</ele>
        <time>2014-09-03T08:51:54Z</time>
      </trkpt>
      <trkpt lat="48.07588" lon="7.15324">
        <ele>854</ele>
        <time>2014-09-03T08:52:01Z</time>
      </trkpt>
      <trkpt lat="48.07593" lon="7.15316">
        <ele>856</ele>
        <time>2014-09-03T08:52:05Z</time>
      </trkpt>
      <trkpt lat="48.076" lon="7.15308">
        <ele>853</ele>
        <time>2014-09-03T08:52:09Z</time>
      </trkpt>
      <trkpt lat="48.07607" lon="7.15303">
        <ele>856</ele>
        <time>2014-09-03T08:52:12Z</time>
      </trkpt>
      <trkpt lat="48.07614" lon="7.15299">
        <ele>859</ele>
        <time>2014-09-03T08:52:16Z</time>
      </trkpt>
      <trkpt lat="48.07619" lon="7.15295">
        <ele>861</ele>
        <time>2014-09-03T08:52:19Z</time>
      </trkpt>
      <trkpt lat="48.07624" lon="7.15289">
        <ele>863</ele>
        <time>2014-09-03T08:52:22Z</time>
      </trkpt>
      <trkpt lat="48.07632" lon="7.1528">
        <ele>863</ele>
        <time>2014-09-03T08:52:26Z</time>
      </trkpt>
      <trkpt lat="48.07641" lon="7.15268">
        <ele>864</ele>
        <time>2014-09-03T08:52:30Z</time>
      </trkpt>
      <trkpt lat="48.07642" lon="7.15257">
        <ele>863</ele>
        <time>2014-09-03T08:52:38Z</time>
      </trkpt>
      <trkpt lat="48.07644" lon="7.15247">
        <ele>866</ele>
        <time>2014-09-03T08:52:41Z</time>
      </trkpt>
      <trkpt lat="48.07644" lon="7.15237">
        <ele>868</ele>
        <time>2014-09-03T08:52:46Z</time>
      </trkpt>
      <trkpt lat="48.07649" lon="7.15221">
        <ele>868</ele>
        <time>2014-09-03T08:52:50Z</time>
      </trkpt>
      <trkpt lat="48.07651" lon="7.15208">
        <ele>869</ele>
        <time>2014-09-03T08:52:55Z</time>
      </trkpt>
      <trkpt lat="48.07654" lon="7.15194">
        <ele>871</ele>
        <time>2014-09-03T08:52:59Z</time>
      </trkpt>
      <trkpt lat="48.07656" lon="7.15185">
        <ele>873</ele>
        <time>2014-09-03T08:53:03Z</time>
      </trkpt>
      <trkpt lat="48.0766" lon="7.15171">
        <ele>872</ele>
        <time>2014-09-03T08:53:08Z</time>
      </trkpt>
      <trkpt lat="48.07664" lon="7.15159">
        <ele>870</ele>
        <time>2014-09-03T08:53:12Z</time>
      </trkpt>
      <trkpt lat="48.07666" lon="7.15144">
        <ele>871</ele>
        <time>2014-09-03T08:53:17Z</time>
      </trkpt>
      <trkpt lat="48.07667" lon="7.15138">
        <ele>873</ele>
        <time>2014-09-03T08:53:19Z</time>
      </trkpt>
      <trkpt lat="48.07667" lon="7.15126">
        <ele>874</ele>
        <time>2014-09-03T08:53:23Z</time>
      </trkpt>
      <trkpt lat="48.07665" lon="7.15111">
        <ele>876</ele>
        <time>2014-09-03T08:53:28Z</time>
      </trkpt>
      <trkpt lat="48.07662" lon="7.15097">
        <ele>874</ele>
        <time>2014-09-03T08:53:32Z</time>
      </trkpt>
      <trkpt lat="48.07662" lon="7.15081">
        <ele>875</ele>
        <time>2014-09-03T08:53:37Z</time>
      </trkpt>
      <trkpt lat="48.0766" lon="7.15067">
        <ele>875</ele>
        <time>2014-09-03T08:53:41Z</time>
      </trkpt>
      <trkpt lat="48.07658" lon="7.15057">
        <ele>874</ele>
        <time>2014-09-03T08:53:44Z</time>
      </trkpt>
      <trkpt lat="48.07662" lon="7.15046">
        <ele>866</ele>
        <time>2014-09-03T08:54:13Z</time>
      </trkpt>
      <trkpt lat="48.07655" lon="7.15042">
        <ele>863</ele>
        <time>2014-09-03T08:55:18Z</time>
      </trkpt>
      <trkpt lat="48.07656" lon="7.15028">
        <ele>869</ele>
        <time>2014-09-03T08:56:41Z</time>
      </trkpt>
      <trkpt lat="48.07651" lon="7.15019">
        <ele>869</ele>
        <time>2014-09-03T08:56:46Z</time>
      </trkpt>
      <trkpt lat="48.07646" lon="7.1501">
        <ele>871</ele>
        <time>2014-09-03T08:56:51Z</time>
      </trkpt>
      <trkpt lat="48.07641" lon="7.15001">
        <ele>871</ele>
        <time>2014-09-03T08:56:55Z</time>
      </trkpt>
      <trkpt lat="48.07636" lon="7.14991">
        <ele>872</ele>
        <time>2014-09-03T08:57:00Z</time>
      </trkpt>
      <trkpt lat="48.07632" lon="7.1498">
        <ele>874</ele>
        <time>2014-09-03T08:57:07Z</time>
      </trkpt>
      <trkpt lat="48.07625" lon="7.14971">
        <ele>875</ele>
        <time>2014-09-03T08:57:12Z</time>
      </trkpt>
      <trkpt lat="48.07619" lon="7.14965">
        <ele>876</ele>
        <time>2014-09-03T08:57:16Z</time>
      </trkpt>
      <trkpt lat="48.07613" lon="7.14957">
        <ele>878</ele>
        <time>2014-09-03T08:57:21Z</time>
      </trkpt>
      <trkpt lat="48.07606" lon="7.1495">
        <ele>879</ele>
        <time>2014-09-03T08:57:27Z</time>
      </trkpt>
      <trkpt lat="48.07601" lon="7.14941">
        <ele>879</ele>
        <time>2014-09-03T08:57:32Z</time>
      </trkpt>
      <trkpt lat="48.07596" lon="7.14934">
        <ele>878</ele>
        <time>2014-09-03T08:57:36Z</time>
      </trkpt>
      <trkpt lat="48.07591" lon="7.14927">
        <ele>879</ele>
        <time>2014-09-03T08:57:42Z</time>
      </trkpt>
      <trkpt lat="48.07585" lon="7.14919">
        <ele>880</ele>
        <time>2014-09-03T08:57:47Z</time>
      </trkpt>
      <trkpt lat="48.07578" lon="7.14915">
        <ele>880</ele>
        <time>2014-09-03T08:57:52Z</time>
      </trkpt>
      <trkpt lat="48.07576" lon="7.1491">
        <ele>878</ele>
        <time>2014-09-03T08:57:53Z</time>
      </trkpt>
      <trkpt lat="48.07568" lon="7.14896">
        <ele>878</ele>
        <time>2014-09-03T08:57:58Z</time>
      </trkpt>
      <trkpt lat="48.07563" lon="7.14882">
        <ele>879</ele>
        <time>2014-09-03T08:58:02Z</time>
      </trkpt>
      <trkpt lat="48.07558" lon="7.14872">
        <ele>880</ele>
        <time>2014-09-03T08:58:07Z</time>
      </trkpt>
      <trkpt lat="48.07553" lon="7.14861">
        <ele>877</ele>
        <time>2014-09-03T08:58:11Z</time>
      </trkpt>
      <trkpt lat="48.07552" lon="7.14846">
        <ele>880</ele>
        <time>2014-09-03T08:58:16Z</time>
      </trkpt>
      <trkpt lat="48.07552" lon="7.14832">
        <ele>882</ele>
        <time>2014-09-03T08:58:21Z</time>
      </trkpt>
      <trkpt lat="48.07548" lon="7.14819">
        <ele>888</ele>
        <time>2014-09-03T08:58:26Z</time>
      </trkpt>
      <trkpt lat="48.07545" lon="7.14812">
        <ele>888</ele>
        <time>2014-09-03T08:58:29Z</time>
      </trkpt>
      <trkpt lat="48.0754" lon="7.14803">
        <ele>890</ele>
        <time>2014-09-03T08:58:33Z</time>
      </trkpt>
      <trkpt lat="48.07537" lon="7.14789">
        <ele>890</ele>
        <time>2014-09-03T08:58:38Z</time>
      </trkpt>
      <trkpt lat="48.07534" lon="7.14777">
        <ele>894</ele>
        <time>2014-09-03T08:58:43Z</time>
      </trkpt>
      <trkpt lat="48.07532" lon="7.14765">
        <ele>895</ele>
        <time>2014-09-03T08:58:48Z</time>
      </trkpt>
      <trkpt lat="48.07536" lon="7.1475">
        <ele>896</ele>
        <time>2014-09-03T08:58:53Z</time>
      </trkpt>
      <trkpt lat="48.0754" lon="7.1474">
        <ele>900</ele>
        <time>2014-09-03T08:58:58Z</time>
      </trkpt>
      <trkpt lat="48.07545" lon="7.14735">
        <ele>901</ele>
        <time>2014-09-03T08:59:03Z</time>
      </trkpt>
      <trkpt lat="48.07549" lon="7.1473">
        <ele>902</ele>
        <time>2014-09-03T08:59:06Z</time>
      </trkpt>
      <trkpt lat="48.07555" lon="7.14722">
        <ele>904</ele>
        <time>2014-09-03T08:59:10Z</time>
      </trkpt>
      <trkpt lat="48.07557" lon="7.14711">
        <ele>904</ele>
        <time>2014-09-03T08:59:15Z</time>
      </trkpt>
      <trkpt lat="48.0756" lon="7.14701">
        <ele>907</ele>
        <time>2014-09-03T08:59:35Z</time>
      </trkpt>
      <trkpt lat="48.07564" lon="7.1469">
        <ele>913</ele>
        <time>2014-09-03T08:59:41Z</time>
      </trkpt>
      <trkpt lat="48.0757" lon="7.14683">
        <ele>918</ele>
        <time>2014-09-03T08:59:48Z</time>
      </trkpt>
      <trkpt lat="48.07578" lon="7.14678">
        <ele>921</ele>
        <time>2014-09-03T08:59:54Z</time>
      </trkpt>
      <trkpt lat="48.07581" lon="7.14669">
        <ele>922</ele>
        <time>2014-09-03T08:59:59Z</time>
      </trkpt>
      <trkpt lat="48.07586" lon="7.14663">
        <ele>922</ele>
        <time>2014-09-03T09:00:03Z</time>
      </trkpt>
      <trkpt lat="48.07592" lon="7.14655">
        <ele>922</ele>
        <time>2014-09-03T09:00:08Z</time>
      </trkpt>
      <trkpt lat="48.07599" lon="7.14646">
        <ele>923</ele>
        <time>2014-09-03T09:00:12Z</time>
      </trkpt>
      <trkpt lat="48.07606" lon="7.14638">
        <ele>925</ele>
        <time>2014-09-03T09:00:17Z</time>
      </trkpt>
      <trkpt lat="48.07612" lon="7.14628">
        <ele>929</ele>
        <time>2014-09-03T09:00:24Z</time>
      </trkpt>
      <trkpt lat="48.07617" lon="7.14618">
        <ele>926</ele>
        <time>2014-09-03T09:00:31Z</time>
      </trkpt>
      <trkpt lat="48.07624" lon="7.14611">
        <ele>926</ele>
        <time>2014-09-03T09:00:39Z</time>
      </trkpt>
      <trkpt lat="48.07629" lon="7.14602">
        <ele>932</ele>
        <time>2014-09-03T09:00:47Z</time>
      </trkpt>
      <trkpt lat="48.07638" lon="7.14596">
        <ele>936</ele>
        <time>2014-09-03T09:00:51Z</time>
      </trkpt>
      <trkpt lat="48.07643" lon="7.14585">
        <ele>938</ele>
        <time>2014-09-03T09:00:55Z</time>
      </trkpt>
      <trkpt lat="48.07651" lon="7.14577">
        <ele>938</ele>
        <time>2014-09-03T09:01:00Z</time>
      </trkpt>
      <trkpt lat="48.07653" lon="7.14569">
        <ele>938</ele>
        <time>2014-09-03T09:01:04Z</time>
      </trkpt>
      <trkpt lat="48.07658" lon="7.14558">
        <ele>940</ele>
        <time>2014-09-03T09:01:08Z</time>
      </trkpt>
      <trkpt lat="48.07666" lon="7.14552">
        <ele>943</ele>
        <time>2014-09-03T09:01:15Z</time>
      </trkpt>
      <trkpt lat="48.07672" lon="7.14544">
        <ele>945</ele>
        <time>2014-09-03T09:01:23Z</time>
      </trkpt>
      <trkpt lat="48.07676" lon="7.14536">
        <ele>949</ele>
        <time>2014-09-03T09:01:28Z</time>
      </trkpt>
      <trkpt lat="48.07681" lon="7.14531">
        <ele>949</ele>
        <time>2014-09-03T09:01:31Z</time>
      </trkpt>
      <trkpt lat="48.07688" lon="7.14524">
        <ele>952</ele>
        <time>2014-09-03T09:01:36Z</time>
      </trkpt>
      <trkpt lat="48.07695" lon="7.14517">
        <ele>949</ele>
        <time>2014-09-03T09:01:40Z</time>
      </trkpt>
      <trkpt lat="48.07704" lon="7.14506">
        <ele>951</ele>
        <time>2014-09-03T09:01:44Z</time>
      </trkpt>
      <trkpt lat="48.07709" lon="7.14499">
        <ele>954</ele>
        <time>2014-09-03T09:01:49Z</time>
      </trkpt>
      <trkpt lat="48.07712" lon="7.14489">
        <ele>957</ele>
        <time>2014-09-03T09:01:53Z</time>
      </trkpt>
      <trkpt lat="48.07716" lon="7.14479">
        <ele>962</ele>
        <time>2014-09-03T09:01:58Z</time>
      </trkpt>
      <trkpt lat="48.07722" lon="7.1447">
        <ele>963</ele>
        <time>2014-09-03T09:02:04Z</time>
      </trkpt>
      <trkpt lat="48.07728" lon="7.14466">
        <ele>963</ele>
        <time>2014-09-03T09:02:08Z</time>
      </trkpt>
      <trkpt lat="48.07734" lon="7.14458">
        <ele>963</ele>
        <time>2014-09-03T09:02:14Z</time>
      </trkpt>
      <trkpt lat="48.0774" lon="7.14453">
        <ele>963</ele>
        <time>2014-09-03T09:02:16Z</time>
      </trkpt>
      <trkpt lat="48.07747" lon="7.14445">
        <ele>965</ele>
        <time>2014-09-03T09:02:22Z</time>
      </trkpt>
      <trkpt lat="48.07752" lon="7.14437">
        <ele>968</ele>
        <time>2014-09-03T09:02:27Z</time>
      </trkpt>
      <trkpt lat="48.0776" lon="7.14433">
        <ele>965</ele>
        <time>2014-09-03T09:02:32Z</time>
      </trkpt>
      <trkpt lat="48.07766" lon="7.14427">
        <ele>965</ele>
        <time>2014-09-03T09:02:36Z</time>
      </trkpt>
      <trkpt lat="48.07772" lon="7.14418">
        <ele>965</ele>
        <time>2014-09-03T09:02:41Z</time>
      </trkpt>
      <trkpt lat="48.07777" lon="7.14412">
        <ele>966</ele>
        <time>2014-09-03T09:02:46Z</time>
      </trkpt>
      <trkpt lat="48.07786" lon="7.14404">
        <ele>966</ele>
        <time>2014-09-03T09:02:50Z</time>
      </trkpt>
      <trkpt lat="48.07793" lon="7.14396">
        <ele>967</ele>
        <time>2014-09-03T09:02:58Z</time>
      </trkpt>
      <trkpt lat="48.078" lon="7.14387">
        <ele>972</ele>
        <time>2014-09-03T09:03:02Z</time>
      </trkpt>
      <trkpt lat="48.07807" lon="7.1438">
        <ele>976</ele>
        <time>2014-09-03T09:03:07Z</time>
      </trkpt>
      <trkpt lat="48.07812" lon="7.14373">
        <ele>977</ele>
        <time>2014-09-03T09:03:12Z</time>
      </trkpt>
      <trkpt lat="48.0782" lon="7.14364">
        <ele>972</ele>
        <time>2014-09-03T09:03:17Z</time>
      </trkpt>
      <trkpt lat="48.07826" lon="7.1436">
        <ele>975</ele>
        <time>2014-09-03T09:03:21Z</time>
      </trkpt>
      <trkpt lat="48.07832" lon="7.14352">
        <ele>976</ele>
        <time>2014-09-03T09:03:25Z</time>
      </trkpt>
      <trkpt lat="48.0784" lon="7.14348">
        <ele>979</ele>
        <time>2014-09-03T09:03:32Z</time>
      </trkpt>
      <trkpt lat="48.07848" lon="7.14346">
        <ele>977</ele>
        <time>2014-09-03T09:03:37Z</time>
      </trkpt>
      <trkpt lat="48.07855" lon="7.14346">
        <ele>978</ele>
        <time>2014-09-03T09:03:41Z</time>
      </trkpt>
      <trkpt lat="48.07865" lon="7.14346">
        <ele>977</ele>
        <time>2014-09-03T09:03:46Z</time>
      </trkpt>
      <trkpt lat="48.07871" lon="7.14346">
        <ele>977</ele>
        <time>2014-09-03T09:03:49Z</time>
      </trkpt>
      <trkpt lat="48.07879" lon="7.14351">
        <ele>971</ele>
        <time>2014-09-03T09:03:55Z</time>
      </trkpt>
      <trkpt lat="48.07885" lon="7.14361">
        <ele>966</ele>
        <time>2014-09-03T09:04:44Z</time>
      </trkpt>
      <trkpt lat="48.07893" lon="7.14361">
        <ele>974</ele>
        <time>2014-09-03T09:05:20Z</time>
      </trkpt>
      <trkpt lat="48.07896" lon="7.14349">
        <ele>983</ele>
        <time>2014-09-03T09:05:36Z</time>
      </trkpt>
      <trkpt lat="48.079" lon="7.14338">
        <ele>979</ele>
        <time>2014-09-03T09:06:42Z</time>
      </trkpt>
      <trkpt lat="48.07907" lon="7.14338">
        <ele>979</ele>
        <time>2014-09-03T09:06:47Z</time>
      </trkpt>
      <trkpt lat="48.07914" lon="7.14334">
        <ele>982</ele>
        <time>2014-09-03T09:10:03Z</time>
      </trkpt>
      <trkpt lat="48.07913" lon="7.14321">
        <ele>983</ele>
        <time>2014-09-03T09:10:10Z</time>
      </trkpt>
      <trkpt lat="48.07916" lon="7.1431">
        <ele>986</ele>
        <time>2014-09-03T09:10:16Z</time>
      </trkpt>
      <trkpt lat="48.0792" lon="7.14299">
        <ele>982</ele>
        <time>2014-09-03T09:10:19Z</time>
      </trkpt>
      <trkpt lat="48.07923" lon="7.14288">
        <ele>978</ele>
        <time>2014-09-03T09:10:23Z</time>
      </trkpt>
      <trkpt lat="48.07927" lon="7.14277">
        <ele>985</ele>
        <time>2014-09-03T09:10:28Z</time>
      </trkpt>
      <trkpt lat="48.07924" lon="7.14266">
        <ele>992</ele>
        <time>2014-09-03T09:10:35Z</time>
      </trkpt>
      <trkpt lat="48.07925" lon="7.14252">
        <ele>989</ele>
        <time>2014-09-03T09:10:43Z</time>
      </trkpt>
      <trkpt lat="48.07925" lon="7.14242">
        <ele>989</ele>
        <time>2014-09-03T09:10:48Z</time>
      </trkpt>
      <trkpt lat="48.07925" lon="7.14231">
        <ele>993</ele>
        <time>2014-09-03T09:10:53Z</time>
      </trkpt>
      <trkpt lat="48.07925" lon="7.14217">
        <ele>996</ele>
        <time>2014-09-03T09:10:59Z</time>
      </trkpt>
      <trkpt lat="48.07926" lon="7.14204">
        <ele>998</ele>
        <time>2014-09-03T09:11:06Z</time>
      </trkpt>
      <trkpt lat="48.07929" lon="7.14194">
        <ele>998</ele>
        <time>2014-09-03T09:11:11Z</time>
      </trkpt>
      <trkpt lat="48.0793" lon="7.14182">
        <ele>1002</ele>
        <time>2014-09-03T09:11:19Z</time>
      </trkpt>
      <trkpt lat="48.07932" lon="7.14169">
        <ele>1006</ele>
        <time>2014-09-03T09:11:39Z</time>
      </trkpt>
      <trkpt lat="48.07927" lon="7.1416">
        <ele>1004</ele>
        <time>2014-09-03T09:11:49Z</time>
      </trkpt>
      <trkpt lat="48.07921" lon="7.14151">
        <ele>1001</ele>
        <time>2014-09-03T09:11:55Z</time>
      </trkpt>
      <trkpt lat="48.07915" lon="7.14137">
        <ele>1002</ele>
        <time>2014-09-03T09:12:00Z</time>
      </trkpt>
      <trkpt lat="48.0791" lon="7.14125">
        <ele>1000</ele>
        <time>2014-09-03T09:12:04Z</time>
      </trkpt>
      <trkpt lat="48.07904" lon="7.14116">
        <ele>999</ele>
        <time>2014-09-03T09:12:08Z</time>
      </trkpt>
      <trkpt lat="48.07899" lon="7.14098">
        <ele>1000</ele>
        <time>2014-09-03T09:12:13Z</time>
      </trkpt>
      <trkpt lat="48.07889" lon="7.14085">
        <ele>1002</ele>
        <time>2014-09-03T09:12:17Z</time>
      </trkpt>
      <trkpt lat="48.07876" lon="7.14069">
        <ele>1000</ele>
        <time>2014-09-03T09:12:22Z</time>
      </trkpt>
      <trkpt lat="48.07845" lon="7.14004">
        <ele>999</ele>
        <time>2014-09-03T09:12:30Z</time>
      </trkpt>
      <trkpt lat="48.07834" lon="7.13985">
        <ele>996</ele>
        <time>2014-09-03T09:12:35Z</time>
      </trkpt>
      <trkpt lat="48.0783" lon="7.13967">
        <ele>998</ele>
        <time>2014-09-03T09:12:39Z</time>
      </trkpt>
      <trkpt lat="48.07827" lon="7.13948">
        <ele>1001</ele>
        <time>2014-09-03T09:12:43Z</time>
      </trkpt>
      <trkpt lat="48.07823" lon="7.13927">
        <ele>1000</ele>
        <time>2014-09-03T09:12:47Z</time>
      </trkpt>
      <trkpt lat="48.07823" lon="7.13898">
        <ele>1000</ele>
        <time>2014-09-03T09:12:52Z</time>
      </trkpt>
      <trkpt lat="48.07822" lon="7.13876">
        <ele>998</ele>
        <time>2014-09-03T09:12:55Z</time>
      </trkpt>
      <trkpt lat="48.07825" lon="7.13854">
        <ele>997</ele>
        <time>2014-09-03T09:12:59Z</time>
      </trkpt>
      <trkpt lat="48.07828" lon="7.13834">
        <ele>998</ele>
        <time>2014-09-03T09:13:04Z</time>
      </trkpt>
      <trkpt lat="48.07828" lon="7.13814">
        <ele>999</ele>
        <time>2014-09-03T09:13:08Z</time>
      </trkpt>
      <trkpt lat="48.07828" lon="7.13793">
        <ele>1000</ele>
        <time>2014-09-03T09:13:11Z</time>
      </trkpt>
      <trkpt lat="48.07835" lon="7.13766">
        <ele>998</ele>
        <time>2014-09-03T09:13:15Z</time>
      </trkpt>
      <trkpt lat="48.0784" lon="7.1375">
        <ele>998</ele>
        <time>2014-09-03T09:13:18Z</time>
      </trkpt>
      <trkpt lat="48.07839" lon="7.13728">
        <ele>999</ele>
        <time>2014-09-03T09:13:23Z</time>
      </trkpt>
      <trkpt lat="48.07833" lon="7.13702">
        <ele>999</ele>
        <time>2014-09-03T09:13:27Z</time>
      </trkpt>
      <trkpt lat="48.07826" lon="7.13688">
        <ele>998</ele>
        <time>2014-09-03T09:13:32Z</time>
      </trkpt>
      <trkpt lat="48.0782" lon="7.13667">
        <ele>996</ele>
        <time>2014-09-03T09:13:36Z</time>
      </trkpt>
      <trkpt lat="48.07817" lon="7.13642">
        <ele>994</ele>
        <time>2014-09-03T09:13:41Z</time>
      </trkpt>
      <trkpt lat="48.07819" lon="7.13625">
        <ele>993</ele>
        <time>2014-09-03T09:13:45Z</time>
      </trkpt>
      <trkpt lat="48.07812" lon="7.13605">
        <ele>992</ele>
        <time>2014-09-03T09:13:49Z</time>
      </trkpt>
      <trkpt lat="48.07803" lon="7.13579">
        <ele>990</ele>
        <time>2014-09-03T09:13:53Z</time>
      </trkpt>
      <trkpt lat="48.07796" lon="7.13534">
        <ele>990</ele>
        <time>2014-09-03T09:13:58Z</time>
      </trkpt>
      <trkpt lat="48.07787" lon="7.13491">
        <ele>991</ele>
        <time>2014-09-03T09:14:03Z</time>
      </trkpt>
      <trkpt lat="48.07775" lon="7.13456">
        <ele>988</ele>
        <time>2014-09-03T09:14:07Z</time>
      </trkpt>
      <trkpt lat="48.07777" lon="7.13407">
        <ele>983</ele>
        <time>2014-09-03T09:14:12Z</time>
      </trkpt>
      <trkpt lat="48.07778" lon="7.13385">
        <ele>983</ele>
        <time>2014-09-03T09:14:16Z</time>
      </trkpt>
      <trkpt lat="48.07766" lon="7.13372">
        <ele>983</ele>
        <time>2014-09-03T09:14:20Z</time>
      </trkpt>
      <trkpt lat="48.07758" lon="7.13363">
        <ele>983</ele>
        <time>2014-09-03T09:14:24Z</time>
      </trkpt>
      <trkpt lat="48.07761" lon="7.13353">
        <ele>980</ele>
        <time>2014-09-03T09:15:11Z</time>
      </trkpt>
      <trkpt lat="48.07767" lon="7.13341">
        <ele>980</ele>
        <time>2014-09-03T09:15:15Z</time>
      </trkpt>
      <trkpt lat="48.07781" lon="7.13317">
        <ele>977</ele>
        <time>2014-09-03T09:15:19Z</time>
      </trkpt>
      <trkpt lat="48.07785" lon="7.13295">
        <ele>973</ele>
        <time>2014-09-03T09:15:23Z</time>
      </trkpt>
      <trkpt lat="48.07783" lon="7.13261">
        <ele>972</ele>
        <time>2014-09-03T09:15:28Z</time>
      </trkpt>
      <trkpt lat="48.0778" lon="7.132">
        <ele>968</ele>
        <time>2014-09-03T09:15:32Z</time>
      </trkpt>
      <trkpt lat="48.07782" lon="7.13158">
        <ele>965</ele>
        <time>2014-09-03T09:15:37Z</time>
      </trkpt>
      <trkpt lat="48.07781" lon="7.13115">
        <ele>964</ele>
        <time>2014-09-03T09:15:41Z</time>
      </trkpt>
      <trkpt lat="48.0778" lon="7.13056">
        <ele>959</ele>
        <time>2014-09-03T09:15:45Z</time>
      </trkpt>
      <trkpt lat="48.07786" lon="7.13037">
        <ele>957</ele>
        <time>2014-09-03T09:15:49Z</time>
      </trkpt>
      <trkpt lat="48.07787" lon="7.13025">
        <ele>953</ele>
        <time>2014-09-03T09:16:18Z</time>
      </trkpt>
      <trkpt lat="48.07789" lon="7.13018">
        <ele>954</ele>
        <time>2014-09-03T09:16:21Z</time>
      </trkpt>
      <trkpt lat="48.07796" lon="7.13006">
        <ele>953</ele>
        <time>2014-09-03T09:16:26Z</time>
      </trkpt>
      <trkpt lat="48.07806" lon="7.1299">
        <ele>952</ele>
        <time>2014-09-03T09:16:30Z</time>
      </trkpt>
      <trkpt lat="48.07826" lon="7.12966">
        <ele>952</ele>
        <time>2014-09-03T09:16:34Z</time>
      </trkpt>
      <trkpt lat="48.0782" lon="7.12932">
        <ele>950</ele>
        <time>2014-09-03T09:16:39Z</time>
      </trkpt>
      <trkpt lat="48.07821" lon="7.12881">
        <ele>944</ele>
        <time>2014-09-03T09:16:43Z</time>
      </trkpt>
      <trkpt lat="48.07829" lon="7.12871">
        <ele>942</ele>
        <time>2014-09-03T09:16:47Z</time>
      </trkpt>
      <trkpt lat="48.0784" lon="7.12861">
        <ele>944</ele>
        <time>2014-09-03T09:16:52Z</time>
      </trkpt>
      <trkpt lat="48.07846" lon="7.12852">
        <ele>945</ele>
        <time>2014-09-03T09:16:56Z</time>
      </trkpt>
      <trkpt lat="48.07853" lon="7.12833">
        <ele>944</ele>
        <time>2014-09-03T09:17:01Z</time>
      </trkpt>
      <trkpt lat="48.07853" lon="7.12821">
        <ele>945</ele>
        <time>2014-09-03T09:17:04Z</time>
      </trkpt>
      <trkpt lat="48.07853" lon="7.12809">
        <ele>945</ele>
        <time>2014-09-03T09:17:10Z</time>
      </trkpt>
      <trkpt lat="48.07855" lon="7.12796">
        <ele>944</ele>
        <time>2014-09-03T09:17:56Z</time>
      </trkpt>
      <trkpt lat="48.07855" lon="7.12789">
        <ele>944</ele>
        <time>2014-09-03T09:18:12Z</time>
      </trkpt>
      <trkpt lat="48.07855" lon="7.12769">
        <ele>944</ele>
        <time>2014-09-03T09:18:17Z</time>
      </trkpt>
      <trkpt lat="48.07855" lon="7.12759">
        <ele>945</ele>
        <time>2014-09-03T09:18:20Z</time>
      </trkpt>
      <trkpt lat="48.07854" lon="7.12742">
        <ele>949</ele>
        <time>2014-09-03T09:18:25Z</time>
      </trkpt>
      <trkpt lat="48.07855" lon="7.1273">
        <ele>949</ele>
        <time>2014-09-03T09:18:29Z</time>
      </trkpt>
      <trkpt lat="48.07861" lon="7.12718">
        <ele>951</ele>
        <time>2014-09-03T09:18:34Z</time>
      </trkpt>
      <trkpt lat="48.07865" lon="7.12708">
        <ele>953</ele>
        <time>2014-09-03T09:18:38Z</time>
      </trkpt>
      <trkpt lat="48.07868" lon="7.12696">
        <ele>954</ele>
        <time>2014-09-03T09:18:42Z</time>
      </trkpt>
      <trkpt lat="48.07876" lon="7.12682">
        <ele>954</ele>
        <time>2014-09-03T09:18:46Z</time>
      </trkpt>
      <trkpt lat="48.0788" lon="7.12666">
        <ele>954</ele>
        <time>2014-09-03T09:18:50Z</time>
      </trkpt>
      <trkpt lat="48.07888" lon="7.12646">
        <ele>956</ele>
        <time>2014-09-03T09:18:55Z</time>
      </trkpt>
      <trkpt lat="48.07896" lon="7.12633">
        <ele>955</ele>
        <time>2014-09-03T09:18:59Z</time>
      </trkpt>
      <trkpt lat="48.07915" lon="7.12624">
        <ele>954</ele>
        <time>2014-09-03T09:19:04Z</time>
      </trkpt>
      <trkpt lat="48.07929" lon="7.12616">
        <ele>953</ele>
        <time>2014-09-03T09:19:08Z</time>
      </trkpt>
      <trkpt lat="48.07948" lon="7.12618">
        <ele>952</ele>
        <time>2014-09-03T09:19:13Z</time>
      </trkpt>
      <trkpt lat="48.0796" lon="7.12613">
        <ele>950</ele>
        <time>2014-09-03T09:19:16Z</time>
      </trkpt>
      <trkpt lat="48.07975" lon="7.12603">
        <ele>947</ele>
        <time>2014-09-03T09:19:20Z</time>
      </trkpt>
      <trkpt lat="48.07989" lon="7.12596">
        <ele>946</ele>
        <time>2014-09-03T09:19:24Z</time>
      </trkpt>
      <trkpt lat="48.08007" lon="7.12564">
        <ele>939</ele>
        <time>2014-09-03T09:19:29Z</time>
      </trkpt>
      <trkpt lat="48.08023" lon="7.12535">
        <ele>939</ele>
        <time>2014-09-03T09:19:34Z</time>
      </trkpt>
      <trkpt lat="48.08031" lon="7.12524">
        <ele>939</ele>
        <time>2014-09-03T09:19:37Z</time>
      </trkpt>
      <trkpt lat="48.08039" lon="7.12512">
        <ele>939</ele>
        <time>2014-09-03T09:19:41Z</time>
      </trkpt>
      <trkpt lat="48.08048" lon="7.12492">
        <ele>939</ele>
        <time>2014-09-03T09:19:46Z</time>
      </trkpt>
      <trkpt lat="48.08053" lon="7.12471">
        <ele>939</ele>
        <time>2014-09-03T09:19:50Z</time>
      </trkpt>
      <trkpt lat="48.08049" lon="7.12454">
        <ele>941</ele>
        <time>2014-09-03T09:19:55Z</time>
      </trkpt>
      <trkpt lat="48.08047" lon="7.12448">
        <ele>942</ele>
        <time>2014-09-03T09:19:56Z</time>
      </trkpt>
      <trkpt lat="48.08044" lon="7.12435">
        <ele>942</ele>
        <time>2014-09-03T09:20:01Z</time>
      </trkpt>
      <trkpt lat="48.08043" lon="7.1242">
        <ele>943</ele>
        <time>2014-09-03T09:20:05Z</time>
      </trkpt>
      <trkpt lat="48.08041" lon="7.12408">
        <ele>944</ele>
        <time>2014-09-03T09:20:08Z</time>
      </trkpt>
      <trkpt lat="48.08039" lon="7.12385">
        <ele>945</ele>
        <time>2014-09-03T09:20:13Z</time>
      </trkpt>
      <trkpt lat="48.08037" lon="7.12366">
        <ele>946</ele>
        <time>2014-09-03T09:20:17Z</time>
      </trkpt>
      <trkpt lat="48.08035" lon="7.12352">
        <ele>947</ele>
        <time>2014-09-03T09:20:20Z</time>
      </trkpt>
      <trkpt lat="48.08033" lon="7.12333">
        <ele>947</ele>
        <time>2014-09-03T09:20:24Z</time>
      </trkpt>
      <trkpt lat="48.08032" lon="7.12323">
        <ele>948</ele>
        <time>2014-09-03T09:20:27Z</time>
      </trkpt>
      <trkpt lat="48.08036" lon="7.12296">
        <ele>947</ele>
        <time>2014-09-03T09:20:32Z</time>
      </trkpt>
      <trkpt lat="48.08049" lon="7.12271">
        <ele>948</ele>
        <time>2014-09-03T09:20:37Z</time>
      </trkpt>
      <trkpt lat="48.0806" lon="7.12254">
        <ele>948</ele>
        <time>2014-09-03T09:20:41Z</time>
      </trkpt>
      <trkpt lat="48.08072" lon="7.12238">
        <ele>947</ele>
        <time>2014-09-03T09:20:45Z</time>
      </trkpt>
      <trkpt lat="48.08088" lon="7.1222">
        <ele>946</ele>
        <time>2014-09-03T09:20:50Z</time>
      </trkpt>
      <trkpt lat="48.08095" lon="7.12212">
        <ele>946</ele>
        <time>2014-09-03T09:20:53Z</time>
      </trkpt>
      <trkpt lat="48.08101" lon="7.12204">
        <ele>945</ele>
        <time>2014-09-03T09:21:02Z</time>
      </trkpt>
      <trkpt lat="48.08106" lon="7.12202">
        <ele>946</ele>
        <time>2014-09-03T09:21:55Z</time>
      </trkpt>
      <trkpt lat="48.08123" lon="7.12183">
        <ele>944</ele>
        <time>2014-09-03T09:22:04Z</time>
      </trkpt>
      <trkpt lat="48.08133" lon="7.12177">
        <ele>944</ele>
        <time>2014-09-03T09:22:09Z</time>
      </trkpt>
      <trkpt lat="48.08144" lon="7.12166">
        <ele>944</ele>
        <time>2014-09-03T09:22:13Z</time>
      </trkpt>
      <trkpt lat="48.08151" lon="7.12161">
        <ele>943</ele>
        <time>2014-09-03T09:22:17Z</time>
      </trkpt>
      <trkpt lat="48.08159" lon="7.12151">
        <ele>943</ele>
        <time>2014-09-03T09:22:21Z</time>
      </trkpt>
      <trkpt lat="48.08173" lon="7.12136">
        <ele>944</ele>
        <time>2014-09-03T09:22:26Z</time>
      </trkpt>
      <trkpt lat="48.08187" lon="7.12124">
        <ele>942</ele>
        <time>2014-09-03T09:22:30Z</time>
      </trkpt>
      <trkpt lat="48.08205" lon="7.12112">
        <ele>939</ele>
        <time>2014-09-03T09:22:34Z</time>
      </trkpt>
      <trkpt lat="48.0822" lon="7.121">
        <ele>940</ele>
        <time>2014-09-03T09:22:39Z</time>
      </trkpt>
      <trkpt lat="48.08243" lon="7.12088">
        <ele>938</ele>
        <time>2014-09-03T09:22:44Z</time>
      </trkpt>
      <trkpt lat="48.08258" lon="7.12077">
        <ele>941</ele>
        <time>2014-09-03T09:22:49Z</time>
      </trkpt>
      <trkpt lat="48.08267" lon="7.12075">
        <ele>939</ele>
        <time>2014-09-03T09:22:52Z</time>
      </trkpt>
      <trkpt lat="48.08277" lon="7.12072">
        <ele>939</ele>
        <time>2014-09-03T09:22:57Z</time>
      </trkpt>
      <trkpt lat="48.08288" lon="7.12067">
        <ele>943</ele>
        <time>2014-09-03T09:23:01Z</time>
      </trkpt>
      <trkpt lat="48.08309" lon="7.12065">
        <ele>944</ele>
        <time>2014-09-03T09:23:05Z</time>
      </trkpt>
      <trkpt lat="48.08329" lon="7.12052">
        <ele>945</ele>
        <time>2014-09-03T09:23:09Z</time>
      </trkpt>
      <trkpt lat="48.08358" lon="7.12025">
        <ele>942</ele>
        <time>2014-09-03T09:23:13Z</time>
      </trkpt>
      <trkpt lat="48.08373" lon="7.12004">
        <ele>941</ele>
        <time>2014-09-03T09:23:18Z</time>
      </trkpt>
      <trkpt lat="48.08388" lon="7.11984">
        <ele>940</ele>
        <time>2014-09-03T09:23:23Z</time>
      </trkpt>
      <trkpt lat="48.08408" lon="7.1195">
        <ele>938</ele>
        <time>2014-09-03T09:23:27Z</time>
      </trkpt>
      <trkpt lat="48.08427" lon="7.11919">
        <ele>935</ele>
        <time>2014-09-03T09:23:32Z</time>
      </trkpt>
      <trkpt lat="48.08454" lon="7.11879">
        <ele>934</ele>
        <time>2014-09-03T09:23:36Z</time>
      </trkpt>
      <trkpt lat="48.08467" lon="7.11866">
        <ele>935</ele>
        <time>2014-09-03T09:23:40Z</time>
      </trkpt>
      <trkpt lat="48.08487" lon="7.11849">
        <ele>935</ele>
        <time>2014-09-03T09:23:45Z</time>
      </trkpt>
      <trkpt lat="48.08513" lon="7.11838">
        <ele>934</ele>
        <time>2014-09-03T09:23:50Z</time>
      </trkpt>
      <trkpt lat="48.08526" lon="7.11831">
        <ele>935</ele>
        <time>2014-09-03T09:23:53Z</time>
      </trkpt>
      <trkpt lat="48.08537" lon="7.11826">
        <ele>935</ele>
        <time>2014-09-03T09:23:57Z</time>
      </trkpt>
      <trkpt lat="48.08545" lon="7.1182">
        <ele>934</ele>
        <time>2014-09-03T09:24:00Z</time>
      </trkpt>
      <trkpt lat="48.08564" lon="7.11812">
        <ele>929</ele>
        <time>2014-09-03T09:24:05Z</time>
      </trkpt>
      <trkpt lat="48.08578" lon="7.11799">
        <ele>927</ele>
        <time>2014-09-03T09:24:09Z</time>
      </trkpt>
      <trkpt lat="48.08591" lon="7.11787">
        <ele>927</ele>
        <time>2014-09-03T09:24:13Z</time>
      </trkpt>
      <trkpt lat="48.08607" lon="7.11774">
        <ele>928</ele>
        <time>2014-09-03T09:24:17Z</time>
      </trkpt>
      <trkpt lat="48.08619" lon="7.11755">
        <ele>931</ele>
        <time>2014-09-03T09:24:22Z</time>
      </trkpt>
      <trkpt lat="48.0864" lon="7.11733">
        <ele>931</ele>
        <time>2014-09-03T09:24:26Z</time>
      </trkpt>
      <trkpt lat="48.08674" lon="7.11719">
        <ele>927</ele>
        <time>2014-09-03T09:24:31Z</time>
      </trkpt>
      <trkpt lat="48.08695" lon="7.11713">
        <ele>925</ele>
        <time>2014-09-03T09:24:35Z</time>
      </trkpt>
      <trkpt lat="48.08721" lon="7.1169">
        <ele>923</ele>
        <time>2014-09-03T09:24:40Z</time>
      </trkpt>
      <trkpt lat="48.08745" lon="7.11669">
        <ele>916</ele>
        <time>2014-09-03T09:24:44Z</time>
      </trkpt>
      <trkpt lat="48.08762" lon="7.1165">
        <ele>915</ele>
        <time>2014-09-03T09:24:47Z</time>
      </trkpt>
      <trkpt lat="48.08787" lon="7.11625">
        <ele>913</ele>
        <time>2014-09-03T09:24:51Z</time>
      </trkpt>
      <trkpt lat="48.08795" lon="7.11623">
        <ele>907</ele>
        <time>2014-09-03T09:24:57Z</time>
      </trkpt>
      <trkpt lat="48.08794" lon="7.1161">
        <ele>903</ele>
        <time>2014-09-03T09:25:02Z</time>
      </trkpt>
      <trkpt lat="48.08797" lon="7.11596">
        <ele>899</ele>
        <time>2014-09-03T09:25:06Z</time>
      </trkpt>
      <trkpt lat="48.08801" lon="7.11586">
        <ele>893</ele>
        <time>2014-09-03T09:25:09Z</time>
      </trkpt>
      <trkpt lat="48.08805" lon="7.11575">
        <ele>891</ele>
        <time>2014-09-03T09:25:14Z</time>
      </trkpt>
      <trkpt lat="48.08812" lon="7.11558">
        <ele>887</ele>
        <time>2014-09-03T09:25:19Z</time>
      </trkpt>
      <trkpt lat="48.08815" lon="7.11539">
        <ele>889</ele>
        <time>2014-09-03T09:25:23Z</time>
      </trkpt>
      <trkpt lat="48.08821" lon="7.11524">
        <ele>890</ele>
        <time>2014-09-03T09:25:27Z</time>
      </trkpt>
      <trkpt lat="48.08831" lon="7.11511">
        <ele>893</ele>
        <time>2014-09-03T09:25:32Z</time>
      </trkpt>
      <trkpt lat="48.08839" lon="7.11502">
        <ele>896</ele>
        <time>2014-09-03T09:25:36Z</time>
      </trkpt>
      <trkpt lat="48.08847" lon="7.11488">
        <ele>895</ele>
        <time>2014-09-03T09:25:41Z</time>
      </trkpt>
      <trkpt lat="48.0885" lon="7.11475">
        <ele>894</ele>
        <time>2014-09-03T09:25:46Z</time>
      </trkpt>
      <trkpt lat="48.08857" lon="7.11469">
        <ele>891</ele>
        <time>2014-09-03T09:25:50Z</time>
      </trkpt>
      <trkpt lat="48.08865" lon="7.11461">
        <ele>889</ele>
        <time>2014-09-03T09:25:54Z</time>
      </trkpt>
      <trkpt lat="48.08873" lon="7.11449">
        <ele>890</ele>
        <time>2014-09-03T09:25:58Z</time>
      </trkpt>
      <trkpt lat="48.08877" lon="7.11442">
        <ele>890</ele>
        <time>2014-09-03T09:26:02Z</time>
      </trkpt>
      <trkpt lat="48.08883" lon="7.11429">
        <ele>891</ele>
        <time>2014-09-03T09:26:07Z</time>
      </trkpt>
      <trkpt lat="48.08888" lon="7.11419">
        <ele>891</ele>
        <time>2014-09-03T09:26:11Z</time>
      </trkpt>
      <trkpt lat="48.08893" lon="7.11409">
        <ele>889</ele>
        <time>2014-09-03T09:26:15Z</time>
      </trkpt>
      <trkpt lat="48.08899" lon="7.11397">
        <ele>889</ele>
        <time>2014-09-03T09:26:20Z</time>
      </trkpt>
      <trkpt lat="48.08902" lon="7.11389">
        <ele>890</ele>
        <time>2014-09-03T09:26:24Z</time>
      </trkpt>
      <trkpt lat="48.08905" lon="7.11381">
        <ele>890</ele>
        <time>2014-09-03T09:26:27Z</time>
      </trkpt>
      <trkpt lat="48.08909" lon="7.11371">
        <ele>890</ele>
        <time>2014-09-03T09:26:32Z</time>
      </trkpt>
      <trkpt lat="48.08912" lon="7.11359">
        <ele>892</ele>
        <time>2014-09-03T09:26:36Z</time>
      </trkpt>
      <trkpt lat="48.08915" lon="7.11351">
        <ele>894</ele>
        <time>2014-09-03T09:26:42Z</time>
      </trkpt>
      <trkpt lat="48.08919" lon="7.11334">
        <ele>896</ele>
        <time>2014-09-03T09:26:46Z</time>
      </trkpt>
      <trkpt lat="48.08922" lon="7.11323">
        <ele>896</ele>
        <time>2014-09-03T09:26:50Z</time>
      </trkpt>
      <trkpt lat="48.08925" lon="7.11311">
        <ele>898</ele>
        <time>2014-09-03T09:26:55Z</time>
      </trkpt>
      <trkpt lat="48.08922" lon="7.113">
        <ele>902</ele>
        <time>2014-09-03T09:27:00Z</time>
      </trkpt>
      <trkpt lat="48.08921" lon="7.11291">
        <ele>904</ele>
        <time>2014-09-03T09:27:03Z</time>
      </trkpt>
      <trkpt lat="48.08916" lon="7.11278">
        <ele>907</ele>
        <time>2014-09-03T09:27:07Z</time>
      </trkpt>
      <trkpt lat="48.08916" lon="7.11265">
        <ele>904</ele>
        <time>2014-09-03T09:27:12Z</time>
      </trkpt>
      <trkpt lat="48.08916" lon="7.11253">
        <ele>905</ele>
        <time>2014-09-03T09:27:16Z</time>
      </trkpt>
      <trkpt lat="48.08912" lon="7.11242">
        <ele>904</ele>
        <time>2014-09-03T09:27:20Z</time>
      </trkpt>
      <trkpt lat="48.08906" lon="7.11228">
        <ele>911</ele>
        <time>2014-09-03T09:27:24Z</time>
      </trkpt>
      <trkpt lat="48.08899" lon="7.11221">
        <ele>911</ele>
        <time>2014-09-03T09:27:29Z</time>
      </trkpt>
      <trkpt lat="48.08892" lon="7.1121">
        <ele>915</ele>
        <time>2014-09-03T09:27:34Z</time>
      </trkpt>
      <trkpt lat="48.08886" lon="7.11203">
        <ele>916</ele>
        <time>2014-09-03T09:27:38Z</time>
      </trkpt>
      <trkpt lat="48.08876" lon="7.11194">
        <ele>918</ele>
        <time>2014-09-03T09:27:43Z</time>
      </trkpt>
      <trkpt lat="48.08868" lon="7.11185">
        <ele>921</ele>
        <time>2014-09-03T09:27:47Z</time>
      </trkpt>
      <trkpt lat="48.0886" lon="7.11173">
        <ele>920</ele>
        <time>2014-09-03T09:27:52Z</time>
      </trkpt>
      <trkpt lat="48.08855" lon="7.11162">
        <ele>920</ele>
        <time>2014-09-03T09:27:57Z</time>
      </trkpt>
      <trkpt lat="48.08849" lon="7.11148">
        <ele>920</ele>
        <time>2014-09-03T09:28:01Z</time>
      </trkpt>
      <trkpt lat="48.08845" lon="7.11137">
        <ele>920</ele>
        <time>2014-09-03T09:28:06Z</time>
      </trkpt>
      <trkpt lat="48.08842" lon="7.11123">
        <ele>920</ele>
        <time>2014-09-03T09:28:09Z</time>
      </trkpt>
      <trkpt lat="48.08839" lon="7.11111">
        <ele>920</ele>
        <time>2014-09-03T09:28:14Z</time>
      </trkpt>
      <trkpt lat="48.08835" lon="7.11098">
        <ele>920</ele>
        <time>2014-09-03T09:28:18Z</time>
      </trkpt>
      <trkpt lat="48.08833" lon="7.11084">
        <ele>921</ele>
        <time>2014-09-03T09:28:22Z</time>
      </trkpt>
      <trkpt lat="48.08835" lon="7.11065">
        <ele>921</ele>
        <time>2014-09-03T09:28:27Z</time>
      </trkpt>
      <trkpt lat="48.08837" lon="7.11054">
        <ele>921</ele>
        <time>2014-09-03T09:28:31Z</time>
      </trkpt>
      <trkpt lat="48.08842" lon="7.11043">
        <ele>924</ele>
        <time>2014-09-03T09:28:35Z</time>
      </trkpt>
      <trkpt lat="48.08848" lon="7.11033">
        <ele>923</ele>
        <time>2014-09-03T09:28:39Z</time>
      </trkpt>
      <trkpt lat="48.0885" lon="7.11026">
        <ele>924</ele>
        <time>2014-09-03T09:28:43Z</time>
      </trkpt>
      <trkpt lat="48.0885" lon="7.11011">
        <ele>925</ele>
        <time>2014-09-03T09:28:48Z</time>
      </trkpt>
      <trkpt lat="48.0885" lon="7.10999">
        <ele>925</ele>
        <time>2014-09-03T09:28:52Z</time>
      </trkpt>
      <trkpt lat="48.08849" lon="7.10985">
        <ele>925</ele>
        <time>2014-09-03T09:28:57Z</time>
      </trkpt>
      <trkpt lat="48.08848" lon="7.10974">
        <ele>925</ele>
        <time>2014-09-03T09:29:01Z</time>
      </trkpt>
      <trkpt lat="48.08849" lon="7.10958">
        <ele>924</ele>
        <time>2014-09-03T09:29:06Z</time>
      </trkpt>
      <trkpt lat="48.08853" lon="7.10945">
        <ele>924</ele>
        <time>2014-09-03T09:29:10Z</time>
      </trkpt>
      <trkpt lat="48.08857" lon="7.10928">
        <ele>924</ele>
        <time>2014-09-03T09:29:15Z</time>
      </trkpt>
      <trkpt lat="48.08858" lon="7.1091">
        <ele>925</ele>
        <time>2014-09-03T09:29:19Z</time>
      </trkpt>
      <trkpt lat="48.08857" lon="7.10896">
        <ele>925</ele>
        <time>2014-09-03T09:29:24Z</time>
      </trkpt>
      <trkpt lat="48.08858" lon="7.1088">
        <ele>926</ele>
        <time>2014-09-03T09:29:29Z</time>
      </trkpt>
      <trkpt lat="48.08864" lon="7.10887">
        <ele>928</ele>
        <time>2014-09-03T09:29:38Z</time>
      </trkpt>
      <trkpt lat="48.08869" lon="7.10897">
        <ele>928</ele>
        <time>2014-09-03T09:29:43Z</time>
      </trkpt>
      <trkpt lat="48.08874" lon="7.10908">
        <ele>929</ele>
        <time>2014-09-03T09:29:48Z</time>
      </trkpt>
      <trkpt lat="48.08878" lon="7.10916">
        <ele>931</ele>
        <time>2014-09-03T09:29:52Z</time>
      </trkpt>
      <trkpt lat="48.08884" lon="7.10927">
        <ele>930</ele>
        <time>2014-09-03T09:29:57Z</time>
      </trkpt>
      <trkpt lat="48.08889" lon="7.10937">
        <ele>931</ele>
        <time>2014-09-03T09:30:02Z</time>
      </trkpt>
      <trkpt lat="48.08892" lon="7.10945">
        <ele>931</ele>
        <time>2014-09-03T09:30:06Z</time>
      </trkpt>
      <trkpt lat="48.08897" lon="7.10955">
        <ele>930</ele>
        <time>2014-09-03T09:30:11Z</time>
      </trkpt>
      <trkpt lat="48.089" lon="7.10964">
        <ele>930</ele>
        <time>2014-09-03T09:30:17Z</time>
      </trkpt>
      <trkpt lat="48.08904" lon="7.10972">
        <ele>931</ele>
        <time>2014-09-03T09:30:21Z</time>
      </trkpt>
      <trkpt lat="48.08908" lon="7.10983">
        <ele>933</ele>
        <time>2014-09-03T09:30:26Z</time>
      </trkpt>
      <trkpt lat="48.08914" lon="7.10992">
        <ele>935</ele>
        <time>2014-09-03T09:30:30Z</time>
      </trkpt>
      <trkpt lat="48.0892" lon="7.11002">
        <ele>937</ele>
        <time>2014-09-03T09:30:35Z</time>
      </trkpt>
      <trkpt lat="48.08927" lon="7.11007">
        <ele>935</ele>
        <time>2014-09-03T09:30:39Z</time>
      </trkpt>
      <trkpt lat="48.08935" lon="7.1101">
        <ele>933</ele>
        <time>2014-09-03T09:30:44Z</time>
      </trkpt>
      <trkpt lat="48.08943" lon="7.11016">
        <ele>936</ele>
        <time>2014-09-03T09:30:49Z</time>
      </trkpt>
      <trkpt lat="48.0895" lon="7.11022">
        <ele>936</ele>
        <time>2014-09-03T09:30:54Z</time>
      </trkpt>
      <trkpt lat="48.08956" lon="7.11029">
        <ele>940</ele>
        <time>2014-09-03T09:30:59Z</time>
      </trkpt>
      <trkpt lat="48.08963" lon="7.11037">
        <ele>939</ele>
        <time>2014-09-03T09:31:04Z</time>
      </trkpt>
      <trkpt lat="48.08969" lon="7.11045">
        <ele>943</ele>
        <time>2014-09-03T09:31:09Z</time>
      </trkpt>
      <trkpt lat="48.08976" lon="7.11052">
        <ele>941</ele>
        <time>2014-09-03T09:31:14Z</time>
      </trkpt>
      <trkpt lat="48.08983" lon="7.11061">
        <ele>940</ele>
        <time>2014-09-03T09:31:19Z</time>
      </trkpt>
      <trkpt lat="48.08989" lon="7.11069">
        <ele>942</ele>
        <time>2014-09-03T09:31:24Z</time>
      </trkpt>
      <trkpt lat="48.08995" lon="7.1108">
        <ele>941</ele>
        <time>2014-09-03T09:31:28Z</time>
      </trkpt>
      <trkpt lat="48.09001" lon="7.11089">
        <ele>943</ele>
        <time>2014-09-03T09:31:34Z</time>
      </trkpt>
      <trkpt lat="48.09005" lon="7.111">
        <ele>948</ele>
        <time>2014-09-03T09:31:41Z</time>
      </trkpt>
      <trkpt lat="48.0901" lon="7.11109">
        <ele>947</ele>
        <time>2014-09-03T09:31:46Z</time>
      </trkpt>
      <trkpt lat="48.09017" lon="7.11118">
        <ele>947</ele>
        <time>2014-09-03T09:31:51Z</time>
      </trkpt>
      <trkpt lat="48.09022" lon="7.11125">
        <ele>946</ele>
        <time>2014-09-03T09:31:55Z</time>
      </trkpt>
      <trkpt lat="48.09029" lon="7.11133">
        <ele>947</ele>
        <time>2014-09-03T09:32:00Z</time>
      </trkpt>
      <trkpt lat="48.09036" lon="7.11144">
        <ele>949</ele>
        <time>2014-09-03T09:32:04Z</time>
      </trkpt>
      <trkpt lat="48.09041" lon="7.11154">
        <ele>951</ele>
        <time>2014-09-03T09:32:09Z</time>
      </trkpt>
      <trkpt lat="48.09046" lon="7.11167">
        <ele>952</ele>
        <time>2014-09-03T09:32:14Z</time>
      </trkpt>
      <trkpt lat="48.09052" lon="7.11178">
        <ele>952</ele>
        <time>2014-09-03T09:32:18Z</time>
      </trkpt>
      <trkpt lat="48.09057" lon="7.11189">
        <ele>955</ele>
        <time>2014-09-03T09:32:23Z</time>
      </trkpt>
      <trkpt lat="48.09066" lon="7.11184">
        <ele>954</ele>
        <time>2014-09-03T09:32:28Z</time>
      </trkpt>
      <trkpt lat="48.09069" lon="7.11172">
        <ele>958</ele>
        <time>2014-09-03T09:32:32Z</time>
      </trkpt>
      <trkpt lat="48.09071" lon="7.11159">
        <ele>959</ele>
        <time>2014-09-03T09:32:41Z</time>
      </trkpt>
      <trkpt lat="48.09077" lon="7.1115">
        <ele>955</ele>
        <time>2014-09-03T09:33:33Z</time>
      </trkpt>
      <trkpt lat="48.09082" lon="7.11144">
        <ele>957</ele>
        <time>2014-09-03T09:33:45Z</time>
      </trkpt>
      <trkpt lat="48.09088" lon="7.11137">
        <ele>957</ele>
        <time>2014-09-03T09:33:50Z</time>
      </trkpt>
      <trkpt lat="48.09093" lon="7.11128">
        <ele>959</ele>
        <time>2014-09-03T09:33:55Z</time>
      </trkpt>
      <trkpt lat="48.09097" lon="7.11119">
        <ele>960</ele>
        <time>2014-09-03T09:33:59Z</time>
      </trkpt>
      <trkpt lat="48.091" lon="7.1111">
        <ele>960</ele>
        <time>2014-09-03T09:34:04Z</time>
      </trkpt>
      <trkpt lat="48.09104" lon="7.11101">
        <ele>959</ele>
        <time>2014-09-03T09:34:09Z</time>
      </trkpt>
      <trkpt lat="48.09108" lon="7.11093">
        <ele>962</ele>
        <time>2014-09-03T09:34:13Z</time>
      </trkpt>
      <trkpt lat="48.09113" lon="7.11082">
        <ele>961</ele>
        <time>2014-09-03T09:34:25Z</time>
      </trkpt>
      <trkpt lat="48.09117" lon="7.11072">
        <ele>961</ele>
        <time>2014-09-03T09:35:00Z</time>
      </trkpt>
      <trkpt lat="48.0912" lon="7.11064">
        <ele>961</ele>
        <time>2014-09-03T09:35:05Z</time>
      </trkpt>
      <trkpt lat="48.09125" lon="7.11053">
        <ele>961</ele>
        <time>2014-09-03T09:35:11Z</time>
      </trkpt>
      <trkpt lat="48.09128" lon="7.11043">
        <ele>963</ele>
        <time>2014-09-03T09:35:15Z</time>
      </trkpt>
      <trkpt lat="48.09133" lon="7.11032">
        <ele>962</ele>
        <time>2014-09-03T09:35:19Z</time>
      </trkpt>
      <trkpt lat="48.0914" lon="7.11026">
        <ele>963</ele>
        <time>2014-09-03T09:35:25Z</time>
      </trkpt>
      <trkpt lat="48.09146" lon="7.11016">
        <ele>966</ele>
        <time>2014-09-03T09:35:30Z</time>
      </trkpt>
      <trkpt lat="48.09152" lon="7.11006">
        <ele>967</ele>
        <time>2014-09-03T09:35:34Z</time>
      </trkpt>
      <trkpt lat="48.09156" lon="7.11">
        <ele>967</ele>
        <time>2014-09-03T09:35:38Z</time>
      </trkpt>
      <trkpt lat="48.09165" lon="7.1099">
        <ele>966</ele>
        <time>2014-09-03T09:35:43Z</time>
      </trkpt>
      <trkpt lat="48.09186" lon="7.1097">
        <ele>964</ele>
        <time>2014-09-03T09:35:47Z</time>
      </trkpt>
      <trkpt lat="48.09198" lon="7.10961">
        <ele>965</ele>
        <time>2014-09-03T09:35:52Z</time>
      </trkpt>
      <trkpt lat="48.09215" lon="7.10948">
        <ele>963</ele>
        <time>2014-09-03T09:35:56Z</time>
      </trkpt>
      <trkpt lat="48.09229" lon="7.10932">
        <ele>963</ele>
        <time>2014-09-03T09:36:01Z</time>
      </trkpt>
      <trkpt lat="48.09237" lon="7.10928">
        <ele>960</ele>
        <time>2014-09-03T09:36:05Z</time>
      </trkpt>
      <trkpt lat="48.09243" lon="7.10923">
        <ele>961</ele>
        <time>2014-09-03T09:36:08Z</time>
      </trkpt>
      <trkpt lat="48.09258" lon="7.10905">
        <ele>961</ele>
        <time>2014-09-03T09:36:13Z</time>
      </trkpt>
      <trkpt lat="48.09269" lon="7.10891">
        <ele>960</ele>
        <time>2014-09-03T09:36:17Z</time>
      </trkpt>
      <trkpt lat="48.09275" lon="7.10885">
        <ele>961</ele>
        <time>2014-09-03T09:36:20Z</time>
      </trkpt>
      <trkpt lat="48.09286" lon="7.10875">
        <ele>962</ele>
        <time>2014-09-03T09:36:25Z</time>
      </trkpt>
      <trkpt lat="48.09294" lon="7.10864">
        <ele>963</ele>
        <time>2014-09-03T09:36:29Z</time>
      </trkpt>
      <trkpt lat="48.09313" lon="7.10842">
        <ele>961</ele>
        <time>2014-09-03T09:36:34Z</time>
      </trkpt>
      <trkpt lat="48.09328" lon="7.10821">
        <ele>957</ele>
        <time>2014-09-03T09:36:39Z</time>
      </trkpt>
      <trkpt lat="48.09344" lon="7.10805">
        <ele>957</ele>
        <time>2014-09-03T09:36:44Z</time>
      </trkpt>
      <trkpt lat="48.0936" lon="7.10788">
        <ele>957</ele>
        <time>2014-09-03T09:36:48Z</time>
      </trkpt>
      <trkpt lat="48.0938" lon="7.10776">
        <ele>957</ele>
        <time>2014-09-03T09:36:53Z</time>
      </trkpt>
      <trkpt lat="48.09389" lon="7.10767">
        <ele>956</ele>
        <time>2014-09-03T09:36:57Z</time>
      </trkpt>
      <trkpt lat="48.09402" lon="7.10757">
        <ele>954</ele>
        <time>2014-09-03T09:37:01Z</time>
      </trkpt>
      <trkpt lat="48.09407" lon="7.10752">
        <ele>954</ele>
        <time>2014-09-03T09:37:04Z</time>
      </trkpt>
      <trkpt lat="48.09422" lon="7.10738">
        <ele>955</ele>
        <time>2014-09-03T09:37:08Z</time>
      </trkpt>
      <trkpt lat="48.09436" lon="7.10725">
        <ele>956</ele>
        <time>2014-09-03T09:37:12Z</time>
      </trkpt>
      <trkpt lat="48.09448" lon="7.1071">
        <ele>957</ele>
        <time>2014-09-03T09:37:15Z</time>
      </trkpt>
      <trkpt lat="48.09458" lon="7.10699">
        <ele>958</ele>
        <time>2014-09-03T09:37:19Z</time>
      </trkpt>
      <trkpt lat="48.09474" lon="7.10685">
        <ele>958</ele>
        <time>2014-09-03T09:37:24Z</time>
      </trkpt>
      <trkpt lat="48.0949" lon="7.10671">
        <ele>958</ele>
        <time>2014-09-03T09:37:29Z</time>
      </trkpt>
      <trkpt lat="48.09501" lon="7.10663">
        <ele>959</ele>
        <time>2014-09-03T09:37:32Z</time>
      </trkpt>
      <trkpt lat="48.09516" lon="7.10651">
        <ele>960</ele>
        <time>2014-09-03T09:37:36Z</time>
      </trkpt>
      <trkpt lat="48.09534" lon="7.10632">
        <ele>958</ele>
        <time>2014-09-03T09:37:40Z</time>
      </trkpt>
      <trkpt lat="48.09547" lon="7.10618">
        <ele>959</ele>
        <time>2014-09-03T09:37:45Z</time>
      </trkpt>
      <trkpt lat="48.09565" lon="7.10601">
        <ele>958</ele>
        <time>2014-09-03T09:37:50Z</time>
      </trkpt>
      <trkpt lat="48.09578" lon="7.10589">
        <ele>960</ele>
        <time>2014-09-03T09:37:54Z</time>
      </trkpt>
      <trkpt lat="48.0959" lon="7.10579">
        <ele>961</ele>
        <time>2014-09-03T09:37:58Z</time>
      </trkpt>
      <trkpt lat="48.096" lon="7.10568">
        <ele>964</ele>
        <time>2014-09-03T09:38:02Z</time>
      </trkpt>
      <trkpt lat="48.09614" lon="7.10555">
        <ele>962</ele>
        <time>2014-09-03T09:38:07Z</time>
      </trkpt>
      <trkpt lat="48.09623" lon="7.10547">
        <ele>960</ele>
        <time>2014-09-03T09:38:10Z</time>
      </trkpt>
      <trkpt lat="48.09638" lon="7.10534">
        <ele>961</ele>
        <time>2014-09-03T09:38:15Z</time>
      </trkpt>
      <trkpt lat="48.09647" lon="7.10527">
        <ele>960</ele>
        <time>2014-09-03T09:38:18Z</time>
      </trkpt>
      <trkpt lat="48.09663" lon="7.10521">
        <ele>963</ele>
        <time>2014-09-03T09:38:23Z</time>
      </trkpt>
      <trkpt lat="48.09671" lon="7.10519">
        <ele>964</ele>
        <time>2014-09-03T09:38:26Z</time>
      </trkpt>
      <trkpt lat="48.0968" lon="7.10518">
        <ele>966</ele>
        <time>2014-09-03T09:38:30Z</time>
      </trkpt>
      <trkpt lat="48.09685" lon="7.10518">
        <ele>964</ele>
        <time>2014-09-03T09:38:32Z</time>
      </trkpt>
      <trkpt lat="48.09698" lon="7.1052">
        <ele>965</ele>
        <time>2014-09-03T09:38:36Z</time>
      </trkpt>
      <trkpt lat="48.0971" lon="7.10528">
        <ele>965</ele>
        <time>2014-09-03T09:38:41Z</time>
      </trkpt>
      <trkpt lat="48.09716" lon="7.10532">
        <ele>965</ele>
        <time>2014-09-03T09:38:43Z</time>
      </trkpt>
      <trkpt lat="48.09728" lon="7.10538">
        <ele>967</ele>
        <time>2014-09-03T09:38:48Z</time>
      </trkpt>
      <trkpt lat="48.09735" lon="7.10542">
        <ele>967</ele>
        <time>2014-09-03T09:38:53Z</time>
      </trkpt>
      <trkpt lat="48.09745" lon="7.10546">
        <ele>967</ele>
        <time>2014-09-03T09:38:57Z</time>
      </trkpt>
      <trkpt lat="48.09755" lon="7.10541">
        <ele>968</ele>
        <time>2014-09-03T09:39:01Z</time>
      </trkpt>
      <trkpt lat="48.09766" lon="7.10534">
        <ele>967</ele>
        <time>2014-09-03T09:39:05Z</time>
      </trkpt>
      <trkpt lat="48.09775" lon="7.10529">
        <ele>967</ele>
        <time>2014-09-03T09:39:09Z</time>
      </trkpt>
      <trkpt lat="48.09784" lon="7.10525">
        <ele>970</ele>
        <time>2014-09-03T09:39:14Z</time>
      </trkpt>
      <trkpt lat="48.09795" lon="7.1052">
        <ele>970</ele>
        <time>2014-09-03T09:39:19Z</time>
      </trkpt>
      <trkpt lat="48.09804" lon="7.10517">
        <ele>970</ele>
        <time>2014-09-03T09:39:23Z</time>
      </trkpt>
      <trkpt lat="48.09813" lon="7.10515">
        <ele>968</ele>
        <time>2014-09-03T09:39:26Z</time>
      </trkpt>
      <trkpt lat="48.09822" lon="7.10512">
        <ele>969</ele>
        <time>2014-09-03T09:39:31Z</time>
      </trkpt>
      <trkpt lat="48.09832" lon="7.10508">
        <ele>970</ele>
        <time>2014-09-03T09:39:36Z</time>
      </trkpt>
      <trkpt lat="48.0984" lon="7.10504">
        <ele>971</ele>
        <time>2014-09-03T09:39:41Z</time>
      </trkpt>
      <trkpt lat="48.09848" lon="7.105">
        <ele>974</ele>
        <time>2014-09-03T09:39:45Z</time>
      </trkpt>
      <trkpt lat="48.09855" lon="7.10494">
        <ele>975</ele>
        <time>2014-09-03T09:39:51Z</time>
      </trkpt>
      <trkpt lat="48.09862" lon="7.10487">
        <ele>976</ele>
        <time>2014-09-03T09:39:56Z</time>
      </trkpt>
      <trkpt lat="48.09868" lon="7.10478">
        <ele>978</ele>
        <time>2014-09-03T09:40:00Z</time>
      </trkpt>
      <trkpt lat="48.09873" lon="7.10468">
        <ele>979</ele>
        <time>2014-09-03T09:40:06Z</time>
      </trkpt>
      <trkpt lat="48.09875" lon="7.10459">
        <ele>980</ele>
        <time>2014-09-03T09:40:10Z</time>
      </trkpt>
      <trkpt lat="48.09879" lon="7.10449">
        <ele>980</ele>
        <time>2014-09-03T09:40:14Z</time>
      </trkpt>
      <trkpt lat="48.0988" lon="7.10436">
        <ele>981</ele>
        <time>2014-09-03T09:40:21Z</time>
      </trkpt>
      <trkpt lat="48.09881" lon="7.10423">
        <ele>983</ele>
        <time>2014-09-03T09:40:26Z</time>
      </trkpt>
      <trkpt lat="48.09879" lon="7.1041">
        <ele>984</ele>
        <time>2014-09-03T09:40:33Z</time>
      </trkpt>
      <trkpt lat="48.09876" lon="7.10398">
        <ele>986</ele>
        <time>2014-09-03T09:40:38Z</time>
      </trkpt>
      <trkpt lat="48.09875" lon="7.10403">
        <ele>985</ele>
        <time>2014-09-03T09:44:05Z</time>
      </trkpt>
      <trkpt lat="48.0988" lon="7.1044">
        <ele>985</ele>
        <time>2014-09-03T09:44:10Z</time>
      </trkpt>
      <trkpt lat="48.0988" lon="7.10452">
        <ele>981</ele>
        <time>2014-09-03T09:44:55Z</time>
      </trkpt>
      <trkpt lat="48.09875" lon="7.10464">
        <ele>979</ele>
        <time>2014-09-03T09:44:58Z</time>
      </trkpt>
      <trkpt lat="48.09859" lon="7.1049">
        <ele>977</ele>
        <time>2014-09-03T09:45:02Z</time>
      </trkpt>
      <trkpt lat="48.09838" lon="7.10507">
        <ele>973</ele>
        <time>2014-09-03T09:45:05Z</time>
      </trkpt>
      <trkpt lat="48.09794" lon="7.10519">
        <ele>970</ele>
        <time>2014-09-03T09:45:09Z</time>
      </trkpt>
      <trkpt lat="48.0976" lon="7.10535">
        <ele>969</ele>
        <time>2014-09-03T09:45:14Z</time>
      </trkpt>
      <trkpt lat="48.09751" lon="7.10542">
        <ele>969</ele>
        <time>2014-09-03T09:45:17Z</time>
      </trkpt>
      <trkpt lat="48.09744" lon="7.1054">
        <ele>969</ele>
        <time>2014-09-03T09:45:34Z</time>
      </trkpt>
      <trkpt lat="48.09729" lon="7.10535">
        <ele>969</ele>
        <time>2014-09-03T09:45:59Z</time>
      </trkpt>
      <trkpt lat="48.09733" lon="7.10525">
        <ele>963</ele>
        <time>2014-09-03T09:47:56Z</time>
      </trkpt>
      <trkpt lat="48.09736" lon="7.10502">
        <ele>962</ele>
        <time>2014-09-03T09:48:00Z</time>
      </trkpt>
      <trkpt lat="48.09737" lon="7.10486">
        <ele>962</ele>
        <time>2014-09-03T09:48:04Z</time>
      </trkpt>
      <trkpt lat="48.09739" lon="7.1045">
        <ele>961</ele>
        <time>2014-09-03T09:48:08Z</time>
      </trkpt>
      <trkpt lat="48.09747" lon="7.10425">
        <ele>961</ele>
        <time>2014-09-03T09:48:13Z</time>
      </trkpt>
      <trkpt lat="48.09754" lon="7.10399">
        <ele>961</ele>
        <time>2014-09-03T09:48:18Z</time>
      </trkpt>
      <trkpt lat="48.09753" lon="7.1037">
        <ele>961</ele>
        <time>2014-09-03T09:48:23Z</time>
      </trkpt>
      <trkpt lat="48.09747" lon="7.10341">
        <ele>960</ele>
        <time>2014-09-03T09:48:27Z</time>
      </trkpt>
      <trkpt lat="48.09744" lon="7.10307">
        <ele>958</ele>
        <time>2014-09-03T09:48:31Z</time>
      </trkpt>
      <trkpt lat="48.09748" lon="7.10272">
        <ele>958</ele>
        <time>2014-09-03T09:48:35Z</time>
      </trkpt>
      <trkpt lat="48.09738" lon="7.1024">
        <ele>956</ele>
        <time>2014-09-03T09:48:40Z</time>
      </trkpt>
      <trkpt lat="48.09732" lon="7.10221">
        <ele>958</ele>
        <time>2014-09-03T09:48:44Z</time>
      </trkpt>
      <trkpt lat="48.09728" lon="7.10212">
        <ele>960</ele>
        <time>2014-09-03T09:48:46Z</time>
      </trkpt>
      <trkpt lat="48.09718" lon="7.10191">
        <ele>965</ele>
        <time>2014-09-03T09:48:51Z</time>
      </trkpt>
      <trkpt lat="48.09708" lon="7.10172">
        <ele>967</ele>
        <time>2014-09-03T09:48:55Z</time>
      </trkpt>
      <trkpt lat="48.09699" lon="7.10156">
        <ele>968</ele>
        <time>2014-09-03T09:49:00Z</time>
      </trkpt>
      <trkpt lat="48.09686" lon="7.10131">
        <ele>966</ele>
        <time>2014-09-03T09:49:04Z</time>
      </trkpt>
      <trkpt lat="48.0968" lon="7.10115">
        <ele>967</ele>
        <time>2014-09-03T09:49:08Z</time>
      </trkpt>
      <trkpt lat="48.09667" lon="7.10084">
        <ele>965</ele>
        <time>2014-09-03T09:49:13Z</time>
      </trkpt>
      <trkpt lat="48.0966" lon="7.10064">
        <ele>964</ele>
        <time>2014-09-03T09:49:15Z</time>
      </trkpt>
      <trkpt lat="48.09648" lon="7.10039">
        <ele>964</ele>
        <time>2014-09-03T09:49:20Z</time>
      </trkpt>
      <trkpt lat="48.09641" lon="7.10025">
        <ele>964</ele>
        <time>2014-09-03T09:49:22Z</time>
      </trkpt>
      <trkpt lat="48.09634" lon="7.10004">
        <ele>964</ele>
        <time>2014-09-03T09:49:26Z</time>
      </trkpt>
      <trkpt lat="48.09629" lon="7.09984">
        <ele>964</ele>
        <time>2014-09-03T09:49:31Z</time>
      </trkpt>
      <trkpt lat="48.09626" lon="7.09974">
        <ele>964</ele>
        <time>2014-09-03T09:49:33Z</time>
      </trkpt>
      <trkpt lat="48.09621" lon="7.09948">
        <ele>965</ele>
        <time>2014-09-03T09:49:37Z</time>
      </trkpt>
      <trkpt lat="48.09613" lon="7.09925">
        <ele>966</ele>
        <time>2014-09-03T09:49:42Z</time>
      </trkpt>
      <trkpt lat="48.09607" lon="7.09911">
        <ele>967</ele>
        <time>2014-09-03T09:49:45Z</time>
      </trkpt>
      <trkpt lat="48.09602" lon="7.09891">
        <ele>967</ele>
        <time>2014-09-03T09:49:50Z</time>
      </trkpt>
      <trkpt lat="48.09596" lon="7.09868">
        <ele>967</ele>
        <time>2014-09-03T09:49:54Z</time>
      </trkpt>
      <trkpt lat="48.0959" lon="7.09851">
        <ele>967</ele>
        <time>2014-09-03T09:49:59Z</time>
      </trkpt>
      <trkpt lat="48.09583" lon="7.0983">
        <ele>968</ele>
        <time>2014-09-03T09:50:04Z</time>
      </trkpt>
      <trkpt lat="48.09578" lon="7.09817">
        <ele>969</ele>
        <time>2014-09-03T09:50:07Z</time>
      </trkpt>
      <trkpt lat="48.09573" lon="7.09805">
        <ele>970</ele>
        <time>2014-09-03T09:50:10Z</time>
      </trkpt>
      <trkpt lat="48.09566" lon="7.09786">
        <ele>972</ele>
        <time>2014-09-03T09:50:14Z</time>
      </trkpt>
      <trkpt lat="48.0956" lon="7.09772">
        <ele>973</ele>
        <time>2014-09-03T09:50:19Z</time>
      </trkpt>
      <trkpt lat="48.09556" lon="7.0976">
        <ele>973</ele>
        <time>2014-09-03T09:50:22Z</time>
      </trkpt>
      <trkpt lat="48.09549" lon="7.0974">
        <ele>973</ele>
        <time>2014-09-03T09:50:26Z</time>
      </trkpt>
      <trkpt lat="48.0954" lon="7.09718">
        <ele>973</ele>
        <time>2014-09-03T09:50:31Z</time>
      </trkpt>
      <trkpt lat="48.09533" lon="7.097">
        <ele>974</ele>
        <time>2014-09-03T09:50:36Z</time>
      </trkpt>
      <trkpt lat="48.09525" lon="7.09677">
        <ele>975</ele>
        <time>2014-09-03T09:50:40Z</time>
      </trkpt>
      <trkpt lat="48.09519" lon="7.09658">
        <ele>975</ele>
        <time>2014-09-03T09:50:45Z</time>
      </trkpt>
      <trkpt lat="48.09511" lon="7.09631">
        <ele>975</ele>
        <time>2014-09-03T09:50:50Z</time>
      </trkpt>
      <trkpt lat="48.09506" lon="7.09617">
        <ele>975</ele>
        <time>2014-09-03T09:50:54Z</time>
      </trkpt>
      <trkpt lat="48.09503" lon="7.096">
        <ele>974</ele>
        <time>2014-09-03T09:50:58Z</time>
      </trkpt>
      <trkpt lat="48.09501" lon="7.09589">
        <ele>974</ele>
        <time>2014-09-03T09:51:42Z</time>
      </trkpt>
      <trkpt lat="48.09499" lon="7.09576">
        <ele>974</ele>
        <time>2014-09-03T09:51:46Z</time>
      </trkpt>
      <trkpt lat="48.09497" lon="7.09565">
        <ele>974</ele>
        <time>2014-09-03T09:51:50Z</time>
      </trkpt>
      <trkpt lat="48.09497" lon="7.09552">
        <ele>973</ele>
        <time>2014-09-03T09:51:55Z</time>
      </trkpt>
      <trkpt lat="48.09497" lon="7.09536">
        <ele>973</ele>
        <time>2014-09-03T09:51:59Z</time>
      </trkpt>
      <trkpt lat="48.09498" lon="7.09524">
        <ele>971</ele>
        <time>2014-09-03T09:52:03Z</time>
      </trkpt>
      <trkpt lat="48.09498" lon="7.09513">
        <ele>970</ele>
        <time>2014-09-03T09:52:07Z</time>
      </trkpt>
      <trkpt lat="48.095" lon="7.09498">
        <ele>971</ele>
        <time>2014-09-03T09:52:10Z</time>
      </trkpt>
      <trkpt lat="48.09502" lon="7.09475">
        <ele>969</ele>
        <time>2014-09-03T09:52:15Z</time>
      </trkpt>
      <trkpt lat="48.09511" lon="7.09436">
        <ele>968</ele>
        <time>2014-09-03T09:52:19Z</time>
      </trkpt>
      <trkpt lat="48.09522" lon="7.09412">
        <ele>967</ele>
        <time>2014-09-03T09:52:24Z</time>
      </trkpt>
      <trkpt lat="48.09532" lon="7.09392">
        <ele>965</ele>
        <time>2014-09-03T09:52:28Z</time>
      </trkpt>
      <trkpt lat="48.09538" lon="7.09362">
        <ele>964</ele>
        <time>2014-09-03T09:52:32Z</time>
      </trkpt>
      <trkpt lat="48.09541" lon="7.09348">
        <ele>965</ele>
        <time>2014-09-03T09:52:37Z</time>
      </trkpt>
      <trkpt lat="48.09544" lon="7.09341">
        <ele>965</ele>
        <time>2014-09-03T09:53:08Z</time>
      </trkpt>
      <trkpt lat="48.09545" lon="7.09322">
        <ele>964</ele>
        <time>2014-09-03T09:53:12Z</time>
      </trkpt>
      <trkpt lat="48.09546" lon="7.09303">
        <ele>964</ele>
        <time>2014-09-03T09:53:16Z</time>
      </trkpt>
      <trkpt lat="48.0955" lon="7.09278">
        <ele>964</ele>
        <time>2014-09-03T09:53:21Z</time>
      </trkpt>
      <trkpt lat="48.09554" lon="7.09249">
        <ele>960</ele>
        <time>2014-09-03T09:53:26Z</time>
      </trkpt>
      <trkpt lat="48.09554" lon="7.09233">
        <ele>959</ele>
        <time>2014-09-03T09:53:29Z</time>
      </trkpt>
      <trkpt lat="48.0956" lon="7.09225">
        <ele>961</ele>
        <time>2014-09-03T09:53:35Z</time>
      </trkpt>
      <trkpt lat="48.09559" lon="7.09212">
        <ele>962</ele>
        <time>2014-09-03T09:54:27Z</time>
      </trkpt>
      <trkpt lat="48.09561" lon="7.09186">
        <ele>969</ele>
        <time>2014-09-03T09:54:32Z</time>
      </trkpt>
      <trkpt lat="48.09567" lon="7.09166">
        <ele>968</ele>
        <time>2014-09-03T09:54:37Z</time>
      </trkpt>
      <trkpt lat="48.0957" lon="7.09154">
        <ele>963</ele>
        <time>2014-09-03T09:54:40Z</time>
      </trkpt>
      <trkpt lat="48.09572" lon="7.09134">
        <ele>960</ele>
        <time>2014-09-03T09:54:45Z</time>
      </trkpt>
      <trkpt lat="48.09573" lon="7.09124">
        <ele>957</ele>
        <time>2014-09-03T09:54:48Z</time>
      </trkpt>
      <trkpt lat="48.09577" lon="7.0911">
        <ele>956</ele>
        <time>2014-09-03T09:54:51Z</time>
      </trkpt>
      <trkpt lat="48.09579" lon="7.09088">
        <ele>953</ele>
        <time>2014-09-03T09:54:56Z</time>
      </trkpt>
      <trkpt lat="48.0958" lon="7.0908">
        <ele>947</ele>
        <time>2014-09-03T09:54:58Z</time>
      </trkpt>
      <trkpt lat="48.09585" lon="7.09067">
        <ele>947</ele>
        <time>2014-09-03T09:55:02Z</time>
      </trkpt>
      <trkpt lat="48.09587" lon="7.09059">
        <ele>945</ele>
        <time>2014-09-03T09:55:06Z</time>
      </trkpt>
      <trkpt lat="48.096" lon="7.09031">
        <ele>942</ele>
        <time>2014-09-03T09:55:11Z</time>
      </trkpt>
      <trkpt lat="48.09613" lon="7.09008">
        <ele>934</ele>
        <time>2014-09-03T09:55:15Z</time>
      </trkpt>
      <trkpt lat="48.09626" lon="7.08993">
        <ele>934</ele>
        <time>2014-09-03T09:55:20Z</time>
      </trkpt>
      <trkpt lat="48.09633" lon="7.08982">
        <ele>932</ele>
        <time>2014-09-03T09:55:25Z</time>
      </trkpt>
      <trkpt lat="48.09635" lon="7.08971">
        <ele>929</ele>
        <time>2014-09-03T09:55:29Z</time>
      </trkpt>
      <trkpt lat="48.09639" lon="7.0896">
        <ele>931</ele>
        <time>2014-09-03T09:55:32Z</time>
      </trkpt>
      <trkpt lat="48.09643" lon="7.08948">
        <ele>934</ele>
        <time>2014-09-03T09:55:37Z</time>
      </trkpt>
      <trkpt lat="48.09648" lon="7.08935">
        <ele>932</ele>
        <time>2014-09-03T09:55:41Z</time>
      </trkpt>
      <trkpt lat="48.09655" lon="7.08919">
        <ele>933</ele>
        <time>2014-09-03T09:55:46Z</time>
      </trkpt>
      <trkpt lat="48.09662" lon="7.08909">
        <ele>939</ele>
        <time>2014-09-03T09:55:50Z</time>
      </trkpt>
      <trkpt lat="48.09667" lon="7.08897">
        <ele>941</ele>
        <time>2014-09-03T09:55:54Z</time>
      </trkpt>
      <trkpt lat="48.09673" lon="7.08887">
        <ele>942</ele>
        <time>2014-09-03T09:55:58Z</time>
      </trkpt>
      <trkpt lat="48.09678" lon="7.08871">
        <ele>942</ele>
        <time>2014-09-03T09:56:03Z</time>
      </trkpt>
      <trkpt lat="48.09684" lon="7.08864">
        <ele>946</ele>
        <time>2014-09-03T09:56:07Z</time>
      </trkpt>
      <trkpt lat="48.09686" lon="7.08859">
        <ele>947</ele>
        <time>2014-09-03T09:56:09Z</time>
      </trkpt>
      <trkpt lat="48.09693" lon="7.08848">
        <ele>949</ele>
        <time>2014-09-03T09:56:13Z</time>
      </trkpt>
      <trkpt lat="48.097" lon="7.08839">
        <ele>953</ele>
        <time>2014-09-03T09:56:17Z</time>
      </trkpt>
      <trkpt lat="48.09704" lon="7.08828">
        <ele>957</ele>
        <time>2014-09-03T09:56:21Z</time>
      </trkpt>
      <trkpt lat="48.0971" lon="7.08816">
        <ele>950</ele>
        <time>2014-09-03T09:56:25Z</time>
      </trkpt>
      <trkpt lat="48.09713" lon="7.08805">
        <ele>955</ele>
        <time>2014-09-03T09:56:30Z</time>
      </trkpt>
      <trkpt lat="48.09718" lon="7.08793">
        <ele>951</ele>
        <time>2014-09-03T09:56:34Z</time>
      </trkpt>
      <trkpt lat="48.09723" lon="7.08777">
        <ele>950</ele>
        <time>2014-09-03T09:56:39Z</time>
      </trkpt>
      <trkpt lat="48.09724" lon="7.08763">
        <ele>951</ele>
        <time>2014-09-03T09:56:43Z</time>
      </trkpt>
      <trkpt lat="48.09722" lon="7.08752">
        <ele>954</ele>
        <time>2014-09-03T09:56:47Z</time>
      </trkpt>
      <trkpt lat="48.09729" lon="7.08739">
        <ele>958</ele>
        <time>2014-09-03T09:56:52Z</time>
      </trkpt>
      <trkpt lat="48.09735" lon="7.0873">
        <ele>956</ele>
        <time>2014-09-03T09:56:56Z</time>
      </trkpt>
      <trkpt lat="48.09743" lon="7.08724">
        <ele>954</ele>
        <time>2014-09-03T09:57:00Z</time>
      </trkpt>
      <trkpt lat="48.09754" lon="7.0872">
        <ele>953</ele>
        <time>2014-09-03T09:57:05Z</time>
      </trkpt>
      <trkpt lat="48.09759" lon="7.0872">
        <ele>955</ele>
        <time>2014-09-03T09:57:08Z</time>
      </trkpt>
      <trkpt lat="48.09767" lon="7.08717">
        <ele>958</ele>
        <time>2014-09-03T09:57:13Z</time>
      </trkpt>
      <trkpt lat="48.09777" lon="7.08712">
        <ele>958</ele>
        <time>2014-09-03T09:57:17Z</time>
      </trkpt>
      <trkpt lat="48.09788" lon="7.08706">
        <ele>959</ele>
        <time>2014-09-03T09:57:22Z</time>
      </trkpt>
      <trkpt lat="48.09798" lon="7.08702">
        <ele>964</ele>
        <time>2014-09-03T09:57:25Z</time>
      </trkpt>
      <trkpt lat="48.09802" lon="7.08698">
        <ele>964</ele>
        <time>2014-09-03T09:57:27Z</time>
      </trkpt>
      <trkpt lat="48.09808" lon="7.08696">
        <ele>966</ele>
        <time>2014-09-03T09:57:30Z</time>
      </trkpt>
      <trkpt lat="48.09818" lon="7.08693">
        <ele>966</ele>
        <time>2014-09-03T09:57:34Z</time>
      </trkpt>
      <trkpt lat="48.09826" lon="7.08692">
        <ele>971</ele>
        <time>2014-09-03T09:57:38Z</time>
      </trkpt>
      <trkpt lat="48.09835" lon="7.0869">
        <ele>971</ele>
        <time>2014-09-03T09:57:42Z</time>
      </trkpt>
      <trkpt lat="48.09846" lon="7.08692">
        <ele>968</ele>
        <time>2014-09-03T09:57:46Z</time>
      </trkpt>
      <trkpt lat="48.09859" lon="7.08696">
        <ele>969</ele>
        <time>2014-09-03T09:57:51Z</time>
      </trkpt>
      <trkpt lat="48.09867" lon="7.0869">
        <ele>980</ele>
        <time>2014-09-03T09:57:56Z</time>
      </trkpt>
      <trkpt lat="48.09875" lon="7.08683">
        <ele>979</ele>
        <time>2014-09-03T09:58:00Z</time>
      </trkpt>
      <trkpt lat="48.09884" lon="7.08679">
        <ele>973</ele>
        <time>2014-09-03T09:58:05Z</time>
      </trkpt>
      <trkpt lat="48.09893" lon="7.08673">
        <ele>974</ele>
        <time>2014-09-03T09:58:09Z</time>
      </trkpt>
      <trkpt lat="48.09901" lon="7.08665">
        <ele>971</ele>
        <time>2014-09-03T09:58:13Z</time>
      </trkpt>
      <trkpt lat="48.09912" lon="7.08658">
        <ele>970</ele>
        <time>2014-09-03T09:58:17Z</time>
      </trkpt>
      <trkpt lat="48.09922" lon="7.0865">
        <ele>973</ele>
        <time>2014-09-03T09:58:22Z</time>
      </trkpt>
      <trkpt lat="48.09931" lon="7.08638">
        <ele>970</ele>
        <time>2014-09-03T09:58:26Z</time>
      </trkpt>
      <trkpt lat="48.09939" lon="7.08631">
        <ele>971</ele>
        <time>2014-09-03T09:58:31Z</time>
      </trkpt>
      <trkpt lat="48.09947" lon="7.0862">
        <ele>971</ele>
        <time>2014-09-03T09:58:35Z</time>
      </trkpt>
      <trkpt lat="48.0995" lon="7.08609">
        <ele>974</ele>
        <time>2014-09-03T09:58:39Z</time>
      </trkpt>
      <trkpt lat="48.09953" lon="7.08598">
        <ele>977</ele>
        <time>2014-09-03T09:58:43Z</time>
      </trkpt>
      <trkpt lat="48.09952" lon="7.08585">
        <ele>980</ele>
        <time>2014-09-03T09:58:47Z</time>
      </trkpt>
      <trkpt lat="48.09953" lon="7.08574">
        <ele>983</ele>
        <time>2014-09-03T09:58:51Z</time>
      </trkpt>
      <trkpt lat="48.09955" lon="7.08562">
        <ele>979</ele>
        <time>2014-09-03T09:58:56Z</time>
      </trkpt>
      <trkpt lat="48.09958" lon="7.08551">
        <ele>980</ele>
        <time>2014-09-03T09:59:00Z</time>
      </trkpt>
      <trkpt lat="48.09966" lon="7.08542">
        <ele>979</ele>
        <time>2014-09-03T09:59:04Z</time>
      </trkpt>
      <trkpt lat="48.0997" lon="7.08525">
        <ele>976</ele>
        <time>2014-09-03T09:59:09Z</time>
      </trkpt>
      <trkpt lat="48.09972" lon="7.08507">
        <ele>977</ele>
        <time>2014-09-03T09:59:14Z</time>
      </trkpt>
      <trkpt lat="48.09972" lon="7.08503">
        <ele>975</ele>
        <time>2014-09-03T09:59:17Z</time>
      </trkpt>
      <trkpt lat="48.09972" lon="7.08485">
        <ele>977</ele>
        <time>2014-09-03T09:59:20Z</time>
      </trkpt>
      <trkpt lat="48.09971" lon="7.0847">
        <ele>983</ele>
        <time>2014-09-03T09:59:25Z</time>
      </trkpt>
      <trkpt lat="48.09972" lon="7.08455">
        <ele>979</ele>
        <time>2014-09-03T09:59:30Z</time>
      </trkpt>
      <trkpt lat="48.09974" lon="7.08443">
        <ele>978</ele>
        <time>2014-09-03T09:59:33Z</time>
      </trkpt>
      <trkpt lat="48.09976" lon="7.08433">
        <ele>978</ele>
        <time>2014-09-03T09:59:38Z</time>
      </trkpt>
      <trkpt lat="48.09979" lon="7.08422">
        <ele>982</ele>
        <time>2014-09-03T09:59:42Z</time>
      </trkpt>
      <trkpt lat="48.09982" lon="7.08411">
        <ele>984</ele>
        <time>2014-09-03T09:59:46Z</time>
      </trkpt>
      <trkpt lat="48.09987" lon="7.08398">
        <ele>982</ele>
        <time>2014-09-03T09:59:51Z</time>
      </trkpt>
      <trkpt lat="48.0999" lon="7.08386">
        <ele>984</ele>
        <time>2014-09-03T09:59:55Z</time>
      </trkpt>
      <trkpt lat="48.09993" lon="7.08374">
        <ele>988</ele>
        <time>2014-09-03T09:59:59Z</time>
      </trkpt>
      <trkpt lat="48.09995" lon="7.0836">
        <ele>991</ele>
        <time>2014-09-03T10:00:03Z</time>
      </trkpt>
      <trkpt lat="48.09999" lon="7.08351">
        <ele>994</ele>
        <time>2014-09-03T10:00:09Z</time>
      </trkpt>
      <trkpt lat="48.1" lon="7.08334">
        <ele>998</ele>
        <time>2014-09-03T10:00:13Z</time>
      </trkpt>
      <trkpt lat="48.09999" lon="7.08326">
        <ele>999</ele>
        <time>2014-09-03T10:00:17Z</time>
      </trkpt>
      <trkpt lat="48.10004" lon="7.08312">
        <ele>999</ele>
        <time>2014-09-03T10:00:22Z</time>
      </trkpt>
      <trkpt lat="48.10015" lon="7.08299">
        <ele>999</ele>
        <time>2014-09-03T10:00:27Z</time>
      </trkpt>
      <trkpt lat="48.1002" lon="7.08289">
        <ele>1001</ele>
        <time>2014-09-03T10:00:32Z</time>
      </trkpt>
      <trkpt lat="48.1002" lon="7.08275">
        <ele>1003</ele>
        <time>2014-09-03T10:00:36Z</time>
      </trkpt>
      <trkpt lat="48.10023" lon="7.08264">
        <ele>996</ele>
        <time>2014-09-03T10:00:40Z</time>
      </trkpt>
      <trkpt lat="48.10025" lon="7.08255">
        <ele>996</ele>
        <time>2014-09-03T10:00:43Z</time>
      </trkpt>
      <trkpt lat="48.10028" lon="7.08241">
        <ele>992</ele>
        <time>2014-09-03T10:00:48Z</time>
      </trkpt>
      <trkpt lat="48.10026" lon="7.0823">
        <ele>992</ele>
        <time>2014-09-03T10:00:53Z</time>
      </trkpt>
      <trkpt lat="48.1002" lon="7.08218">
        <ele>993</ele>
        <time>2014-09-03T10:00:58Z</time>
      </trkpt>
      <trkpt lat="48.10017" lon="7.08206">
        <ele>995</ele>
        <time>2014-09-03T10:01:02Z</time>
      </trkpt>
      <trkpt lat="48.10017" lon="7.08193">
        <ele>996</ele>
        <time>2014-09-03T10:01:06Z</time>
      </trkpt>
      <trkpt lat="48.1002" lon="7.08177">
        <ele>999</ele>
        <time>2014-09-03T10:01:10Z</time>
      </trkpt>
      <trkpt lat="48.10028" lon="7.08182">
        <ele>1009</ele>
        <time>2014-09-03T10:01:16Z</time>
      </trkpt>
      <trkpt lat="48.10037" lon="7.08193">
        <ele>1002</ele>
        <time>2014-09-03T10:01:19Z</time>
      </trkpt>
      <trkpt lat="48.10046" lon="7.08201">
        <ele>1001</ele>
        <time>2014-09-03T10:01:24Z</time>
      </trkpt>
      <trkpt lat="48.10054" lon="7.082">
        <ele>999</ele>
        <time>2014-09-03T10:01:28Z</time>
      </trkpt>
      <trkpt lat="48.10052" lon="7.08212">
        <ele>1005</ele>
        <time>2014-09-03T10:01:47Z</time>
      </trkpt>
      <trkpt lat="48.10057" lon="7.08222">
        <ele>1006</ele>
        <time>2014-09-03T10:01:53Z</time>
      </trkpt>
      <trkpt lat="48.10064" lon="7.08229">
        <ele>1006</ele>
        <time>2014-09-03T10:01:59Z</time>
      </trkpt>
      <trkpt lat="48.1007" lon="7.08221">
        <ele>1004</ele>
        <time>2014-09-03T10:02:06Z</time>
      </trkpt>
      <trkpt lat="48.10073" lon="7.08209">
        <ele>1005</ele>
        <time>2014-09-03T10:02:12Z</time>
      </trkpt>
      <trkpt lat="48.10072" lon="7.08198">
        <ele>1006</ele>
        <time>2014-09-03T10:02:18Z</time>
      </trkpt>
      <trkpt lat="48.10074" lon="7.08192">
        <ele>1007</ele>
        <time>2014-09-03T10:02:21Z</time>
      </trkpt>
      <trkpt lat="48.1008" lon="7.08184">
        <ele>1003</ele>
        <time>2014-09-03T10:02:25Z</time>
      </trkpt>
      <trkpt lat="48.10082" lon="7.08174">
        <ele>1011</ele>
        <time>2014-09-03T10:02:31Z</time>
      </trkpt>
      <trkpt lat="48.1008" lon="7.08161">
        <ele>1019</ele>
        <time>2014-09-03T10:02:38Z</time>
      </trkpt>
      <trkpt lat="48.10081" lon="7.0815">
        <ele>1019</ele>
        <time>2014-09-03T10:02:44Z</time>
      </trkpt>
      <trkpt lat="48.10088" lon="7.08142">
        <ele>1025</ele>
        <time>2014-09-03T10:02:51Z</time>
      </trkpt>
      <trkpt lat="48.10094" lon="7.08134">
        <ele>1017</ele>
        <time>2014-09-03T10:02:56Z</time>
      </trkpt>
      <trkpt lat="48.10099" lon="7.08123">
        <ele>1018</ele>
        <time>2014-09-03T10:03:02Z</time>
      </trkpt>
      <trkpt lat="48.10105" lon="7.08115">
        <ele>1020</ele>
        <time>2014-09-03T10:03:08Z</time>
      </trkpt>
      <trkpt lat="48.10113" lon="7.08116">
        <ele>1021</ele>
        <time>2014-09-03T10:03:13Z</time>
      </trkpt>
      <trkpt lat="48.10121" lon="7.08119">
        <ele>1023</ele>
        <time>2014-09-03T10:03:19Z</time>
      </trkpt>
      <trkpt lat="48.10128" lon="7.08127">
        <ele>1029</ele>
        <time>2014-09-03T10:03:28Z</time>
      </trkpt>
      <trkpt lat="48.10129" lon="7.08137">
        <ele>1027</ele>
        <time>2014-09-03T10:03:36Z</time>
      </trkpt>
      <trkpt lat="48.10131" lon="7.08155">
        <ele>1020</ele>
        <time>2014-09-03T10:03:41Z</time>
      </trkpt>
      <trkpt lat="48.10134" lon="7.08164">
        <ele>1025</ele>
        <time>2014-09-03T10:03:44Z</time>
      </trkpt>
      <trkpt lat="48.10129" lon="7.08176">
        <ele>1028</ele>
        <time>2014-09-03T10:03:49Z</time>
      </trkpt>
      <trkpt lat="48.10126" lon="7.08189">
        <ele>1031</ele>
        <time>2014-09-03T10:03:54Z</time>
      </trkpt>
      <trkpt lat="48.1013" lon="7.08179">
        <ele>1032</ele>
        <time>2014-09-03T10:04:07Z</time>
      </trkpt>
      <trkpt lat="48.10136" lon="7.0817">
        <ele>1037</ele>
        <time>2014-09-03T10:04:15Z</time>
      </trkpt>
      <trkpt lat="48.10141" lon="7.08163">
        <ele>1036</ele>
        <time>2014-09-03T10:04:21Z</time>
      </trkpt>
      <trkpt lat="48.10146" lon="7.08155">
        <ele>1034</ele>
        <time>2014-09-03T10:04:26Z</time>
      </trkpt>
      <trkpt lat="48.1015" lon="7.08148">
        <ele>1037</ele>
        <time>2014-09-03T10:04:30Z</time>
      </trkpt>
      <trkpt lat="48.10152" lon="7.08142">
        <ele>1037</ele>
        <time>2014-09-03T10:04:34Z</time>
      </trkpt>
      <trkpt lat="48.10157" lon="7.08131">
        <ele>1035</ele>
        <time>2014-09-03T10:04:40Z</time>
      </trkpt>
      <trkpt lat="48.10164" lon="7.08123">
        <ele>1035</ele>
        <time>2014-09-03T10:04:44Z</time>
      </trkpt>
      <trkpt lat="48.10172" lon="7.08116">
        <ele>1035</ele>
        <time>2014-09-03T10:04:49Z</time>
      </trkpt>
      <trkpt lat="48.10177" lon="7.08106">
        <ele>1030</ele>
        <time>2014-09-03T10:04:54Z</time>
      </trkpt>
      <trkpt lat="48.10185" lon="7.08097">
        <ele>1027</ele>
        <time>2014-09-03T10:04:59Z</time>
      </trkpt>
      <trkpt lat="48.10191" lon="7.08087">
        <ele>1026</ele>
        <time>2014-09-03T10:05:03Z</time>
      </trkpt>
      <trkpt lat="48.10195" lon="7.08078">
        <ele>1032</ele>
        <time>2014-09-03T10:05:08Z</time>
      </trkpt>
      <trkpt lat="48.10199" lon="7.08069">
        <ele>1032</ele>
        <time>2014-09-03T10:05:12Z</time>
      </trkpt>
      <trkpt lat="48.10205" lon="7.08059">
        <ele>1032</ele>
        <time>2014-09-03T10:05:17Z</time>
      </trkpt>
      <trkpt lat="48.10207" lon="7.08046">
        <ele>1025</ele>
        <time>2014-09-03T10:05:23Z</time>
      </trkpt>
      <trkpt lat="48.10212" lon="7.08039">
        <ele>1025</ele>
        <time>2014-09-03T10:05:27Z</time>
      </trkpt>
      <trkpt lat="48.10216" lon="7.08033">
        <ele>1030</ele>
        <time>2014-09-03T10:05:31Z</time>
      </trkpt>
      <trkpt lat="48.10222" lon="7.08022">
        <ele>1036</ele>
        <time>2014-09-03T10:05:36Z</time>
      </trkpt>
      <trkpt lat="48.10225" lon="7.0801">
        <ele>1038</ele>
        <time>2014-09-03T10:05:41Z</time>
      </trkpt>
      <trkpt lat="48.1023" lon="7.08004">
        <ele>1034</ele>
        <time>2014-09-03T10:05:45Z</time>
      </trkpt>
      <trkpt lat="48.10235" lon="7.07994">
        <ele>1036</ele>
        <time>2014-09-03T10:05:49Z</time>
      </trkpt>
      <trkpt lat="48.1024" lon="7.07986">
        <ele>1028</ele>
        <time>2014-09-03T10:05:53Z</time>
      </trkpt>
      <trkpt lat="48.10243" lon="7.07979">
        <ele>1031</ele>
        <time>2014-09-03T10:05:58Z</time>
      </trkpt>
      <trkpt lat="48.10247" lon="7.07969">
        <ele>1033</ele>
        <time>2014-09-03T10:06:02Z</time>
      </trkpt>
      <trkpt lat="48.10253" lon="7.0796">
        <ele>1037</ele>
        <time>2014-09-03T10:06:06Z</time>
      </trkpt>
      <trkpt lat="48.10258" lon="7.07953">
        <ele>1039</ele>
        <time>2014-09-03T10:06:11Z</time>
      </trkpt>
      <trkpt lat="48.10264" lon="7.07944">
        <ele>1036</ele>
        <time>2014-09-03T10:06:16Z</time>
      </trkpt>
      <trkpt lat="48.10267" lon="7.07934">
        <ele>1039</ele>
        <time>2014-09-03T10:06:21Z</time>
      </trkpt>
      <trkpt lat="48.1027" lon="7.07924">
        <ele>1050</ele>
        <time>2014-09-03T10:06:27Z</time>
      </trkpt>
      <trkpt lat="48.10272" lon="7.07911">
        <ele>1051</ele>
        <time>2014-09-03T10:06:35Z</time>
      </trkpt>
      <trkpt lat="48.10265" lon="7.07907">
        <ele>1056</ele>
        <time>2014-09-03T10:08:51Z</time>
      </trkpt>
      <trkpt lat="48.10258" lon="7.07895">
        <ele>1054</ele>
        <time>2014-09-03T10:08:56Z</time>
      </trkpt>
      <trkpt lat="48.10254" lon="7.07889">
        <ele>1055</ele>
        <time>2014-09-03T10:09:00Z</time>
      </trkpt>
      <trkpt lat="48.10249" lon="7.07884">
        <ele>1054</ele>
        <time>2014-09-03T10:09:03Z</time>
      </trkpt>
      <trkpt lat="48.10241" lon="7.07878">
        <ele>1060</ele>
        <time>2014-09-03T10:09:07Z</time>
      </trkpt>
      <trkpt lat="48.10232" lon="7.07876">
        <ele>1061</ele>
        <time>2014-09-03T10:09:12Z</time>
      </trkpt>
      <trkpt lat="48.10224" lon="7.07873">
        <ele>1062</ele>
        <time>2014-09-03T10:09:16Z</time>
      </trkpt>
      <trkpt lat="48.10215" lon="7.07867">
        <ele>1061</ele>
        <time>2014-09-03T10:09:20Z</time>
      </trkpt>
      <trkpt lat="48.10211" lon="7.07863">
        <ele>1061</ele>
        <time>2014-09-03T10:09:23Z</time>
      </trkpt>
      <trkpt lat="48.10201" lon="7.07853">
        <ele>1061</ele>
        <time>2014-09-03T10:09:27Z</time>
      </trkpt>
      <trkpt lat="48.10192" lon="7.07844">
        <ele>1061</ele>
        <time>2014-09-03T10:09:32Z</time>
      </trkpt>
      <trkpt lat="48.10188" lon="7.07835">
        <ele>1060</ele>
        <time>2014-09-03T10:09:35Z</time>
      </trkpt>
      <trkpt lat="48.10193" lon="7.07818">
        <ele>1062</ele>
        <time>2014-09-03T10:09:40Z</time>
      </trkpt>
      <trkpt lat="48.102" lon="7.0781">
        <ele>1063</ele>
        <time>2014-09-03T10:09:44Z</time>
      </trkpt>
      <trkpt lat="48.10203" lon="7.07799">
        <ele>1062</ele>
        <time>2014-09-03T10:09:50Z</time>
      </trkpt>
      <trkpt lat="48.102" lon="7.07784">
        <ele>1062</ele>
        <time>2014-09-03T10:09:55Z</time>
      </trkpt>
      <trkpt lat="48.10202" lon="7.07771">
        <ele>1061</ele>
        <time>2014-09-03T10:09:59Z</time>
      </trkpt>
      <trkpt lat="48.10208" lon="7.07756">
        <ele>1064</ele>
        <time>2014-09-03T10:10:04Z</time>
      </trkpt>
      <trkpt lat="48.10207" lon="7.07743">
        <ele>1069</ele>
        <time>2014-09-03T10:10:09Z</time>
      </trkpt>
      <trkpt lat="48.10209" lon="7.0773">
        <ele>1069</ele>
        <time>2014-09-03T10:10:13Z</time>
      </trkpt>
      <trkpt lat="48.10211" lon="7.0772">
        <ele>1073</ele>
        <time>2014-09-03T10:10:18Z</time>
      </trkpt>
      <trkpt lat="48.10209" lon="7.07706">
        <ele>1073</ele>
        <time>2014-09-03T10:10:23Z</time>
      </trkpt>
      <trkpt lat="48.10208" lon="7.07689">
        <ele>1069</ele>
        <time>2014-09-03T10:10:27Z</time>
      </trkpt>
      <trkpt lat="48.10208" lon="7.07682">
        <ele>1070</ele>
        <time>2014-09-03T10:10:30Z</time>
      </trkpt>
      <trkpt lat="48.10211" lon="7.07667">
        <ele>1071</ele>
        <time>2014-09-03T10:10:34Z</time>
      </trkpt>
      <trkpt lat="48.10213" lon="7.07651">
        <ele>1073</ele>
        <time>2014-09-03T10:10:38Z</time>
      </trkpt>
      <trkpt lat="48.10214" lon="7.07638">
        <ele>1071</ele>
        <time>2014-09-03T10:10:43Z</time>
      </trkpt>
      <trkpt lat="48.10213" lon="7.07622">
        <ele>1073</ele>
        <time>2014-09-03T10:10:48Z</time>
      </trkpt>
      <trkpt lat="48.10212" lon="7.0761">
        <ele>1074</ele>
        <time>2014-09-03T10:10:52Z</time>
      </trkpt>
      <trkpt lat="48.10212" lon="7.07598">
        <ele>1076</ele>
        <time>2014-09-03T10:10:56Z</time>
      </trkpt>
      <trkpt lat="48.10212" lon="7.07588">
        <ele>1076</ele>
        <time>2014-09-03T10:11:00Z</time>
      </trkpt>
      <trkpt lat="48.10212" lon="7.07574">
        <ele>1075</ele>
        <time>2014-09-03T10:11:05Z</time>
      </trkpt>
      <trkpt lat="48.10215" lon="7.0756">
        <ele>1074</ele>
        <time>2014-09-03T10:11:09Z</time>
      </trkpt>
      <trkpt lat="48.10217" lon="7.07547">
        <ele>1075</ele>
        <time>2014-09-03T10:11:14Z</time>
      </trkpt>
      <trkpt lat="48.10216" lon="7.07532">
        <ele>1075</ele>
        <time>2014-09-03T10:11:18Z</time>
      </trkpt>
      <trkpt lat="48.10216" lon="7.0752">
        <ele>1074</ele>
        <time>2014-09-03T10:11:22Z</time>
      </trkpt>
      <trkpt lat="48.10216" lon="7.07504">
        <ele>1074</ele>
        <time>2014-09-03T10:11:26Z</time>
      </trkpt>
      <trkpt lat="48.10214" lon="7.07492">
        <ele>1074</ele>
        <time>2014-09-03T10:11:31Z</time>
      </trkpt>
      <trkpt lat="48.10215" lon="7.07476">
        <ele>1073</ele>
        <time>2014-09-03T10:11:36Z</time>
      </trkpt>
      <trkpt lat="48.10223" lon="7.07464">
        <ele>1076</ele>
        <time>2014-09-03T10:11:41Z</time>
      </trkpt>
      <trkpt lat="48.10228" lon="7.07459">
        <ele>1076</ele>
        <time>2014-09-03T10:11:44Z</time>
      </trkpt>
      <trkpt lat="48.10236" lon="7.07454">
        <ele>1076</ele>
        <time>2014-09-03T10:11:48Z</time>
      </trkpt>
      <trkpt lat="48.10242" lon="7.07454">
        <ele>1080</ele>
        <time>2014-09-03T10:11:51Z</time>
      </trkpt>
      <trkpt lat="48.10248" lon="7.07455">
        <ele>1079</ele>
        <time>2014-09-03T10:11:54Z</time>
      </trkpt>
      <trkpt lat="48.10256" lon="7.07455">
        <ele>1079</ele>
        <time>2014-09-03T10:11:58Z</time>
      </trkpt>
      <trkpt lat="48.10267" lon="7.07456">
        <ele>1080</ele>
        <time>2014-09-03T10:12:02Z</time>
      </trkpt>
      <trkpt lat="48.10275" lon="7.07458">
        <ele>1079</ele>
        <time>2014-09-03T10:12:07Z</time>
      </trkpt>
      <trkpt lat="48.10284" lon="7.07459">
        <ele>1082</ele>
        <time>2014-09-03T10:12:11Z</time>
      </trkpt>
      <trkpt lat="48.10292" lon="7.07458">
        <ele>1083</ele>
        <time>2014-09-03T10:12:15Z</time>
      </trkpt>
      <trkpt lat="48.10304" lon="7.07459">
        <ele>1084</ele>
        <time>2014-09-03T10:12:20Z</time>
      </trkpt>
      <trkpt lat="48.1031" lon="7.07458">
        <ele>1088</ele>
        <time>2014-09-03T10:12:22Z</time>
      </trkpt>
      <trkpt lat="48.10318" lon="7.07459">
        <ele>1090</ele>
        <time>2014-09-03T10:12:27Z</time>
      </trkpt>
      <trkpt lat="48.10328" lon="7.07468">
        <ele>1088</ele>
        <time>2014-09-03T10:12:32Z</time>
      </trkpt>
      <trkpt lat="48.10334" lon="7.07476">
        <ele>1089</ele>
        <time>2014-09-03T10:12:36Z</time>
      </trkpt>
      <trkpt lat="48.10343" lon="7.07484">
        <ele>1088</ele>
        <time>2014-09-03T10:12:41Z</time>
      </trkpt>
      <trkpt lat="48.10352" lon="7.07487">
        <ele>1088</ele>
        <time>2014-09-03T10:12:46Z</time>
      </trkpt>
      <trkpt lat="48.10358" lon="7.07489">
        <ele>1090</ele>
        <time>2014-09-03T10:12:51Z</time>
      </trkpt>
      <trkpt lat="48.10357" lon="7.07476">
        <ele>1091</ele>
        <time>2014-09-03T10:14:39Z</time>
      </trkpt>
      <trkpt lat="48.10363" lon="7.07469">
        <ele>1093</ele>
        <time>2014-09-03T10:16:25Z</time>
      </trkpt>
      <trkpt lat="48.10375" lon="7.07475">
        <ele>1093</ele>
        <time>2014-09-03T10:16:42Z</time>
      </trkpt>
      <trkpt lat="48.10376" lon="7.0747">
        <ele>1092</ele>
        <time>2014-09-03T10:16:51Z</time>
      </trkpt>
      <trkpt lat="48.10348" lon="7.07451">
        <ele>1093</ele>
        <time>2014-09-03T10:17:02Z</time>
      </trkpt>
      <trkpt lat="48.10337" lon="7.07442">
        <ele>1091</ele>
        <time>2014-09-03T10:17:36Z</time>
      </trkpt>
      <trkpt lat="48.10336" lon="7.07459">
        <ele>1091</ele>
        <time>2014-09-03T10:17:47Z</time>
      </trkpt>
      <trkpt lat="48.10358" lon="7.07485">
        <ele>1125</ele>
        <time>2014-09-03T10:28:10Z</time>
      </trkpt>
      <trkpt lat="48.10351" lon="7.0748">
        <ele>1118</ele>
        <time>2014-09-03T10:28:14Z</time>
      </trkpt>
      <trkpt lat="48.10353" lon="7.07469">
        <ele>1110</ele>
        <time>2014-09-03T10:28:26Z</time>
      </trkpt>
      <trkpt lat="48.10356" lon="7.07467">
        <ele>1112</ele>
        <time>2014-09-03T10:28:29Z</time>
      </trkpt>
      <trkpt lat="48.10367" lon="7.07485">
        <ele>1097</ele>
        <time>2014-09-03T10:28:37Z</time>
      </trkpt>
      <trkpt lat="48.10358" lon="7.07483">
        <ele>1084</ele>
        <time>2014-09-03T10:28:41Z</time>
      </trkpt>
      <trkpt lat="48.10363" lon="7.07492">
        <ele>1095</ele>
        <time>2014-09-03T10:28:46Z</time>
      </trkpt>
      <trkpt lat="48.10368" lon="7.07496">
        <ele>1097</ele>
        <time>2014-09-03T10:28:53Z</time>
      </trkpt>
      <trkpt lat="48.10376" lon="7.07505">
        <ele>1108</ele>
        <time>2014-09-03T10:28:57Z</time>
      </trkpt>
      <trkpt lat="48.10382" lon="7.07513">
        <ele>1097</ele>
        <time>2014-09-03T10:29:10Z</time>
      </trkpt>
      <trkpt lat="48.1036" lon="7.07478">
        <ele>1076</ele>
        <time>2014-09-03T10:29:29Z</time>
      </trkpt>
      <trkpt lat="48.10363" lon="7.07486">
        <ele>1078</ele>
        <time>2014-09-03T10:29:46Z</time>
      </trkpt>
      <trkpt lat="48.10339" lon="7.07451">
        <ele>1082</ele>
        <time>2014-09-03T10:30:04Z</time>
      </trkpt>
      <trkpt lat="48.10333" lon="7.07443">
        <ele>1095</ele>
        <time>2014-09-03T10:30:25Z</time>
      </trkpt>
      <trkpt lat="48.10327" lon="7.07439">
        <ele>1095</ele>
        <time>2014-09-03T10:30:27Z</time>
      </trkpt>
      <trkpt lat="48.10336" lon="7.07456">
        <ele>1088</ele>
        <time>2014-09-03T10:30:47Z</time>
      </trkpt>
      <trkpt lat="48.10338" lon="7.07464">
        <ele>1083</ele>
        <time>2014-09-03T10:30:53Z</time>
      </trkpt>
      <trkpt lat="48.10343" lon="7.07489">
        <ele>1084</ele>
        <time>2014-09-03T10:31:00Z</time>
      </trkpt>
      <trkpt lat="48.1035" lon="7.07485">
        <ele>1083</ele>
        <time>2014-09-03T10:31:14Z</time>
      </trkpt>
      <trkpt lat="48.1036" lon="7.0744">
        <ele>1083</ele>
        <time>2014-09-03T10:31:18Z</time>
      </trkpt>
      <trkpt lat="48.1037" lon="7.07428">
        <ele>1084</ele>
        <time>2014-09-03T10:31:22Z</time>
      </trkpt>
      <trkpt lat="48.10373" lon="7.07423">
        <ele>1084</ele>
        <time>2014-09-03T10:31:24Z</time>
      </trkpt>
      <trkpt lat="48.10355" lon="7.0744">
        <ele>1095</ele>
        <time>2014-09-03T10:32:33Z</time>
      </trkpt>
      <trkpt lat="48.10357" lon="7.07474">
        <ele>1097</ele>
        <time>2014-09-03T10:32:46Z</time>
      </trkpt>
      <trkpt lat="48.10365" lon="7.07465">
        <ele>1094</ele>
        <time>2014-09-03T10:33:25Z</time>
      </trkpt>
      <trkpt lat="48.10353" lon="7.07471">
        <ele>1093</ele>
        <time>2014-09-03T10:33:34Z</time>
      </trkpt>
      <trkpt lat="48.10357" lon="7.07458">
        <ele>1091</ele>
        <time>2014-09-03T10:33:40Z</time>
      </trkpt>
      <trkpt lat="48.10354" lon="7.07454">
        <ele>1091</ele>
        <time>2014-09-03T10:33:44Z</time>
      </trkpt>
      <trkpt lat="48.10351" lon="7.07482">
        <ele>1094</ele>
        <time>2014-09-03T10:34:15Z</time>
      </trkpt>
      <trkpt lat="48.10367" lon="7.07451">
        <ele>1102</ele>
        <time>2014-09-03T10:34:18Z</time>
      </trkpt>
      <trkpt lat="48.10359" lon="7.07449">
        <ele>1107</ele>
        <time>2014-09-03T10:34:27Z</time>
      </trkpt>
      <trkpt lat="48.10357" lon="7.07439">
        <ele>1100</ele>
        <time>2014-09-03T10:34:36Z</time>
      </trkpt>
      <trkpt lat="48.1036" lon="7.07463">
        <ele>1100</ele>
        <time>2014-09-03T10:35:01Z</time>
      </trkpt>
      <trkpt lat="48.10357" lon="7.07451">
        <ele>1098</ele>
        <time>2014-09-03T10:35:06Z</time>
      </trkpt>
      <trkpt lat="48.10353" lon="7.07442">
        <ele>1095</ele>
        <time>2014-09-03T10:35:17Z</time>
      </trkpt>
      <trkpt lat="48.10354" lon="7.0747">
        <ele>1095</ele>
        <time>2014-09-03T10:35:33Z</time>
      </trkpt>
      <trkpt lat="48.10345" lon="7.07461">
        <ele>1075</ele>
        <time>2014-09-03T10:35:37Z</time>
      </trkpt>
      <trkpt lat="48.10341" lon="7.07465">
        <ele>1074</ele>
        <time>2014-09-03T10:35:44Z</time>
      </trkpt>
      <trkpt lat="48.10342" lon="7.07478">
        <ele>1075</ele>
        <time>2014-09-03T10:35:51Z</time>
      </trkpt>
      <trkpt lat="48.10349" lon="7.07487">
        <ele>1073</ele>
        <time>2014-09-03T10:35:56Z</time>
      </trkpt>
      <trkpt lat="48.10355" lon="7.07478">
        <ele>1074</ele>
        <time>2014-09-03T10:36:03Z</time>
      </trkpt>
      <trkpt lat="48.10349" lon="7.07457">
        <ele>1077</ele>
        <time>2014-09-03T10:36:11Z</time>
      </trkpt>
      <trkpt lat="48.10343" lon="7.07454">
        <ele>1077</ele>
        <time>2014-09-03T10:36:21Z</time>
      </trkpt>
      <trkpt lat="48.10335" lon="7.07395">
        <ele>1072</ele>
        <time>2014-09-03T10:36:37Z</time>
      </trkpt>
      <trkpt lat="48.10337" lon="7.07404">
        <ele>1074</ele>
        <time>2014-09-03T10:36:47Z</time>
      </trkpt>
      <trkpt lat="48.10371" lon="7.07484">
        <ele>1077</ele>
        <time>2014-09-03T10:36:52Z</time>
      </trkpt>
      <trkpt lat="48.1037" lon="7.07495">
        <ele>1075</ele>
        <time>2014-09-03T10:36:55Z</time>
      </trkpt>
      <trkpt lat="48.1036" lon="7.07527">
        <ele>1085</ele>
        <time>2014-09-03T10:37:05Z</time>
      </trkpt>
      <trkpt lat="48.10363" lon="7.0752">
        <ele>1084</ele>
        <time>2014-09-03T10:37:07Z</time>
      </trkpt>
      <trkpt lat="48.10369" lon="7.07484">
        <ele>1067</ele>
        <time>2014-09-03T10:40:36Z</time>
      </trkpt>
      <trkpt lat="48.10333" lon="7.07463">
        <ele>1072</ele>
        <time>2014-09-03T10:40:40Z</time>
      </trkpt>
      <trkpt lat="48.10327" lon="7.07459">
        <ele>1072</ele>
        <time>2014-09-03T10:40:45Z</time>
      </trkpt>
      <trkpt lat="48.10377" lon="7.07518">
        <ele>1086</ele>
        <time>2014-09-03T10:41:15Z</time>
      </trkpt>
      <trkpt lat="48.10381" lon="7.07523">
        <ele>1085</ele>
        <time>2014-09-03T10:41:19Z</time>
      </trkpt>
      <trkpt lat="48.10386" lon="7.07528">
        <ele>1086</ele>
        <time>2014-09-03T10:41:22Z</time>
      </trkpt>
      <trkpt lat="48.10312" lon="7.07447">
        <ele>1068</ele>
        <time>2014-09-03T10:44:50Z</time>
      </trkpt>
      <trkpt lat="48.10317" lon="7.07451">
        <ele>1067</ele>
        <time>2014-09-03T10:45:00Z</time>
      </trkpt>
      <trkpt lat="48.10353" lon="7.07461">
        <ele>1073</ele>
        <time>2014-09-03T10:45:11Z</time>
      </trkpt>
      <trkpt lat="48.1036" lon="7.07463">
        <ele>1072</ele>
        <time>2014-09-03T10:45:15Z</time>
      </trkpt>
      <trkpt lat="48.10367" lon="7.07465">
        <ele>1072</ele>
        <time>2014-09-03T10:45:19Z</time>
      </trkpt>
      <trkpt lat="48.1037" lon="7.07473">
        <ele>1071</ele>
        <time>2014-09-03T10:45:26Z</time>
      </trkpt>
      <trkpt lat="48.10347" lon="7.07479">
        <ele>1071</ele>
        <time>2014-09-03T10:46:57Z</time>
      </trkpt>
      <trkpt lat="48.10327" lon="7.075">
        <ele>1093</ele>
        <time>2014-09-03T11:03:29Z</time>
      </trkpt>
      <trkpt lat="48.10327" lon="7.07499">
        <ele>1106</ele>
        <time>2014-09-03T11:03:40Z</time>
      </trkpt>
      <trkpt lat="48.10352" lon="7.07472">
        <ele>1105</ele>
        <time>2014-09-03T11:03:49Z</time>
      </trkpt>
      <trkpt lat="48.10332" lon="7.07444">
        <ele>1058</ele>
        <time>2014-09-03T11:08:19Z</time>
      </trkpt>
      <trkpt lat="48.1033" lon="7.07433">
        <ele>1062</ele>
        <time>2014-09-03T11:08:24Z</time>
      </trkpt>
      <trkpt lat="48.10329" lon="7.07439">
        <ele>1064</ele>
        <time>2014-09-03T11:08:37Z</time>
      </trkpt>
      <trkpt lat="48.10354" lon="7.07479">
        <ele>1077</ele>
        <time>2014-09-03T11:09:12Z</time>
      </trkpt>
      <trkpt lat="48.10357" lon="7.07469">
        <ele>1066</ele>
        <time>2014-09-03T11:09:31Z</time>
      </trkpt>
      <trkpt lat="48.1035" lon="7.07484">
        <ele>1068</ele>
        <time>2014-09-03T11:09:54Z</time>
      </trkpt>
      <trkpt lat="48.10352" lon="7.0748">
        <ele>1077</ele>
        <time>2014-09-03T11:10:14Z</time>
      </trkpt>
      <trkpt lat="48.10347" lon="7.07506">
        <ele>1083</ele>
        <time>2014-09-03T11:10:24Z</time>
      </trkpt>
      <trkpt lat="48.10334" lon="7.07469">
        <ele>1083</ele>
        <time>2014-09-03T11:11:16Z</time>
      </trkpt>
      <trkpt lat="48.10353" lon="7.0746">
        <ele>1072</ele>
        <time>2014-09-03T11:11:25Z</time>
      </trkpt>
      <trkpt lat="48.1036" lon="7.07467">
        <ele>1077</ele>
        <time>2014-09-03T11:11:31Z</time>
      </trkpt>
      <trkpt lat="48.10361" lon="7.0748">
        <ele>1079</ele>
        <time>2014-09-03T11:11:36Z</time>
      </trkpt>
      <trkpt lat="48.10368" lon="7.07487">
        <ele>1083</ele>
        <time>2014-09-03T11:12:02Z</time>
      </trkpt>
      <trkpt lat="48.10376" lon="7.07491">
        <ele>1084</ele>
        <time>2014-09-03T11:12:12Z</time>
      </trkpt>
      <trkpt lat="48.10368" lon="7.07497">
        <ele>1087</ele>
        <time>2014-09-03T11:15:35Z</time>
      </trkpt>
      <trkpt lat="48.1036" lon="7.07492">
        <ele>1089</ele>
        <time>2014-09-03T11:16:00Z</time>
      </trkpt>
      <trkpt lat="48.10352" lon="7.07495">
        <ele>1093</ele>
        <time>2014-09-03T11:16:37Z</time>
      </trkpt>
      <trkpt lat="48.10346" lon="7.07495">
        <ele>1095</ele>
        <time>2014-09-03T11:17:19Z</time>
      </trkpt>
      <trkpt lat="48.10325" lon="7.07475">
        <ele>1093</ele>
        <time>2014-09-03T11:17:23Z</time>
      </trkpt>
      <trkpt lat="48.10293" lon="7.07461">
        <ele>1094</ele>
        <time>2014-09-03T11:17:28Z</time>
      </trkpt>
      <trkpt lat="48.10264" lon="7.07459">
        <ele>1093</ele>
        <time>2014-09-03T11:17:32Z</time>
      </trkpt>
      <trkpt lat="48.10235" lon="7.07457">
        <ele>1089</ele>
        <time>2014-09-03T11:17:36Z</time>
      </trkpt>
      <trkpt lat="48.10209" lon="7.07486">
        <ele>1086</ele>
        <time>2014-09-03T11:17:41Z</time>
      </trkpt>
      <trkpt lat="48.10213" lon="7.07524">
        <ele>1083</ele>
        <time>2014-09-03T11:17:46Z</time>
      </trkpt>
      <trkpt lat="48.10212" lon="7.0756">
        <ele>1081</ele>
        <time>2014-09-03T11:17:51Z</time>
      </trkpt>
      <trkpt lat="48.1021" lon="7.0759">
        <ele>1080</ele>
        <time>2014-09-03T11:17:55Z</time>
      </trkpt>
      <trkpt lat="48.10212" lon="7.07623">
        <ele>1078</ele>
        <time>2014-09-03T11:17:59Z</time>
      </trkpt>
      <trkpt lat="48.10213" lon="7.0766">
        <ele>1076</ele>
        <time>2014-09-03T11:18:03Z</time>
      </trkpt>
      <trkpt lat="48.10211" lon="7.07702">
        <ele>1073</ele>
        <time>2014-09-03T11:18:07Z</time>
      </trkpt>
      <trkpt lat="48.10211" lon="7.07747">
        <ele>1074</ele>
        <time>2014-09-03T11:18:11Z</time>
      </trkpt>
      <trkpt lat="48.102" lon="7.07791">
        <ele>1075</ele>
        <time>2014-09-03T11:18:15Z</time>
      </trkpt>
      <trkpt lat="48.10188" lon="7.07825">
        <ele>1071</ele>
        <time>2014-09-03T11:18:19Z</time>
      </trkpt>
      <trkpt lat="48.10179" lon="7.07838">
        <ele>1074</ele>
        <time>2014-09-03T11:18:23Z</time>
      </trkpt>
      <trkpt lat="48.1017" lon="7.07838">
        <ele>1076</ele>
        <time>2014-09-03T11:18:30Z</time>
      </trkpt>
      <trkpt lat="48.10163" lon="7.07843">
        <ele>1075</ele>
        <time>2014-09-03T11:18:36Z</time>
      </trkpt>
      <trkpt lat="48.10155" lon="7.07843">
        <ele>1079</ele>
        <time>2014-09-03T11:18:42Z</time>
      </trkpt>
      <trkpt lat="48.10148" lon="7.07844">
        <ele>1079</ele>
        <time>2014-09-03T11:18:46Z</time>
      </trkpt>
      <trkpt lat="48.10143" lon="7.07833">
        <ele>1084</ele>
        <time>2014-09-03T11:19:17Z</time>
      </trkpt>
      <trkpt lat="48.10137" lon="7.07825">
        <ele>1077</ele>
        <time>2014-09-03T11:20:22Z</time>
      </trkpt>
      <trkpt lat="48.10143" lon="7.07816">
        <ele>1080</ele>
        <time>2014-09-03T11:20:36Z</time>
      </trkpt>
      <trkpt lat="48.10154" lon="7.07799">
        <ele>1079</ele>
        <time>2014-09-03T11:20:46Z</time>
      </trkpt>
      <trkpt lat="48.10149" lon="7.07789">
        <ele>1082</ele>
        <time>2014-09-03T11:21:12Z</time>
      </trkpt>
      <trkpt lat="48.10141" lon="7.07782">
        <ele>1081</ele>
        <time>2014-09-03T11:22:10Z</time>
      </trkpt>
      <trkpt lat="48.10146" lon="7.07732">
        <ele>1080</ele>
        <time>2014-09-03T11:22:23Z</time>
      </trkpt>
      <trkpt lat="48.10149" lon="7.07721">
        <ele>1094</ele>
        <time>2014-09-03T11:23:28Z</time>
      </trkpt>
      <trkpt lat="48.10139" lon="7.07706">
        <ele>1095</ele>
        <time>2014-09-03T11:23:41Z</time>
      </trkpt>
      <trkpt lat="48.10133" lon="7.07706">
        <ele>1105</ele>
        <time>2014-09-03T11:24:01Z</time>
      </trkpt>
      <trkpt lat="48.10124" lon="7.07705">
        <ele>1102</ele>
        <time>2014-09-03T11:24:20Z</time>
      </trkpt>
      <trkpt lat="48.10118" lon="7.07701">
        <ele>1103</ele>
        <time>2014-09-03T11:26:24Z</time>
      </trkpt>
      <trkpt lat="48.10113" lon="7.07689">
        <ele>1112</ele>
        <time>2014-09-03T11:26:34Z</time>
      </trkpt>
      <trkpt lat="48.10112" lon="7.07677">
        <ele>1114</ele>
        <time>2014-09-03T11:26:42Z</time>
      </trkpt>
      <trkpt lat="48.10111" lon="7.07666">
        <ele>1115</ele>
        <time>2014-09-03T11:26:51Z</time>
      </trkpt>
      <trkpt lat="48.10102" lon="7.07661">
        <ele>1120</ele>
        <time>2014-09-03T11:27:07Z</time>
      </trkpt>
      <trkpt lat="48.10086" lon="7.07663">
        <ele>1123</ele>
        <time>2014-09-03T11:27:35Z</time>
      </trkpt>
      <trkpt lat="48.10077" lon="7.07664">
        <ele>1117</ele>
        <time>2014-09-03T11:28:19Z</time>
      </trkpt>
      <trkpt lat="48.1007" lon="7.0767">
        <ele>1123</ele>
        <time>2014-09-03T11:28:28Z</time>
      </trkpt>
      <trkpt lat="48.10066" lon="7.07682">
        <ele>1123</ele>
        <time>2014-09-03T11:28:32Z</time>
      </trkpt>
      <trkpt lat="48.10059" lon="7.07688">
        <ele>1127</ele>
        <time>2014-09-03T11:28:37Z</time>
      </trkpt>
      <trkpt lat="48.10051" lon="7.07694">
        <ele>1132</ele>
        <time>2014-09-03T11:28:45Z</time>
      </trkpt>
      <trkpt lat="48.10046" lon="7.07699">
        <ele>1132</ele>
        <time>2014-09-03T11:29:13Z</time>
      </trkpt>
      <trkpt lat="48.10037" lon="7.07707">
        <ele>1129</ele>
        <time>2014-09-03T11:29:17Z</time>
      </trkpt>
      <trkpt lat="48.10027" lon="7.07713">
        <ele>1127</ele>
        <time>2014-09-03T11:29:22Z</time>
      </trkpt>
      <trkpt lat="48.1002" lon="7.07721">
        <ele>1129</ele>
        <time>2014-09-03T11:29:26Z</time>
      </trkpt>
      <trkpt lat="48.10014" lon="7.07725">
        <ele>1130</ele>
        <time>2014-09-03T11:29:32Z</time>
      </trkpt>
      <trkpt lat="48.10006" lon="7.07731">
        <ele>1127</ele>
        <time>2014-09-03T11:30:34Z</time>
      </trkpt>
      <trkpt lat="48.09998" lon="7.07734">
        <ele>1129</ele>
        <time>2014-09-03T11:30:50Z</time>
      </trkpt>
      <trkpt lat="48.09991" lon="7.07742">
        <ele>1127</ele>
        <time>2014-09-03T11:31:14Z</time>
      </trkpt>
      <trkpt lat="48.0998" lon="7.07741">
        <ele>1126</ele>
        <time>2014-09-03T11:31:18Z</time>
      </trkpt>
      <trkpt lat="48.09973" lon="7.07733">
        <ele>1128</ele>
        <time>2014-09-03T11:31:48Z</time>
      </trkpt>
      <trkpt lat="48.09966" lon="7.07731">
        <ele>1130</ele>
        <time>2014-09-03T11:32:23Z</time>
      </trkpt>
      <trkpt lat="48.0996" lon="7.07723">
        <ele>1128</ele>
        <time>2014-09-03T11:32:27Z</time>
      </trkpt>
      <trkpt lat="48.09955" lon="7.07717">
        <ele>1128</ele>
        <time>2014-09-03T11:32:31Z</time>
      </trkpt>
      <trkpt lat="48.09949" lon="7.07714">
        <ele>1124</ele>
        <time>2014-09-03T11:32:34Z</time>
      </trkpt>
      <trkpt lat="48.09939" lon="7.07709">
        <ele>1123</ele>
        <time>2014-09-03T11:32:39Z</time>
      </trkpt>
      <trkpt lat="48.0993" lon="7.07711">
        <ele>1127</ele>
        <time>2014-09-03T11:32:44Z</time>
      </trkpt>
      <trkpt lat="48.09923" lon="7.0771">
        <ele>1129</ele>
        <time>2014-09-03T11:32:49Z</time>
      </trkpt>
      <trkpt lat="48.09914" lon="7.07706">
        <ele>1129</ele>
        <time>2014-09-03T11:32:54Z</time>
      </trkpt>
      <trkpt lat="48.09906" lon="7.07708">
        <ele>1134</ele>
        <time>2014-09-03T11:32:59Z</time>
      </trkpt>
      <trkpt lat="48.09896" lon="7.07706">
        <ele>1136</ele>
        <time>2014-09-03T11:33:04Z</time>
      </trkpt>
      <trkpt lat="48.09891" lon="7.07704">
        <ele>1139</ele>
        <time>2014-09-03T11:33:10Z</time>
      </trkpt>
      <trkpt lat="48.09863" lon="7.07679">
        <ele>1136</ele>
        <time>2014-09-03T11:33:18Z</time>
      </trkpt>
      <trkpt lat="48.09854" lon="7.07673">
        <ele>1137</ele>
        <time>2014-09-03T11:33:23Z</time>
      </trkpt>
      <trkpt lat="48.09848" lon="7.07666">
        <ele>1139</ele>
        <time>2014-09-03T11:33:28Z</time>
      </trkpt>
      <trkpt lat="48.09844" lon="7.07648">
        <ele>1133</ele>
        <time>2014-09-03T11:33:32Z</time>
      </trkpt>
      <trkpt lat="48.09836" lon="7.07643">
        <ele>1135</ele>
        <time>2014-09-03T11:33:37Z</time>
      </trkpt>
      <trkpt lat="48.0983" lon="7.07638">
        <ele>1135</ele>
        <time>2014-09-03T11:33:42Z</time>
      </trkpt>
      <trkpt lat="48.09814" lon="7.07625">
        <ele>1133</ele>
        <time>2014-09-03T11:33:50Z</time>
      </trkpt>
      <trkpt lat="48.09806" lon="7.07626">
        <ele>1132</ele>
        <time>2014-09-03T11:33:58Z</time>
      </trkpt>
      <trkpt lat="48.09782" lon="7.07609">
        <ele>1128</ele>
        <time>2014-09-03T11:34:07Z</time>
      </trkpt>
      <trkpt lat="48.09773" lon="7.07607">
        <ele>1129</ele>
        <time>2014-09-03T11:34:12Z</time>
      </trkpt>
      <trkpt lat="48.09759" lon="7.07605">
        <ele>1129</ele>
        <time>2014-09-03T11:34:16Z</time>
      </trkpt>
      <trkpt lat="48.0974" lon="7.07605">
        <ele>1127</ele>
        <time>2014-09-03T11:34:21Z</time>
      </trkpt>
      <trkpt lat="48.09732" lon="7.07603">
        <ele>1126</ele>
        <time>2014-09-03T11:34:24Z</time>
      </trkpt>
      <trkpt lat="48.0972" lon="7.07604">
        <ele>1128</ele>
        <time>2014-09-03T11:34:29Z</time>
      </trkpt>
      <trkpt lat="48.09711" lon="7.07604">
        <ele>1130</ele>
        <time>2014-09-03T11:34:31Z</time>
      </trkpt>
      <trkpt lat="48.097" lon="7.07608">
        <ele>1129</ele>
        <time>2014-09-03T11:34:36Z</time>
      </trkpt>
      <trkpt lat="48.09691" lon="7.07602">
        <ele>1131</ele>
        <time>2014-09-03T11:34:40Z</time>
      </trkpt>
      <trkpt lat="48.09684" lon="7.07598">
        <ele>1126</ele>
        <time>2014-09-03T11:34:43Z</time>
      </trkpt>
      <trkpt lat="48.09676" lon="7.07597">
        <ele>1125</ele>
        <time>2014-09-03T11:34:48Z</time>
      </trkpt>
      <trkpt lat="48.09668" lon="7.07596">
        <ele>1124</ele>
        <time>2014-09-03T11:34:55Z</time>
      </trkpt>
      <trkpt lat="48.09661" lon="7.07593">
        <ele>1126</ele>
        <time>2014-09-03T11:35:01Z</time>
      </trkpt>
      <trkpt lat="48.09651" lon="7.07588">
        <ele>1123</ele>
        <time>2014-09-03T11:35:04Z</time>
      </trkpt>
      <trkpt lat="48.09638" lon="7.07582">
        <ele>1127</ele>
        <time>2014-09-03T11:35:08Z</time>
      </trkpt>
      <trkpt lat="48.0963" lon="7.07575">
        <ele>1126</ele>
        <time>2014-09-03T11:35:12Z</time>
      </trkpt>
      <trkpt lat="48.0962" lon="7.07568">
        <ele>1125</ele>
        <time>2014-09-03T11:35:17Z</time>
      </trkpt>
      <trkpt lat="48.09613" lon="7.07563">
        <ele>1126</ele>
        <time>2014-09-03T11:35:20Z</time>
      </trkpt>
      <trkpt lat="48.09607" lon="7.07554">
        <ele>1127</ele>
        <time>2014-09-03T11:35:24Z</time>
      </trkpt>
      <trkpt lat="48.096" lon="7.07548">
        <ele>1131</ele>
        <time>2014-09-03T11:35:29Z</time>
      </trkpt>
      <trkpt lat="48.09593" lon="7.07544">
        <ele>1130</ele>
        <time>2014-09-03T11:35:33Z</time>
      </trkpt>
      <trkpt lat="48.09586" lon="7.07536">
        <ele>1129</ele>
        <time>2014-09-03T11:35:38Z</time>
      </trkpt>
      <trkpt lat="48.0958" lon="7.07529">
        <ele>1130</ele>
        <time>2014-09-03T11:35:43Z</time>
      </trkpt>
      <trkpt lat="48.09577" lon="7.07517">
        <ele>1126</ele>
        <time>2014-09-03T11:35:47Z</time>
      </trkpt>
      <trkpt lat="48.09571" lon="7.07502">
        <ele>1127</ele>
        <time>2014-09-03T11:35:52Z</time>
      </trkpt>
      <trkpt lat="48.09567" lon="7.07491">
        <ele>1125</ele>
        <time>2014-09-03T11:35:55Z</time>
      </trkpt>
      <trkpt lat="48.09562" lon="7.07483">
        <ele>1130</ele>
        <time>2014-09-03T11:36:00Z</time>
      </trkpt>
      <trkpt lat="48.09558" lon="7.07474">
        <ele>1130</ele>
        <time>2014-09-03T11:36:04Z</time>
      </trkpt>
      <trkpt lat="48.09553" lon="7.07464">
        <ele>1128</ele>
        <time>2014-09-03T11:36:08Z</time>
      </trkpt>
      <trkpt lat="48.0955" lon="7.07455">
        <ele>1129</ele>
        <time>2014-09-03T11:36:11Z</time>
      </trkpt>
      <trkpt lat="48.09545" lon="7.07444">
        <ele>1126</ele>
        <time>2014-09-03T11:36:15Z</time>
      </trkpt>
      <trkpt lat="48.09541" lon="7.07434">
        <ele>1128</ele>
        <time>2014-09-03T11:36:20Z</time>
      </trkpt>
      <trkpt lat="48.09535" lon="7.07422">
        <ele>1129</ele>
        <time>2014-09-03T11:36:25Z</time>
      </trkpt>
      <trkpt lat="48.09533" lon="7.07405">
        <ele>1131</ele>
        <time>2014-09-03T11:36:29Z</time>
      </trkpt>
      <trkpt lat="48.09532" lon="7.07387">
        <ele>1133</ele>
        <time>2014-09-03T11:36:33Z</time>
      </trkpt>
      <trkpt lat="48.0953" lon="7.0737">
        <ele>1132</ele>
        <time>2014-09-03T11:36:37Z</time>
      </trkpt>
      <trkpt lat="48.09523" lon="7.07349">
        <ele>1133</ele>
        <time>2014-09-03T11:36:42Z</time>
      </trkpt>
      <trkpt lat="48.09518" lon="7.07334">
        <ele>1132</ele>
        <time>2014-09-03T11:36:46Z</time>
      </trkpt>
      <trkpt lat="48.09514" lon="7.07314">
        <ele>1132</ele>
        <time>2014-09-03T11:36:51Z</time>
      </trkpt>
      <trkpt lat="48.09509" lon="7.07296">
        <ele>1131</ele>
        <time>2014-09-03T11:36:55Z</time>
      </trkpt>
      <trkpt lat="48.095" lon="7.07281">
        <ele>1135</ele>
        <time>2014-09-03T11:36:59Z</time>
      </trkpt>
      <trkpt lat="48.09492" lon="7.07272">
        <ele>1135</ele>
        <time>2014-09-03T11:37:03Z</time>
      </trkpt>
      <trkpt lat="48.09485" lon="7.07262">
        <ele>1138</ele>
        <time>2014-09-03T11:37:07Z</time>
      </trkpt>
      <trkpt lat="48.0948" lon="7.07255">
        <ele>1137</ele>
        <time>2014-09-03T11:37:10Z</time>
      </trkpt>
      <trkpt lat="48.09477" lon="7.07239">
        <ele>1130</ele>
        <time>2014-09-03T11:37:15Z</time>
      </trkpt>
      <trkpt lat="48.09472" lon="7.07224">
        <ele>1131</ele>
        <time>2014-09-03T11:37:20Z</time>
      </trkpt>
      <trkpt lat="48.09468" lon="7.07217">
        <ele>1135</ele>
        <time>2014-09-03T11:37:25Z</time>
      </trkpt>
      <trkpt lat="48.09454" lon="7.07188">
        <ele>1136</ele>
        <time>2014-09-03T11:37:35Z</time>
      </trkpt>
      <trkpt lat="48.09451" lon="7.07175">
        <ele>1138</ele>
        <time>2014-09-03T11:37:46Z</time>
      </trkpt>
      <trkpt lat="48.09445" lon="7.07166">
        <ele>1135</ele>
        <time>2014-09-03T11:38:02Z</time>
      </trkpt>
      <trkpt lat="48.09439" lon="7.07157">
        <ele>1134</ele>
        <time>2014-09-03T11:38:08Z</time>
      </trkpt>
      <trkpt lat="48.09431" lon="7.07152">
        <ele>1137</ele>
        <time>2014-09-03T11:38:12Z</time>
      </trkpt>
      <trkpt lat="48.09427" lon="7.0714">
        <ele>1140</ele>
        <time>2014-09-03T11:38:17Z</time>
      </trkpt>
      <trkpt lat="48.09424" lon="7.07125">
        <ele>1140</ele>
        <time>2014-09-03T11:38:22Z</time>
      </trkpt>
      <trkpt lat="48.09417" lon="7.07113">
        <ele>1141</ele>
        <time>2014-09-03T11:38:27Z</time>
      </trkpt>
      <trkpt lat="48.09411" lon="7.07103">
        <ele>1137</ele>
        <time>2014-09-03T11:38:31Z</time>
      </trkpt>
      <trkpt lat="48.0941" lon="7.0709">
        <ele>1141</ele>
        <time>2014-09-03T11:38:40Z</time>
      </trkpt>
      <trkpt lat="48.09409" lon="7.07077">
        <ele>1140</ele>
        <time>2014-09-03T11:39:05Z</time>
      </trkpt>
      <trkpt lat="48.09408" lon="7.07065">
        <ele>1136</ele>
        <time>2014-09-03T11:41:14Z</time>
      </trkpt>
      <trkpt lat="48.09405" lon="7.07054">
        <ele>1137</ele>
        <time>2014-09-03T11:41:18Z</time>
      </trkpt>
      <trkpt lat="48.09404" lon="7.07042">
        <ele>1136</ele>
        <time>2014-09-03T11:41:22Z</time>
      </trkpt>
      <trkpt lat="48.09401" lon="7.0703">
        <ele>1139</ele>
        <time>2014-09-03T11:41:26Z</time>
      </trkpt>
      <trkpt lat="48.09397" lon="7.07016">
        <ele>1142</ele>
        <time>2014-09-03T11:41:30Z</time>
      </trkpt>
      <trkpt lat="48.09393" lon="7.07007">
        <ele>1144</ele>
        <time>2014-09-03T11:41:36Z</time>
      </trkpt>
      <trkpt lat="48.0939" lon="7.06996">
        <ele>1144</ele>
        <time>2014-09-03T11:41:41Z</time>
      </trkpt>
      <trkpt lat="48.09384" lon="7.06986">
        <ele>1145</ele>
        <time>2014-09-03T11:41:50Z</time>
      </trkpt>
      <trkpt lat="48.09379" lon="7.06981">
        <ele>1145</ele>
        <time>2014-09-03T11:41:54Z</time>
      </trkpt>
      <trkpt lat="48.09371" lon="7.06977">
        <ele>1144</ele>
        <time>2014-09-03T11:41:59Z</time>
      </trkpt>
      <trkpt lat="48.09367" lon="7.06968">
        <ele>1145</ele>
        <time>2014-09-03T11:42:04Z</time>
      </trkpt>
      <trkpt lat="48.09364" lon="7.06956">
        <ele>1154</ele>
        <time>2014-09-03T11:42:10Z</time>
      </trkpt>
      <trkpt lat="48.09357" lon="7.06948">
        <ele>1159</ele>
        <time>2014-09-03T11:42:17Z</time>
      </trkpt>
      <trkpt lat="48.0935" lon="7.06939">
        <ele>1163</ele>
        <time>2014-09-03T11:42:22Z</time>
      </trkpt>
      <trkpt lat="48.09342" lon="7.06937">
        <ele>1169</ele>
        <time>2014-09-03T11:42:27Z</time>
      </trkpt>
      <trkpt lat="48.09335" lon="7.06933">
        <ele>1168</ele>
        <time>2014-09-03T11:42:31Z</time>
      </trkpt>
      <trkpt lat="48.09327" lon="7.06927">
        <ele>1165</ele>
        <time>2014-09-03T11:42:37Z</time>
      </trkpt>
      <trkpt lat="48.09319" lon="7.06924">
        <ele>1163</ele>
        <time>2014-09-03T11:42:44Z</time>
      </trkpt>
      <trkpt lat="48.09312" lon="7.06918">
        <ele>1164</ele>
        <time>2014-09-03T11:42:49Z</time>
      </trkpt>
      <trkpt lat="48.09305" lon="7.06921">
        <ele>1165</ele>
        <time>2014-09-03T11:42:54Z</time>
      </trkpt>
      <trkpt lat="48.09297" lon="7.06923">
        <ele>1168</ele>
        <time>2014-09-03T11:42:58Z</time>
      </trkpt>
      <trkpt lat="48.09289" lon="7.06925">
        <ele>1168</ele>
        <time>2014-09-03T11:43:03Z</time>
      </trkpt>
      <trkpt lat="48.09281" lon="7.06922">
        <ele>1168</ele>
        <time>2014-09-03T11:43:08Z</time>
      </trkpt>
      <trkpt lat="48.09273" lon="7.06916">
        <ele>1169</ele>
        <time>2014-09-03T11:43:12Z</time>
      </trkpt>
      <trkpt lat="48.09265" lon="7.06916">
        <ele>1171</ele>
        <time>2014-09-03T11:43:16Z</time>
      </trkpt>
      <trkpt lat="48.09252" lon="7.06918">
        <ele>1175</ele>
        <time>2014-09-03T11:43:21Z</time>
      </trkpt>
      <trkpt lat="48.09243" lon="7.06921">
        <ele>1175</ele>
        <time>2014-09-03T11:43:25Z</time>
      </trkpt>
      <trkpt lat="48.09236" lon="7.06922">
        <ele>1176</ele>
        <time>2014-09-03T11:43:30Z</time>
      </trkpt>
      <trkpt lat="48.09229" lon="7.06915">
        <ele>1172</ele>
        <time>2014-09-03T11:43:34Z</time>
      </trkpt>
      <trkpt lat="48.09223" lon="7.06909">
        <ele>1175</ele>
        <time>2014-09-03T11:43:39Z</time>
      </trkpt>
      <trkpt lat="48.09214" lon="7.06909">
        <ele>1176</ele>
        <time>2014-09-03T11:44:10Z</time>
      </trkpt>
      <trkpt lat="48.09206" lon="7.06915">
        <ele>1168</ele>
        <time>2014-09-03T11:44:59Z</time>
      </trkpt>
      <trkpt lat="48.09198" lon="7.0692">
        <ele>1170</ele>
        <time>2014-09-03T11:45:37Z</time>
      </trkpt>
      <trkpt lat="48.09184" lon="7.06917">
        <ele>1170</ele>
        <time>2014-09-03T11:45:42Z</time>
      </trkpt>
      <trkpt lat="48.09166" lon="7.06913">
        <ele>1164</ele>
        <time>2014-09-03T11:45:46Z</time>
      </trkpt>
      <trkpt lat="48.09143" lon="7.06903">
        <ele>1158</ele>
        <time>2014-09-03T11:45:51Z</time>
      </trkpt>
      <trkpt lat="48.09127" lon="7.06902">
        <ele>1156</ele>
        <time>2014-09-03T11:45:56Z</time>
      </trkpt>
      <trkpt lat="48.0911" lon="7.06905">
        <ele>1155</ele>
        <time>2014-09-03T11:46:00Z</time>
      </trkpt>
      <trkpt lat="48.09101" lon="7.06907">
        <ele>1152</ele>
        <time>2014-09-03T11:46:06Z</time>
      </trkpt>
      <trkpt lat="48.09099" lon="7.06904">
        <ele>1151</ele>
        <time>2014-09-03T11:46:14Z</time>
      </trkpt>
      <trkpt lat="48.09087" lon="7.06905">
        <ele>1149</ele>
        <time>2014-09-03T11:46:19Z</time>
      </trkpt>
      <trkpt lat="48.09076" lon="7.06904">
        <ele>1149</ele>
        <time>2014-09-03T11:46:23Z</time>
      </trkpt>
      <trkpt lat="48.09057" lon="7.06898">
        <ele>1144</ele>
        <time>2014-09-03T11:46:28Z</time>
      </trkpt>
      <trkpt lat="48.09043" lon="7.06891">
        <ele>1142</ele>
        <time>2014-09-03T11:46:31Z</time>
      </trkpt>
      <trkpt lat="48.0903" lon="7.06888">
        <ele>1136</ele>
        <time>2014-09-03T11:46:35Z</time>
      </trkpt>
      <trkpt lat="48.09019" lon="7.06888">
        <ele>1133</ele>
        <time>2014-09-03T11:46:40Z</time>
      </trkpt>
      <trkpt lat="48.09011" lon="7.06888">
        <ele>1133</ele>
        <time>2014-09-03T11:46:43Z</time>
      </trkpt>
      <trkpt lat="48.09005" lon="7.06885">
        <ele>1131</ele>
        <time>2014-09-03T11:47:38Z</time>
      </trkpt>
      <trkpt lat="48.08992" lon="7.06883">
        <ele>1127</ele>
        <time>2014-09-03T11:47:42Z</time>
      </trkpt>
      <trkpt lat="48.0898" lon="7.06882">
        <ele>1126</ele>
        <time>2014-09-03T11:47:45Z</time>
      </trkpt>
      <trkpt lat="48.08963" lon="7.0688">
        <ele>1121</ele>
        <time>2014-09-03T11:47:50Z</time>
      </trkpt>
      <trkpt lat="48.08951" lon="7.06877">
        <ele>1118</ele>
        <time>2014-09-03T11:47:55Z</time>
      </trkpt>
      <trkpt lat="48.08943" lon="7.06875">
        <ele>1116</ele>
        <time>2014-09-03T11:47:58Z</time>
      </trkpt>
      <trkpt lat="48.08933" lon="7.06872">
        <ele>1112</ele>
        <time>2014-09-03T11:48:03Z</time>
      </trkpt>
      <trkpt lat="48.08909" lon="7.06868">
        <ele>1110</ele>
        <time>2014-09-03T11:48:12Z</time>
      </trkpt>
      <trkpt lat="48.08908" lon="7.0688">
        <ele>1109</ele>
        <time>2014-09-03T11:48:52Z</time>
      </trkpt>
      <trkpt lat="48.08892" lon="7.06892">
        <ele>1109</ele>
        <time>2014-09-03T11:48:57Z</time>
      </trkpt>
      <trkpt lat="48.08882" lon="7.06882">
        <ele>1108</ele>
        <time>2014-09-03T11:49:01Z</time>
      </trkpt>
      <trkpt lat="48.08885" lon="7.06872">
        <ele>1109</ele>
        <time>2014-09-03T11:49:05Z</time>
      </trkpt>
      <trkpt lat="48.08887" lon="7.06861">
        <ele>1109</ele>
        <time>2014-09-03T11:49:09Z</time>
      </trkpt>
      <trkpt lat="48.0889" lon="7.06852">
        <ele>1105</ele>
        <time>2014-09-03T11:49:35Z</time>
      </trkpt>
      <trkpt lat="48.08881" lon="7.06837">
        <ele>1100</ele>
        <time>2014-09-03T11:49:39Z</time>
      </trkpt>
      <trkpt lat="48.08858" lon="7.06822">
        <ele>1097</ele>
        <time>2014-09-03T11:49:44Z</time>
      </trkpt>
      <trkpt lat="48.08833" lon="7.06811">
        <ele>1093</ele>
        <time>2014-09-03T11:49:49Z</time>
      </trkpt>
      <trkpt lat="48.08823" lon="7.06808">
        <ele>1093</ele>
        <time>2014-09-03T11:49:54Z</time>
      </trkpt>
      <trkpt lat="48.08819" lon="7.06802">
        <ele>1089</ele>
        <time>2014-09-03T11:50:06Z</time>
      </trkpt>
      <trkpt lat="48.0881" lon="7.06784">
        <ele>1086</ele>
        <time>2014-09-03T11:50:11Z</time>
      </trkpt>
      <trkpt lat="48.08804" lon="7.06772">
        <ele>1085</ele>
        <time>2014-09-03T11:50:14Z</time>
      </trkpt>
      <trkpt lat="48.08796" lon="7.06759">
        <ele>1080</ele>
        <time>2014-09-03T11:50:17Z</time>
      </trkpt>
      <trkpt lat="48.08789" lon="7.06749">
        <ele>1079</ele>
        <time>2014-09-03T11:50:22Z</time>
      </trkpt>
      <trkpt lat="48.08782" lon="7.0674">
        <ele>1079</ele>
        <time>2014-09-03T11:50:26Z</time>
      </trkpt>
      <trkpt lat="48.08773" lon="7.06728">
        <ele>1079</ele>
        <time>2014-09-03T11:50:30Z</time>
      </trkpt>
      <trkpt lat="48.08762" lon="7.06708">
        <ele>1077</ele>
        <time>2014-09-03T11:50:35Z</time>
      </trkpt>
      <trkpt lat="48.08761" lon="7.06703">
        <ele>1082</ele>
        <time>2014-09-03T11:52:25Z</time>
      </trkpt>
      <trkpt lat="48.08752" lon="7.06691">
        <ele>1085</ele>
        <time>2014-09-03T11:52:29Z</time>
      </trkpt>
      <trkpt lat="48.08745" lon="7.06676">
        <ele>1087</ele>
        <time>2014-09-03T11:52:33Z</time>
      </trkpt>
      <trkpt lat="48.08756" lon="7.06645">
        <ele>1084</ele>
        <time>2014-09-03T11:52:37Z</time>
      </trkpt>
      <trkpt lat="48.08772" lon="7.06627">
        <ele>1084</ele>
        <time>2014-09-03T11:52:41Z</time>
      </trkpt>
      <trkpt lat="48.08788" lon="7.06596">
        <ele>1082</ele>
        <time>2014-09-03T11:52:46Z</time>
      </trkpt>
      <trkpt lat="48.08777" lon="7.06579">
        <ele>1082</ele>
        <time>2014-09-03T11:52:51Z</time>
      </trkpt>
      <trkpt lat="48.08759" lon="7.0656">
        <ele>1076</ele>
        <time>2014-09-03T11:52:55Z</time>
      </trkpt>
      <trkpt lat="48.08744" lon="7.06534">
        <ele>1075</ele>
        <time>2014-09-03T11:52:58Z</time>
      </trkpt>
      <trkpt lat="48.08735" lon="7.06514">
        <ele>1071</ele>
        <time>2014-09-03T11:53:01Z</time>
      </trkpt>
      <trkpt lat="48.08717" lon="7.0647">
        <ele>1072</ele>
        <time>2014-09-03T11:53:05Z</time>
      </trkpt>
      <trkpt lat="48.08708" lon="7.0643">
        <ele>1070</ele>
        <time>2014-09-03T11:53:10Z</time>
      </trkpt>
      <trkpt lat="48.08706" lon="7.06399">
        <ele>1070</ele>
        <time>2014-09-03T11:53:14Z</time>
      </trkpt>
      <trkpt lat="48.08705" lon="7.06378">
        <ele>1067</ele>
        <time>2014-09-03T11:53:18Z</time>
      </trkpt>
      <trkpt lat="48.087" lon="7.06363">
        <ele>1065</ele>
        <time>2014-09-03T11:53:23Z</time>
      </trkpt>
      <trkpt lat="48.08696" lon="7.06349">
        <ele>1063</ele>
        <time>2014-09-03T11:53:28Z</time>
      </trkpt>
      <trkpt lat="48.08689" lon="7.06335">
        <ele>1061</ele>
        <time>2014-09-03T11:53:32Z</time>
      </trkpt>
      <trkpt lat="48.08683" lon="7.06323">
        <ele>1061</ele>
        <time>2014-09-03T11:53:37Z</time>
      </trkpt>
      <trkpt lat="48.08684" lon="7.06312">
        <ele>1057</ele>
        <time>2014-09-03T11:55:00Z</time>
      </trkpt>
      <trkpt lat="48.08682" lon="7.063">
        <ele>1059</ele>
        <time>2014-09-03T11:55:04Z</time>
      </trkpt>
      <trkpt lat="48.08685" lon="7.06289">
        <ele>1060</ele>
        <time>2014-09-03T11:55:08Z</time>
      </trkpt>
      <trkpt lat="48.08691" lon="7.06277">
        <ele>1060</ele>
        <time>2014-09-03T11:55:11Z</time>
      </trkpt>
      <trkpt lat="48.08697" lon="7.06264">
        <ele>1058</ele>
        <time>2014-09-03T11:55:15Z</time>
      </trkpt>
      <trkpt lat="48.08703" lon="7.06259">
        <ele>1058</ele>
        <time>2014-09-03T11:55:20Z</time>
      </trkpt>
      <trkpt lat="48.08711" lon="7.0625">
        <ele>1063</ele>
        <time>2014-09-03T11:55:24Z</time>
      </trkpt>
      <trkpt lat="48.08718" lon="7.06242">
        <ele>1062</ele>
        <time>2014-09-03T11:55:30Z</time>
      </trkpt>
      <trkpt lat="48.08726" lon="7.06234">
        <ele>1063</ele>
        <time>2014-09-03T11:55:35Z</time>
      </trkpt>
      <trkpt lat="48.08733" lon="7.06227">
        <ele>1062</ele>
        <time>2014-09-03T11:55:39Z</time>
      </trkpt>
      <trkpt lat="48.08741" lon="7.0621">
        <ele>1060</ele>
        <time>2014-09-03T11:55:44Z</time>
      </trkpt>
      <trkpt lat="48.08746" lon="7.06201">
        <ele>1060</ele>
        <time>2014-09-03T11:55:49Z</time>
      </trkpt>
      <trkpt lat="48.08752" lon="7.06196">
        <ele>1062</ele>
        <time>2014-09-03T11:55:53Z</time>
      </trkpt>
      <trkpt lat="48.08762" lon="7.06186">
        <ele>1062</ele>
        <time>2014-09-03T11:55:57Z</time>
      </trkpt>
      <trkpt lat="48.08768" lon="7.06183">
        <ele>1067</ele>
        <time>2014-09-03T11:56:07Z</time>
      </trkpt>
      <trkpt lat="48.08777" lon="7.06184">
        <ele>1069</ele>
        <time>2014-09-03T11:56:42Z</time>
      </trkpt>
      <trkpt lat="48.08788" lon="7.06174">
        <ele>1068</ele>
        <time>2014-09-03T11:56:57Z</time>
      </trkpt>
      <trkpt lat="48.08796" lon="7.0618">
        <ele>1071</ele>
        <time>2014-09-03T11:57:23Z</time>
      </trkpt>
      <trkpt lat="48.08805" lon="7.06181">
        <ele>1067</ele>
        <time>2014-09-03T11:58:29Z</time>
      </trkpt>
      <trkpt lat="48.08813" lon="7.06186">
        <ele>1070</ele>
        <time>2014-09-03T12:00:16Z</time>
      </trkpt>
      <trkpt lat="48.0882" lon="7.06189">
        <ele>1070</ele>
        <time>2014-09-03T12:02:15Z</time>
      </trkpt>
      <trkpt lat="48.08827" lon="7.06195">
        <ele>1066</ele>
        <time>2014-09-03T12:02:24Z</time>
      </trkpt>
      <trkpt lat="48.08835" lon="7.06201">
        <ele>1067</ele>
        <time>2014-09-03T12:02:41Z</time>
      </trkpt>
      <trkpt lat="48.08847" lon="7.06215">
        <ele>1069</ele>
        <time>2014-09-03T12:02:52Z</time>
      </trkpt>
      <trkpt lat="48.08854" lon="7.0622">
        <ele>1071</ele>
        <time>2014-09-03T12:03:18Z</time>
      </trkpt>
      <trkpt lat="48.08865" lon="7.0624">
        <ele>1069</ele>
        <time>2014-09-03T12:03:28Z</time>
      </trkpt>
      <trkpt lat="48.08872" lon="7.06247">
        <ele>1064</ele>
        <time>2014-09-03T12:04:43Z</time>
      </trkpt>
      <trkpt lat="48.0888" lon="7.06247">
        <ele>1071</ele>
        <time>2014-09-03T12:05:20Z</time>
      </trkpt>
      <trkpt lat="48.08897" lon="7.06244">
        <ele>1079</ele>
        <time>2014-09-03T12:05:39Z</time>
      </trkpt>
      <trkpt lat="48.08904" lon="7.06244">
        <ele>1075</ele>
        <time>2014-09-03T12:06:26Z</time>
      </trkpt>
      <trkpt lat="48.08922" lon="7.06253">
        <ele>1067</ele>
        <time>2014-09-03T12:06:39Z</time>
      </trkpt>
      <trkpt lat="48.08931" lon="7.06254">
        <ele>1065</ele>
        <time>2014-09-03T12:07:15Z</time>
      </trkpt>
      <trkpt lat="48.08936" lon="7.06261">
        <ele>1061</ele>
        <time>2014-09-03T12:07:20Z</time>
      </trkpt>
      <trkpt lat="48.08966" lon="7.06281">
        <ele>1046</ele>
        <time>2014-09-03T12:07:29Z</time>
      </trkpt>
      <trkpt lat="48.08971" lon="7.06286">
        <ele>1046</ele>
        <time>2014-09-03T12:07:34Z</time>
      </trkpt>
      <trkpt lat="48.08975" lon="7.06293">
        <ele>1046</ele>
        <time>2014-09-03T12:07:38Z</time>
      </trkpt>
      <trkpt lat="48.08982" lon="7.06302">
        <ele>1043</ele>
        <time>2014-09-03T12:08:15Z</time>
      </trkpt>
      <trkpt lat="48.08985" lon="7.06328">
        <ele>1049</ele>
        <time>2014-09-03T12:08:25Z</time>
      </trkpt>
      <trkpt lat="48.08989" lon="7.06338">
        <ele>1047</ele>
        <time>2014-09-03T12:08:29Z</time>
      </trkpt>
      <trkpt lat="48.08991" lon="7.0635">
        <ele>1041</ele>
        <time>2014-09-03T12:08:33Z</time>
      </trkpt>
      <trkpt lat="48.08996" lon="7.06362">
        <ele>1040</ele>
        <time>2014-09-03T12:08:39Z</time>
      </trkpt>
      <trkpt lat="48.09001" lon="7.06371">
        <ele>1040</ele>
        <time>2014-09-03T12:08:48Z</time>
      </trkpt>
      <trkpt lat="48.09005" lon="7.06384">
        <ele>1045</ele>
        <time>2014-09-03T12:09:05Z</time>
      </trkpt>
      <trkpt lat="48.09009" lon="7.06395">
        <ele>1044</ele>
        <time>2014-09-03T12:09:13Z</time>
      </trkpt>
      <trkpt lat="48.09019" lon="7.06442">
        <ele>1038</ele>
        <time>2014-09-03T12:09:21Z</time>
      </trkpt>
      <trkpt lat="48.09022" lon="7.06455">
        <ele>1041</ele>
        <time>2014-09-03T12:09:26Z</time>
      </trkpt>
      <trkpt lat="48.09027" lon="7.06471">
        <ele>1042</ele>
        <time>2014-09-03T12:09:30Z</time>
      </trkpt>
      <trkpt lat="48.09026" lon="7.06488">
        <ele>1044</ele>
        <time>2014-09-03T12:09:35Z</time>
      </trkpt>
      <trkpt lat="48.09021" lon="7.06497">
        <ele>1046</ele>
        <time>2014-09-03T12:09:39Z</time>
      </trkpt>
      <trkpt lat="48.09017" lon="7.06507">
        <ele>1054</ele>
        <time>2014-09-03T12:09:46Z</time>
      </trkpt>
      <trkpt lat="48.09015" lon="7.06518">
        <ele>1062</ele>
        <time>2014-09-03T12:09:52Z</time>
      </trkpt>
      <trkpt lat="48.09013" lon="7.06533">
        <ele>1061</ele>
        <time>2014-09-03T12:09:57Z</time>
      </trkpt>
      <trkpt lat="48.09006" lon="7.0654">
        <ele>1065</ele>
        <time>2014-09-03T12:10:06Z</time>
      </trkpt>
      <trkpt lat="48.08998" lon="7.06545">
        <ele>1079</ele>
        <time>2014-09-03T12:10:16Z</time>
      </trkpt>
      <trkpt lat="48.08991" lon="7.06553">
        <ele>1084</ele>
        <time>2014-09-03T12:10:20Z</time>
      </trkpt>
      <trkpt lat="48.08984" lon="7.06554">
        <ele>1085</ele>
        <time>2014-09-03T12:10:24Z</time>
      </trkpt>
      <trkpt lat="48.08974" lon="7.06556">
        <ele>1083</ele>
        <time>2014-09-03T12:10:29Z</time>
      </trkpt>
      <trkpt lat="48.08966" lon="7.06561">
        <ele>1087</ele>
        <time>2014-09-03T12:10:35Z</time>
      </trkpt>
      <trkpt lat="48.08958" lon="7.06566">
        <ele>1089</ele>
        <time>2014-09-03T12:10:40Z</time>
      </trkpt>
      <trkpt lat="48.08953" lon="7.06576">
        <ele>1086</ele>
        <time>2014-09-03T12:10:46Z</time>
      </trkpt>
      <trkpt lat="48.08946" lon="7.06579">
        <ele>1090</ele>
        <time>2014-09-03T12:10:52Z</time>
      </trkpt>
      <trkpt lat="48.08934" lon="7.06585">
        <ele>1091</ele>
        <time>2014-09-03T12:10:57Z</time>
      </trkpt>
      <trkpt lat="48.08925" lon="7.06587">
        <ele>1091</ele>
        <time>2014-09-03T12:11:01Z</time>
      </trkpt>
      <trkpt lat="48.08916" lon="7.06587">
        <ele>1083</ele>
        <time>2014-09-03T12:11:05Z</time>
      </trkpt>
      <trkpt lat="48.08907" lon="7.06591">
        <ele>1086</ele>
        <time>2014-09-03T12:11:09Z</time>
      </trkpt>
      <trkpt lat="48.08899" lon="7.0659">
        <ele>1088</ele>
        <time>2014-09-03T12:11:12Z</time>
      </trkpt>
      <trkpt lat="48.0889" lon="7.0659">
        <ele>1086</ele>
        <time>2014-09-03T12:11:17Z</time>
      </trkpt>
      <trkpt lat="48.08883" lon="7.06593">
        <ele>1086</ele>
        <time>2014-09-03T12:11:21Z</time>
      </trkpt>
      <trkpt lat="48.08871" lon="7.06594">
        <ele>1087</ele>
        <time>2014-09-03T12:11:26Z</time>
      </trkpt>
      <trkpt lat="48.08856" lon="7.06592">
        <ele>1091</ele>
        <time>2014-09-03T12:11:30Z</time>
      </trkpt>
      <trkpt lat="48.08845" lon="7.06596">
        <ele>1087</ele>
        <time>2014-09-03T12:11:35Z</time>
      </trkpt>
      <trkpt lat="48.08837" lon="7.06595">
        <ele>1090</ele>
        <time>2014-09-03T12:11:42Z</time>
      </trkpt>
      <trkpt lat="48.0883" lon="7.0659">
        <ele>1091</ele>
        <time>2014-09-03T12:11:50Z</time>
      </trkpt>
      <trkpt lat="48.08823" lon="7.0659">
        <ele>1088</ele>
        <time>2014-09-03T12:11:56Z</time>
      </trkpt>
      <trkpt lat="48.08818" lon="7.0659">
        <ele>1083</ele>
        <time>2014-09-03T12:12:00Z</time>
      </trkpt>
      <trkpt lat="48.08807" lon="7.06589">
        <ele>1087</ele>
        <time>2014-09-03T12:12:04Z</time>
      </trkpt>
      <trkpt lat="48.08799" lon="7.06585">
        <ele>1088</ele>
        <time>2014-09-03T12:12:08Z</time>
      </trkpt>
      <trkpt lat="48.08792" lon="7.06585">
        <ele>1082</ele>
        <time>2014-09-03T12:12:12Z</time>
      </trkpt>
      <trkpt lat="48.08786" lon="7.06594">
        <ele>1084</ele>
        <time>2014-09-03T12:12:25Z</time>
      </trkpt>
      <trkpt lat="48.0878" lon="7.06602">
        <ele>1087</ele>
        <time>2014-09-03T12:12:34Z</time>
      </trkpt>
      <trkpt lat="48.08772" lon="7.06605">
        <ele>1085</ele>
        <time>2014-09-03T12:12:40Z</time>
      </trkpt>
      <trkpt lat="48.08766" lon="7.06615">
        <ele>1085</ele>
        <time>2014-09-03T12:12:47Z</time>
      </trkpt>
      <trkpt lat="48.08761" lon="7.06621">
        <ele>1085</ele>
        <time>2014-09-03T12:12:51Z</time>
      </trkpt>
      <trkpt lat="48.08753" lon="7.06629">
        <ele>1087</ele>
        <time>2014-09-03T12:12:55Z</time>
      </trkpt>
      <trkpt lat="48.08746" lon="7.06635">
        <ele>1086</ele>
        <time>2014-09-03T12:13:00Z</time>
      </trkpt>
      <trkpt lat="48.08739" lon="7.06642">
        <ele>1088</ele>
        <time>2014-09-03T12:13:05Z</time>
      </trkpt>
      <trkpt lat="48.08741" lon="7.06657">
        <ele>1089</ele>
        <time>2014-09-03T12:13:10Z</time>
      </trkpt>
      <trkpt lat="48.08741" lon="7.0667">
        <ele>1087</ele>
        <time>2014-09-03T12:13:15Z</time>
      </trkpt>
      <trkpt lat="48.08746" lon="7.06679">
        <ele>1088</ele>
        <time>2014-09-03T12:13:20Z</time>
      </trkpt>
      <trkpt lat="48.08751" lon="7.06688">
        <ele>1087</ele>
        <time>2014-09-03T12:13:25Z</time>
      </trkpt>
      <trkpt lat="48.08757" lon="7.06697">
        <ele>1090</ele>
        <time>2014-09-03T12:13:31Z</time>
      </trkpt>
      <trkpt lat="48.08758" lon="7.06687">
        <ele>1084</ele>
        <time>2014-09-03T12:14:28Z</time>
      </trkpt>
      <trkpt lat="48.08762" lon="7.06674">
        <ele>1081</ele>
        <time>2014-09-03T12:14:32Z</time>
      </trkpt>
      <trkpt lat="48.08767" lon="7.06668">
        <ele>1081</ele>
        <time>2014-09-03T12:14:35Z</time>
      </trkpt>
      <trkpt lat="48.08773" lon="7.0666">
        <ele>1083</ele>
        <time>2014-09-03T12:14:39Z</time>
      </trkpt>
      <trkpt lat="48.08781" lon="7.06656">
        <ele>1081</ele>
        <time>2014-09-03T12:14:44Z</time>
      </trkpt>
      <trkpt lat="48.08789" lon="7.06653">
        <ele>1083</ele>
        <time>2014-09-03T12:14:51Z</time>
      </trkpt>
      <trkpt lat="48.08797" lon="7.06655">
        <ele>1086</ele>
        <time>2014-09-03T12:14:58Z</time>
      </trkpt>
      <trkpt lat="48.08806" lon="7.06655">
        <ele>1089</ele>
        <time>2014-09-03T12:15:03Z</time>
      </trkpt>
      <trkpt lat="48.08811" lon="7.06657">
        <ele>1091</ele>
        <time>2014-09-03T12:15:06Z</time>
      </trkpt>
      <trkpt lat="48.08821" lon="7.06661">
        <ele>1095</ele>
        <time>2014-09-03T12:15:11Z</time>
      </trkpt>
      <trkpt lat="48.08828" lon="7.06661">
        <ele>1095</ele>
        <time>2014-09-03T12:15:15Z</time>
      </trkpt>
      <trkpt lat="48.08838" lon="7.06664">
        <ele>1098</ele>
        <time>2014-09-03T12:15:20Z</time>
      </trkpt>
      <trkpt lat="48.08846" lon="7.06666">
        <ele>1104</ele>
        <time>2014-09-03T12:15:25Z</time>
      </trkpt>
      <trkpt lat="48.08855" lon="7.06669">
        <ele>1105</ele>
        <time>2014-09-03T12:15:29Z</time>
      </trkpt>
      <trkpt lat="48.08862" lon="7.06671">
        <ele>1099</ele>
        <time>2014-09-03T12:15:34Z</time>
      </trkpt>
      <trkpt lat="48.08872" lon="7.06678">
        <ele>1100</ele>
        <time>2014-09-03T12:15:38Z</time>
      </trkpt>
      <trkpt lat="48.08882" lon="7.06681">
        <ele>1104</ele>
        <time>2014-09-03T12:15:42Z</time>
      </trkpt>
      <trkpt lat="48.0889" lon="7.06681">
        <ele>1109</ele>
        <time>2014-09-03T12:15:48Z</time>
      </trkpt>
      <trkpt lat="48.08898" lon="7.06679">
        <ele>1112</ele>
        <time>2014-09-03T12:15:53Z</time>
      </trkpt>
      <trkpt lat="48.08904" lon="7.06678">
        <ele>1112</ele>
        <time>2014-09-03T12:15:57Z</time>
      </trkpt>
      <trkpt lat="48.08914" lon="7.06678">
        <ele>1111</ele>
        <time>2014-09-03T12:16:02Z</time>
      </trkpt>
      <trkpt lat="48.08921" lon="7.06678">
        <ele>1112</ele>
        <time>2014-09-03T12:16:06Z</time>
      </trkpt>
      <trkpt lat="48.0893" lon="7.06678">
        <ele>1113</ele>
        <time>2014-09-03T12:16:10Z</time>
      </trkpt>
      <trkpt lat="48.08938" lon="7.06679">
        <ele>1112</ele>
        <time>2014-09-03T12:16:15Z</time>
      </trkpt>
      <trkpt lat="48.08946" lon="7.06681">
        <ele>1115</ele>
        <time>2014-09-03T12:16:20Z</time>
      </trkpt>
      <trkpt lat="48.08955" lon="7.06681">
        <ele>1117</ele>
        <time>2014-09-03T12:16:25Z</time>
      </trkpt>
      <trkpt lat="48.08963" lon="7.0668">
        <ele>1118</ele>
        <time>2014-09-03T12:16:30Z</time>
      </trkpt>
      <trkpt lat="48.08971" lon="7.0668">
        <ele>1117</ele>
        <time>2014-09-03T12:16:34Z</time>
      </trkpt>
      <trkpt lat="48.08976" lon="7.06679">
        <ele>1118</ele>
        <time>2014-09-03T12:16:38Z</time>
      </trkpt>
      <trkpt lat="48.08983" lon="7.06675">
        <ele>1120</ele>
        <time>2014-09-03T12:16:42Z</time>
      </trkpt>
      <trkpt lat="48.08989" lon="7.06679">
        <ele>1115</ele>
        <time>2014-09-03T12:16:49Z</time>
      </trkpt>
      <trkpt lat="48.08995" lon="7.06695">
        <ele>1113</ele>
        <time>2014-09-03T12:16:53Z</time>
      </trkpt>
      <trkpt lat="48.08987" lon="7.06694">
        <ele>1117</ele>
        <time>2014-09-03T12:17:02Z</time>
      </trkpt>
      <trkpt lat="48.08978" lon="7.06696">
        <ele>1119</ele>
        <time>2014-09-03T12:17:07Z</time>
      </trkpt>
      <trkpt lat="48.0897" lon="7.067">
        <ele>1126</ele>
        <time>2014-09-03T12:17:13Z</time>
      </trkpt>
      <trkpt lat="48.08961" lon="7.06703">
        <ele>1119</ele>
        <time>2014-09-03T12:17:16Z</time>
      </trkpt>
      <trkpt lat="48.08943" lon="7.06705">
        <ele>1123</ele>
        <time>2014-09-03T12:17:21Z</time>
      </trkpt>
      <trkpt lat="48.08929" lon="7.06707">
        <ele>1125</ele>
        <time>2014-09-03T12:17:25Z</time>
      </trkpt>
      <trkpt lat="48.08916" lon="7.06711">
        <ele>1115</ele>
        <time>2014-09-03T12:17:30Z</time>
      </trkpt>
      <trkpt lat="48.08908" lon="7.06717">
        <ele>1110</ele>
        <time>2014-09-03T12:17:34Z</time>
      </trkpt>
      <trkpt lat="48.089" lon="7.06728">
        <ele>1110</ele>
        <time>2014-09-03T12:17:38Z</time>
      </trkpt>
      <trkpt lat="48.08893" lon="7.06742">
        <ele>1107</ele>
        <time>2014-09-03T12:17:42Z</time>
      </trkpt>
      <trkpt lat="48.08893" lon="7.06755">
        <ele>1108</ele>
        <time>2014-09-03T12:17:44Z</time>
      </trkpt>
      <trkpt lat="48.08898" lon="7.06771">
        <ele>1108</ele>
        <time>2014-09-03T12:17:49Z</time>
      </trkpt>
      <trkpt lat="48.089" lon="7.06795">
        <ele>1110</ele>
        <time>2014-09-03T12:17:54Z</time>
      </trkpt>
      <trkpt lat="48.08898" lon="7.06813">
        <ele>1110</ele>
        <time>2014-09-03T12:17:58Z</time>
      </trkpt>
      <trkpt lat="48.08893" lon="7.06829">
        <ele>1111</ele>
        <time>2014-09-03T12:18:02Z</time>
      </trkpt>
      <trkpt lat="48.08889" lon="7.06847">
        <ele>1110</ele>
        <time>2014-09-03T12:18:07Z</time>
      </trkpt>
      <trkpt lat="48.08887" lon="7.06858">
        <ele>1109</ele>
        <time>2014-09-03T12:18:11Z</time>
      </trkpt>
      <trkpt lat="48.08884" lon="7.0687">
        <ele>1107</ele>
        <time>2014-09-03T12:18:14Z</time>
      </trkpt>
      <trkpt lat="48.08881" lon="7.06882">
        <ele>1106</ele>
        <time>2014-09-03T12:18:19Z</time>
      </trkpt>
      <trkpt lat="48.08889" lon="7.06887">
        <ele>1112</ele>
        <time>2014-09-03T12:18:29Z</time>
      </trkpt>
      <trkpt lat="48.08898" lon="7.06885">
        <ele>1109</ele>
        <time>2014-09-03T12:18:40Z</time>
      </trkpt>
      <trkpt lat="48.08903" lon="7.06876">
        <ele>1105</ele>
        <time>2014-09-03T12:19:07Z</time>
      </trkpt>
      <trkpt lat="48.08909" lon="7.06868">
        <ele>1106</ele>
        <time>2014-09-03T12:19:14Z</time>
      </trkpt>
      <trkpt lat="48.08917" lon="7.0687">
        <ele>1108</ele>
        <time>2014-09-03T12:19:41Z</time>
      </trkpt>
      <trkpt lat="48.08926" lon="7.06869">
        <ele>1111</ele>
        <time>2014-09-03T12:20:02Z</time>
      </trkpt>
      <trkpt lat="48.08932" lon="7.06868">
        <ele>1114</ele>
        <time>2014-09-03T12:20:30Z</time>
      </trkpt>
      <trkpt lat="48.08938" lon="7.06869">
        <ele>1115</ele>
        <time>2014-09-03T12:20:33Z</time>
      </trkpt>
      <trkpt lat="48.08946" lon="7.06872">
        <ele>1119</ele>
        <time>2014-09-03T12:20:45Z</time>
      </trkpt>
      <trkpt lat="48.08955" lon="7.06873">
        <ele>1120</ele>
        <time>2014-09-03T12:20:52Z</time>
      </trkpt>
      <trkpt lat="48.08963" lon="7.06878">
        <ele>1123</ele>
        <time>2014-09-03T12:21:08Z</time>
      </trkpt>
      <trkpt lat="48.08972" lon="7.06881">
        <ele>1127</ele>
        <time>2014-09-03T12:21:16Z</time>
      </trkpt>
      <trkpt lat="48.0898" lon="7.06884">
        <ele>1128</ele>
        <time>2014-09-03T12:21:26Z</time>
      </trkpt>
      <trkpt lat="48.08988" lon="7.06883">
        <ele>1131</ele>
        <time>2014-09-03T12:21:38Z</time>
      </trkpt>
      <trkpt lat="48.08996" lon="7.06884">
        <ele>1132</ele>
        <time>2014-09-03T12:21:47Z</time>
      </trkpt>
      <trkpt lat="48.09005" lon="7.06883">
        <ele>1137</ele>
        <time>2014-09-03T12:21:58Z</time>
      </trkpt>
      <trkpt lat="48.09013" lon="7.06884">
        <ele>1140</ele>
        <time>2014-09-03T12:22:07Z</time>
      </trkpt>
      <trkpt lat="48.09022" lon="7.06884">
        <ele>1141</ele>
        <time>2014-09-03T12:22:21Z</time>
      </trkpt>
      <trkpt lat="48.09029" lon="7.0689">
        <ele>1141</ele>
        <time>2014-09-03T12:22:28Z</time>
      </trkpt>
      <trkpt lat="48.09038" lon="7.0689">
        <ele>1146</ele>
        <time>2014-09-03T12:22:48Z</time>
      </trkpt>
      <trkpt lat="48.09046" lon="7.06894">
        <ele>1144</ele>
        <time>2014-09-03T12:23:01Z</time>
      </trkpt>
      <trkpt lat="48.09054" lon="7.0689">
        <ele>1146</ele>
        <time>2014-09-03T12:23:21Z</time>
      </trkpt>
      <trkpt lat="48.09061" lon="7.06892">
        <ele>1148</ele>
        <time>2014-09-03T12:23:28Z</time>
      </trkpt>
      <trkpt lat="48.09069" lon="7.06896">
        <ele>1149</ele>
        <time>2014-09-03T12:23:41Z</time>
      </trkpt>
      <trkpt lat="48.09078" lon="7.06899">
        <ele>1154</ele>
        <time>2014-09-03T12:23:52Z</time>
      </trkpt>
      <trkpt lat="48.09086" lon="7.06904">
        <ele>1153</ele>
        <time>2014-09-03T12:24:04Z</time>
      </trkpt>
      <trkpt lat="48.09094" lon="7.06904">
        <ele>1159</ele>
        <time>2014-09-03T12:24:16Z</time>
      </trkpt>
      <trkpt lat="48.09103" lon="7.06904">
        <ele>1154</ele>
        <time>2014-09-03T12:24:25Z</time>
      </trkpt>
      <trkpt lat="48.09111" lon="7.06901">
        <ele>1155</ele>
        <time>2014-09-03T12:24:35Z</time>
      </trkpt>
      <trkpt lat="48.0912" lon="7.06902">
        <ele>1158</ele>
        <time>2014-09-03T12:24:49Z</time>
      </trkpt>
      <trkpt lat="48.09129" lon="7.06901">
        <ele>1158</ele>
        <time>2014-09-03T12:25:00Z</time>
      </trkpt>
      <trkpt lat="48.09137" lon="7.06899">
        <ele>1162</ele>
        <time>2014-09-03T12:25:12Z</time>
      </trkpt>
      <trkpt lat="48.09145" lon="7.069">
        <ele>1164</ele>
        <time>2014-09-03T12:25:39Z</time>
      </trkpt>
      <trkpt lat="48.09153" lon="7.06907">
        <ele>1166</ele>
        <time>2014-09-03T12:25:48Z</time>
      </trkpt>
      <trkpt lat="48.09161" lon="7.06911">
        <ele>1168</ele>
        <time>2014-09-03T12:25:59Z</time>
      </trkpt>
      <trkpt lat="48.09168" lon="7.06913">
        <ele>1171</ele>
        <time>2014-09-03T12:26:07Z</time>
      </trkpt>
      <trkpt lat="48.09177" lon="7.06915">
        <ele>1169</ele>
        <time>2014-09-03T12:26:15Z</time>
      </trkpt>
      <trkpt lat="48.09185" lon="7.06916">
        <ele>1171</ele>
        <time>2014-09-03T12:26:24Z</time>
      </trkpt>
      <trkpt lat="48.09193" lon="7.06918">
        <ele>1179</ele>
        <time>2014-09-03T12:26:40Z</time>
      </trkpt>
      <trkpt lat="48.09209" lon="7.06922">
        <ele>1179</ele>
        <time>2014-09-03T12:26:56Z</time>
      </trkpt>
      <trkpt lat="48.09216" lon="7.06922">
        <ele>1175</ele>
        <time>2014-09-03T12:28:35Z</time>
      </trkpt>
      <trkpt lat="48.09226" lon="7.06916">
        <ele>1174</ele>
        <time>2014-09-03T12:28:39Z</time>
      </trkpt>
      <trkpt lat="48.09241" lon="7.06914">
        <ele>1176</ele>
        <time>2014-09-03T12:28:43Z</time>
      </trkpt>
      <trkpt lat="48.09261" lon="7.06913">
        <ele>1178</ele>
        <time>2014-09-03T12:28:48Z</time>
      </trkpt>
      <trkpt lat="48.09282" lon="7.0692">
        <ele>1177</ele>
        <time>2014-09-03T12:28:52Z</time>
      </trkpt>
      <trkpt lat="48.09327" lon="7.06924">
        <ele>1178</ele>
        <time>2014-09-03T12:28:56Z</time>
      </trkpt>
      <trkpt lat="48.09355" lon="7.06944">
        <ele>1173</ele>
        <time>2014-09-03T12:29:01Z</time>
      </trkpt>
      <trkpt lat="48.0937" lon="7.0697">
        <ele>1175</ele>
        <time>2014-09-03T12:29:06Z</time>
      </trkpt>
      <trkpt lat="48.0938" lon="7.06982">
        <ele>1170</ele>
        <time>2014-09-03T12:29:10Z</time>
      </trkpt>
      <trkpt lat="48.09388" lon="7.07003">
        <ele>1166</ele>
        <time>2014-09-03T12:29:14Z</time>
      </trkpt>
      <trkpt lat="48.09397" lon="7.07054">
        <ele>1168</ele>
        <time>2014-09-03T12:29:19Z</time>
      </trkpt>
      <trkpt lat="48.09398" lon="7.07063">
        <ele>1166</ele>
        <time>2014-09-03T12:29:23Z</time>
      </trkpt>
      <trkpt lat="48.09404" lon="7.07079">
        <ele>1164</ele>
        <time>2014-09-03T12:29:28Z</time>
      </trkpt>
      <trkpt lat="48.09418" lon="7.07098">
        <ele>1162</ele>
        <time>2014-09-03T12:29:32Z</time>
      </trkpt>
      <trkpt lat="48.09423" lon="7.07112">
        <ele>1159</ele>
        <time>2014-09-03T12:29:37Z</time>
      </trkpt>
      <trkpt lat="48.09423" lon="7.07123">
        <ele>1155</ele>
        <time>2014-09-03T12:29:43Z</time>
      </trkpt>
      <trkpt lat="48.09436" lon="7.07156">
        <ele>1159</ele>
        <time>2014-09-03T12:29:52Z</time>
      </trkpt>
      <trkpt lat="48.09443" lon="7.07164">
        <ele>1152</ele>
        <time>2014-09-03T12:30:22Z</time>
      </trkpt>
      <trkpt lat="48.09449" lon="7.07171">
        <ele>1148</ele>
        <time>2014-09-03T12:31:16Z</time>
      </trkpt>
      <trkpt lat="48.09462" lon="7.07202">
        <ele>1147</ele>
        <time>2014-09-03T12:31:21Z</time>
      </trkpt>
      <trkpt lat="48.09476" lon="7.07226">
        <ele>1144</ele>
        <time>2014-09-03T12:31:25Z</time>
      </trkpt>
      <trkpt lat="48.09485" lon="7.0725">
        <ele>1145</ele>
        <time>2014-09-03T12:31:29Z</time>
      </trkpt>
      <trkpt lat="48.0949" lon="7.07272">
        <ele>1149</ele>
        <time>2014-09-03T12:31:33Z</time>
      </trkpt>
      <trkpt lat="48.09496" lon="7.07291">
        <ele>1152</ele>
        <time>2014-09-03T12:31:38Z</time>
      </trkpt>
      <trkpt lat="48.09504" lon="7.07319">
        <ele>1155</ele>
        <time>2014-09-03T12:31:41Z</time>
      </trkpt>
      <trkpt lat="48.09509" lon="7.07336">
        <ele>1157</ele>
        <time>2014-09-03T12:31:45Z</time>
      </trkpt>
      <trkpt lat="48.09518" lon="7.07362">
        <ele>1154</ele>
        <time>2014-09-03T12:31:49Z</time>
      </trkpt>
      <trkpt lat="48.09522" lon="7.07381">
        <ele>1154</ele>
        <time>2014-09-03T12:31:53Z</time>
      </trkpt>
      <trkpt lat="48.09526" lon="7.07405">
        <ele>1152</ele>
        <time>2014-09-03T12:31:57Z</time>
      </trkpt>
      <trkpt lat="48.09537" lon="7.07437">
        <ele>1150</ele>
        <time>2014-09-03T12:32:02Z</time>
      </trkpt>
      <trkpt lat="48.09551" lon="7.07462">
        <ele>1148</ele>
        <time>2014-09-03T12:32:07Z</time>
      </trkpt>
      <trkpt lat="48.09557" lon="7.07474">
        <ele>1147</ele>
        <time>2014-09-03T12:32:11Z</time>
      </trkpt>
      <trkpt lat="48.0956" lon="7.07483">
        <ele>1150</ele>
        <time>2014-09-03T12:32:15Z</time>
      </trkpt>
      <trkpt lat="48.09571" lon="7.07502">
        <ele>1147</ele>
        <time>2014-09-03T12:32:19Z</time>
      </trkpt>
      <trkpt lat="48.09584" lon="7.07526">
        <ele>1147</ele>
        <time>2014-09-03T12:32:23Z</time>
      </trkpt>
      <trkpt lat="48.09598" lon="7.07544">
        <ele>1143</ele>
        <time>2014-09-03T12:32:28Z</time>
      </trkpt>
      <trkpt lat="48.0961" lon="7.07559">
        <ele>1137</ele>
        <time>2014-09-03T12:32:32Z</time>
      </trkpt>
      <trkpt lat="48.0963" lon="7.07575">
        <ele>1134</ele>
        <time>2014-09-03T12:32:36Z</time>
      </trkpt>
      <trkpt lat="48.09643" lon="7.07586">
        <ele>1137</ele>
        <time>2014-09-03T12:32:41Z</time>
      </trkpt>
      <trkpt lat="48.09649" lon="7.0759">
        <ele>1138</ele>
        <time>2014-09-03T12:32:43Z</time>
      </trkpt>
      <trkpt lat="48.09664" lon="7.07597">
        <ele>1133</ele>
        <time>2014-09-03T12:32:47Z</time>
      </trkpt>
      <trkpt lat="48.09677" lon="7.076">
        <ele>1131</ele>
        <time>2014-09-03T12:32:51Z</time>
      </trkpt>
      <trkpt lat="48.09687" lon="7.07604">
        <ele>1129</ele>
        <time>2014-09-03T12:32:55Z</time>
      </trkpt>
      <trkpt lat="48.09697" lon="7.07604">
        <ele>1125</ele>
        <time>2014-09-03T12:32:59Z</time>
      </trkpt>
      <trkpt lat="48.09707" lon="7.07606">
        <ele>1126</ele>
        <time>2014-09-03T12:33:04Z</time>
      </trkpt>
      <trkpt lat="48.09712" lon="7.07607">
        <ele>1126</ele>
        <time>2014-09-03T12:33:07Z</time>
      </trkpt>
      <trkpt lat="48.0972" lon="7.07609">
        <ele>1130</ele>
        <time>2014-09-03T12:33:11Z</time>
      </trkpt>
      <trkpt lat="48.09728" lon="7.07612">
        <ele>1131</ele>
        <time>2014-09-03T12:33:15Z</time>
      </trkpt>
      <trkpt lat="48.09736" lon="7.07612">
        <ele>1132</ele>
        <time>2014-09-03T12:33:18Z</time>
      </trkpt>
      <trkpt lat="48.09743" lon="7.07609">
        <ele>1131</ele>
        <time>2014-09-03T12:33:24Z</time>
      </trkpt>
      <trkpt lat="48.09754" lon="7.07609">
        <ele>1133</ele>
        <time>2014-09-03T12:33:28Z</time>
      </trkpt>
      <trkpt lat="48.09762" lon="7.0761">
        <ele>1136</ele>
        <time>2014-09-03T12:33:34Z</time>
      </trkpt>
      <trkpt lat="48.0977" lon="7.07611">
        <ele>1135</ele>
        <time>2014-09-03T12:33:40Z</time>
      </trkpt>
      <trkpt lat="48.09777" lon="7.07611">
        <ele>1133</ele>
        <time>2014-09-03T12:33:44Z</time>
      </trkpt>
      <trkpt lat="48.09783" lon="7.07612">
        <ele>1138</ele>
        <time>2014-09-03T12:33:48Z</time>
      </trkpt>
      <trkpt lat="48.0979" lon="7.07616">
        <ele>1136</ele>
        <time>2014-09-03T12:33:53Z</time>
      </trkpt>
      <trkpt lat="48.09804" lon="7.07625">
        <ele>1137</ele>
        <time>2014-09-03T12:33:57Z</time>
      </trkpt>
      <trkpt lat="48.09809" lon="7.07627">
        <ele>1139</ele>
        <time>2014-09-03T12:34:01Z</time>
      </trkpt>
      <trkpt lat="48.09818" lon="7.07632">
        <ele>1139</ele>
        <time>2014-09-03T12:34:06Z</time>
      </trkpt>
      <trkpt lat="48.09826" lon="7.07635">
        <ele>1140</ele>
        <time>2014-09-03T12:34:10Z</time>
      </trkpt>
      <trkpt lat="48.09831" lon="7.07639">
        <ele>1141</ele>
        <time>2014-09-03T12:34:13Z</time>
      </trkpt>
      <trkpt lat="48.09838" lon="7.07649">
        <ele>1146</ele>
        <time>2014-09-03T12:34:17Z</time>
      </trkpt>
      <trkpt lat="48.09853" lon="7.07666">
        <ele>1145</ele>
        <time>2014-09-03T12:34:22Z</time>
      </trkpt>
      <trkpt lat="48.0986" lon="7.07679">
        <ele>1145</ele>
        <time>2014-09-03T12:34:26Z</time>
      </trkpt>
      <trkpt lat="48.09868" lon="7.07689">
        <ele>1148</ele>
        <time>2014-09-03T12:34:30Z</time>
      </trkpt>
      <trkpt lat="48.09881" lon="7.07695">
        <ele>1144</ele>
        <time>2014-09-03T12:34:35Z</time>
      </trkpt>
      <trkpt lat="48.09892" lon="7.07698">
        <ele>1137</ele>
        <time>2014-09-03T12:34:40Z</time>
      </trkpt>
      <trkpt lat="48.09901" lon="7.07705">
        <ele>1137</ele>
        <time>2014-09-03T12:34:44Z</time>
      </trkpt>
      <trkpt lat="48.0991" lon="7.0771">
        <ele>1139</ele>
        <time>2014-09-03T12:34:48Z</time>
      </trkpt>
      <trkpt lat="48.09923" lon="7.07714">
        <ele>1136</ele>
        <time>2014-09-03T12:34:52Z</time>
      </trkpt>
      <trkpt lat="48.09933" lon="7.07717">
        <ele>1136</ele>
        <time>2014-09-03T12:34:55Z</time>
      </trkpt>
      <trkpt lat="48.09942" lon="7.0772">
        <ele>1140</ele>
        <time>2014-09-03T12:35:00Z</time>
      </trkpt>
      <trkpt lat="48.0995" lon="7.07724">
        <ele>1139</ele>
        <time>2014-09-03T12:35:10Z</time>
      </trkpt>
      <trkpt lat="48.09956" lon="7.07729">
        <ele>1139</ele>
        <time>2014-09-03T12:35:18Z</time>
      </trkpt>
      <trkpt lat="48.09963" lon="7.07729">
        <ele>1137</ele>
        <time>2014-09-03T12:35:35Z</time>
      </trkpt>
      <trkpt lat="48.09978" lon="7.0773">
        <ele>1136</ele>
        <time>2014-09-03T12:35:48Z</time>
      </trkpt>
      <trkpt lat="48.09984" lon="7.07733">
        <ele>1137</ele>
        <time>2014-09-03T12:35:57Z</time>
      </trkpt>
      <trkpt lat="48.09992" lon="7.07731">
        <ele>1136</ele>
        <time>2014-09-03T12:36:01Z</time>
      </trkpt>
      <trkpt lat="48.09998" lon="7.07726">
        <ele>1136</ele>
        <time>2014-09-03T12:36:04Z</time>
      </trkpt>
      <trkpt lat="48.10008" lon="7.07725">
        <ele>1131</ele>
        <time>2014-09-03T12:36:07Z</time>
      </trkpt>
      <trkpt lat="48.10018" lon="7.07722">
        <ele>1132</ele>
        <time>2014-09-03T12:36:12Z</time>
      </trkpt>
      <trkpt lat="48.10029" lon="7.07717">
        <ele>1132</ele>
        <time>2014-09-03T12:36:17Z</time>
      </trkpt>
      <trkpt lat="48.10041" lon="7.07699">
        <ele>1129</ele>
        <time>2014-09-03T12:36:21Z</time>
      </trkpt>
      <trkpt lat="48.1005" lon="7.07681">
        <ele>1129</ele>
        <time>2014-09-03T12:36:24Z</time>
      </trkpt>
      <trkpt lat="48.10064" lon="7.07675">
        <ele>1131</ele>
        <time>2014-09-03T12:36:28Z</time>
      </trkpt>
      <trkpt lat="48.10083" lon="7.07673">
        <ele>1128</ele>
        <time>2014-09-03T12:36:33Z</time>
      </trkpt>
      <trkpt lat="48.10091" lon="7.07672">
        <ele>1125</ele>
        <time>2014-09-03T12:36:47Z</time>
      </trkpt>
      <trkpt lat="48.10095" lon="7.0766">
        <ele>1118</ele>
        <time>2014-09-03T12:38:02Z</time>
      </trkpt>
      <trkpt lat="48.10102" lon="7.07667">
        <ele>1117</ele>
        <time>2014-09-03T12:38:25Z</time>
      </trkpt>
      <trkpt lat="48.10108" lon="7.07671">
        <ele>1116</ele>
        <time>2014-09-03T12:38:30Z</time>
      </trkpt>
      <trkpt lat="48.10119" lon="7.07672">
        <ele>1110</ele>
        <time>2014-09-03T12:38:35Z</time>
      </trkpt>
      <trkpt lat="48.1013" lon="7.07673">
        <ele>1109</ele>
        <time>2014-09-03T12:38:40Z</time>
      </trkpt>
      <trkpt lat="48.10138" lon="7.07672">
        <ele>1111</ele>
        <time>2014-09-03T12:38:49Z</time>
      </trkpt>
      <trkpt lat="48.10144" lon="7.07667">
        <ele>1107</ele>
        <time>2014-09-03T12:38:52Z</time>
      </trkpt>
      <trkpt lat="48.10155" lon="7.07662">
        <ele>1101</ele>
        <time>2014-09-03T12:38:56Z</time>
      </trkpt>
      <trkpt lat="48.10165" lon="7.07661">
        <ele>1100</ele>
        <time>2014-09-03T12:39:00Z</time>
      </trkpt>
      <trkpt lat="48.10178" lon="7.07657">
        <ele>1098</ele>
        <time>2014-09-03T12:39:03Z</time>
      </trkpt>
      <trkpt lat="48.10189" lon="7.07648">
        <ele>1095</ele>
        <time>2014-09-03T12:39:08Z</time>
      </trkpt>
      <trkpt lat="48.10191" lon="7.07636">
        <ele>1090</ele>
        <time>2014-09-03T12:41:05Z</time>
      </trkpt>
      <trkpt lat="48.10194" lon="7.07624">
        <ele>1091</ele>
        <time>2014-09-03T12:41:09Z</time>
      </trkpt>
      <trkpt lat="48.10208" lon="7.07584">
        <ele>1084</ele>
        <time>2014-09-03T12:41:17Z</time>
      </trkpt>
      <trkpt lat="48.10206" lon="7.07592">
        <ele>1088</ele>
        <time>2014-09-03T12:41:39Z</time>
      </trkpt>
      <trkpt lat="48.10207" lon="7.07619">
        <ele>1087</ele>
        <time>2014-09-03T12:41:43Z</time>
      </trkpt>
      <trkpt lat="48.10208" lon="7.07654">
        <ele>1086</ele>
        <time>2014-09-03T12:41:47Z</time>
      </trkpt>
      <trkpt lat="48.10206" lon="7.07687">
        <ele>1083</ele>
        <time>2014-09-03T12:41:50Z</time>
      </trkpt>
      <trkpt lat="48.10208" lon="7.07728">
        <ele>1080</ele>
        <time>2014-09-03T12:41:55Z</time>
      </trkpt>
      <trkpt lat="48.10204" lon="7.07768">
        <ele>1078</ele>
        <time>2014-09-03T12:41:58Z</time>
      </trkpt>
      <trkpt lat="48.10195" lon="7.07799">
        <ele>1075</ele>
        <time>2014-09-03T12:42:02Z</time>
      </trkpt>
      <trkpt lat="48.10186" lon="7.07824">
        <ele>1073</ele>
        <time>2014-09-03T12:42:06Z</time>
      </trkpt>
      <trkpt lat="48.1018" lon="7.07841">
        <ele>1073</ele>
        <time>2014-09-03T12:42:09Z</time>
      </trkpt>
      <trkpt lat="48.10197" lon="7.07857">
        <ele>1069</ele>
        <time>2014-09-03T12:42:13Z</time>
      </trkpt>
      <trkpt lat="48.10222" lon="7.07871">
        <ele>1069</ele>
        <time>2014-09-03T12:42:18Z</time>
      </trkpt>
      <trkpt lat="48.10232" lon="7.07875">
        <ele>1067</ele>
        <time>2014-09-03T12:42:20Z</time>
      </trkpt>
      <trkpt lat="48.1025" lon="7.07889">
        <ele>1067</ele>
        <time>2014-09-03T12:42:23Z</time>
      </trkpt>
      <trkpt lat="48.10259" lon="7.07904">
        <ele>1067</ele>
        <time>2014-09-03T12:42:27Z</time>
      </trkpt>
      <trkpt lat="48.1027" lon="7.07922">
        <ele>1066</ele>
        <time>2014-09-03T12:42:31Z</time>
      </trkpt>
      <trkpt lat="48.10272" lon="7.07939">
        <ele>1066</ele>
        <time>2014-09-03T12:42:36Z</time>
      </trkpt>
      <trkpt lat="48.10268" lon="7.07951">
        <ele>1067</ele>
        <time>2014-09-03T12:42:41Z</time>
      </trkpt>
      <trkpt lat="48.10262" lon="7.07959">
        <ele>1065</ele>
        <time>2014-09-03T12:42:46Z</time>
      </trkpt>
      <trkpt lat="48.10257" lon="7.07972">
        <ele>1064</ele>
        <time>2014-09-03T12:42:49Z</time>
      </trkpt>
      <trkpt lat="48.10251" lon="7.07991">
        <ele>1066</ele>
        <time>2014-09-03T12:42:54Z</time>
      </trkpt>
      <trkpt lat="48.10247" lon="7.08001">
        <ele>1066</ele>
        <time>2014-09-03T12:42:59Z</time>
      </trkpt>
      <trkpt lat="48.1024" lon="7.08023">
        <ele>1069</ele>
        <time>2014-09-03T12:43:03Z</time>
      </trkpt>
      <trkpt lat="48.10243" lon="7.08042">
        <ele>1067</ele>
        <time>2014-09-03T12:43:08Z</time>
      </trkpt>
      <trkpt lat="48.10242" lon="7.08061">
        <ele>1066</ele>
        <time>2014-09-03T12:43:12Z</time>
      </trkpt>
      <trkpt lat="48.10237" lon="7.08073">
        <ele>1070</ele>
        <time>2014-09-03T12:43:16Z</time>
      </trkpt>
      <trkpt lat="48.10231" lon="7.08087">
        <ele>1069</ele>
        <time>2014-09-03T12:43:20Z</time>
      </trkpt>
      <trkpt lat="48.10228" lon="7.08099">
        <ele>1072</ele>
        <time>2014-09-03T12:43:22Z</time>
      </trkpt>
      <trkpt lat="48.10225" lon="7.0811">
        <ele>1070</ele>
        <time>2014-09-03T12:43:26Z</time>
      </trkpt>
      <trkpt lat="48.10219" lon="7.08125">
        <ele>1070</ele>
        <time>2014-09-03T12:43:31Z</time>
      </trkpt>
      <trkpt lat="48.10214" lon="7.08145">
        <ele>1071</ele>
        <time>2014-09-03T12:43:34Z</time>
      </trkpt>
      <trkpt lat="48.10212" lon="7.08157">
        <ele>1070</ele>
        <time>2014-09-03T12:43:38Z</time>
      </trkpt>
      <trkpt lat="48.10209" lon="7.08174">
        <ele>1069</ele>
        <time>2014-09-03T12:43:42Z</time>
      </trkpt>
      <trkpt lat="48.10203" lon="7.08189">
        <ele>1072</ele>
        <time>2014-09-03T12:43:47Z</time>
      </trkpt>
      <trkpt lat="48.10205" lon="7.08204">
        <ele>1070</ele>
        <time>2014-09-03T12:43:51Z</time>
      </trkpt>
      <trkpt lat="48.10205" lon="7.08218">
        <ele>1072</ele>
        <time>2014-09-03T12:43:55Z</time>
      </trkpt>
      <trkpt lat="48.10205" lon="7.08221">
        <ele>1070</ele>
        <time>2014-09-03T12:43:57Z</time>
      </trkpt>
      <trkpt lat="48.10206" lon="7.08239">
        <ele>1070</ele>
        <time>2014-09-03T12:44:01Z</time>
      </trkpt>
      <trkpt lat="48.10206" lon="7.08249">
        <ele>1074</ele>
        <time>2014-09-03T12:44:05Z</time>
      </trkpt>
      <trkpt lat="48.10209" lon="7.08269">
        <ele>1077</ele>
        <time>2014-09-03T12:44:09Z</time>
      </trkpt>
      <trkpt lat="48.10214" lon="7.0829">
        <ele>1074</ele>
        <time>2014-09-03T12:44:14Z</time>
      </trkpt>
      <trkpt lat="48.10217" lon="7.08307">
        <ele>1073</ele>
        <time>2014-09-03T12:44:18Z</time>
      </trkpt>
      <trkpt lat="48.10216" lon="7.08322">
        <ele>1073</ele>
        <time>2014-09-03T12:44:22Z</time>
      </trkpt>
      <trkpt lat="48.10218" lon="7.08338">
        <ele>1073</ele>
        <time>2014-09-03T12:44:26Z</time>
      </trkpt>
      <trkpt lat="48.10224" lon="7.08353">
        <ele>1071</ele>
        <time>2014-09-03T12:44:30Z</time>
      </trkpt>
      <trkpt lat="48.10226" lon="7.08367">
        <ele>1072</ele>
        <time>2014-09-03T12:44:34Z</time>
      </trkpt>
      <trkpt lat="48.10226" lon="7.08386">
        <ele>1071</ele>
        <time>2014-09-03T12:44:36Z</time>
      </trkpt>
      <trkpt lat="48.10225" lon="7.08405">
        <ele>1071</ele>
        <time>2014-09-03T12:44:41Z</time>
      </trkpt>
      <trkpt lat="48.10225" lon="7.08422">
        <ele>1070</ele>
        <time>2014-09-03T12:44:45Z</time>
      </trkpt>
      <trkpt lat="48.10226" lon="7.08438">
        <ele>1068</ele>
        <time>2014-09-03T12:44:50Z</time>
      </trkpt>
      <trkpt lat="48.10221" lon="7.08458">
        <ele>1070</ele>
        <time>2014-09-03T12:44:54Z</time>
      </trkpt>
      <trkpt lat="48.10214" lon="7.08472">
        <ele>1073</ele>
        <time>2014-09-03T12:44:59Z</time>
      </trkpt>
      <trkpt lat="48.10209" lon="7.08493">
        <ele>1075</ele>
        <time>2014-09-03T12:45:04Z</time>
      </trkpt>
      <trkpt lat="48.10204" lon="7.08513">
        <ele>1076</ele>
        <time>2014-09-03T12:45:08Z</time>
      </trkpt>
      <trkpt lat="48.102" lon="7.08527">
        <ele>1074</ele>
        <time>2014-09-03T12:45:13Z</time>
      </trkpt>
      <trkpt lat="48.10192" lon="7.08544">
        <ele>1075</ele>
        <time>2014-09-03T12:45:17Z</time>
      </trkpt>
      <trkpt lat="48.10188" lon="7.08555">
        <ele>1075</ele>
        <time>2014-09-03T12:45:21Z</time>
      </trkpt>
      <trkpt lat="48.10184" lon="7.08574">
        <ele>1076</ele>
        <time>2014-09-03T12:45:26Z</time>
      </trkpt>
      <trkpt lat="48.10182" lon="7.08588">
        <ele>1077</ele>
        <time>2014-09-03T12:45:30Z</time>
      </trkpt>
      <trkpt lat="48.10179" lon="7.08602">
        <ele>1079</ele>
        <time>2014-09-03T12:45:34Z</time>
      </trkpt>
      <trkpt lat="48.10178" lon="7.08619">
        <ele>1081</ele>
        <time>2014-09-03T12:45:38Z</time>
      </trkpt>
      <trkpt lat="48.10182" lon="7.08639">
        <ele>1079</ele>
        <time>2014-09-03T12:45:43Z</time>
      </trkpt>
      <trkpt lat="48.10182" lon="7.08663">
        <ele>1079</ele>
        <time>2014-09-03T12:45:48Z</time>
      </trkpt>
      <trkpt lat="48.10179" lon="7.08676">
        <ele>1080</ele>
        <time>2014-09-03T12:45:51Z</time>
      </trkpt>
      <trkpt lat="48.10176" lon="7.08698">
        <ele>1081</ele>
        <time>2014-09-03T12:45:56Z</time>
      </trkpt>
      <trkpt lat="48.10173" lon="7.08715">
        <ele>1082</ele>
        <time>2014-09-03T12:46:00Z</time>
      </trkpt>
      <trkpt lat="48.10168" lon="7.08731">
        <ele>1082</ele>
        <time>2014-09-03T12:46:04Z</time>
      </trkpt>
      <trkpt lat="48.10163" lon="7.0875">
        <ele>1082</ele>
        <time>2014-09-03T12:46:09Z</time>
      </trkpt>
      <trkpt lat="48.10159" lon="7.08767">
        <ele>1082</ele>
        <time>2014-09-03T12:46:13Z</time>
      </trkpt>
      <trkpt lat="48.10156" lon="7.08792">
        <ele>1082</ele>
        <time>2014-09-03T12:46:18Z</time>
      </trkpt>
      <trkpt lat="48.10151" lon="7.08817">
        <ele>1083</ele>
        <time>2014-09-03T12:46:22Z</time>
      </trkpt>
      <trkpt lat="48.10145" lon="7.08835">
        <ele>1081</ele>
        <time>2014-09-03T12:46:27Z</time>
      </trkpt>
      <trkpt lat="48.10142" lon="7.08849">
        <ele>1080</ele>
        <time>2014-09-03T12:46:30Z</time>
      </trkpt>
      <trkpt lat="48.10138" lon="7.08871">
        <ele>1077</ele>
        <time>2014-09-03T12:46:34Z</time>
      </trkpt>
      <trkpt lat="48.10129" lon="7.08889">
        <ele>1079</ele>
        <time>2014-09-03T12:46:39Z</time>
      </trkpt>
      <trkpt lat="48.10124" lon="7.08902">
        <ele>1074</ele>
        <time>2014-09-03T12:46:42Z</time>
      </trkpt>
      <trkpt lat="48.10119" lon="7.08916">
        <ele>1077</ele>
        <time>2014-09-03T12:46:46Z</time>
      </trkpt>
      <trkpt lat="48.10109" lon="7.0894">
        <ele>1079</ele>
        <time>2014-09-03T12:46:51Z</time>
      </trkpt>
      <trkpt lat="48.101" lon="7.08962">
        <ele>1080</ele>
        <time>2014-09-03T12:46:55Z</time>
      </trkpt>
      <trkpt lat="48.1009" lon="7.08984">
        <ele>1081</ele>
        <time>2014-09-03T12:46:59Z</time>
      </trkpt>
      <trkpt lat="48.10085" lon="7.08997">
        <ele>1080</ele>
        <time>2014-09-03T12:47:03Z</time>
      </trkpt>
      <trkpt lat="48.10083" lon="7.09013">
        <ele>1079</ele>
        <time>2014-09-03T12:47:06Z</time>
      </trkpt>
      <trkpt lat="48.10084" lon="7.09034">
        <ele>1078</ele>
        <time>2014-09-03T12:47:10Z</time>
      </trkpt>
      <trkpt lat="48.10089" lon="7.09049">
        <ele>1078</ele>
        <time>2014-09-03T12:47:15Z</time>
      </trkpt>
      <trkpt lat="48.10091" lon="7.09061">
        <ele>1078</ele>
        <time>2014-09-03T12:47:34Z</time>
      </trkpt>
      <trkpt lat="48.10088" lon="7.09072">
        <ele>1080</ele>
        <time>2014-09-03T12:48:00Z</time>
      </trkpt>
      <trkpt lat="48.10088" lon="7.09086">
        <ele>1079</ele>
        <time>2014-09-03T12:48:04Z</time>
      </trkpt>
      <trkpt lat="48.10091" lon="7.09099">
        <ele>1080</ele>
        <time>2014-09-03T12:48:08Z</time>
      </trkpt>
      <trkpt lat="48.10093" lon="7.09111">
        <ele>1081</ele>
        <time>2014-09-03T12:48:12Z</time>
      </trkpt>
      <trkpt lat="48.10097" lon="7.09123">
        <ele>1081</ele>
        <time>2014-09-03T12:48:16Z</time>
      </trkpt>
      <trkpt lat="48.10101" lon="7.09134">
        <ele>1082</ele>
        <time>2014-09-03T12:48:28Z</time>
      </trkpt>
      <trkpt lat="48.10108" lon="7.09142">
        <ele>1088</ele>
        <time>2014-09-03T12:48:48Z</time>
      </trkpt>
      <trkpt lat="48.10113" lon="7.09152">
        <ele>1089</ele>
        <time>2014-09-03T12:48:56Z</time>
      </trkpt>
      <trkpt lat="48.10113" lon="7.09164">
        <ele>1088</ele>
        <time>2014-09-03T12:49:14Z</time>
      </trkpt>
      <trkpt lat="48.10112" lon="7.09176">
        <ele>1087</ele>
        <time>2014-09-03T12:49:28Z</time>
      </trkpt>
      <trkpt lat="48.10116" lon="7.09186">
        <ele>1085</ele>
        <time>2014-09-03T12:49:37Z</time>
      </trkpt>
      <trkpt lat="48.10124" lon="7.09192">
        <ele>1086</ele>
        <time>2014-09-03T12:49:48Z</time>
      </trkpt>
      <trkpt lat="48.10129" lon="7.09203">
        <ele>1089</ele>
        <time>2014-09-03T12:50:02Z</time>
      </trkpt>
      <trkpt lat="48.10132" lon="7.09215">
        <ele>1091</ele>
        <time>2014-09-03T12:50:12Z</time>
      </trkpt>
      <trkpt lat="48.10135" lon="7.09225">
        <ele>1090</ele>
        <time>2014-09-03T12:50:19Z</time>
      </trkpt>
      <trkpt lat="48.10141" lon="7.09233">
        <ele>1092</ele>
        <time>2014-09-03T12:50:54Z</time>
      </trkpt>
      <trkpt lat="48.10142" lon="7.09245">
        <ele>1092</ele>
        <time>2014-09-03T12:51:03Z</time>
      </trkpt>
      <trkpt lat="48.10143" lon="7.09256">
        <ele>1092</ele>
        <time>2014-09-03T12:51:38Z</time>
      </trkpt>
      <trkpt lat="48.10141" lon="7.09274">
        <ele>1092</ele>
        <time>2014-09-03T12:51:43Z</time>
      </trkpt>
      <trkpt lat="48.10139" lon="7.09296">
        <ele>1090</ele>
        <time>2014-09-03T12:51:47Z</time>
      </trkpt>
      <trkpt lat="48.10135" lon="7.09313">
        <ele>1091</ele>
        <time>2014-09-03T12:51:52Z</time>
      </trkpt>
      <trkpt lat="48.1013" lon="7.09329">
        <ele>1091</ele>
        <time>2014-09-03T12:51:56Z</time>
      </trkpt>
      <trkpt lat="48.10126" lon="7.09341">
        <ele>1090</ele>
        <time>2014-09-03T12:51:59Z</time>
      </trkpt>
      <trkpt lat="48.10123" lon="7.09355">
        <ele>1090</ele>
        <time>2014-09-03T12:52:02Z</time>
      </trkpt>
      <trkpt lat="48.10121" lon="7.09367">
        <ele>1090</ele>
        <time>2014-09-03T12:52:07Z</time>
      </trkpt>
      <trkpt lat="48.10119" lon="7.0938">
        <ele>1090</ele>
        <time>2014-09-03T12:52:11Z</time>
      </trkpt>
      <trkpt lat="48.10119" lon="7.09396">
        <ele>1090</ele>
        <time>2014-09-03T12:52:16Z</time>
      </trkpt>
      <trkpt lat="48.10117" lon="7.09411">
        <ele>1092</ele>
        <time>2014-09-03T12:52:20Z</time>
      </trkpt>
      <trkpt lat="48.10117" lon="7.0942">
        <ele>1092</ele>
        <time>2014-09-03T12:52:24Z</time>
      </trkpt>
      <trkpt lat="48.10111" lon="7.09433">
        <ele>1090</ele>
        <time>2014-09-03T12:52:29Z</time>
      </trkpt>
      <trkpt lat="48.10104" lon="7.09449">
        <ele>1090</ele>
        <time>2014-09-03T12:52:33Z</time>
      </trkpt>
      <trkpt lat="48.10093" lon="7.09461">
        <ele>1089</ele>
        <time>2014-09-03T12:52:38Z</time>
      </trkpt>
      <trkpt lat="48.10083" lon="7.09473">
        <ele>1089</ele>
        <time>2014-09-03T12:52:41Z</time>
      </trkpt>
      <trkpt lat="48.10079" lon="7.09484">
        <ele>1090</ele>
        <time>2014-09-03T12:52:45Z</time>
      </trkpt>
      <trkpt lat="48.10071" lon="7.09494">
        <ele>1087</ele>
        <time>2014-09-03T12:52:49Z</time>
      </trkpt>
      <trkpt lat="48.1006" lon="7.09505">
        <ele>1086</ele>
        <time>2014-09-03T12:52:54Z</time>
      </trkpt>
      <trkpt lat="48.10053" lon="7.09519">
        <ele>1086</ele>
        <time>2014-09-03T12:52:58Z</time>
      </trkpt>
      <trkpt lat="48.10039" lon="7.09528">
        <ele>1083</ele>
        <time>2014-09-03T12:53:03Z</time>
      </trkpt>
      <trkpt lat="48.10028" lon="7.09536">
        <ele>1082</ele>
        <time>2014-09-03T12:53:06Z</time>
      </trkpt>
      <trkpt lat="48.10023" lon="7.09546">
        <ele>1082</ele>
        <time>2014-09-03T12:58:05Z</time>
      </trkpt>
      <trkpt lat="48.10016" lon="7.09555">
        <ele>1080</ele>
        <time>2014-09-03T12:58:08Z</time>
      </trkpt>
      <trkpt lat="48.10002" lon="7.09571">
        <ele>1082</ele>
        <time>2014-09-03T12:58:13Z</time>
      </trkpt>
      <trkpt lat="48.09988" lon="7.09582">
        <ele>1080</ele>
        <time>2014-09-03T12:58:16Z</time>
      </trkpt>
      <trkpt lat="48.09978" lon="7.09587">
        <ele>1079</ele>
        <time>2014-09-03T12:58:20Z</time>
      </trkpt>
      <trkpt lat="48.09966" lon="7.09594">
        <ele>1077</ele>
        <time>2014-09-03T12:58:24Z</time>
      </trkpt>
      <trkpt lat="48.09954" lon="7.09602">
        <ele>1076</ele>
        <time>2014-09-03T12:58:28Z</time>
      </trkpt>
      <trkpt lat="48.09938" lon="7.09605">
        <ele>1074</ele>
        <time>2014-09-03T12:58:32Z</time>
      </trkpt>
      <trkpt lat="48.09927" lon="7.09612">
        <ele>1073</ele>
        <time>2014-09-03T12:58:37Z</time>
      </trkpt>
      <trkpt lat="48.09913" lon="7.09619">
        <ele>1072</ele>
        <time>2014-09-03T12:58:41Z</time>
      </trkpt>
      <trkpt lat="48.099" lon="7.09625">
        <ele>1071</ele>
        <time>2014-09-03T12:58:45Z</time>
      </trkpt>
      <trkpt lat="48.09888" lon="7.09633">
        <ele>1070</ele>
        <time>2014-09-03T12:58:49Z</time>
      </trkpt>
      <trkpt lat="48.09876" lon="7.0964">
        <ele>1069</ele>
        <time>2014-09-03T12:58:54Z</time>
      </trkpt>
      <trkpt lat="48.09866" lon="7.09641">
        <ele>1068</ele>
        <time>2014-09-03T12:58:58Z</time>
      </trkpt>
      <trkpt lat="48.09858" lon="7.09639">
        <ele>1069</ele>
        <time>2014-09-03T13:00:28Z</time>
      </trkpt>
      <trkpt lat="48.09848" lon="7.0965">
        <ele>1069</ele>
        <time>2014-09-03T13:00:33Z</time>
      </trkpt>
      <trkpt lat="48.09842" lon="7.09654">
        <ele>1070</ele>
        <time>2014-09-03T13:00:38Z</time>
      </trkpt>
      <trkpt lat="48.09839" lon="7.09665">
        <ele>1067</ele>
        <time>2014-09-03T13:00:42Z</time>
      </trkpt>
      <trkpt lat="48.09834" lon="7.09691">
        <ele>1063</ele>
        <time>2014-09-03T13:00:45Z</time>
      </trkpt>
      <trkpt lat="48.09834" lon="7.09704">
        <ele>1061</ele>
        <time>2014-09-03T13:00:50Z</time>
      </trkpt>
      <trkpt lat="48.09835" lon="7.09715">
        <ele>1059</ele>
        <time>2014-09-03T13:00:52Z</time>
      </trkpt>
      <trkpt lat="48.09836" lon="7.0973">
        <ele>1059</ele>
        <time>2014-09-03T13:00:56Z</time>
      </trkpt>
      <trkpt lat="48.09837" lon="7.09739">
        <ele>1057</ele>
        <time>2014-09-03T13:00:59Z</time>
      </trkpt>
      <trkpt lat="48.09837" lon="7.09755">
        <ele>1056</ele>
        <time>2014-09-03T13:01:02Z</time>
      </trkpt>
      <trkpt lat="48.09839" lon="7.09768">
        <ele>1056</ele>
        <time>2014-09-03T13:01:05Z</time>
      </trkpt>
      <trkpt lat="48.09846" lon="7.09803">
        <ele>1051</ele>
        <time>2014-09-03T13:01:10Z</time>
      </trkpt>
      <trkpt lat="48.0985" lon="7.09822">
        <ele>1047</ele>
        <time>2014-09-03T13:01:12Z</time>
      </trkpt>
      <trkpt lat="48.09856" lon="7.09852">
        <ele>1044</ele>
        <time>2014-09-03T13:01:17Z</time>
      </trkpt>
      <trkpt lat="48.09861" lon="7.0987">
        <ele>1041</ele>
        <time>2014-09-03T13:01:22Z</time>
      </trkpt>
      <trkpt lat="48.09866" lon="7.09893">
        <ele>1039</ele>
        <time>2014-09-03T13:01:26Z</time>
      </trkpt>
      <trkpt lat="48.09875" lon="7.0993">
        <ele>1035</ele>
        <time>2014-09-03T13:01:31Z</time>
      </trkpt>
      <trkpt lat="48.09887" lon="7.09968">
        <ele>1029</ele>
        <time>2014-09-03T13:01:35Z</time>
      </trkpt>
      <trkpt lat="48.09891" lon="7.09984">
        <ele>1026</ele>
        <time>2014-09-03T13:01:37Z</time>
      </trkpt>
      <trkpt lat="48.09895" lon="7.10005">
        <ele>1024</ele>
        <time>2014-09-03T13:01:41Z</time>
      </trkpt>
      <trkpt lat="48.09896" lon="7.1002">
        <ele>1023</ele>
        <time>2014-09-03T13:01:45Z</time>
      </trkpt>
      <trkpt lat="48.09897" lon="7.10033">
        <ele>1021</ele>
        <time>2014-09-03T13:01:50Z</time>
      </trkpt>
      <trkpt lat="48.09898" lon="7.10059">
        <ele>1019</ele>
        <time>2014-09-03T13:01:54Z</time>
      </trkpt>
      <trkpt lat="48.09897" lon="7.10074">
        <ele>1019</ele>
        <time>2014-09-03T13:01:59Z</time>
      </trkpt>
      <trkpt lat="48.09892" lon="7.1012">
        <ele>1014</ele>
        <time>2014-09-03T13:02:07Z</time>
      </trkpt>
      <trkpt lat="48.09894" lon="7.10129">
        <ele>1015</ele>
        <time>2014-09-03T13:04:29Z</time>
      </trkpt>
      <trkpt lat="48.09897" lon="7.10151">
        <ele>1014</ele>
        <time>2014-09-03T13:04:33Z</time>
      </trkpt>
      <trkpt lat="48.09904" lon="7.10173">
        <ele>1011</ele>
        <time>2014-09-03T13:04:38Z</time>
      </trkpt>
      <trkpt lat="48.09901" lon="7.10192">
        <ele>1007</ele>
        <time>2014-09-03T13:04:42Z</time>
      </trkpt>
      <trkpt lat="48.09899" lon="7.10208">
        <ele>1006</ele>
        <time>2014-09-03T13:04:45Z</time>
      </trkpt>
      <trkpt lat="48.09895" lon="7.10243">
        <ele>1001</ele>
        <time>2014-09-03T13:04:50Z</time>
      </trkpt>
      <trkpt lat="48.09891" lon="7.10259">
        <ele>1002</ele>
        <time>2014-09-03T13:04:53Z</time>
      </trkpt>
      <trkpt lat="48.09893" lon="7.10271">
        <ele>1000</ele>
        <time>2014-09-03T13:04:57Z</time>
      </trkpt>
      <trkpt lat="48.09889" lon="7.10277">
        <ele>995</ele>
        <time>2014-09-03T13:05:25Z</time>
      </trkpt>
      <trkpt lat="48.09885" lon="7.10291">
        <ele>993</ele>
        <time>2014-09-03T13:05:28Z</time>
      </trkpt>
      <trkpt lat="48.09876" lon="7.10374">
        <ele>991</ele>
        <time>2014-09-03T13:05:36Z</time>
      </trkpt>
      <trkpt lat="48.09875" lon="7.10391">
        <ele>991</ele>
        <time>2014-09-03T13:05:39Z</time>
      </trkpt>
      <trkpt lat="48.09874" lon="7.10444">
        <ele>986</ele>
        <time>2014-09-03T13:05:44Z</time>
      </trkpt>
      <trkpt lat="48.09877" lon="7.10456">
        <ele>977</ele>
        <time>2014-09-03T13:08:41Z</time>
      </trkpt>
      <trkpt lat="48.09876" lon="7.10471">
        <ele>976</ele>
        <time>2014-09-03T13:08:44Z</time>
      </trkpt>
      <trkpt lat="48.09876" lon="7.10514">
        <ele>972</ele>
        <time>2014-09-03T13:08:48Z</time>
      </trkpt>
      <trkpt lat="48.09877" lon="7.10556">
        <ele>970</ele>
        <time>2014-09-03T13:08:53Z</time>
      </trkpt>
      <trkpt lat="48.09883" lon="7.10598">
        <ele>967</ele>
        <time>2014-09-03T13:08:56Z</time>
      </trkpt>
      <trkpt lat="48.09902" lon="7.10617">
        <ele>967</ele>
        <time>2014-09-03T13:09:01Z</time>
      </trkpt>
      <trkpt lat="48.09911" lon="7.10619">
        <ele>970</ele>
        <time>2014-09-03T13:09:06Z</time>
      </trkpt>
      <trkpt lat="48.0992" lon="7.10623">
        <ele>972</ele>
        <time>2014-09-03T13:09:11Z</time>
      </trkpt>
      <trkpt lat="48.09926" lon="7.10624">
        <ele>973</ele>
        <time>2014-09-03T13:09:16Z</time>
      </trkpt>
      <trkpt lat="48.09936" lon="7.10628">
        <ele>973</ele>
        <time>2014-09-03T13:09:20Z</time>
      </trkpt>
      <trkpt lat="48.0994" lon="7.1063">
        <ele>973</ele>
        <time>2014-09-03T13:09:24Z</time>
      </trkpt>
      <trkpt lat="48.09955" lon="7.10637">
        <ele>974</ele>
        <time>2014-09-03T13:09:29Z</time>
      </trkpt>
      <trkpt lat="48.0997" lon="7.10646">
        <ele>973</ele>
        <time>2014-09-03T13:09:34Z</time>
      </trkpt>
      <trkpt lat="48.09982" lon="7.10654">
        <ele>975</ele>
        <time>2014-09-03T13:09:38Z</time>
      </trkpt>
      <trkpt lat="48.09993" lon="7.10658">
        <ele>978</ele>
        <time>2014-09-03T13:09:42Z</time>
      </trkpt>
      <trkpt lat="48.10008" lon="7.10662">
        <ele>978</ele>
        <time>2014-09-03T13:09:47Z</time>
      </trkpt>
      <trkpt lat="48.10023" lon="7.10667">
        <ele>979</ele>
        <time>2014-09-03T13:09:52Z</time>
      </trkpt>
      <trkpt lat="48.10039" lon="7.10672">
        <ele>979</ele>
        <time>2014-09-03T13:09:56Z</time>
      </trkpt>
      <trkpt lat="48.10052" lon="7.10674">
        <ele>978</ele>
        <time>2014-09-03T13:10:01Z</time>
      </trkpt>
      <trkpt lat="48.10066" lon="7.10673">
        <ele>977</ele>
        <time>2014-09-03T13:10:05Z</time>
      </trkpt>
      <trkpt lat="48.1008" lon="7.1067">
        <ele>976</ele>
        <time>2014-09-03T13:10:09Z</time>
      </trkpt>
      <trkpt lat="48.10101" lon="7.10657">
        <ele>979</ele>
        <time>2014-09-03T13:10:14Z</time>
      </trkpt>
      <trkpt lat="48.10111" lon="7.10652">
        <ele>979</ele>
        <time>2014-09-03T13:10:18Z</time>
      </trkpt>
      <trkpt lat="48.10135" lon="7.10644">
        <ele>977</ele>
        <time>2014-09-03T13:10:21Z</time>
      </trkpt>
      <trkpt lat="48.10157" lon="7.10633">
        <ele>974</ele>
        <time>2014-09-03T13:10:24Z</time>
      </trkpt>
      <trkpt lat="48.10183" lon="7.10617">
        <ele>972</ele>
        <time>2014-09-03T13:10:29Z</time>
      </trkpt>
      <trkpt lat="48.1021" lon="7.10607">
        <ele>969</ele>
        <time>2014-09-03T13:10:33Z</time>
      </trkpt>
      <trkpt lat="48.10246" lon="7.10595">
        <ele>966</ele>
        <time>2014-09-03T13:10:38Z</time>
      </trkpt>
      <trkpt lat="48.10274" lon="7.1058">
        <ele>965</ele>
        <time>2014-09-03T13:10:42Z</time>
      </trkpt>
      <trkpt lat="48.10302" lon="7.10559">
        <ele>966</ele>
        <time>2014-09-03T13:10:47Z</time>
      </trkpt>
      <trkpt lat="48.10307" lon="7.10554">
        <ele>966</ele>
        <time>2014-09-03T13:10:48Z</time>
      </trkpt>
      <trkpt lat="48.10326" lon="7.10533">
        <ele>966</ele>
        <time>2014-09-03T13:10:53Z</time>
      </trkpt>
      <trkpt lat="48.10337" lon="7.10519">
        <ele>968</ele>
        <time>2014-09-03T13:10:57Z</time>
      </trkpt>
      <trkpt lat="48.10342" lon="7.10514">
        <ele>969</ele>
        <time>2014-09-03T13:10:59Z</time>
      </trkpt>
      <trkpt lat="48.10348" lon="7.10503">
        <ele>970</ele>
        <time>2014-09-03T13:11:03Z</time>
      </trkpt>
      <trkpt lat="48.10357" lon="7.1049">
        <ele>970</ele>
        <time>2014-09-03T13:11:06Z</time>
      </trkpt>
      <trkpt lat="48.1037" lon="7.10475">
        <ele>969</ele>
        <time>2014-09-03T13:11:11Z</time>
      </trkpt>
      <trkpt lat="48.1038" lon="7.10462">
        <ele>972</ele>
        <time>2014-09-03T13:11:16Z</time>
      </trkpt>
      <trkpt lat="48.10392" lon="7.1045">
        <ele>975</ele>
        <time>2014-09-03T13:11:21Z</time>
      </trkpt>
      <trkpt lat="48.10404" lon="7.1044">
        <ele>976</ele>
        <time>2014-09-03T13:11:26Z</time>
      </trkpt>
      <trkpt lat="48.10411" lon="7.10434">
        <ele>977</ele>
        <time>2014-09-03T13:11:28Z</time>
      </trkpt>
      <trkpt lat="48.10423" lon="7.10424">
        <ele>975</ele>
        <time>2014-09-03T13:11:33Z</time>
      </trkpt>
      <trkpt lat="48.10432" lon="7.10415">
        <ele>977</ele>
        <time>2014-09-03T13:11:38Z</time>
      </trkpt>
      <trkpt lat="48.10444" lon="7.10407">
        <ele>978</ele>
        <time>2014-09-03T13:11:43Z</time>
      </trkpt>
      <trkpt lat="48.10451" lon="7.10403">
        <ele>978</ele>
        <time>2014-09-03T13:11:46Z</time>
      </trkpt>
      <trkpt lat="48.10458" lon="7.10401">
        <ele>979</ele>
        <time>2014-09-03T13:11:49Z</time>
      </trkpt>
      <trkpt lat="48.10469" lon="7.10397">
        <ele>979</ele>
        <time>2014-09-03T13:11:53Z</time>
      </trkpt>
      <trkpt lat="48.1048" lon="7.10394">
        <ele>978</ele>
        <time>2014-09-03T13:11:57Z</time>
      </trkpt>
      <trkpt lat="48.10491" lon="7.10388">
        <ele>979</ele>
        <time>2014-09-03T13:12:01Z</time>
      </trkpt>
      <trkpt lat="48.10501" lon="7.10379">
        <ele>979</ele>
        <time>2014-09-03T13:12:05Z</time>
      </trkpt>
      <trkpt lat="48.10512" lon="7.10367">
        <ele>981</ele>
        <time>2014-09-03T13:12:09Z</time>
      </trkpt>
      <trkpt lat="48.10523" lon="7.10357">
        <ele>982</ele>
        <time>2014-09-03T13:12:13Z</time>
      </trkpt>
      <trkpt lat="48.10537" lon="7.10347">
        <ele>980</ele>
        <time>2014-09-03T13:12:17Z</time>
      </trkpt>
      <trkpt lat="48.1055" lon="7.1034">
        <ele>981</ele>
        <time>2014-09-03T13:12:22Z</time>
      </trkpt>
      <trkpt lat="48.10563" lon="7.10334">
        <ele>980</ele>
        <time>2014-09-03T13:12:26Z</time>
      </trkpt>
      <trkpt lat="48.10576" lon="7.10323">
        <ele>980</ele>
        <time>2014-09-03T13:12:30Z</time>
      </trkpt>
      <trkpt lat="48.10586" lon="7.10311">
        <ele>983</ele>
        <time>2014-09-03T13:12:34Z</time>
      </trkpt>
      <trkpt lat="48.10592" lon="7.10302">
        <ele>981</ele>
        <time>2014-09-03T13:12:37Z</time>
      </trkpt>
      <trkpt lat="48.10609" lon="7.10305">
        <ele>981</ele>
        <time>2014-09-03T13:12:42Z</time>
      </trkpt>
      <trkpt lat="48.10621" lon="7.10313">
        <ele>983</ele>
        <time>2014-09-03T13:12:45Z</time>
      </trkpt>
      <trkpt lat="48.10635" lon="7.10323">
        <ele>987</ele>
        <time>2014-09-03T13:12:48Z</time>
      </trkpt>
      <trkpt lat="48.1065" lon="7.1033">
        <ele>980</ele>
        <time>2014-09-03T13:12:53Z</time>
      </trkpt>
      <trkpt lat="48.10669" lon="7.10329">
        <ele>976</ele>
        <time>2014-09-03T13:12:56Z</time>
      </trkpt>
      <trkpt lat="48.10688" lon="7.10325">
        <ele>972</ele>
        <time>2014-09-03T13:13:01Z</time>
      </trkpt>
      <trkpt lat="48.10705" lon="7.10323">
        <ele>972</ele>
        <time>2014-09-03T13:13:04Z</time>
      </trkpt>
      <trkpt lat="48.10722" lon="7.1032">
        <ele>972</ele>
        <time>2014-09-03T13:13:09Z</time>
      </trkpt>
      <trkpt lat="48.10744" lon="7.1032">
        <ele>972</ele>
        <time>2014-09-03T13:13:13Z</time>
      </trkpt>
      <trkpt lat="48.10766" lon="7.10319">
        <ele>974</ele>
        <time>2014-09-03T13:13:18Z</time>
      </trkpt>
      <trkpt lat="48.10782" lon="7.10331">
        <ele>977</ele>
        <time>2014-09-03T13:13:21Z</time>
      </trkpt>
      <trkpt lat="48.10798" lon="7.10337">
        <ele>977</ele>
        <time>2014-09-03T13:13:24Z</time>
      </trkpt>
      <trkpt lat="48.10818" lon="7.10339">
        <ele>978</ele>
        <time>2014-09-03T13:13:29Z</time>
      </trkpt>
      <trkpt lat="48.10844" lon="7.10332">
        <ele>975</ele>
        <time>2014-09-03T13:13:33Z</time>
      </trkpt>
      <trkpt lat="48.1086" lon="7.10331">
        <ele>975</ele>
        <time>2014-09-03T13:13:37Z</time>
      </trkpt>
      <trkpt lat="48.10878" lon="7.10328">
        <ele>972</ele>
        <time>2014-09-03T13:13:40Z</time>
      </trkpt>
      <trkpt lat="48.10893" lon="7.10325">
        <ele>970</ele>
        <time>2014-09-03T13:13:43Z</time>
      </trkpt>
      <trkpt lat="48.10907" lon="7.10327">
        <ele>968</ele>
        <time>2014-09-03T13:13:46Z</time>
      </trkpt>
      <trkpt lat="48.10926" lon="7.10327">
        <ele>969</ele>
        <time>2014-09-03T13:13:51Z</time>
      </trkpt>
      <trkpt lat="48.10932" lon="7.10328">
        <ele>973</ele>
        <time>2014-09-03T13:13:54Z</time>
      </trkpt>
      <trkpt lat="48.10948" lon="7.10325">
        <ele>972</ele>
        <time>2014-09-03T13:13:58Z</time>
      </trkpt>
      <trkpt lat="48.10966" lon="7.10322">
        <ele>972</ele>
        <time>2014-09-03T13:14:03Z</time>
      </trkpt>
      <trkpt lat="48.10976" lon="7.1032">
        <ele>971</ele>
        <time>2014-09-03T13:14:06Z</time>
      </trkpt>
      <trkpt lat="48.10989" lon="7.10316">
        <ele>975</ele>
        <time>2014-09-03T13:14:10Z</time>
      </trkpt>
      <trkpt lat="48.11002" lon="7.1031">
        <ele>975</ele>
        <time>2014-09-03T13:14:14Z</time>
      </trkpt>
      <trkpt lat="48.11016" lon="7.10303">
        <ele>976</ele>
        <time>2014-09-03T13:14:18Z</time>
      </trkpt>
      <trkpt lat="48.11032" lon="7.10295">
        <ele>974</ele>
        <time>2014-09-03T13:14:21Z</time>
      </trkpt>
      <trkpt lat="48.11043" lon="7.10291">
        <ele>973</ele>
        <time>2014-09-03T13:14:25Z</time>
      </trkpt>
      <trkpt lat="48.11058" lon="7.10285">
        <ele>972</ele>
        <time>2014-09-03T13:14:29Z</time>
      </trkpt>
      <trkpt lat="48.11069" lon="7.10284">
        <ele>976</ele>
        <time>2014-09-03T13:14:33Z</time>
      </trkpt>
      <trkpt lat="48.11083" lon="7.10276">
        <ele>976</ele>
        <time>2014-09-03T13:14:37Z</time>
      </trkpt>
      <trkpt lat="48.1111" lon="7.10254">
        <ele>974</ele>
        <time>2014-09-03T13:14:41Z</time>
      </trkpt>
      <trkpt lat="48.11126" lon="7.10238">
        <ele>976</ele>
        <time>2014-09-03T13:14:46Z</time>
      </trkpt>
      <trkpt lat="48.11172" lon="7.1019">
        <ele>968</ele>
        <time>2014-09-03T13:14:51Z</time>
      </trkpt>
      <trkpt lat="48.11201" lon="7.10154">
        <ele>967</ele>
        <time>2014-09-03T13:14:55Z</time>
      </trkpt>
      <trkpt lat="48.11225" lon="7.10103">
        <ele>967</ele>
        <time>2014-09-03T13:14:59Z</time>
      </trkpt>
      <trkpt lat="48.11229" lon="7.10048">
        <ele>962</ele>
        <time>2014-09-03T13:15:03Z</time>
      </trkpt>
      <trkpt lat="48.11227" lon="7.10028">
        <ele>963</ele>
        <time>2014-09-03T13:15:06Z</time>
      </trkpt>
      <trkpt lat="48.1123" lon="7.10008">
        <ele>964</ele>
        <time>2014-09-03T13:15:10Z</time>
      </trkpt>
      <trkpt lat="48.11235" lon="7.10001">
        <ele>963</ele>
        <time>2014-09-03T13:15:13Z</time>
      </trkpt>
      <trkpt lat="48.11245" lon="7.09994">
        <ele>961</ele>
        <time>2014-09-03T13:15:17Z</time>
      </trkpt>
      <trkpt lat="48.11253" lon="7.09993">
        <ele>961</ele>
        <time>2014-09-03T13:15:24Z</time>
      </trkpt>
      <trkpt lat="48.1126" lon="7.09984">
        <ele>957</ele>
        <time>2014-09-03T13:15:38Z</time>
      </trkpt>
      <trkpt lat="48.11261" lon="7.09996">
        <ele>954</ele>
        <time>2014-09-03T13:23:44Z</time>
      </trkpt>
      <trkpt lat="48.11264" lon="7.10016">
        <ele>947</ele>
        <time>2014-09-03T13:23:52Z</time>
      </trkpt>
      <trkpt lat="48.11255" lon="7.10014">
        <ele>948</ele>
        <time>2014-09-03T13:24:03Z</time>
      </trkpt>
      <trkpt lat="48.11249" lon="7.10004">
        <ele>947</ele>
        <time>2014-09-03T13:24:07Z</time>
      </trkpt>
      <trkpt lat="48.11241" lon="7.10001">
        <ele>949</ele>
        <time>2014-09-03T13:24:12Z</time>
      </trkpt>
      <trkpt lat="48.11233" lon="7.10004">
        <ele>951</ele>
        <time>2014-09-03T13:24:17Z</time>
      </trkpt>
      <trkpt lat="48.11226" lon="7.10011">
        <ele>952</ele>
        <time>2014-09-03T13:24:22Z</time>
      </trkpt>
      <trkpt lat="48.11225" lon="7.10022">
        <ele>952</ele>
        <time>2014-09-03T13:24:27Z</time>
      </trkpt>
      <trkpt lat="48.11226" lon="7.10035">
        <ele>951</ele>
        <time>2014-09-03T13:24:29Z</time>
      </trkpt>
      <trkpt lat="48.11227" lon="7.1005">
        <ele>952</ele>
        <time>2014-09-03T13:24:34Z</time>
      </trkpt>
      <trkpt lat="48.11228" lon="7.10064">
        <ele>952</ele>
        <time>2014-09-03T13:24:37Z</time>
      </trkpt>
      <trkpt lat="48.11229" lon="7.10081">
        <ele>954</ele>
        <time>2014-09-03T13:24:42Z</time>
      </trkpt>
      <trkpt lat="48.11229" lon="7.10093">
        <ele>955</ele>
        <time>2014-09-03T13:24:46Z</time>
      </trkpt>
      <trkpt lat="48.11228" lon="7.101">
        <ele>955</ele>
        <time>2014-09-03T13:24:48Z</time>
      </trkpt>
      <trkpt lat="48.11225" lon="7.10113">
        <ele>954</ele>
        <time>2014-09-03T13:24:53Z</time>
      </trkpt>
      <trkpt lat="48.11223" lon="7.10122">
        <ele>957</ele>
        <time>2014-09-03T13:24:56Z</time>
      </trkpt>
      <trkpt lat="48.11218" lon="7.10134">
        <ele>959</ele>
        <time>2014-09-03T13:25:00Z</time>
      </trkpt>
      <trkpt lat="48.11212" lon="7.10145">
        <ele>962</ele>
        <time>2014-09-03T13:25:06Z</time>
      </trkpt>
      <trkpt lat="48.11207" lon="7.10154">
        <ele>965</ele>
        <time>2014-09-03T13:25:11Z</time>
      </trkpt>
      <trkpt lat="48.11202" lon="7.10164">
        <ele>968</ele>
        <time>2014-09-03T13:25:16Z</time>
      </trkpt>
      <trkpt lat="48.11195" lon="7.10171">
        <ele>970</ele>
        <time>2014-09-03T13:25:21Z</time>
      </trkpt>
      <trkpt lat="48.11187" lon="7.10179">
        <ele>973</ele>
        <time>2014-09-03T13:25:26Z</time>
      </trkpt>
      <trkpt lat="48.11179" lon="7.10185">
        <ele>974</ele>
        <time>2014-09-03T13:25:31Z</time>
      </trkpt>
      <trkpt lat="48.11169" lon="7.10191">
        <ele>973</ele>
        <time>2014-09-03T13:25:35Z</time>
      </trkpt>
      <trkpt lat="48.11162" lon="7.10199">
        <ele>975</ele>
        <time>2014-09-03T13:25:40Z</time>
      </trkpt>
      <trkpt lat="48.11156" lon="7.1021">
        <ele>981</ele>
        <time>2014-09-03T13:25:45Z</time>
      </trkpt>
      <trkpt lat="48.1115" lon="7.10217">
        <ele>983</ele>
        <time>2014-09-03T13:25:49Z</time>
      </trkpt>
      <trkpt lat="48.11144" lon="7.10224">
        <ele>985</ele>
        <time>2014-09-03T13:25:53Z</time>
      </trkpt>
      <trkpt lat="48.11136" lon="7.10228">
        <ele>982</ele>
        <time>2014-09-03T13:25:58Z</time>
      </trkpt>
      <trkpt lat="48.11129" lon="7.10232">
        <ele>983</ele>
        <time>2014-09-03T13:26:02Z</time>
      </trkpt>
      <trkpt lat="48.11121" lon="7.10241">
        <ele>984</ele>
        <time>2014-09-03T13:26:07Z</time>
      </trkpt>
      <trkpt lat="48.11116" lon="7.10247">
        <ele>983</ele>
        <time>2014-09-03T13:26:11Z</time>
      </trkpt>
      <trkpt lat="48.11108" lon="7.10252">
        <ele>987</ele>
        <time>2014-09-03T13:26:15Z</time>
      </trkpt>
      <trkpt lat="48.111" lon="7.10257">
        <ele>984</ele>
        <time>2014-09-03T13:26:18Z</time>
      </trkpt>
      <trkpt lat="48.11092" lon="7.10263">
        <ele>985</ele>
        <time>2014-09-03T13:26:23Z</time>
      </trkpt>
      <trkpt lat="48.11083" lon="7.1027">
        <ele>987</ele>
        <time>2014-09-03T13:26:28Z</time>
      </trkpt>
      <trkpt lat="48.11076" lon="7.10277">
        <ele>987</ele>
        <time>2014-09-03T13:26:33Z</time>
      </trkpt>
      <trkpt lat="48.11067" lon="7.10276">
        <ele>985</ele>
        <time>2014-09-03T13:26:38Z</time>
      </trkpt>
      <trkpt lat="48.11055" lon="7.10276">
        <ele>985</ele>
        <time>2014-09-03T13:26:43Z</time>
      </trkpt>
      <trkpt lat="48.11044" lon="7.10279">
        <ele>989</ele>
        <time>2014-09-03T13:26:47Z</time>
      </trkpt>
      <trkpt lat="48.11031" lon="7.1029">
        <ele>987</ele>
        <time>2014-09-03T13:26:52Z</time>
      </trkpt>
      <trkpt lat="48.11021" lon="7.10298">
        <ele>987</ele>
        <time>2014-09-03T13:26:56Z</time>
      </trkpt>
      <trkpt lat="48.11011" lon="7.10305">
        <ele>986</ele>
        <time>2014-09-03T13:27:00Z</time>
      </trkpt>
      <trkpt lat="48.11" lon="7.10311">
        <ele>983</ele>
        <time>2014-09-03T13:27:04Z</time>
      </trkpt>
      <trkpt lat="48.10985" lon="7.10315">
        <ele>982</ele>
        <time>2014-09-03T13:27:09Z</time>
      </trkpt>
      <trkpt lat="48.10971" lon="7.10318">
        <ele>978</ele>
        <time>2014-09-03T13:27:14Z</time>
      </trkpt>
      <trkpt lat="48.10958" lon="7.10321">
        <ele>977</ele>
        <time>2014-09-03T13:27:18Z</time>
      </trkpt>
      <trkpt lat="48.10948" lon="7.10321">
        <ele>976</ele>
        <time>2014-09-03T13:27:21Z</time>
      </trkpt>
      <trkpt lat="48.10932" lon="7.10322">
        <ele>975</ele>
        <time>2014-09-03T13:27:26Z</time>
      </trkpt>
      <trkpt lat="48.10919" lon="7.10325">
        <ele>974</ele>
        <time>2014-09-03T13:27:30Z</time>
      </trkpt>
      <trkpt lat="48.1091" lon="7.10325">
        <ele>971</ele>
        <time>2014-09-03T13:27:32Z</time>
      </trkpt>
      <trkpt lat="48.10899" lon="7.10328">
        <ele>971</ele>
        <time>2014-09-03T13:27:37Z</time>
      </trkpt>
      <trkpt lat="48.1089" lon="7.10331">
        <ele>971</ele>
        <time>2014-09-03T13:27:41Z</time>
      </trkpt>
      <trkpt lat="48.1088" lon="7.1033">
        <ele>971</ele>
        <time>2014-09-03T13:27:45Z</time>
      </trkpt>
      <trkpt lat="48.10869" lon="7.10332">
        <ele>974</ele>
        <time>2014-09-03T13:27:48Z</time>
      </trkpt>
      <trkpt lat="48.1086" lon="7.10333">
        <ele>973</ele>
        <time>2014-09-03T13:27:52Z</time>
      </trkpt>
      <trkpt lat="48.10845" lon="7.10337">
        <ele>974</ele>
        <time>2014-09-03T13:27:57Z</time>
      </trkpt>
      <trkpt lat="48.10833" lon="7.1034">
        <ele>973</ele>
        <time>2014-09-03T13:28:00Z</time>
      </trkpt>
      <trkpt lat="48.10821" lon="7.10343">
        <ele>974</ele>
        <time>2014-09-03T13:28:05Z</time>
      </trkpt>
      <trkpt lat="48.10809" lon="7.10344">
        <ele>975</ele>
        <time>2014-09-03T13:28:09Z</time>
      </trkpt>
      <trkpt lat="48.10801" lon="7.10341">
        <ele>976</ele>
        <time>2014-09-03T13:28:12Z</time>
      </trkpt>
      <trkpt lat="48.10799" lon="7.1034">
        <ele>977</ele>
        <time>2014-09-03T13:28:14Z</time>
      </trkpt>
      <trkpt lat="48.10786" lon="7.10333">
        <ele>976</ele>
        <time>2014-09-03T13:28:18Z</time>
      </trkpt>
      <trkpt lat="48.10774" lon="7.10324">
        <ele>974</ele>
        <time>2014-09-03T13:28:23Z</time>
      </trkpt>
      <trkpt lat="48.10762" lon="7.10319">
        <ele>973</ele>
        <time>2014-09-03T13:28:27Z</time>
      </trkpt>
      <trkpt lat="48.10747" lon="7.10321">
        <ele>973</ele>
        <time>2014-09-03T13:28:32Z</time>
      </trkpt>
      <trkpt lat="48.10735" lon="7.10324">
        <ele>974</ele>
        <time>2014-09-03T13:28:35Z</time>
      </trkpt>
      <trkpt lat="48.10723" lon="7.10326">
        <ele>976</ele>
        <time>2014-09-03T13:28:40Z</time>
      </trkpt>
      <trkpt lat="48.10712" lon="7.10327">
        <ele>979</ele>
        <time>2014-09-03T13:28:44Z</time>
      </trkpt>
      <trkpt lat="48.10704" lon="7.10327">
        <ele>979</ele>
        <time>2014-09-03T13:28:47Z</time>
      </trkpt>
      <trkpt lat="48.10693" lon="7.10327">
        <ele>981</ele>
        <time>2014-09-03T13:28:52Z</time>
      </trkpt>
      <trkpt lat="48.10689" lon="7.10328">
        <ele>981</ele>
        <time>2014-09-03T13:28:55Z</time>
      </trkpt>
      <trkpt lat="48.1068" lon="7.1033">
        <ele>982</ele>
        <time>2014-09-03T13:28:58Z</time>
      </trkpt>
      <trkpt lat="48.10665" lon="7.10325">
        <ele>981</ele>
        <time>2014-09-03T13:29:02Z</time>
      </trkpt>
      <trkpt lat="48.10651" lon="7.1032">
        <ele>980</ele>
        <time>2014-09-03T13:29:06Z</time>
      </trkpt>
      <trkpt lat="48.10642" lon="7.10316">
        <ele>978</ele>
        <time>2014-09-03T13:29:09Z</time>
      </trkpt>
      <trkpt lat="48.10632" lon="7.10313">
        <ele>978</ele>
        <time>2014-09-03T13:29:12Z</time>
      </trkpt>
      <trkpt lat="48.10623" lon="7.1031">
        <ele>975</ele>
        <time>2014-09-03T13:29:15Z</time>
      </trkpt>
      <trkpt lat="48.10611" lon="7.10308">
        <ele>980</ele>
        <time>2014-09-03T13:29:19Z</time>
      </trkpt>
      <trkpt lat="48.10599" lon="7.10308">
        <ele>982</ele>
        <time>2014-09-03T13:29:24Z</time>
      </trkpt>
      <trkpt lat="48.10584" lon="7.10316">
        <ele>984</ele>
        <time>2014-09-03T13:29:28Z</time>
      </trkpt>
      <trkpt lat="48.10572" lon="7.10325">
        <ele>985</ele>
        <time>2014-09-03T13:29:32Z</time>
      </trkpt>
      <trkpt lat="48.10555" lon="7.10334">
        <ele>982</ele>
        <time>2014-09-03T13:29:36Z</time>
      </trkpt>
      <trkpt lat="48.1053" lon="7.10349">
        <ele>976</ele>
        <time>2014-09-03T13:29:41Z</time>
      </trkpt>
      <trkpt lat="48.10519" lon="7.10358">
        <ele>975</ele>
        <time>2014-09-03T13:29:44Z</time>
      </trkpt>
      <trkpt lat="48.10499" lon="7.10378">
        <ele>975</ele>
        <time>2014-09-03T13:29:48Z</time>
      </trkpt>
      <trkpt lat="48.1048" lon="7.10392">
        <ele>972</ele>
        <time>2014-09-03T13:29:53Z</time>
      </trkpt>
      <trkpt lat="48.10462" lon="7.10399">
        <ele>969</ele>
        <time>2014-09-03T13:29:56Z</time>
      </trkpt>
      <trkpt lat="48.10444" lon="7.10411">
        <ele>970</ele>
        <time>2014-09-03T13:30:01Z</time>
      </trkpt>
      <trkpt lat="48.10419" lon="7.10435">
        <ele>972</ele>
        <time>2014-09-03T13:30:05Z</time>
      </trkpt>
      <trkpt lat="48.10397" lon="7.10453">
        <ele>972</ele>
        <time>2014-09-03T13:30:10Z</time>
      </trkpt>
      <trkpt lat="48.10373" lon="7.10481">
        <ele>973</ele>
        <time>2014-09-03T13:30:15Z</time>
      </trkpt>
      <trkpt lat="48.10362" lon="7.10493">
        <ele>971</ele>
        <time>2014-09-03T13:30:18Z</time>
      </trkpt>
      <trkpt lat="48.10331" lon="7.10535">
        <ele>968</ele>
        <time>2014-09-03T13:30:22Z</time>
      </trkpt>
      <trkpt lat="48.10314" lon="7.10553">
        <ele>966</ele>
        <time>2014-09-03T13:30:26Z</time>
      </trkpt>
      <trkpt lat="48.10279" lon="7.10585">
        <ele>962</ele>
        <time>2014-09-03T13:30:31Z</time>
      </trkpt>
      <trkpt lat="48.10266" lon="7.1059">
        <ele>963</ele>
        <time>2014-09-03T13:30:34Z</time>
      </trkpt>
      <trkpt lat="48.10248" lon="7.10597">
        <ele>967</ele>
        <time>2014-09-03T13:30:38Z</time>
      </trkpt>
      <trkpt lat="48.10236" lon="7.10598">
        <ele>962</ele>
        <time>2014-09-03T13:30:43Z</time>
      </trkpt>
      <trkpt lat="48.10229" lon="7.10599">
        <ele>964</ele>
        <time>2014-09-03T13:30:46Z</time>
      </trkpt>
      <trkpt lat="48.10221" lon="7.10602">
        <ele>966</ele>
        <time>2014-09-03T13:30:50Z</time>
      </trkpt>
      <trkpt lat="48.10211" lon="7.10605">
        <ele>966</ele>
        <time>2014-09-03T13:30:54Z</time>
      </trkpt>
      <trkpt lat="48.10198" lon="7.10613">
        <ele>969</ele>
        <time>2014-09-03T13:30:59Z</time>
      </trkpt>
      <trkpt lat="48.10187" lon="7.10618">
        <ele>972</ele>
        <time>2014-09-03T13:31:02Z</time>
      </trkpt>
      <trkpt lat="48.10176" lon="7.10624">
        <ele>972</ele>
        <time>2014-09-03T13:31:07Z</time>
      </trkpt>
      <trkpt lat="48.10164" lon="7.10631">
        <ele>973</ele>
        <time>2014-09-03T13:31:12Z</time>
      </trkpt>
      <trkpt lat="48.10152" lon="7.10637">
        <ele>973</ele>
        <time>2014-09-03T13:31:16Z</time>
      </trkpt>
      <trkpt lat="48.10142" lon="7.1064">
        <ele>973</ele>
        <time>2014-09-03T13:31:20Z</time>
      </trkpt>
      <trkpt lat="48.10132" lon="7.10644">
        <ele>973</ele>
        <time>2014-09-03T13:31:25Z</time>
      </trkpt>
      <trkpt lat="48.10125" lon="7.10647">
        <ele>974</ele>
        <time>2014-09-03T13:31:29Z</time>
      </trkpt>
      <trkpt lat="48.1011" lon="7.10654">
        <ele>973</ele>
        <time>2014-09-03T13:31:34Z</time>
      </trkpt>
      <trkpt lat="48.101" lon="7.1066">
        <ele>970</ele>
        <time>2014-09-03T13:31:38Z</time>
      </trkpt>
      <trkpt lat="48.1009" lon="7.10666">
        <ele>973</ele>
        <time>2014-09-03T13:31:42Z</time>
      </trkpt>
      <trkpt lat="48.10079" lon="7.10672">
        <ele>975</ele>
        <time>2014-09-03T13:31:46Z</time>
      </trkpt>
      <trkpt lat="48.10072" lon="7.10674">
        <ele>977</ele>
        <time>2014-09-03T13:31:58Z</time>
      </trkpt>
      <trkpt lat="48.10062" lon="7.10674">
        <ele>978</ele>
        <time>2014-09-03T13:32:02Z</time>
      </trkpt>
      <trkpt lat="48.10049" lon="7.10673">
        <ele>977</ele>
        <time>2014-09-03T13:32:06Z</time>
      </trkpt>
      <trkpt lat="48.10031" lon="7.1067">
        <ele>976</ele>
        <time>2014-09-03T13:32:10Z</time>
      </trkpt>
      <trkpt lat="48.10014" lon="7.10664">
        <ele>976</ele>
        <time>2014-09-03T13:32:14Z</time>
      </trkpt>
      <trkpt lat="48.0999" lon="7.10656">
        <ele>976</ele>
        <time>2014-09-03T13:32:18Z</time>
      </trkpt>
      <trkpt lat="48.09972" lon="7.10646">
        <ele>978</ele>
        <time>2014-09-03T13:32:23Z</time>
      </trkpt>
      <trkpt lat="48.09947" lon="7.10632">
        <ele>975</ele>
        <time>2014-09-03T13:32:27Z</time>
      </trkpt>
      <trkpt lat="48.09929" lon="7.10625">
        <ele>974</ele>
        <time>2014-09-03T13:32:32Z</time>
      </trkpt>
      <trkpt lat="48.09903" lon="7.10616">
        <ele>971</ele>
        <time>2014-09-03T13:32:37Z</time>
      </trkpt>
      <trkpt lat="48.09878" lon="7.10606">
        <ele>974</ele>
        <time>2014-09-03T13:32:42Z</time>
      </trkpt>
      <trkpt lat="48.09852" lon="7.10594">
        <ele>972</ele>
        <time>2014-09-03T13:32:46Z</time>
      </trkpt>
      <trkpt lat="48.09831" lon="7.10584">
        <ele>972</ele>
        <time>2014-09-03T13:32:51Z</time>
      </trkpt>
      <trkpt lat="48.09804" lon="7.10573">
        <ele>973</ele>
        <time>2014-09-03T13:32:56Z</time>
      </trkpt>
      <trkpt lat="48.09779" lon="7.10562">
        <ele>973</ele>
        <time>2014-09-03T13:33:01Z</time>
      </trkpt>
      <trkpt lat="48.09756" lon="7.10554">
        <ele>970</ele>
        <time>2014-09-03T13:33:05Z</time>
      </trkpt>
      <trkpt lat="48.09731" lon="7.10542">
        <ele>969</ele>
        <time>2014-09-03T13:33:10Z</time>
      </trkpt>
      <trkpt lat="48.09719" lon="7.10539">
        <ele>969</ele>
        <time>2014-09-03T13:33:14Z</time>
      </trkpt>
      <trkpt lat="48.09707" lon="7.10534">
        <ele>969</ele>
        <time>2014-09-03T13:33:19Z</time>
      </trkpt>
      <trkpt lat="48.09691" lon="7.1053">
        <ele>967</ele>
        <time>2014-09-03T13:33:23Z</time>
      </trkpt>
      <trkpt lat="48.09676" lon="7.10528">
        <ele>967</ele>
        <time>2014-09-03T13:33:27Z</time>
      </trkpt>
      <trkpt lat="48.09667" lon="7.10528">
        <ele>966</ele>
        <time>2014-09-03T13:33:29Z</time>
      </trkpt>
      <trkpt lat="48.09648" lon="7.10531">
        <ele>965</ele>
        <time>2014-09-03T13:33:34Z</time>
      </trkpt>
      <trkpt lat="48.09627" lon="7.10546">
        <ele>963</ele>
        <time>2014-09-03T13:33:38Z</time>
      </trkpt>
      <trkpt lat="48.09612" lon="7.10564">
        <ele>964</ele>
        <time>2014-09-03T13:33:43Z</time>
      </trkpt>
      <trkpt lat="48.09605" lon="7.1057">
        <ele>964</ele>
        <time>2014-09-03T13:33:45Z</time>
      </trkpt>
      <trkpt lat="48.09587" lon="7.10591">
        <ele>963</ele>
        <time>2014-09-03T13:33:50Z</time>
      </trkpt>
      <trkpt lat="48.09572" lon="7.10606">
        <ele>963</ele>
        <time>2014-09-03T13:33:53Z</time>
      </trkpt>
      <trkpt lat="48.09552" lon="7.10629">
        <ele>959</ele>
        <time>2014-09-03T13:33:57Z</time>
      </trkpt>
      <trkpt lat="48.09534" lon="7.10645">
        <ele>959</ele>
        <time>2014-09-03T13:34:01Z</time>
      </trkpt>
      <trkpt lat="48.09521" lon="7.10659">
        <ele>959</ele>
        <time>2014-09-03T13:34:04Z</time>
      </trkpt>
      <trkpt lat="48.09501" lon="7.10675">
        <ele>960</ele>
        <time>2014-09-03T13:34:09Z</time>
      </trkpt>
      <trkpt lat="48.09488" lon="7.10686">
        <ele>960</ele>
        <time>2014-09-03T13:34:13Z</time>
      </trkpt>
      <trkpt lat="48.09475" lon="7.107">
        <ele>959</ele>
        <time>2014-09-03T13:34:17Z</time>
      </trkpt>
      <trkpt lat="48.09456" lon="7.10716">
        <ele>959</ele>
        <time>2014-09-03T13:34:22Z</time>
      </trkpt>
      <trkpt lat="48.09441" lon="7.1073">
        <ele>959</ele>
        <time>2014-09-03T13:34:26Z</time>
      </trkpt>
      <trkpt lat="48.09433" lon="7.10741">
        <ele>958</ele>
        <time>2014-09-03T13:34:29Z</time>
      </trkpt>
      <trkpt lat="48.09418" lon="7.10753">
        <ele>956</ele>
        <time>2014-09-03T13:34:34Z</time>
      </trkpt>
      <trkpt lat="48.09406" lon="7.10761">
        <ele>957</ele>
        <time>2014-09-03T13:34:38Z</time>
      </trkpt>
      <trkpt lat="48.09396" lon="7.10769">
        <ele>957</ele>
        <time>2014-09-03T13:34:43Z</time>
      </trkpt>
      <trkpt lat="48.09382" lon="7.10782">
        <ele>957</ele>
        <time>2014-09-03T13:34:47Z</time>
      </trkpt>
      <trkpt lat="48.09371" lon="7.10792">
        <ele>955</ele>
        <time>2014-09-03T13:34:52Z</time>
      </trkpt>
      <trkpt lat="48.09353" lon="7.10805">
        <ele>955</ele>
        <time>2014-09-03T13:34:57Z</time>
      </trkpt>
      <trkpt lat="48.09341" lon="7.10815">
        <ele>955</ele>
        <time>2014-09-03T13:35:01Z</time>
      </trkpt>
      <trkpt lat="48.09331" lon="7.10824">
        <ele>956</ele>
        <time>2014-09-03T13:35:05Z</time>
      </trkpt>
      <trkpt lat="48.0932" lon="7.10836">
        <ele>955</ele>
        <time>2014-09-03T13:35:09Z</time>
      </trkpt>
      <trkpt lat="48.09308" lon="7.10853">
        <ele>955</ele>
        <time>2014-09-03T13:35:14Z</time>
      </trkpt>
      <trkpt lat="48.09301" lon="7.10863">
        <ele>954</ele>
        <time>2014-09-03T13:35:17Z</time>
      </trkpt>
      <trkpt lat="48.09294" lon="7.10871">
        <ele>955</ele>
        <time>2014-09-03T13:35:20Z</time>
      </trkpt>
      <trkpt lat="48.09285" lon="7.10883">
        <ele>958</ele>
        <time>2014-09-03T13:35:25Z</time>
      </trkpt>
      <trkpt lat="48.09279" lon="7.1089">
        <ele>960</ele>
        <time>2014-09-03T13:35:28Z</time>
      </trkpt>
      <trkpt lat="48.09268" lon="7.10899">
        <ele>962</ele>
        <time>2014-09-03T13:35:33Z</time>
      </trkpt>
      <trkpt lat="48.09259" lon="7.10907">
        <ele>963</ele>
        <time>2014-09-03T13:35:37Z</time>
      </trkpt>
      <trkpt lat="48.09248" lon="7.1092">
        <ele>963</ele>
        <time>2014-09-03T13:35:42Z</time>
      </trkpt>
      <trkpt lat="48.09237" lon="7.10929">
        <ele>963</ele>
        <time>2014-09-03T13:35:46Z</time>
      </trkpt>
      <trkpt lat="48.09227" lon="7.10935">
        <ele>963</ele>
        <time>2014-09-03T13:35:50Z</time>
      </trkpt>
      <trkpt lat="48.09219" lon="7.10946">
        <ele>961</ele>
        <time>2014-09-03T13:35:54Z</time>
      </trkpt>
      <trkpt lat="48.09208" lon="7.10955">
        <ele>961</ele>
        <time>2014-09-03T13:35:58Z</time>
      </trkpt>
      <trkpt lat="48.09193" lon="7.10964">
        <ele>962</ele>
        <time>2014-09-03T13:36:03Z</time>
      </trkpt>
      <trkpt lat="48.09182" lon="7.10974">
        <ele>962</ele>
        <time>2014-09-03T13:36:07Z</time>
      </trkpt>
      <trkpt lat="48.09172" lon="7.10984">
        <ele>962</ele>
        <time>2014-09-03T13:36:10Z</time>
      </trkpt>
      <trkpt lat="48.09167" lon="7.1099">
        <ele>964</ele>
        <time>2014-09-03T13:36:14Z</time>
      </trkpt>
      <trkpt lat="48.0916" lon="7.11">
        <ele>965</ele>
        <time>2014-09-03T13:36:18Z</time>
      </trkpt>
      <trkpt lat="48.09154" lon="7.11008">
        <ele>965</ele>
        <time>2014-09-03T13:36:23Z</time>
      </trkpt>
      <trkpt lat="48.09149" lon="7.11014">
        <ele>966</ele>
        <time>2014-09-03T13:36:28Z</time>
      </trkpt>
      <trkpt lat="48.0914" lon="7.11026">
        <ele>964</ele>
        <time>2014-09-03T13:36:32Z</time>
      </trkpt>
      <trkpt lat="48.09134" lon="7.11033">
        <ele>966</ele>
        <time>2014-09-03T13:36:36Z</time>
      </trkpt>
      <trkpt lat="48.09128" lon="7.11042">
        <ele>966</ele>
        <time>2014-09-03T13:36:42Z</time>
      </trkpt>
      <trkpt lat="48.09124" lon="7.11053">
        <ele>964</ele>
        <time>2014-09-03T13:36:48Z</time>
      </trkpt>
      <trkpt lat="48.09119" lon="7.1106">
        <ele>965</ele>
        <time>2014-09-03T13:37:01Z</time>
      </trkpt>
      <trkpt lat="48.09113" lon="7.11084">
        <ele>957</ele>
        <time>2014-09-03T13:37:04Z</time>
      </trkpt>
      <trkpt lat="48.09112" lon="7.11096">
        <ele>957</ele>
        <time>2014-09-03T13:37:07Z</time>
      </trkpt>
      <trkpt lat="48.09107" lon="7.11129">
        <ele>953</ele>
        <time>2014-09-03T13:37:12Z</time>
      </trkpt>
      <trkpt lat="48.09103" lon="7.11147">
        <ele>951</ele>
        <time>2014-09-03T13:37:15Z</time>
      </trkpt>
      <trkpt lat="48.09102" lon="7.11193">
        <ele>944</ele>
        <time>2014-09-03T13:37:19Z</time>
      </trkpt>
      <trkpt lat="48.09099" lon="7.11203">
        <ele>946</ele>
        <time>2014-09-03T13:37:30Z</time>
      </trkpt>
      <trkpt lat="48.09085" lon="7.11224">
        <ele>946</ele>
        <time>2014-09-03T13:37:34Z</time>
      </trkpt>
      <trkpt lat="48.09066" lon="7.1122">
        <ele>947</ele>
        <time>2014-09-03T13:37:39Z</time>
      </trkpt>
      <trkpt lat="48.09055" lon="7.11202">
        <ele>949</ele>
        <time>2014-09-03T13:37:44Z</time>
      </trkpt>
      <trkpt lat="48.09047" lon="7.11199">
        <ele>949</ele>
        <time>2014-09-03T13:37:52Z</time>
      </trkpt>
      <trkpt lat="48.09036" lon="7.11214">
        <ele>946</ele>
        <time>2014-09-03T13:37:56Z</time>
      </trkpt>
      <trkpt lat="48.09027" lon="7.1123">
        <ele>943</ele>
        <time>2014-09-03T13:38:00Z</time>
      </trkpt>
      <trkpt lat="48.09008" lon="7.11258">
        <ele>943</ele>
        <time>2014-09-03T13:38:05Z</time>
      </trkpt>
      <trkpt lat="48.09002" lon="7.11264">
        <ele>942</ele>
        <time>2014-09-03T13:38:08Z</time>
      </trkpt>
      <trkpt lat="48.08997" lon="7.11274">
        <ele>943</ele>
        <time>2014-09-03T13:38:13Z</time>
      </trkpt>
      <trkpt lat="48.08994" lon="7.11282">
        <ele>941</ele>
        <time>2014-09-03T13:38:17Z</time>
      </trkpt>
      <trkpt lat="48.08988" lon="7.11298">
        <ele>943</ele>
        <time>2014-09-03T13:38:22Z</time>
      </trkpt>
      <trkpt lat="48.08987" lon="7.11307">
        <ele>940</ele>
        <time>2014-09-03T13:38:26Z</time>
      </trkpt>
      <trkpt lat="48.08983" lon="7.11325">
        <ele>933</ele>
        <time>2014-09-03T13:38:30Z</time>
      </trkpt>
      <trkpt lat="48.08982" lon="7.11338">
        <ele>933</ele>
        <time>2014-09-03T13:38:35Z</time>
      </trkpt>
      <trkpt lat="48.08981" lon="7.11351">
        <ele>931</ele>
        <time>2014-09-03T13:38:39Z</time>
      </trkpt>
      <trkpt lat="48.08981" lon="7.11353">
        <ele>932</ele>
        <time>2014-09-03T13:38:42Z</time>
      </trkpt>
      <trkpt lat="48.08969" lon="7.11382">
        <ele>926</ele>
        <time>2014-09-03T13:38:47Z</time>
      </trkpt>
      <trkpt lat="48.0896" lon="7.11398">
        <ele>923</ele>
        <time>2014-09-03T13:38:50Z</time>
      </trkpt>
      <trkpt lat="48.08949" lon="7.11428">
        <ele>918</ele>
        <time>2014-09-03T13:38:54Z</time>
      </trkpt>
      <trkpt lat="48.08934" lon="7.11457">
        <ele>917</ele>
        <time>2014-09-03T13:38:57Z</time>
      </trkpt>
      <trkpt lat="48.08912" lon="7.11491">
        <ele>916</ele>
        <time>2014-09-03T13:39:02Z</time>
      </trkpt>
      <trkpt lat="48.08884" lon="7.11517">
        <ele>905</ele>
        <time>2014-09-03T13:39:07Z</time>
      </trkpt>
      <trkpt lat="48.08869" lon="7.1154">
        <ele>900</ele>
        <time>2014-09-03T13:39:11Z</time>
      </trkpt>
      <trkpt lat="48.08848" lon="7.11556">
        <ele>898</ele>
        <time>2014-09-03T13:39:15Z</time>
      </trkpt>
      <trkpt lat="48.08831" lon="7.11586">
        <ele>902</ele>
        <time>2014-09-03T13:39:20Z</time>
      </trkpt>
      <trkpt lat="48.08798" lon="7.11597">
        <ele>894</ele>
        <time>2014-09-03T13:39:26Z</time>
      </trkpt>
      <trkpt lat="48.0879" lon="7.11603">
        <ele>895</ele>
        <time>2014-09-03T13:39:33Z</time>
      </trkpt>
      <trkpt lat="48.08787" lon="7.11609">
        <ele>893</ele>
        <time>2014-09-03T13:39:37Z</time>
      </trkpt>
      <trkpt lat="48.08784" lon="7.11621">
        <ele>889</ele>
        <time>2014-09-03T13:39:43Z</time>
      </trkpt>
      <trkpt lat="48.08779" lon="7.1163">
        <ele>884</ele>
        <time>2014-09-03T13:44:08Z</time>
      </trkpt>
      <trkpt lat="48.08773" lon="7.11638">
        <ele>883</ele>
        <time>2014-09-03T13:44:12Z</time>
      </trkpt>
      <trkpt lat="48.08765" lon="7.11644">
        <ele>884</ele>
        <time>2014-09-03T13:44:16Z</time>
      </trkpt>
      <trkpt lat="48.08755" lon="7.1165">
        <ele>884</ele>
        <time>2014-09-03T13:44:20Z</time>
      </trkpt>
      <trkpt lat="48.08746" lon="7.11658">
        <ele>885</ele>
        <time>2014-09-03T13:44:24Z</time>
      </trkpt>
      <trkpt lat="48.08735" lon="7.11671">
        <ele>887</ele>
        <time>2014-09-03T13:44:28Z</time>
      </trkpt>
      <trkpt lat="48.08727" lon="7.11683">
        <ele>887</ele>
        <time>2014-09-03T13:44:33Z</time>
      </trkpt>
      <trkpt lat="48.08717" lon="7.11695">
        <ele>889</ele>
        <time>2014-09-03T13:44:38Z</time>
      </trkpt>
      <trkpt lat="48.08709" lon="7.11705">
        <ele>888</ele>
        <time>2014-09-03T13:44:42Z</time>
      </trkpt>
      <trkpt lat="48.08702" lon="7.11717">
        <ele>889</ele>
        <time>2014-09-03T13:44:46Z</time>
      </trkpt>
      <trkpt lat="48.08696" lon="7.11721">
        <ele>890</ele>
        <time>2014-09-03T13:44:49Z</time>
      </trkpt>
      <trkpt lat="48.08688" lon="7.11725">
        <ele>893</ele>
        <time>2014-09-03T13:44:54Z</time>
      </trkpt>
      <trkpt lat="48.08681" lon="7.11728">
        <ele>894</ele>
        <time>2014-09-03T13:45:00Z</time>
      </trkpt>
      <trkpt lat="48.08674" lon="7.1173">
        <ele>900</ele>
        <time>2014-09-03T13:45:06Z</time>
      </trkpt>
      <trkpt lat="48.08665" lon="7.11732">
        <ele>898</ele>
        <time>2014-09-03T13:45:13Z</time>
      </trkpt>
      <trkpt lat="48.08657" lon="7.11733">
        <ele>900</ele>
        <time>2014-09-03T13:45:18Z</time>
      </trkpt>
      <trkpt lat="48.08649" lon="7.11739">
        <ele>902</ele>
        <time>2014-09-03T13:45:24Z</time>
      </trkpt>
      <trkpt lat="48.08642" lon="7.11742">
        <ele>904</ele>
        <time>2014-09-03T13:45:28Z</time>
      </trkpt>
      <trkpt lat="48.08635" lon="7.11749">
        <ele>904</ele>
        <time>2014-09-03T13:45:32Z</time>
      </trkpt>
      <trkpt lat="48.08628" lon="7.11754">
        <ele>904</ele>
        <time>2014-09-03T13:45:38Z</time>
      </trkpt>
      <trkpt lat="48.08624" lon="7.11761">
        <ele>907</ele>
        <time>2014-09-03T13:45:42Z</time>
      </trkpt>
      <trkpt lat="48.0862" lon="7.11768">
        <ele>905</ele>
        <time>2014-09-03T13:45:47Z</time>
      </trkpt>
      <trkpt lat="48.08613" lon="7.11775">
        <ele>904</ele>
        <time>2014-09-03T13:45:52Z</time>
      </trkpt>
      <trkpt lat="48.08607" lon="7.11783">
        <ele>906</ele>
        <time>2014-09-03T13:45:57Z</time>
      </trkpt>
      <trkpt lat="48.08601" lon="7.11791">
        <ele>905</ele>
        <time>2014-09-03T13:46:02Z</time>
      </trkpt>
      <trkpt lat="48.08592" lon="7.11795">
        <ele>906</ele>
        <time>2014-09-03T13:46:07Z</time>
      </trkpt>
      <trkpt lat="48.08585" lon="7.11799">
        <ele>906</ele>
        <time>2014-09-03T13:46:11Z</time>
      </trkpt>
      <trkpt lat="48.08578" lon="7.11804">
        <ele>912</ele>
        <time>2014-09-03T13:46:19Z</time>
      </trkpt>
      <trkpt lat="48.0857" lon="7.1181">
        <ele>912</ele>
        <time>2014-09-03T13:46:27Z</time>
      </trkpt>
      <trkpt lat="48.08564" lon="7.11818">
        <ele>912</ele>
        <time>2014-09-03T13:46:32Z</time>
      </trkpt>
      <trkpt lat="48.08556" lon="7.11821">
        <ele>910</ele>
        <time>2014-09-03T13:46:37Z</time>
      </trkpt>
      <trkpt lat="48.08549" lon="7.11827">
        <ele>913</ele>
        <time>2014-09-03T13:46:42Z</time>
      </trkpt>
      <trkpt lat="48.08541" lon="7.11831">
        <ele>911</ele>
        <time>2014-09-03T13:46:48Z</time>
      </trkpt>
      <trkpt lat="48.08535" lon="7.11839">
        <ele>913</ele>
        <time>2014-09-03T13:46:57Z</time>
      </trkpt>
      <trkpt lat="48.08527" lon="7.11843">
        <ele>917</ele>
        <time>2014-09-03T13:47:06Z</time>
      </trkpt>
      <trkpt lat="48.08518" lon="7.11842">
        <ele>916</ele>
        <time>2014-09-03T13:47:10Z</time>
      </trkpt>
      <trkpt lat="48.08512" lon="7.11845">
        <ele>915</ele>
        <time>2014-09-03T13:47:14Z</time>
      </trkpt>
      <trkpt lat="48.08505" lon="7.11848">
        <ele>921</ele>
        <time>2014-09-03T13:47:20Z</time>
      </trkpt>
      <trkpt lat="48.08497" lon="7.11851">
        <ele>918</ele>
        <time>2014-09-03T13:47:25Z</time>
      </trkpt>
      <trkpt lat="48.0849" lon="7.11856">
        <ele>918</ele>
        <time>2014-09-03T13:47:29Z</time>
      </trkpt>
      <trkpt lat="48.08483" lon="7.11862">
        <ele>921</ele>
        <time>2014-09-03T13:47:34Z</time>
      </trkpt>
      <trkpt lat="48.08476" lon="7.11864">
        <ele>921</ele>
        <time>2014-09-03T13:47:39Z</time>
      </trkpt>
      <trkpt lat="48.08469" lon="7.11869">
        <ele>921</ele>
        <time>2014-09-03T13:47:45Z</time>
      </trkpt>
      <trkpt lat="48.08461" lon="7.11873">
        <ele>927</ele>
        <time>2014-09-03T13:47:53Z</time>
      </trkpt>
      <trkpt lat="48.08453" lon="7.11878">
        <ele>934</ele>
        <time>2014-09-03T13:48:00Z</time>
      </trkpt>
      <trkpt lat="48.08448" lon="7.11885">
        <ele>938</ele>
        <time>2014-09-03T13:48:06Z</time>
      </trkpt>
      <trkpt lat="48.08441" lon="7.11893">
        <ele>935</ele>
        <time>2014-09-03T13:48:11Z</time>
      </trkpt>
      <trkpt lat="48.08434" lon="7.11898">
        <ele>936</ele>
        <time>2014-09-03T13:48:16Z</time>
      </trkpt>
      <trkpt lat="48.08429" lon="7.11908">
        <ele>936</ele>
        <time>2014-09-03T13:48:21Z</time>
      </trkpt>
      <trkpt lat="48.08424" lon="7.11918">
        <ele>936</ele>
        <time>2014-09-03T13:48:27Z</time>
      </trkpt>
      <trkpt lat="48.08419" lon="7.11928">
        <ele>936</ele>
        <time>2014-09-03T13:48:31Z</time>
      </trkpt>
      <trkpt lat="48.08416" lon="7.11934">
        <ele>936</ele>
        <time>2014-09-03T13:48:35Z</time>
      </trkpt>
      <trkpt lat="48.08411" lon="7.11943">
        <ele>935</ele>
        <time>2014-09-03T13:48:40Z</time>
      </trkpt>
      <trkpt lat="48.08406" lon="7.11954">
        <ele>936</ele>
        <time>2014-09-03T13:48:46Z</time>
      </trkpt>
      <trkpt lat="48.08401" lon="7.11965">
        <ele>939</ele>
        <time>2014-09-03T13:48:52Z</time>
      </trkpt>
      <trkpt lat="48.08396" lon="7.11975">
        <ele>935</ele>
        <time>2014-09-03T13:48:57Z</time>
      </trkpt>
      <trkpt lat="48.08389" lon="7.11983">
        <ele>935</ele>
        <time>2014-09-03T13:49:02Z</time>
      </trkpt>
      <trkpt lat="48.08384" lon="7.11991">
        <ele>937</ele>
        <time>2014-09-03T13:49:07Z</time>
      </trkpt>
      <trkpt lat="48.08377" lon="7.12">
        <ele>939</ele>
        <time>2014-09-03T13:49:13Z</time>
      </trkpt>
      <trkpt lat="48.0837" lon="7.12006">
        <ele>938</ele>
        <time>2014-09-03T13:49:18Z</time>
      </trkpt>
      <trkpt lat="48.08364" lon="7.12014">
        <ele>936</ele>
        <time>2014-09-03T13:49:24Z</time>
      </trkpt>
      <trkpt lat="48.08359" lon="7.12022">
        <ele>938</ele>
        <time>2014-09-03T13:49:29Z</time>
      </trkpt>
      <trkpt lat="48.0835" lon="7.12026">
        <ele>941</ele>
        <time>2014-09-03T13:49:35Z</time>
      </trkpt>
      <trkpt lat="48.08345" lon="7.12037">
        <ele>942</ele>
        <time>2014-09-03T13:49:40Z</time>
      </trkpt>
      <trkpt lat="48.0834" lon="7.12044">
        <ele>943</ele>
        <time>2014-09-03T13:49:45Z</time>
      </trkpt>
      <trkpt lat="48.08333" lon="7.12051">
        <ele>947</ele>
        <time>2014-09-03T13:49:51Z</time>
      </trkpt>
      <trkpt lat="48.08325" lon="7.12053">
        <ele>947</ele>
        <time>2014-09-03T13:49:57Z</time>
      </trkpt>
      <trkpt lat="48.08317" lon="7.12055">
        <ele>948</ele>
        <time>2014-09-03T13:50:02Z</time>
      </trkpt>
      <trkpt lat="48.08311" lon="7.12058">
        <ele>950</ele>
        <time>2014-09-03T13:50:06Z</time>
      </trkpt>
      <trkpt lat="48.08304" lon="7.12061">
        <ele>951</ele>
        <time>2014-09-03T13:50:11Z</time>
      </trkpt>
      <trkpt lat="48.08296" lon="7.12066">
        <ele>950</ele>
        <time>2014-09-03T13:50:16Z</time>
      </trkpt>
      <trkpt lat="48.08291" lon="7.12071">
        <ele>950</ele>
        <time>2014-09-03T13:50:19Z</time>
      </trkpt>
      <trkpt lat="48.08283" lon="7.12074">
        <ele>948</ele>
        <time>2014-09-03T13:50:24Z</time>
      </trkpt>
      <trkpt lat="48.08272" lon="7.12077">
        <ele>951</ele>
        <time>2014-09-03T13:50:29Z</time>
      </trkpt>
      <trkpt lat="48.08262" lon="7.12079">
        <ele>949</ele>
        <time>2014-09-03T13:50:33Z</time>
      </trkpt>
      <trkpt lat="48.08254" lon="7.12087">
        <ele>948</ele>
        <time>2014-09-03T13:50:37Z</time>
      </trkpt>
      <trkpt lat="48.08243" lon="7.12093">
        <ele>950</ele>
        <time>2014-09-03T13:50:41Z</time>
      </trkpt>
      <trkpt lat="48.08235" lon="7.12099">
        <ele>950</ele>
        <time>2014-09-03T13:50:46Z</time>
      </trkpt>
      <trkpt lat="48.08219" lon="7.12109">
        <ele>946</ele>
        <time>2014-09-03T13:50:50Z</time>
      </trkpt>
      <trkpt lat="48.08207" lon="7.12118">
        <ele>945</ele>
        <time>2014-09-03T13:50:55Z</time>
      </trkpt>
      <trkpt lat="48.082" lon="7.12121">
        <ele>948</ele>
        <time>2014-09-03T13:50:58Z</time>
      </trkpt>
      <trkpt lat="48.08191" lon="7.12127">
        <ele>951</ele>
        <time>2014-09-03T13:51:02Z</time>
      </trkpt>
      <trkpt lat="48.08184" lon="7.12133">
        <ele>951</ele>
        <time>2014-09-03T13:51:06Z</time>
      </trkpt>
      <trkpt lat="48.08175" lon="7.12139">
        <ele>950</ele>
        <time>2014-09-03T13:51:10Z</time>
      </trkpt>
      <trkpt lat="48.08166" lon="7.12146">
        <ele>950</ele>
        <time>2014-09-03T13:51:14Z</time>
      </trkpt>
      <trkpt lat="48.08159" lon="7.12155">
        <ele>950</ele>
        <time>2014-09-03T13:51:18Z</time>
      </trkpt>
      <trkpt lat="48.08149" lon="7.12166">
        <ele>950</ele>
        <time>2014-09-03T13:51:23Z</time>
      </trkpt>
      <trkpt lat="48.08137" lon="7.12177">
        <ele>948</ele>
        <time>2014-09-03T13:51:27Z</time>
      </trkpt>
      <trkpt lat="48.08122" lon="7.12191">
        <ele>947</ele>
        <time>2014-09-03T13:51:32Z</time>
      </trkpt>
      <trkpt lat="48.08111" lon="7.12203">
        <ele>948</ele>
        <time>2014-09-03T13:51:36Z</time>
      </trkpt>
      <trkpt lat="48.08104" lon="7.12211">
        <ele>947</ele>
        <time>2014-09-03T13:51:47Z</time>
      </trkpt>
      <trkpt lat="48.08098" lon="7.12215">
        <ele>947</ele>
        <time>2014-09-03T13:52:29Z</time>
      </trkpt>
      <trkpt lat="48.08088" lon="7.12227">
        <ele>947</ele>
        <time>2014-09-03T13:52:34Z</time>
      </trkpt>
      <trkpt lat="48.08075" lon="7.12243">
        <ele>947</ele>
        <time>2014-09-03T13:52:39Z</time>
      </trkpt>
      <trkpt lat="48.08064" lon="7.12259">
        <ele>947</ele>
        <time>2014-09-03T13:52:44Z</time>
      </trkpt>
      <trkpt lat="48.08054" lon="7.12273">
        <ele>948</ele>
        <time>2014-09-03T13:52:48Z</time>
      </trkpt>
      <trkpt lat="48.08042" lon="7.12295">
        <ele>948</ele>
        <time>2014-09-03T13:52:52Z</time>
      </trkpt>
      <trkpt lat="48.08037" lon="7.12312">
        <ele>949</ele>
        <time>2014-09-03T13:52:56Z</time>
      </trkpt>
      <trkpt lat="48.08034" lon="7.12342">
        <ele>946</ele>
        <time>2014-09-03T13:53:01Z</time>
      </trkpt>
      <trkpt lat="48.08036" lon="7.12367">
        <ele>945</ele>
        <time>2014-09-03T13:53:03Z</time>
      </trkpt>
      <trkpt lat="48.08039" lon="7.12389">
        <ele>944</ele>
        <time>2014-09-03T13:53:07Z</time>
      </trkpt>
      <trkpt lat="48.08041" lon="7.12415">
        <ele>943</ele>
        <time>2014-09-03T13:53:11Z</time>
      </trkpt>
      <trkpt lat="48.08044" lon="7.12441">
        <ele>942</ele>
        <time>2014-09-03T13:53:15Z</time>
      </trkpt>
      <trkpt lat="48.08049" lon="7.1247">
        <ele>941</ele>
        <time>2014-09-03T13:53:19Z</time>
      </trkpt>
      <trkpt lat="48.08046" lon="7.12505">
        <ele>940</ele>
        <time>2014-09-03T13:53:23Z</time>
      </trkpt>
      <trkpt lat="48.08026" lon="7.1254">
        <ele>937</ele>
        <time>2014-09-03T13:53:27Z</time>
      </trkpt>
      <trkpt lat="48.08012" lon="7.12562">
        <ele>938</ele>
        <time>2014-09-03T13:53:32Z</time>
      </trkpt>
      <trkpt lat="48.08006" lon="7.12576">
        <ele>939</ele>
        <time>2014-09-03T13:53:36Z</time>
      </trkpt>
      <trkpt lat="48.08" lon="7.12585">
        <ele>940</ele>
        <time>2014-09-03T13:53:42Z</time>
      </trkpt>
      <trkpt lat="48.0799" lon="7.12591">
        <ele>943</ele>
        <time>2014-09-03T13:53:46Z</time>
      </trkpt>
      <trkpt lat="48.07981" lon="7.12593">
        <ele>946</ele>
        <time>2014-09-03T13:53:51Z</time>
      </trkpt>
      <trkpt lat="48.07975" lon="7.126">
        <ele>946</ele>
        <time>2014-09-03T13:53:54Z</time>
      </trkpt>
      <trkpt lat="48.0797" lon="7.12609">
        <ele>947</ele>
        <time>2014-09-03T13:54:01Z</time>
      </trkpt>
      <trkpt lat="48.07963" lon="7.12613">
        <ele>948</ele>
        <time>2014-09-03T13:54:06Z</time>
      </trkpt>
      <trkpt lat="48.07956" lon="7.12622">
        <ele>950</ele>
        <time>2014-09-03T13:54:12Z</time>
      </trkpt>
      <trkpt lat="48.0795" lon="7.12628">
        <ele>950</ele>
        <time>2014-09-03T13:54:16Z</time>
      </trkpt>
      <trkpt lat="48.07941" lon="7.12628">
        <ele>953</ele>
        <time>2014-09-03T13:54:21Z</time>
      </trkpt>
      <trkpt lat="48.07933" lon="7.12624">
        <ele>954</ele>
        <time>2014-09-03T13:54:25Z</time>
      </trkpt>
      <trkpt lat="48.07924" lon="7.12625">
        <ele>956</ele>
        <time>2014-09-03T13:54:29Z</time>
      </trkpt>
      <trkpt lat="48.07915" lon="7.12628">
        <ele>957</ele>
        <time>2014-09-03T13:54:35Z</time>
      </trkpt>
      <trkpt lat="48.0791" lon="7.12631">
        <ele>957</ele>
        <time>2014-09-03T13:54:38Z</time>
      </trkpt>
      <trkpt lat="48.07902" lon="7.12634">
        <ele>958</ele>
        <time>2014-09-03T13:54:42Z</time>
      </trkpt>
      <trkpt lat="48.07896" lon="7.12636">
        <ele>959</ele>
        <time>2014-09-03T13:54:46Z</time>
      </trkpt>
      <trkpt lat="48.0789" lon="7.12646">
        <ele>959</ele>
        <time>2014-09-03T13:54:52Z</time>
      </trkpt>
      <trkpt lat="48.07885" lon="7.12657">
        <ele>958</ele>
        <time>2014-09-03T13:55:00Z</time>
      </trkpt>
      <trkpt lat="48.0788" lon="7.12671">
        <ele>958</ele>
        <time>2014-09-03T13:55:04Z</time>
      </trkpt>
      <trkpt lat="48.07875" lon="7.1269">
        <ele>957</ele>
        <time>2014-09-03T13:55:08Z</time>
      </trkpt>
      <trkpt lat="48.07866" lon="7.12713">
        <ele>958</ele>
        <time>2014-09-03T13:55:13Z</time>
      </trkpt>
      <trkpt lat="48.07856" lon="7.12741">
        <ele>955</ele>
        <time>2014-09-03T13:55:17Z</time>
      </trkpt>
      <trkpt lat="48.07854" lon="7.12775">
        <ele>950</ele>
        <time>2014-09-03T13:55:21Z</time>
      </trkpt>
      <trkpt lat="48.07854" lon="7.12802">
        <ele>948</ele>
        <time>2014-09-03T13:55:26Z</time>
      </trkpt>
      <trkpt lat="48.07852" lon="7.12813">
        <ele>946</ele>
        <time>2014-09-03T13:55:51Z</time>
      </trkpt>
      <trkpt lat="48.07838" lon="7.1282">
        <ele>944</ele>
        <time>2014-09-03T13:55:56Z</time>
      </trkpt>
      <trkpt lat="48.0783" lon="7.12823">
        <ele>943</ele>
        <time>2014-09-03T13:56:01Z</time>
      </trkpt>
      <trkpt lat="48.07818" lon="7.1282">
        <ele>941</ele>
        <time>2014-09-03T13:56:06Z</time>
      </trkpt>
      <trkpt lat="48.0781" lon="7.12813">
        <ele>940</ele>
        <time>2014-09-03T13:56:09Z</time>
      </trkpt>
      <trkpt lat="48.07809" lon="7.12824">
        <ele>943</ele>
        <time>2014-09-03T13:57:30Z</time>
      </trkpt>
      <trkpt lat="48.07804" lon="7.12834">
        <ele>941</ele>
        <time>2014-09-03T13:57:35Z</time>
      </trkpt>
      <trkpt lat="48.07795" lon="7.1284">
        <ele>940</ele>
        <time>2014-09-03T13:57:40Z</time>
      </trkpt>
      <trkpt lat="48.07779" lon="7.12843">
        <ele>939</ele>
        <time>2014-09-03T13:57:44Z</time>
      </trkpt>
      <trkpt lat="48.07772" lon="7.12855">
        <ele>938</ele>
        <time>2014-09-03T13:57:48Z</time>
      </trkpt>
      <trkpt lat="48.07764" lon="7.12861">
        <ele>936</ele>
        <time>2014-09-03T13:57:51Z</time>
      </trkpt>
      <trkpt lat="48.07757" lon="7.12859">
        <ele>934</ele>
        <time>2014-09-03T13:57:54Z</time>
      </trkpt>
      <trkpt lat="48.0775" lon="7.12858">
        <ele>932</ele>
        <time>2014-09-03T13:58:00Z</time>
      </trkpt>
      <trkpt lat="48.07734" lon="7.12855">
        <ele>931</ele>
        <time>2014-09-03T13:58:05Z</time>
      </trkpt>
      <trkpt lat="48.07724" lon="7.12851">
        <ele>930</ele>
        <time>2014-09-03T13:58:08Z</time>
      </trkpt>
      <trkpt lat="48.07711" lon="7.12839">
        <ele>927</ele>
        <time>2014-09-03T13:58:13Z</time>
      </trkpt>
      <trkpt lat="48.07682" lon="7.12826">
        <ele>924</ele>
        <time>2014-09-03T13:58:16Z</time>
      </trkpt>
      <trkpt lat="48.0767" lon="7.1282">
        <ele>921</ele>
        <time>2014-09-03T13:58:21Z</time>
      </trkpt>
      <trkpt lat="48.07657" lon="7.12819">
        <ele>920</ele>
        <time>2014-09-03T13:58:25Z</time>
      </trkpt>
      <trkpt lat="48.07643" lon="7.12814">
        <ele>916</ele>
        <time>2014-09-03T13:58:29Z</time>
      </trkpt>
      <trkpt lat="48.07621" lon="7.12809">
        <ele>913</ele>
        <time>2014-09-03T13:58:32Z</time>
      </trkpt>
      <trkpt lat="48.07592" lon="7.12787">
        <ele>909</ele>
        <time>2014-09-03T13:58:36Z</time>
      </trkpt>
      <trkpt lat="48.07558" lon="7.12768">
        <ele>902</ele>
        <time>2014-09-03T13:58:41Z</time>
      </trkpt>
      <trkpt lat="48.07531" lon="7.12766">
        <ele>898</ele>
        <time>2014-09-03T13:58:45Z</time>
      </trkpt>
      <trkpt lat="48.07488" lon="7.1275">
        <ele>896</ele>
        <time>2014-09-03T13:58:50Z</time>
      </trkpt>
      <trkpt lat="48.07459" lon="7.12741">
        <ele>894</ele>
        <time>2014-09-03T13:58:54Z</time>
      </trkpt>
      <trkpt lat="48.07443" lon="7.12738">
        <ele>894</ele>
        <time>2014-09-03T13:58:57Z</time>
      </trkpt>
      <trkpt lat="48.07421" lon="7.12731">
        <ele>895</ele>
        <time>2014-09-03T13:59:01Z</time>
      </trkpt>
      <trkpt lat="48.07396" lon="7.12735">
        <ele>893</ele>
        <time>2014-09-03T13:59:05Z</time>
      </trkpt>
      <trkpt lat="48.07364" lon="7.12746">
        <ele>888</ele>
        <time>2014-09-03T13:59:09Z</time>
      </trkpt>
      <trkpt lat="48.07325" lon="7.12752">
        <ele>883</ele>
        <time>2014-09-03T13:59:13Z</time>
      </trkpt>
      <trkpt lat="48.07281" lon="7.12756">
        <ele>872</ele>
        <time>2014-09-03T13:59:18Z</time>
      </trkpt>
      <trkpt lat="48.07255" lon="7.12756">
        <ele>868</ele>
        <time>2014-09-03T13:59:22Z</time>
      </trkpt>
      <trkpt lat="48.07224" lon="7.12748">
        <ele>867</ele>
        <time>2014-09-03T13:59:26Z</time>
      </trkpt>
      <trkpt lat="48.07181" lon="7.12735">
        <ele>863</ele>
        <time>2014-09-03T13:59:31Z</time>
      </trkpt>
      <trkpt lat="48.07149" lon="7.12723">
        <ele>862</ele>
        <time>2014-09-03T13:59:35Z</time>
      </trkpt>
      <trkpt lat="48.07108" lon="7.12717">
        <ele>857</ele>
        <time>2014-09-03T13:59:39Z</time>
      </trkpt>
      <trkpt lat="48.07083" lon="7.12703">
        <ele>855</ele>
        <time>2014-09-03T13:59:44Z</time>
      </trkpt>
      <trkpt lat="48.07077" lon="7.12696">
        <ele>852</ele>
        <time>2014-09-03T14:00:48Z</time>
      </trkpt>
      <trkpt lat="48.0707" lon="7.12695">
        <ele>851</ele>
        <time>2014-09-03T14:00:53Z</time>
      </trkpt>
      <trkpt lat="48.07057" lon="7.12693">
        <ele>848</ele>
        <time>2014-09-03T14:00:57Z</time>
      </trkpt>
      <trkpt lat="48.07042" lon="7.12691">
        <ele>848</ele>
        <time>2014-09-03T14:01:00Z</time>
      </trkpt>
      <trkpt lat="48.07029" lon="7.1269">
        <ele>846</ele>
        <time>2014-09-03T14:01:04Z</time>
      </trkpt>
      <trkpt lat="48.07005" lon="7.12684">
        <ele>846</ele>
        <time>2014-09-03T14:01:09Z</time>
      </trkpt>
      <trkpt lat="48.06985" lon="7.12678">
        <ele>841</ele>
        <time>2014-09-03T14:01:13Z</time>
      </trkpt>
      <trkpt lat="48.06959" lon="7.1265">
        <ele>842</ele>
        <time>2014-09-03T14:01:18Z</time>
      </trkpt>
      <trkpt lat="48.06934" lon="7.1262">
        <ele>841</ele>
        <time>2014-09-03T14:01:23Z</time>
      </trkpt>
      <trkpt lat="48.06911" lon="7.12593">
        <ele>841</ele>
        <time>2014-09-03T14:01:27Z</time>
      </trkpt>
      <trkpt lat="48.06891" lon="7.12569">
        <ele>841</ele>
        <time>2014-09-03T14:01:32Z</time>
      </trkpt>
      <trkpt lat="48.06868" lon="7.12551">
        <ele>839</ele>
        <time>2014-09-03T14:01:35Z</time>
      </trkpt>
      <trkpt lat="48.06853" lon="7.12539">
        <ele>838</ele>
        <time>2014-09-03T14:01:39Z</time>
      </trkpt>
      <trkpt lat="48.06831" lon="7.12537">
        <ele>837</ele>
        <time>2014-09-03T14:01:42Z</time>
      </trkpt>
      <trkpt lat="48.06821" lon="7.12556">
        <ele>837</ele>
        <time>2014-09-03T14:01:46Z</time>
      </trkpt>
      <trkpt lat="48.06811" lon="7.12575">
        <ele>836</ele>
        <time>2014-09-03T14:01:49Z</time>
      </trkpt>
      <trkpt lat="48.06788" lon="7.1259">
        <ele>831</ele>
        <time>2014-09-03T14:01:53Z</time>
      </trkpt>
      <trkpt lat="48.06767" lon="7.12604">
        <ele>828</ele>
        <time>2014-09-03T14:01:57Z</time>
      </trkpt>
      <trkpt lat="48.0674" lon="7.12611">
        <ele>823</ele>
        <time>2014-09-03T14:02:01Z</time>
      </trkpt>
      <trkpt lat="48.06729" lon="7.12616">
        <ele>822</ele>
        <time>2014-09-03T14:02:05Z</time>
      </trkpt>
      <trkpt lat="48.06726" lon="7.12627">
        <ele>823</ele>
        <time>2014-09-03T14:02:11Z</time>
      </trkpt>
      <trkpt lat="48.0673" lon="7.12643">
        <ele>823</ele>
        <time>2014-09-03T14:02:16Z</time>
      </trkpt>
      <trkpt lat="48.06734" lon="7.12658">
        <ele>823</ele>
        <time>2014-09-03T14:02:20Z</time>
      </trkpt>
      <trkpt lat="48.06737" lon="7.12666">
        <ele>822</ele>
        <time>2014-09-03T14:02:24Z</time>
      </trkpt>
      <trkpt lat="48.06739" lon="7.12675">
        <ele>822</ele>
        <time>2014-09-03T14:02:27Z</time>
      </trkpt>
      <trkpt lat="48.06741" lon="7.12686">
        <ele>821</ele>
        <time>2014-09-03T14:02:31Z</time>
      </trkpt>
      <trkpt lat="48.06743" lon="7.127">
        <ele>822</ele>
        <time>2014-09-03T14:02:36Z</time>
      </trkpt>
      <trkpt lat="48.06743" lon="7.12714">
        <ele>822</ele>
        <time>2014-09-03T14:02:41Z</time>
      </trkpt>
      <trkpt lat="48.06742" lon="7.12726">
        <ele>822</ele>
        <time>2014-09-03T14:02:46Z</time>
      </trkpt>
      <trkpt lat="48.06741" lon="7.12734">
        <ele>824</ele>
        <time>2014-09-03T14:02:53Z</time>
      </trkpt>
      <trkpt lat="48.06736" lon="7.12745">
        <ele>824</ele>
        <time>2014-09-03T14:05:17Z</time>
      </trkpt>
      <trkpt lat="48.06735" lon="7.12755">
        <ele>824</ele>
        <time>2014-09-03T14:05:21Z</time>
      </trkpt>
      <trkpt lat="48.06735" lon="7.1277">
        <ele>825</ele>
        <time>2014-09-03T14:05:26Z</time>
      </trkpt>
      <trkpt lat="48.06733" lon="7.12778">
        <ele>825</ele>
        <time>2014-09-03T14:05:30Z</time>
      </trkpt>
      <trkpt lat="48.06728" lon="7.12799">
        <ele>826</ele>
        <time>2014-09-03T14:05:34Z</time>
      </trkpt>
      <trkpt lat="48.06726" lon="7.12809">
        <ele>825</ele>
        <time>2014-09-03T14:05:38Z</time>
      </trkpt>
      <trkpt lat="48.06722" lon="7.12822">
        <ele>828</ele>
        <time>2014-09-03T14:05:42Z</time>
      </trkpt>
      <trkpt lat="48.06718" lon="7.12833">
        <ele>827</ele>
        <time>2014-09-03T14:05:47Z</time>
      </trkpt>
      <trkpt lat="48.06712" lon="7.12845">
        <ele>827</ele>
        <time>2014-09-03T14:05:51Z</time>
      </trkpt>
      <trkpt lat="48.06699" lon="7.12872">
        <ele>825</ele>
        <time>2014-09-03T14:05:56Z</time>
      </trkpt>
      <trkpt lat="48.06682" lon="7.12904">
        <ele>824</ele>
        <time>2014-09-03T14:06:01Z</time>
      </trkpt>
      <trkpt lat="48.06674" lon="7.12922">
        <ele>824</ele>
        <time>2014-09-03T14:06:04Z</time>
      </trkpt>
      <trkpt lat="48.06666" lon="7.12947">
        <ele>823</ele>
        <time>2014-09-03T14:06:09Z</time>
      </trkpt>
      <trkpt lat="48.06657" lon="7.12973">
        <ele>820</ele>
        <time>2014-09-03T14:06:14Z</time>
      </trkpt>
      <trkpt lat="48.06654" lon="7.12992">
        <ele>820</ele>
        <time>2014-09-03T14:06:18Z</time>
      </trkpt>
      <trkpt lat="48.06653" lon="7.13013">
        <ele>818</ele>
        <time>2014-09-03T14:06:23Z</time>
      </trkpt>
      <trkpt lat="48.0665" lon="7.1304">
        <ele>818</ele>
        <time>2014-09-03T14:06:28Z</time>
      </trkpt>
      <trkpt lat="48.06649" lon="7.13058">
        <ele>817</ele>
        <time>2014-09-03T14:06:31Z</time>
      </trkpt>
      <trkpt lat="48.06649" lon="7.13086">
        <ele>818</ele>
        <time>2014-09-03T14:06:35Z</time>
      </trkpt>
      <trkpt lat="48.06651" lon="7.13106">
        <ele>818</ele>
        <time>2014-09-03T14:06:38Z</time>
      </trkpt>
      <trkpt lat="48.06649" lon="7.13144">
        <ele>816</ele>
        <time>2014-09-03T14:06:43Z</time>
      </trkpt>
      <trkpt lat="48.06644" lon="7.13169">
        <ele>814</ele>
        <time>2014-09-03T14:06:48Z</time>
      </trkpt>
      <trkpt lat="48.06639" lon="7.13189">
        <ele>810</ele>
        <time>2014-09-03T14:06:52Z</time>
      </trkpt>
      <trkpt lat="48.06634" lon="7.13205">
        <ele>813</ele>
        <time>2014-09-03T14:06:56Z</time>
      </trkpt>
      <trkpt lat="48.0663" lon="7.13223">
        <ele>813</ele>
        <time>2014-09-03T14:07:00Z</time>
      </trkpt>
      <trkpt lat="48.06627" lon="7.13245">
        <ele>811</ele>
        <time>2014-09-03T14:07:04Z</time>
      </trkpt>
      <trkpt lat="48.06627" lon="7.13261">
        <ele>810</ele>
        <time>2014-09-03T14:07:07Z</time>
      </trkpt>
      <trkpt lat="48.06628" lon="7.13277">
        <ele>810</ele>
        <time>2014-09-03T14:07:10Z</time>
      </trkpt>
      <trkpt lat="48.06631" lon="7.133">
        <ele>813</ele>
        <time>2014-09-03T14:07:15Z</time>
      </trkpt>
      <trkpt lat="48.06631" lon="7.13322">
        <ele>815</ele>
        <time>2014-09-03T14:07:20Z</time>
      </trkpt>
      <trkpt lat="48.06635" lon="7.13345">
        <ele>813</ele>
        <time>2014-09-03T14:07:24Z</time>
      </trkpt>
      <trkpt lat="48.06638" lon="7.13358">
        <ele>814</ele>
        <time>2014-09-03T14:07:28Z</time>
      </trkpt>
      <trkpt lat="48.06642" lon="7.13368">
        <ele>817</ele>
        <time>2014-09-03T14:07:33Z</time>
      </trkpt>
      <trkpt lat="48.06648" lon="7.13377">
        <ele>822</ele>
        <time>2014-09-03T14:07:38Z</time>
      </trkpt>
      <trkpt lat="48.06656" lon="7.13383">
        <ele>819</ele>
        <time>2014-09-03T14:07:45Z</time>
      </trkpt>
      <trkpt lat="48.06662" lon="7.13391">
        <ele>825</ele>
        <time>2014-09-03T14:07:51Z</time>
      </trkpt>
      <trkpt lat="48.06667" lon="7.13398">
        <ele>824</ele>
        <time>2014-09-03T14:07:56Z</time>
      </trkpt>
      <trkpt lat="48.06674" lon="7.13407">
        <ele>823</ele>
        <time>2014-09-03T14:08:00Z</time>
      </trkpt>
      <trkpt lat="48.06678" lon="7.13417">
        <ele>823</ele>
        <time>2014-09-03T14:08:05Z</time>
      </trkpt>
      <trkpt lat="48.06686" lon="7.13423">
        <ele>825</ele>
        <time>2014-09-03T14:08:09Z</time>
      </trkpt>
      <trkpt lat="48.06698" lon="7.1343">
        <ele>830</ele>
        <time>2014-09-03T14:08:14Z</time>
      </trkpt>
      <trkpt lat="48.06705" lon="7.13435">
        <ele>834</ele>
        <time>2014-09-03T14:08:31Z</time>
      </trkpt>
      <trkpt lat="48.06711" lon="7.13443">
        <ele>839</ele>
        <time>2014-09-03T14:09:31Z</time>
      </trkpt>
      <trkpt lat="48.06718" lon="7.13449">
        <ele>836</ele>
        <time>2014-09-03T14:09:34Z</time>
      </trkpt>
      <trkpt lat="48.06714" lon="7.13484">
        <ele>830</ele>
        <time>2014-09-03T14:09:39Z</time>
      </trkpt>
      <trkpt lat="48.06694" lon="7.13532">
        <ele>829</ele>
        <time>2014-09-03T14:09:43Z</time>
      </trkpt>
      <trkpt lat="48.06666" lon="7.13541">
        <ele>827</ele>
        <time>2014-09-03T14:09:48Z</time>
      </trkpt>
      <trkpt lat="48.06631" lon="7.13563">
        <ele>822</ele>
        <time>2014-09-03T14:09:52Z</time>
      </trkpt>
      <trkpt lat="48.06615" lon="7.13599">
        <ele>821</ele>
        <time>2014-09-03T14:09:56Z</time>
      </trkpt>
      <trkpt lat="48.06604" lon="7.13633">
        <ele>817</ele>
        <time>2014-09-03T14:10:00Z</time>
      </trkpt>
      <trkpt lat="48.06595" lon="7.13665">
        <ele>815</ele>
        <time>2014-09-03T14:10:04Z</time>
      </trkpt>
      <trkpt lat="48.06598" lon="7.13702">
        <ele>810</ele>
        <time>2014-09-03T14:10:09Z</time>
      </trkpt>
      <trkpt lat="48.06621" lon="7.13784">
        <ele>803</ele>
        <time>2014-09-03T14:10:17Z</time>
      </trkpt>
      <trkpt lat="48.06618" lon="7.13793">
        <ele>803</ele>
        <time>2014-09-03T14:10:24Z</time>
      </trkpt>
      <trkpt lat="48.06599" lon="7.13777">
        <ele>797</ele>
        <time>2014-09-03T14:10:28Z</time>
      </trkpt>
      <trkpt lat="48.06578" lon="7.13763">
        <ele>793</ele>
        <time>2014-09-03T14:10:31Z</time>
      </trkpt>
      <trkpt lat="48.06538" lon="7.13758">
        <ele>786</ele>
        <time>2014-09-03T14:10:36Z</time>
      </trkpt>
      <trkpt lat="48.06506" lon="7.13762">
        <ele>784</ele>
        <time>2014-09-03T14:10:40Z</time>
      </trkpt>
      <trkpt lat="48.06474" lon="7.13764">
        <ele>776</ele>
        <time>2014-09-03T14:10:44Z</time>
      </trkpt>
      <trkpt lat="48.06437" lon="7.1377">
        <ele>767</ele>
        <time>2014-09-03T14:10:49Z</time>
      </trkpt>
      <trkpt lat="48.06414" lon="7.13781">
        <ele>762</ele>
        <time>2014-09-03T14:10:52Z</time>
      </trkpt>
      <trkpt lat="48.06393" lon="7.13802">
        <ele>761</ele>
        <time>2014-09-03T14:10:57Z</time>
      </trkpt>
      <trkpt lat="48.06366" lon="7.13814">
        <ele>762</ele>
        <time>2014-09-03T14:11:02Z</time>
      </trkpt>
      <trkpt lat="48.06347" lon="7.13827">
        <ele>762</ele>
        <time>2014-09-03T14:11:06Z</time>
      </trkpt>
      <trkpt lat="48.06332" lon="7.13835">
        <ele>761</ele>
        <time>2014-09-03T14:11:09Z</time>
      </trkpt>
      <trkpt lat="48.06317" lon="7.13845">
        <ele>759</ele>
        <time>2014-09-03T14:11:13Z</time>
      </trkpt>
      <trkpt lat="48.06302" lon="7.13855">
        <ele>759</ele>
        <time>2014-09-03T14:11:18Z</time>
      </trkpt>
      <trkpt lat="48.0629" lon="7.13867">
        <ele>758</ele>
        <time>2014-09-03T14:11:22Z</time>
      </trkpt>
      <trkpt lat="48.06272" lon="7.1389">
        <ele>756</ele>
        <time>2014-09-03T14:11:27Z</time>
      </trkpt>
      <trkpt lat="48.06268" lon="7.13894">
        <ele>756</ele>
        <time>2014-09-03T14:11:28Z</time>
      </trkpt>
      <trkpt lat="48.06251" lon="7.13914">
        <ele>757</ele>
        <time>2014-09-03T14:11:32Z</time>
      </trkpt>
      <trkpt lat="48.06241" lon="7.13925">
        <ele>757</ele>
        <time>2014-09-03T14:11:37Z</time>
      </trkpt>
      <trkpt lat="48.06225" lon="7.13949">
        <ele>755</ele>
        <time>2014-09-03T14:11:42Z</time>
      </trkpt>
      <trkpt lat="48.06208" lon="7.13983">
        <ele>754</ele>
        <time>2014-09-03T14:11:46Z</time>
      </trkpt>
      <trkpt lat="48.06203" lon="7.14022">
        <ele>753</ele>
        <time>2014-09-03T14:11:51Z</time>
      </trkpt>
      <trkpt lat="48.06209" lon="7.14044">
        <ele>752</ele>
        <time>2014-09-03T14:11:55Z</time>
      </trkpt>
      <trkpt lat="48.06223" lon="7.14083">
        <ele>751</ele>
        <time>2014-09-03T14:12:00Z</time>
      </trkpt>
      <trkpt lat="48.06237" lon="7.14126">
        <ele>750</ele>
        <time>2014-09-03T14:12:05Z</time>
      </trkpt>
      <trkpt lat="48.06246" lon="7.14151">
        <ele>750</ele>
        <time>2014-09-03T14:12:08Z</time>
      </trkpt>
      <trkpt lat="48.06244" lon="7.14184">
        <ele>749</ele>
        <time>2014-09-03T14:12:12Z</time>
      </trkpt>
      <trkpt lat="48.06233" lon="7.1422">
        <ele>748</ele>
        <time>2014-09-03T14:12:16Z</time>
      </trkpt>
      <trkpt lat="48.06226" lon="7.14241">
        <ele>747</ele>
        <time>2014-09-03T14:12:20Z</time>
      </trkpt>
      <trkpt lat="48.06221" lon="7.14278">
        <ele>746</ele>
        <time>2014-09-03T14:12:24Z</time>
      </trkpt>
      <trkpt lat="48.06213" lon="7.14305">
        <ele>745</ele>
        <time>2014-09-03T14:12:27Z</time>
      </trkpt>
      <trkpt lat="48.06208" lon="7.14347">
        <ele>740</ele>
        <time>2014-09-03T14:12:30Z</time>
      </trkpt>
      <trkpt lat="48.06204" lon="7.14368">
        <ele>738</ele>
        <time>2014-09-03T14:12:34Z</time>
      </trkpt>
      <trkpt lat="48.06194" lon="7.14395">
        <ele>738</ele>
        <time>2014-09-03T14:12:39Z</time>
      </trkpt>
      <trkpt lat="48.06186" lon="7.14399">
        <ele>739</ele>
        <time>2014-09-03T14:12:43Z</time>
      </trkpt>
      <trkpt lat="48.06173" lon="7.14399">
        <ele>741</ele>
        <time>2014-09-03T14:12:48Z</time>
      </trkpt>
      <trkpt lat="48.0616" lon="7.144">
        <ele>745</ele>
        <time>2014-09-03T14:12:53Z</time>
      </trkpt>
      <trkpt lat="48.06152" lon="7.14403">
        <ele>747</ele>
        <time>2014-09-03T14:12:55Z</time>
      </trkpt>
      <trkpt lat="48.06146" lon="7.14408">
        <ele>750</ele>
        <time>2014-09-03T14:12:59Z</time>
      </trkpt>
      <trkpt lat="48.06136" lon="7.14412">
        <ele>754</ele>
        <time>2014-09-03T14:13:04Z</time>
      </trkpt>
      <trkpt lat="48.06125" lon="7.14413">
        <ele>754</ele>
        <time>2014-09-03T14:13:08Z</time>
      </trkpt>
      <trkpt lat="48.06109" lon="7.1441">
        <ele>753</ele>
        <time>2014-09-03T14:13:13Z</time>
      </trkpt>
      <trkpt lat="48.06095" lon="7.14408">
        <ele>750</ele>
        <time>2014-09-03T14:13:17Z</time>
      </trkpt>
      <trkpt lat="48.06083" lon="7.14404">
        <ele>748</ele>
        <time>2014-09-03T14:13:19Z</time>
      </trkpt>
      <trkpt lat="48.06053" lon="7.14397">
        <ele>745</ele>
        <time>2014-09-03T14:13:24Z</time>
      </trkpt>
      <trkpt lat="48.06021" lon="7.14388">
        <ele>743</ele>
        <time>2014-09-03T14:13:28Z</time>
      </trkpt>
      <trkpt lat="48.05983" lon="7.14376">
        <ele>742</ele>
        <time>2014-09-03T14:13:32Z</time>
      </trkpt>
      <trkpt lat="48.05956" lon="7.14375">
        <ele>740</ele>
        <time>2014-09-03T14:13:37Z</time>
      </trkpt>
      <trkpt lat="48.05931" lon="7.14381">
        <ele>737</ele>
        <time>2014-09-03T14:13:40Z</time>
      </trkpt>
      <trkpt lat="48.05898" lon="7.14392">
        <ele>733</ele>
        <time>2014-09-03T14:13:44Z</time>
      </trkpt>
      <trkpt lat="48.05848" lon="7.14399">
        <ele>727</ele>
        <time>2014-09-03T14:13:49Z</time>
      </trkpt>
      <trkpt lat="48.05821" lon="7.14397">
        <ele>724</ele>
        <time>2014-09-03T14:13:53Z</time>
      </trkpt>
      <trkpt lat="48.05796" lon="7.14416">
        <ele>720</ele>
        <time>2014-09-03T14:13:56Z</time>
      </trkpt>
      <trkpt lat="48.05767" lon="7.14444">
        <ele>718</ele>
        <time>2014-09-03T14:14:00Z</time>
      </trkpt>
      <trkpt lat="48.0573" lon="7.14483">
        <ele>713</ele>
        <time>2014-09-03T14:14:04Z</time>
      </trkpt>
      <trkpt lat="48.05713" lon="7.14506">
        <ele>712</ele>
        <time>2014-09-03T14:14:08Z</time>
      </trkpt>
      <trkpt lat="48.05704" lon="7.1455">
        <ele>712</ele>
        <time>2014-09-03T14:14:12Z</time>
      </trkpt>
      <trkpt lat="48.05686" lon="7.14595">
        <ele>713</ele>
        <time>2014-09-03T14:14:16Z</time>
      </trkpt>
      <trkpt lat="48.05682" lon="7.14635">
        <ele>710</ele>
        <time>2014-09-03T14:14:21Z</time>
      </trkpt>
      <trkpt lat="48.05684" lon="7.14682">
        <ele>706</ele>
        <time>2014-09-03T14:14:25Z</time>
      </trkpt>
      <trkpt lat="48.05691" lon="7.14701">
        <ele>706</ele>
        <time>2014-09-03T14:14:27Z</time>
      </trkpt>
      <trkpt lat="48.057" lon="7.14752">
        <ele>703</ele>
        <time>2014-09-03T14:14:31Z</time>
      </trkpt>
      <trkpt lat="48.05705" lon="7.14773">
        <ele>706</ele>
        <time>2014-09-03T14:14:35Z</time>
      </trkpt>
      <trkpt lat="48.05715" lon="7.148">
        <ele>702</ele>
        <time>2014-09-03T14:14:38Z</time>
      </trkpt>
      <trkpt lat="48.05728" lon="7.1484">
        <ele>704</ele>
        <time>2014-09-03T14:14:43Z</time>
      </trkpt>
      <trkpt lat="48.05738" lon="7.14882">
        <ele>701</ele>
        <time>2014-09-03T14:14:46Z</time>
      </trkpt>
      <trkpt lat="48.05744" lon="7.14923">
        <ele>701</ele>
        <time>2014-09-03T14:14:51Z</time>
      </trkpt>
      <trkpt lat="48.05747" lon="7.14943">
        <ele>700</ele>
        <time>2014-09-03T14:14:53Z</time>
      </trkpt>
      <trkpt lat="48.05763" lon="7.14994">
        <ele>699</ele>
        <time>2014-09-03T14:14:57Z</time>
      </trkpt>
      <trkpt lat="48.05771" lon="7.15026">
        <ele>696</ele>
        <time>2014-09-03T14:15:01Z</time>
      </trkpt>
      <trkpt lat="48.05784" lon="7.15072">
        <ele>696</ele>
        <time>2014-09-03T14:15:05Z</time>
      </trkpt>
      <trkpt lat="48.05804" lon="7.15109">
        <ele>693</ele>
        <time>2014-09-03T14:15:09Z</time>
      </trkpt>
      <trkpt lat="48.05806" lon="7.15147">
        <ele>690</ele>
        <time>2014-09-03T14:15:13Z</time>
      </trkpt>
      <trkpt lat="48.0579" lon="7.15168">
        <ele>691</ele>
        <time>2014-09-03T14:15:18Z</time>
      </trkpt>
      <trkpt lat="48.05765" lon="7.15203">
        <ele>686</ele>
        <time>2014-09-03T14:15:23Z</time>
      </trkpt>
      <trkpt lat="48.05742" lon="7.15245">
        <ele>682</ele>
        <time>2014-09-03T14:15:28Z</time>
      </trkpt>
      <trkpt lat="48.05734" lon="7.15266">
        <ele>681</ele>
        <time>2014-09-03T14:15:31Z</time>
      </trkpt>
      <trkpt lat="48.05728" lon="7.15314">
        <ele>675</ele>
        <time>2014-09-03T14:15:35Z</time>
      </trkpt>
      <trkpt lat="48.05721" lon="7.15356">
        <ele>670</ele>
        <time>2014-09-03T14:15:39Z</time>
      </trkpt>
      <trkpt lat="48.05718" lon="7.15397">
        <ele>663</ele>
        <time>2014-09-03T14:15:43Z</time>
      </trkpt>
      <trkpt lat="48.05714" lon="7.15436">
        <ele>655</ele>
        <time>2014-09-03T14:15:48Z</time>
      </trkpt>
      <trkpt lat="48.05708" lon="7.15444">
        <ele>656</ele>
        <time>2014-09-03T14:15:53Z</time>
      </trkpt>
      <trkpt lat="48.05702" lon="7.15434">
        <ele>658</ele>
        <time>2014-09-03T14:15:57Z</time>
      </trkpt>
      <trkpt lat="48.05675" lon="7.15393">
        <ele>652</ele>
        <time>2014-09-03T14:16:05Z</time>
      </trkpt>
      <trkpt lat="48.05665" lon="7.1538">
        <ele>649</ele>
        <time>2014-09-03T14:16:10Z</time>
      </trkpt>
      <trkpt lat="48.05655" lon="7.15365">
        <ele>648</ele>
        <time>2014-09-03T14:16:13Z</time>
      </trkpt>
      <trkpt lat="48.05648" lon="7.15348">
        <ele>645</ele>
        <time>2014-09-03T14:16:17Z</time>
      </trkpt>
      <trkpt lat="48.05639" lon="7.15329">
        <ele>644</ele>
        <time>2014-09-03T14:16:19Z</time>
      </trkpt>
      <trkpt lat="48.05625" lon="7.15318">
        <ele>644</ele>
        <time>2014-09-03T14:16:24Z</time>
      </trkpt>
      <trkpt lat="48.05618" lon="7.15334">
        <ele>637</ele>
        <time>2014-09-03T14:16:27Z</time>
      </trkpt>
      <trkpt lat="48.0562" lon="7.15354">
        <ele>638</ele>
        <time>2014-09-03T14:16:32Z</time>
      </trkpt>
      <trkpt lat="48.05618" lon="7.1538">
        <ele>633</ele>
        <time>2014-09-03T14:16:36Z</time>
      </trkpt>
      <trkpt lat="48.05612" lon="7.15408">
        <ele>633</ele>
        <time>2014-09-03T14:16:40Z</time>
      </trkpt>
      <trkpt lat="48.05604" lon="7.15433">
        <ele>630</ele>
        <time>2014-09-03T14:16:44Z</time>
      </trkpt>
      <trkpt lat="48.05593" lon="7.15451">
        <ele>626</ele>
        <time>2014-09-03T14:16:49Z</time>
      </trkpt>
      <trkpt lat="48.05572" lon="7.15462">
        <ele>621</ele>
        <time>2014-09-03T14:16:54Z</time>
      </trkpt>
      <trkpt lat="48.05559" lon="7.15446">
        <ele>620</ele>
        <time>2014-09-03T14:16:57Z</time>
      </trkpt>
      <trkpt lat="48.05548" lon="7.15429">
        <ele>619</ele>
        <time>2014-09-03T14:17:00Z</time>
      </trkpt>
      <trkpt lat="48.05537" lon="7.15413">
        <ele>621</ele>
        <time>2014-09-03T14:17:04Z</time>
      </trkpt>
      <trkpt lat="48.05534" lon="7.15421">
        <ele>616</ele>
        <time>2014-09-03T14:17:09Z</time>
      </trkpt>
      <trkpt lat="48.0553" lon="7.15455">
        <ele>611</ele>
        <time>2014-09-03T14:17:14Z</time>
      </trkpt>
      <trkpt lat="48.0553" lon="7.1549">
        <ele>605</ele>
        <time>2014-09-03T14:17:18Z</time>
      </trkpt>
      <trkpt lat="48.05529" lon="7.15525">
        <ele>602</ele>
        <time>2014-09-03T14:17:22Z</time>
      </trkpt>
      <trkpt lat="48.05524" lon="7.15562">
        <ele>601</ele>
        <time>2014-09-03T14:17:26Z</time>
      </trkpt>
      <trkpt lat="48.05511" lon="7.15583">
        <ele>600</ele>
        <time>2014-09-03T14:17:30Z</time>
      </trkpt>
      <trkpt lat="48.055" lon="7.15605">
        <ele>599</ele>
        <time>2014-09-03T14:17:35Z</time>
      </trkpt>
      <trkpt lat="48.05495" lon="7.15609">
        <ele>597</ele>
        <time>2014-09-03T14:18:17Z</time>
      </trkpt>
      <trkpt lat="48.05486" lon="7.1563">
        <ele>586</ele>
        <time>2014-09-03T14:18:21Z</time>
      </trkpt>
      <trkpt lat="48.05477" lon="7.15677">
        <ele>582</ele>
        <time>2014-09-03T14:18:25Z</time>
      </trkpt>
      <trkpt lat="48.05472" lon="7.15715">
        <ele>580</ele>
        <time>2014-09-03T14:18:30Z</time>
      </trkpt>
      <trkpt lat="48.05477" lon="7.1575">
        <ele>577</ele>
        <time>2014-09-03T14:18:34Z</time>
      </trkpt>
      <trkpt lat="48.05478" lon="7.15786">
        <ele>576</ele>
        <time>2014-09-03T14:18:37Z</time>
      </trkpt>
      <trkpt lat="48.0546" lon="7.15801">
        <ele>571</ele>
        <time>2014-09-03T14:18:40Z</time>
      </trkpt>
      <trkpt lat="48.05414" lon="7.15812">
        <ele>563</ele>
        <time>2014-09-03T14:18:45Z</time>
      </trkpt>
      <trkpt lat="48.05385" lon="7.15818">
        <ele>557</ele>
        <time>2014-09-03T14:18:49Z</time>
      </trkpt>
      <trkpt lat="48.0536" lon="7.15827">
        <ele>546</ele>
        <time>2014-09-03T14:18:53Z</time>
      </trkpt>
      <trkpt lat="48.05331" lon="7.15832">
        <ele>540</ele>
        <time>2014-09-03T14:18:56Z</time>
      </trkpt>
      <trkpt lat="48.05318" lon="7.15833">
        <ele>537</ele>
        <time>2014-09-03T14:19:01Z</time>
      </trkpt>
      <trkpt lat="48.05313" lon="7.1584">
        <ele>536</ele>
        <time>2014-09-03T14:19:26Z</time>
      </trkpt>
      <trkpt lat="48.0529" lon="7.15844">
        <ele>533</ele>
        <time>2014-09-03T14:19:30Z</time>
      </trkpt>
      <trkpt lat="48.05276" lon="7.15856">
        <ele>529</ele>
        <time>2014-09-03T14:19:34Z</time>
      </trkpt>
      <trkpt lat="48.05219" lon="7.1588">
        <ele>525</ele>
        <time>2014-09-03T14:19:41Z</time>
      </trkpt>
      <trkpt lat="48.05207" lon="7.15901">
        <ele>522</ele>
        <time>2014-09-03T14:19:45Z</time>
      </trkpt>
      <trkpt lat="48.05197" lon="7.15919">
        <ele>517</ele>
        <time>2014-09-03T14:19:48Z</time>
      </trkpt>
      <trkpt lat="48.05186" lon="7.15916">
        <ele>514</ele>
        <time>2014-09-03T14:19:52Z</time>
      </trkpt>
      <trkpt lat="48.05177" lon="7.15916">
        <ele>514</ele>
        <time>2014-09-03T14:19:59Z</time>
      </trkpt>
      <trkpt lat="48.0517" lon="7.15913">
        <ele>514</ele>
        <time>2014-09-03T14:20:14Z</time>
      </trkpt>
      <trkpt lat="48.05138" lon="7.15914">
        <ele>506</ele>
        <time>2014-09-03T14:20:19Z</time>
      </trkpt>
      <trkpt lat="48.05103" lon="7.15928">
        <ele>502</ele>
        <time>2014-09-03T14:20:24Z</time>
      </trkpt>
      <trkpt lat="48.05085" lon="7.15946">
        <ele>504</ele>
        <time>2014-09-03T14:20:28Z</time>
      </trkpt>
      <trkpt lat="48.05064" lon="7.15967">
        <ele>499</ele>
        <time>2014-09-03T14:20:33Z</time>
      </trkpt>
      <trkpt lat="48.05063" lon="7.15979">
        <ele>500</ele>
        <time>2014-09-03T14:20:42Z</time>
      </trkpt>
      <trkpt lat="48.05062" lon="7.15989">
        <ele>500</ele>
        <time>2014-09-03T14:20:47Z</time>
      </trkpt>
      <trkpt lat="48.0506" lon="7.16012">
        <ele>505</ele>
        <time>2014-09-03T14:20:51Z</time>
      </trkpt>
      <trkpt lat="48.05059" lon="7.16053">
        <ele>503</ele>
        <time>2014-09-03T14:20:56Z</time>
      </trkpt>
      <trkpt lat="48.0506" lon="7.16099">
        <ele>499</ele>
        <time>2014-09-03T14:21:00Z</time>
      </trkpt>
      <trkpt lat="48.05078" lon="7.16158">
        <ele>494</ele>
        <time>2014-09-03T14:21:05Z</time>
      </trkpt>
      <trkpt lat="48.05101" lon="7.16188">
        <ele>491</ele>
        <time>2014-09-03T14:21:09Z</time>
      </trkpt>
      <trkpt lat="48.05119" lon="7.16224">
        <ele>483</ele>
        <time>2014-09-03T14:21:13Z</time>
      </trkpt>
      <trkpt lat="48.05111" lon="7.16257">
        <ele>481</ele>
        <time>2014-09-03T14:21:18Z</time>
      </trkpt>
      <trkpt lat="48.05099" lon="7.16276">
        <ele>484</ele>
        <time>2014-09-03T14:21:22Z</time>
      </trkpt>
      <trkpt lat="48.05088" lon="7.16313">
        <ele>479</ele>
        <time>2014-09-03T14:21:27Z</time>
      </trkpt>
      <trkpt lat="48.05076" lon="7.16365">
        <ele>478</ele>
        <time>2014-09-03T14:21:31Z</time>
      </trkpt>
      <trkpt lat="48.05072" lon="7.16399">
        <ele>476</ele>
        <time>2014-09-03T14:21:36Z</time>
      </trkpt>
      <trkpt lat="48.05055" lon="7.1642">
        <ele>475</ele>
        <time>2014-09-03T14:21:41Z</time>
      </trkpt>
      <trkpt lat="48.0504" lon="7.16452">
        <ele>475</ele>
        <time>2014-09-03T14:21:45Z</time>
      </trkpt>
      <trkpt lat="48.05019" lon="7.16488">
        <ele>471</ele>
        <time>2014-09-03T14:21:49Z</time>
      </trkpt>
      <trkpt lat="48.04994" lon="7.1651">
        <ele>474</ele>
        <time>2014-09-03T14:21:54Z</time>
      </trkpt>
      <trkpt lat="48.04982" lon="7.16521">
        <ele>474</ele>
        <time>2014-09-03T14:21:57Z</time>
      </trkpt>
      <trkpt lat="48.04964" lon="7.16529">
        <ele>477</ele>
        <time>2014-09-03T14:22:00Z</time>
      </trkpt>
      <trkpt lat="48.04953" lon="7.1654">
        <ele>476</ele>
        <time>2014-09-03T14:22:03Z</time>
      </trkpt>
      <trkpt lat="48.04946" lon="7.16553">
        <ele>473</ele>
        <time>2014-09-03T14:22:07Z</time>
      </trkpt>
      <trkpt lat="48.04936" lon="7.16558">
        <ele>474</ele>
        <time>2014-09-03T14:22:11Z</time>
      </trkpt>
      <trkpt lat="48.04932" lon="7.16563">
        <ele>473</ele>
        <time>2014-09-03T14:22:15Z</time>
      </trkpt>
      <trkpt lat="48.04922" lon="7.16589">
        <ele>468</ele>
        <time>2014-09-03T14:22:19Z</time>
      </trkpt>
      <trkpt lat="48.04921" lon="7.16634">
        <ele>462</ele>
        <time>2014-09-03T14:22:22Z</time>
      </trkpt>
      <trkpt lat="48.04926" lon="7.16671">
        <ele>460</ele>
        <time>2014-09-03T14:22:26Z</time>
      </trkpt>
      <trkpt lat="48.04929" lon="7.16711">
        <ele>456</ele>
        <time>2014-09-03T14:22:29Z</time>
      </trkpt>
      <trkpt lat="48.0491" lon="7.16738">
        <ele>458</ele>
        <time>2014-09-03T14:22:33Z</time>
      </trkpt>
      <trkpt lat="48.04889" lon="7.16754">
        <ele>453</ele>
        <time>2014-09-03T14:22:37Z</time>
      </trkpt>
      <trkpt lat="48.04871" lon="7.16764">
        <ele>449</ele>
        <time>2014-09-03T14:22:41Z</time>
      </trkpt>
      <trkpt lat="48.04874" lon="7.16785">
        <ele>449</ele>
        <time>2014-09-03T14:22:46Z</time>
      </trkpt>
      <trkpt lat="48.04876" lon="7.16796">
        <ele>447</ele>
        <time>2014-09-03T14:22:49Z</time>
      </trkpt>
      <trkpt lat="48.04879" lon="7.16815">
        <ele>447</ele>
        <time>2014-09-03T14:22:54Z</time>
      </trkpt>
      <trkpt lat="48.04883" lon="7.1683">
        <ele>446</ele>
        <time>2014-09-03T14:22:58Z</time>
      </trkpt>
      <trkpt lat="48.04888" lon="7.16851">
        <ele>444</ele>
        <time>2014-09-03T14:23:03Z</time>
      </trkpt>
      <trkpt lat="48.0489" lon="7.16865">
        <ele>442</ele>
        <time>2014-09-03T14:23:06Z</time>
      </trkpt>
      <trkpt lat="48.04895" lon="7.16888">
        <ele>442</ele>
        <time>2014-09-03T14:23:10Z</time>
      </trkpt>
      <trkpt lat="48.04904" lon="7.16929">
        <ele>438</ele>
        <time>2014-09-03T14:23:15Z</time>
      </trkpt>
      <trkpt lat="48.04906" lon="7.16947">
        <ele>437</ele>
        <time>2014-09-03T14:23:18Z</time>
      </trkpt>
      <trkpt lat="48.04906" lon="7.16976">
        <ele>436</ele>
        <time>2014-09-03T14:23:22Z</time>
      </trkpt>
      <trkpt lat="48.04905" lon="7.17007">
        <ele>429</ele>
        <time>2014-09-03T14:23:27Z</time>
      </trkpt>
      <trkpt lat="48.04917" lon="7.17051">
        <ele>425</ele>
        <time>2014-09-03T14:23:32Z</time>
      </trkpt>
      <trkpt lat="48.04923" lon="7.17108">
        <ele>418</ele>
        <time>2014-09-03T14:23:37Z</time>
      </trkpt>
      <trkpt lat="48.04918" lon="7.17135">
        <ele>414</ele>
        <time>2014-09-03T14:23:40Z</time>
      </trkpt>
      <trkpt lat="48.04902" lon="7.17179">
        <ele>408</ele>
        <time>2014-09-03T14:23:44Z</time>
      </trkpt>
      <trkpt lat="48.04877" lon="7.17208">
        <ele>404</ele>
        <time>2014-09-03T14:23:48Z</time>
      </trkpt>
      <trkpt lat="48.04845" lon="7.17223">
        <ele>398</ele>
        <time>2014-09-03T14:23:51Z</time>
      </trkpt>
      <trkpt lat="48.04821" lon="7.17252">
        <ele>393</ele>
        <time>2014-09-03T14:23:56Z</time>
      </trkpt>
      <trkpt lat="48.04804" lon="7.17275">
        <ele>390</ele>
        <time>2014-09-03T14:24:01Z</time>
      </trkpt>
      <trkpt lat="48.04809" lon="7.17296">
        <ele>388</ele>
        <time>2014-09-03T14:24:05Z</time>
      </trkpt>
      <trkpt lat="48.04827" lon="7.17324">
        <ele>386</ele>
        <time>2014-09-03T14:24:10Z</time>
      </trkpt>
      <trkpt lat="48.04829" lon="7.17355">
        <ele>382</ele>
        <time>2014-09-03T14:24:14Z</time>
      </trkpt>
      <trkpt lat="48.04834" lon="7.17396">
        <ele>381</ele>
        <time>2014-09-03T14:24:18Z</time>
      </trkpt>
      <trkpt lat="48.04851" lon="7.17425">
        <ele>380</ele>
        <time>2014-09-03T14:24:22Z</time>
      </trkpt>
      <trkpt lat="48.04873" lon="7.17443">
        <ele>377</ele>
        <time>2014-09-03T14:24:26Z</time>
      </trkpt>
      <trkpt lat="48.04903" lon="7.17425">
        <ele>370</ele>
        <time>2014-09-03T14:24:31Z</time>
      </trkpt>
      <trkpt lat="48.04916" lon="7.1742">
        <ele>367</ele>
        <time>2014-09-03T14:24:34Z</time>
      </trkpt>
      <trkpt lat="48.0492" lon="7.17452">
        <ele>365</ele>
        <time>2014-09-03T14:24:39Z</time>
      </trkpt>
      <trkpt lat="48.04917" lon="7.17479">
        <ele>363</ele>
        <time>2014-09-03T14:24:43Z</time>
      </trkpt>
      <trkpt lat="48.04895" lon="7.17478">
        <ele>364</ele>
        <time>2014-09-03T14:24:48Z</time>
      </trkpt>
      <trkpt lat="48.04879" lon="7.17488">
        <ele>361</ele>
        <time>2014-09-03T14:24:53Z</time>
      </trkpt>
      <trkpt lat="48.04874" lon="7.17486">
        <ele>361</ele>
        <time>2014-09-03T14:25:41Z</time>
      </trkpt>
      <trkpt lat="48.04832" lon="7.17499">
        <ele>353</ele>
        <time>2014-09-03T14:25:49Z</time>
      </trkpt>
      <trkpt lat="48.04816" lon="7.17511">
        <ele>354</ele>
        <time>2014-09-03T14:25:54Z</time>
      </trkpt>
      <trkpt lat="48.048" lon="7.17516">
        <ele>355</ele>
        <time>2014-09-03T14:25:57Z</time>
      </trkpt>
      <trkpt lat="48.04782" lon="7.17517">
        <ele>353</ele>
        <time>2014-09-03T14:26:01Z</time>
      </trkpt>
      <trkpt lat="48.04761" lon="7.17515">
        <ele>354</ele>
        <time>2014-09-03T14:26:06Z</time>
      </trkpt>
      <trkpt lat="48.04742" lon="7.17526">
        <ele>353</ele>
        <time>2014-09-03T14:26:10Z</time>
      </trkpt>
      <trkpt lat="48.04729" lon="7.17532">
        <ele>352</ele>
        <time>2014-09-03T14:26:14Z</time>
      </trkpt>
      <trkpt lat="48.04708" lon="7.1753">
        <ele>351</ele>
        <time>2014-09-03T14:26:19Z</time>
      </trkpt>
      <trkpt lat="48.04692" lon="7.17528">
        <ele>350</ele>
        <time>2014-09-03T14:26:24Z</time>
      </trkpt>
      <trkpt lat="48.04685" lon="7.1753">
        <ele>348</ele>
        <time>2014-09-03T14:26:27Z</time>
      </trkpt>
      <trkpt lat="48.04674" lon="7.17539">
        <ele>345</ele>
        <time>2014-09-03T14:26:31Z</time>
      </trkpt>
      <trkpt lat="48.04668" lon="7.17536">
        <ele>346</ele>
        <time>2014-09-03T14:26:36Z</time>
      </trkpt>
      <trkpt lat="48.04646" lon="7.17519">
        <ele>348</ele>
        <time>2014-09-03T14:26:44Z</time>
      </trkpt>
      <trkpt lat="48.04647" lon="7.17531">
        <ele>347</ele>
        <time>2014-09-03T14:34:09Z</time>
      </trkpt>
    </trkseg>
  </trk>
</gpx>